<?xml version="1.0" encoding="UTF-8" standalone="no" ?>
<gpx xmlns="http://www.topografix.com/GPX/1/1" xmlns:xsi="http://www.w3.org/2001/XMLSchema-instance" xsi:schemaLocation="http://www.topografix.com/GPX/1/1 http://www.topografix.com/GPX/1/1/gpx.xsd" version="1.1" creator="VisuGPX - https://www.visugpx.com">
  <metadata>
    <name>Col des Contrebandiers - Mont Baron</name>
    <desc><![CDATA[Col des Contrebandiers - Mont Baron]]></desc>
  </metadata>
  <trk>
    <name><![CDATA[20150522_142032]]></name>
    <trkseg>
      <trkpt lat="45.88986" lon="6.19343">
        <ele>1105</ele>
        <time>2015-05-22T14:20:32Z</time>
      </trkpt>
      <trkpt lat="45.88985" lon="6.19343">
        <ele>1105</ele>
        <time>2015-05-22T14:20:33Z</time>
      </trkpt>
      <trkpt lat="45.88985" lon="6.19343">
        <ele>1105</ele>
        <time>2015-05-22T14:20:34Z</time>
      </trkpt>
      <trkpt lat="45.88984" lon="6.19346">
        <ele>1103</ele>
        <time>2015-05-22T14:20:35Z</time>
      </trkpt>
      <trkpt lat="45.88985" lon="6.19344">
        <ele>1105</ele>
        <time>2015-05-22T14:20:36Z</time>
      </trkpt>
      <trkpt lat="45.88986" lon="6.19342">
        <ele>1104</ele>
        <time>2015-05-22T14:20:37Z</time>
      </trkpt>
      <trkpt lat="45.88987" lon="6.19345">
        <ele>1104</ele>
        <time>2015-05-22T14:20:38Z</time>
      </trkpt>
      <trkpt lat="45.88986" lon="6.19345">
        <ele>1104</ele>
        <time>2015-05-22T14:20:39Z</time>
      </trkpt>
      <trkpt lat="45.88987" lon="6.19344">
        <ele>1102</ele>
        <time>2015-05-22T14:20:40Z</time>
      </trkpt>
      <trkpt lat="45.88986" lon="6.19343">
        <ele>1101</ele>
        <time>2015-05-22T14:20:42Z</time>
      </trkpt>
      <trkpt lat="45.88986" lon="6.19343">
        <ele>1102</ele>
        <time>2015-05-22T14:20:43Z</time>
      </trkpt>
      <trkpt lat="45.88986" lon="6.19343">
        <ele>1102</ele>
        <time>2015-05-22T14:20:45Z</time>
      </trkpt>
      <trkpt lat="45.88986" lon="6.19343">
        <ele>1104</ele>
        <time>2015-05-22T14:20:47Z</time>
      </trkpt>
      <trkpt lat="45.88986" lon="6.19343">
        <ele>1103</ele>
        <time>2015-05-22T14:20:49Z</time>
      </trkpt>
      <trkpt lat="45.88986" lon="6.19343">
        <ele>1103</ele>
        <time>2015-05-22T14:20:51Z</time>
      </trkpt>
      <trkpt lat="45.88986" lon="6.19343">
        <ele>1103</ele>
        <time>2015-05-22T14:20:52Z</time>
      </trkpt>
      <trkpt lat="45.88985" lon="6.19343">
        <ele>1102</ele>
        <time>2015-05-22T14:20:53Z</time>
      </trkpt>
      <trkpt lat="45.88985" lon="6.19343">
        <ele>1102</ele>
        <time>2015-05-22T14:20:54Z</time>
      </trkpt>
      <trkpt lat="45.88984" lon="6.19343">
        <ele>1102</ele>
        <time>2015-05-22T14:20:55Z</time>
      </trkpt>
      <trkpt lat="45.88984" lon="6.19342">
        <ele>1101</ele>
        <time>2015-05-22T14:20:56Z</time>
      </trkpt>
      <trkpt lat="45.88984" lon="6.19342">
        <ele>1101</ele>
        <time>2015-05-22T14:20:57Z</time>
      </trkpt>
      <trkpt lat="45.88984" lon="6.19341">
        <ele>1101</ele>
        <time>2015-05-22T14:20:58Z</time>
      </trkpt>
      <trkpt lat="45.88984" lon="6.19341">
        <ele>1101</ele>
        <time>2015-05-22T14:20:59Z</time>
      </trkpt>
      <trkpt lat="45.88984" lon="6.1934">
        <ele>1101</ele>
        <time>2015-05-22T14:21:00Z</time>
      </trkpt>
      <trkpt lat="45.88983" lon="6.1934">
        <ele>1101</ele>
        <time>2015-05-22T14:21:02Z</time>
      </trkpt>
      <trkpt lat="45.88983" lon="6.19341">
        <ele>1101</ele>
        <time>2015-05-22T14:21:04Z</time>
      </trkpt>
      <trkpt lat="45.88983" lon="6.19342">
        <ele>1101</ele>
        <time>2015-05-22T14:21:06Z</time>
      </trkpt>
      <trkpt lat="45.88983" lon="6.19342">
        <ele>1101</ele>
        <time>2015-05-22T14:21:08Z</time>
      </trkpt>
      <trkpt lat="45.88982" lon="6.19341">
        <ele>1101</ele>
        <time>2015-05-22T14:21:10Z</time>
      </trkpt>
      <trkpt lat="45.88982" lon="6.19341">
        <ele>1101</ele>
        <time>2015-05-22T14:21:11Z</time>
      </trkpt>
      <trkpt lat="45.88981" lon="6.19342">
        <ele>1102</ele>
        <time>2015-05-22T14:21:14Z</time>
      </trkpt>
      <trkpt lat="45.8898" lon="6.19343">
        <ele>1100</ele>
        <time>2015-05-22T14:21:15Z</time>
      </trkpt>
      <trkpt lat="45.88979" lon="6.19345">
        <ele>1100</ele>
        <time>2015-05-22T14:21:16Z</time>
      </trkpt>
      <trkpt lat="45.88978" lon="6.19345">
        <ele>1099</ele>
        <time>2015-05-22T14:21:17Z</time>
      </trkpt>
      <trkpt lat="45.88977" lon="6.19345">
        <ele>1099</ele>
        <time>2015-05-22T14:21:18Z</time>
      </trkpt>
      <trkpt lat="45.88977" lon="6.19345">
        <ele>1103</ele>
        <time>2015-05-22T14:21:19Z</time>
      </trkpt>
      <trkpt lat="45.88977" lon="6.19344">
        <ele>1103</ele>
        <time>2015-05-22T14:21:20Z</time>
      </trkpt>
      <trkpt lat="45.88978" lon="6.19342">
        <ele>1103</ele>
        <time>2015-05-22T14:21:22Z</time>
      </trkpt>
      <trkpt lat="45.88977" lon="6.19345">
        <ele>1103</ele>
        <time>2015-05-22T14:21:24Z</time>
      </trkpt>
      <trkpt lat="45.88978" lon="6.19347">
        <ele>1104</ele>
        <time>2015-05-22T14:21:26Z</time>
      </trkpt>
      <trkpt lat="45.88978" lon="6.19347">
        <ele>1103</ele>
        <time>2015-05-22T14:21:28Z</time>
      </trkpt>
      <trkpt lat="45.88977" lon="6.19347">
        <ele>1104</ele>
        <time>2015-05-22T14:21:30Z</time>
      </trkpt>
      <trkpt lat="45.88977" lon="6.19347">
        <ele>1104</ele>
        <time>2015-05-22T14:21:32Z</time>
      </trkpt>
      <trkpt lat="45.88977" lon="6.19347">
        <ele>1104</ele>
        <time>2015-05-22T14:21:34Z</time>
      </trkpt>
      <trkpt lat="45.88977" lon="6.19347">
        <ele>1104</ele>
        <time>2015-05-22T14:21:35Z</time>
      </trkpt>
      <trkpt lat="45.88977" lon="6.19347">
        <ele>1104</ele>
        <time>2015-05-22T14:21:36Z</time>
      </trkpt>
      <trkpt lat="45.88977" lon="6.19347">
        <ele>1104</ele>
        <time>2015-05-22T14:21:37Z</time>
      </trkpt>
      <trkpt lat="45.88977" lon="6.19347">
        <ele>1104</ele>
        <time>2015-05-22T14:21:38Z</time>
      </trkpt>
      <trkpt lat="45.88977" lon="6.19347">
        <ele>1104</ele>
        <time>2015-05-22T14:21:39Z</time>
      </trkpt>
      <trkpt lat="45.88977" lon="6.19347">
        <ele>1104</ele>
        <time>2015-05-22T14:21:40Z</time>
      </trkpt>
      <trkpt lat="45.88977" lon="6.19347">
        <ele>1104</ele>
        <time>2015-05-22T14:21:42Z</time>
      </trkpt>
      <trkpt lat="45.88977" lon="6.19347">
        <ele>1104</ele>
        <time>2015-05-22T14:21:44Z</time>
      </trkpt>
      <trkpt lat="45.88977" lon="6.19347">
        <ele>1104</ele>
        <time>2015-05-22T14:21:46Z</time>
      </trkpt>
      <trkpt lat="45.88977" lon="6.19347">
        <ele>1104</ele>
        <time>2015-05-22T14:21:48Z</time>
      </trkpt>
      <trkpt lat="45.88977" lon="6.19347">
        <ele>1104</ele>
        <time>2015-05-22T14:21:49Z</time>
      </trkpt>
      <trkpt lat="45.88977" lon="6.19347">
        <ele>1104</ele>
        <time>2015-05-22T14:21:50Z</time>
      </trkpt>
      <trkpt lat="45.88977" lon="6.19347">
        <ele>1104</ele>
        <time>2015-05-22T14:21:51Z</time>
      </trkpt>
      <trkpt lat="45.88977" lon="6.19347">
        <ele>1104</ele>
        <time>2015-05-22T14:21:52Z</time>
      </trkpt>
      <trkpt lat="45.88977" lon="6.19347">
        <ele>1104</ele>
        <time>2015-05-22T14:21:53Z</time>
      </trkpt>
      <trkpt lat="45.88977" lon="6.19347">
        <ele>1104</ele>
        <time>2015-05-22T14:21:54Z</time>
      </trkpt>
      <trkpt lat="45.88977" lon="6.19347">
        <ele>1104</ele>
        <time>2015-05-22T14:21:55Z</time>
      </trkpt>
      <trkpt lat="45.88977" lon="6.19347">
        <ele>1104</ele>
        <time>2015-05-22T14:21:56Z</time>
      </trkpt>
      <trkpt lat="45.88977" lon="6.19347">
        <ele>1104</ele>
        <time>2015-05-22T14:21:57Z</time>
      </trkpt>
      <trkpt lat="45.88977" lon="6.19347">
        <ele>1104</ele>
        <time>2015-05-22T14:21:58Z</time>
      </trkpt>
      <trkpt lat="45.88977" lon="6.19347">
        <ele>1104</ele>
        <time>2015-05-22T14:21:59Z</time>
      </trkpt>
      <trkpt lat="45.88977" lon="6.19347">
        <ele>1104</ele>
        <time>2015-05-22T14:22:00Z</time>
      </trkpt>
      <trkpt lat="45.88977" lon="6.19347">
        <ele>1104</ele>
        <time>2015-05-22T14:22:01Z</time>
      </trkpt>
      <trkpt lat="45.88977" lon="6.19347">
        <ele>1104</ele>
        <time>2015-05-22T14:22:02Z</time>
      </trkpt>
      <trkpt lat="45.88977" lon="6.19347">
        <ele>1104</ele>
        <time>2015-05-22T14:22:03Z</time>
      </trkpt>
      <trkpt lat="45.88977" lon="6.19347">
        <ele>1104</ele>
        <time>2015-05-22T14:22:05Z</time>
      </trkpt>
      <trkpt lat="45.88977" lon="6.19347">
        <ele>1104</ele>
        <time>2015-05-22T14:22:06Z</time>
      </trkpt>
      <trkpt lat="45.88977" lon="6.19347">
        <ele>1104</ele>
        <time>2015-05-22T14:22:08Z</time>
      </trkpt>
      <trkpt lat="45.88977" lon="6.19346">
        <ele>1104</ele>
        <time>2015-05-22T14:22:09Z</time>
      </trkpt>
      <trkpt lat="45.88977" lon="6.19346">
        <ele>1104</ele>
        <time>2015-05-22T14:22:10Z</time>
      </trkpt>
      <trkpt lat="45.88977" lon="6.19346">
        <ele>1104</ele>
        <time>2015-05-22T14:22:11Z</time>
      </trkpt>
      <trkpt lat="45.88977" lon="6.19346">
        <ele>1104</ele>
        <time>2015-05-22T14:22:12Z</time>
      </trkpt>
      <trkpt lat="45.88977" lon="6.19346">
        <ele>1104</ele>
        <time>2015-05-22T14:22:13Z</time>
      </trkpt>
      <trkpt lat="45.88977" lon="6.19346">
        <ele>1104</ele>
        <time>2015-05-22T14:22:15Z</time>
      </trkpt>
      <trkpt lat="45.88977" lon="6.19346">
        <ele>1104</ele>
        <time>2015-05-22T14:22:16Z</time>
      </trkpt>
      <trkpt lat="45.88977" lon="6.19346">
        <ele>1104</ele>
        <time>2015-05-22T14:22:17Z</time>
      </trkpt>
      <trkpt lat="45.88977" lon="6.19346">
        <ele>1104</ele>
        <time>2015-05-22T14:22:18Z</time>
      </trkpt>
      <trkpt lat="45.88977" lon="6.19346">
        <ele>1104</ele>
        <time>2015-05-22T14:22:19Z</time>
      </trkpt>
      <trkpt lat="45.88977" lon="6.19346">
        <ele>1104</ele>
        <time>2015-05-22T14:22:20Z</time>
      </trkpt>
      <trkpt lat="45.88977" lon="6.19346">
        <ele>1104</ele>
        <time>2015-05-22T14:22:21Z</time>
      </trkpt>
      <trkpt lat="45.88977" lon="6.19346">
        <ele>1103</ele>
        <time>2015-05-22T14:22:23Z</time>
      </trkpt>
      <trkpt lat="45.88977" lon="6.19346">
        <ele>1103</ele>
        <time>2015-05-22T14:22:24Z</time>
      </trkpt>
      <trkpt lat="45.88978" lon="6.19346">
        <ele>1104</ele>
        <time>2015-05-22T14:22:25Z</time>
      </trkpt>
      <trkpt lat="45.88979" lon="6.19345">
        <ele>1101</ele>
        <time>2015-05-22T14:22:27Z</time>
      </trkpt>
      <trkpt lat="45.88979" lon="6.19343">
        <ele>1105</ele>
        <time>2015-05-22T14:22:29Z</time>
      </trkpt>
      <trkpt lat="45.88982" lon="6.1934">
        <ele>1106</ele>
        <time>2015-05-22T14:22:31Z</time>
      </trkpt>
      <trkpt lat="45.88982" lon="6.1934">
        <ele>1107</ele>
        <time>2015-05-22T14:22:32Z</time>
      </trkpt>
      <trkpt lat="45.88983" lon="6.1934">
        <ele>1109</ele>
        <time>2015-05-22T14:22:33Z</time>
      </trkpt>
      <trkpt lat="45.88983" lon="6.1934">
        <ele>1110</ele>
        <time>2015-05-22T14:22:34Z</time>
      </trkpt>
      <trkpt lat="45.88983" lon="6.1934">
        <ele>1109</ele>
        <time>2015-05-22T14:22:35Z</time>
      </trkpt>
      <trkpt lat="45.88983" lon="6.19339">
        <ele>1109</ele>
        <time>2015-05-22T14:22:37Z</time>
      </trkpt>
      <trkpt lat="45.88983" lon="6.19339">
        <ele>1109</ele>
        <time>2015-05-22T14:22:39Z</time>
      </trkpt>
      <trkpt lat="45.88983" lon="6.19339">
        <ele>1109</ele>
        <time>2015-05-22T14:22:41Z</time>
      </trkpt>
      <trkpt lat="45.88983" lon="6.19339">
        <ele>1108</ele>
        <time>2015-05-22T14:22:43Z</time>
      </trkpt>
      <trkpt lat="45.88983" lon="6.19339">
        <ele>1108</ele>
        <time>2015-05-22T14:22:45Z</time>
      </trkpt>
      <trkpt lat="45.88983" lon="6.19339">
        <ele>1107</ele>
        <time>2015-05-22T14:22:47Z</time>
      </trkpt>
      <trkpt lat="45.88983" lon="6.19339">
        <ele>1107</ele>
        <time>2015-05-22T14:22:49Z</time>
      </trkpt>
      <trkpt lat="45.88984" lon="6.19339">
        <ele>1107</ele>
        <time>2015-05-22T14:22:50Z</time>
      </trkpt>
      <trkpt lat="45.88985" lon="6.1934">
        <ele>1107</ele>
        <time>2015-05-22T14:22:51Z</time>
      </trkpt>
      <trkpt lat="45.88985" lon="6.1934">
        <ele>1107</ele>
        <time>2015-05-22T14:22:52Z</time>
      </trkpt>
      <trkpt lat="45.88985" lon="6.19341">
        <ele>1108</ele>
        <time>2015-05-22T14:22:53Z</time>
      </trkpt>
      <trkpt lat="45.88986" lon="6.19341">
        <ele>1108</ele>
        <time>2015-05-22T14:22:54Z</time>
      </trkpt>
      <trkpt lat="45.88987" lon="6.19343">
        <ele>1109</ele>
        <time>2015-05-22T14:22:55Z</time>
      </trkpt>
      <trkpt lat="45.8899" lon="6.19346">
        <ele>1109</ele>
        <time>2015-05-22T14:22:57Z</time>
      </trkpt>
      <trkpt lat="45.88992" lon="6.19348">
        <ele>1109</ele>
        <time>2015-05-22T14:22:59Z</time>
      </trkpt>
      <trkpt lat="45.88993" lon="6.19348">
        <ele>1108</ele>
        <time>2015-05-22T14:23:00Z</time>
      </trkpt>
      <trkpt lat="45.88994" lon="6.19348">
        <ele>1107</ele>
        <time>2015-05-22T14:23:01Z</time>
      </trkpt>
      <trkpt lat="45.88995" lon="6.19346">
        <ele>1107</ele>
        <time>2015-05-22T14:23:02Z</time>
      </trkpt>
      <trkpt lat="45.88997" lon="6.19348">
        <ele>1107</ele>
        <time>2015-05-22T14:23:04Z</time>
      </trkpt>
      <trkpt lat="45.88999" lon="6.1935">
        <ele>1107</ele>
        <time>2015-05-22T14:23:06Z</time>
      </trkpt>
      <trkpt lat="45.89001" lon="6.19351">
        <ele>1107</ele>
        <time>2015-05-22T14:23:08Z</time>
      </trkpt>
      <trkpt lat="45.89002" lon="6.19352">
        <ele>1108</ele>
        <time>2015-05-22T14:23:09Z</time>
      </trkpt>
      <trkpt lat="45.89004" lon="6.1935">
        <ele>1108</ele>
        <time>2015-05-22T14:23:10Z</time>
      </trkpt>
      <trkpt lat="45.89005" lon="6.19351">
        <ele>1108</ele>
        <time>2015-05-22T14:23:11Z</time>
      </trkpt>
      <trkpt lat="45.89006" lon="6.19353">
        <ele>1109</ele>
        <time>2015-05-22T14:23:12Z</time>
      </trkpt>
      <trkpt lat="45.89007" lon="6.19354">
        <ele>1109</ele>
        <time>2015-05-22T14:23:13Z</time>
      </trkpt>
      <trkpt lat="45.89006" lon="6.19358">
        <ele>1109</ele>
        <time>2015-05-22T14:23:14Z</time>
      </trkpt>
      <trkpt lat="45.89008" lon="6.19359">
        <ele>1109</ele>
        <time>2015-05-22T14:23:15Z</time>
      </trkpt>
      <trkpt lat="45.8901" lon="6.19361">
        <ele>1109</ele>
        <time>2015-05-22T14:23:17Z</time>
      </trkpt>
      <trkpt lat="45.89011" lon="6.19362">
        <ele>1109</ele>
        <time>2015-05-22T14:23:18Z</time>
      </trkpt>
      <trkpt lat="45.89012" lon="6.19363">
        <ele>1110</ele>
        <time>2015-05-22T14:23:19Z</time>
      </trkpt>
      <trkpt lat="45.89013" lon="6.19363">
        <ele>1110</ele>
        <time>2015-05-22T14:23:20Z</time>
      </trkpt>
      <trkpt lat="45.89014" lon="6.19363">
        <ele>1109</ele>
        <time>2015-05-22T14:23:21Z</time>
      </trkpt>
      <trkpt lat="45.89016" lon="6.19363">
        <ele>1109</ele>
        <time>2015-05-22T14:23:22Z</time>
      </trkpt>
      <trkpt lat="45.89016" lon="6.19361">
        <ele>1108</ele>
        <time>2015-05-22T14:23:23Z</time>
      </trkpt>
      <trkpt lat="45.89017" lon="6.19361">
        <ele>1108</ele>
        <time>2015-05-22T14:23:25Z</time>
      </trkpt>
      <trkpt lat="45.89016" lon="6.1936">
        <ele>1107</ele>
        <time>2015-05-22T14:23:26Z</time>
      </trkpt>
      <trkpt lat="45.89016" lon="6.1936">
        <ele>1107</ele>
        <time>2015-05-22T14:23:27Z</time>
      </trkpt>
      <trkpt lat="45.89016" lon="6.1936">
        <ele>1106</ele>
        <time>2015-05-22T14:23:29Z</time>
      </trkpt>
      <trkpt lat="45.89016" lon="6.19359">
        <ele>1106</ele>
        <time>2015-05-22T14:23:30Z</time>
      </trkpt>
      <trkpt lat="45.89016" lon="6.19359">
        <ele>1106</ele>
        <time>2015-05-22T14:23:31Z</time>
      </trkpt>
      <trkpt lat="45.89016" lon="6.19359">
        <ele>1106</ele>
        <time>2015-05-22T14:23:32Z</time>
      </trkpt>
      <trkpt lat="45.89016" lon="6.19359">
        <ele>1106</ele>
        <time>2015-05-22T14:23:33Z</time>
      </trkpt>
      <trkpt lat="45.89016" lon="6.19359">
        <ele>1106</ele>
        <time>2015-05-22T14:23:34Z</time>
      </trkpt>
      <trkpt lat="45.89016" lon="6.19358">
        <ele>1105</ele>
        <time>2015-05-22T14:23:36Z</time>
      </trkpt>
      <trkpt lat="45.89016" lon="6.19357">
        <ele>1105</ele>
        <time>2015-05-22T14:23:38Z</time>
      </trkpt>
      <trkpt lat="45.89016" lon="6.19358">
        <ele>1105</ele>
        <time>2015-05-22T14:23:40Z</time>
      </trkpt>
      <trkpt lat="45.89016" lon="6.19358">
        <ele>1105</ele>
        <time>2015-05-22T14:23:42Z</time>
      </trkpt>
      <trkpt lat="45.89016" lon="6.19358">
        <ele>1105</ele>
        <time>2015-05-22T14:23:44Z</time>
      </trkpt>
      <trkpt lat="45.89016" lon="6.19357">
        <ele>1105</ele>
        <time>2015-05-22T14:23:46Z</time>
      </trkpt>
      <trkpt lat="45.89016" lon="6.19357">
        <ele>1105</ele>
        <time>2015-05-22T14:23:48Z</time>
      </trkpt>
      <trkpt lat="45.89016" lon="6.19357">
        <ele>1105</ele>
        <time>2015-05-22T14:23:49Z</time>
      </trkpt>
      <trkpt lat="45.89016" lon="6.19357">
        <ele>1105</ele>
        <time>2015-05-22T14:23:50Z</time>
      </trkpt>
      <trkpt lat="45.89016" lon="6.19357">
        <ele>1105</ele>
        <time>2015-05-22T14:23:51Z</time>
      </trkpt>
      <trkpt lat="45.89016" lon="6.19357">
        <ele>1105</ele>
        <time>2015-05-22T14:23:52Z</time>
      </trkpt>
      <trkpt lat="45.89016" lon="6.19357">
        <ele>1105</ele>
        <time>2015-05-22T14:23:53Z</time>
      </trkpt>
      <trkpt lat="45.89016" lon="6.19357">
        <ele>1105</ele>
        <time>2015-05-22T14:23:54Z</time>
      </trkpt>
      <trkpt lat="45.89016" lon="6.19357">
        <ele>1105</ele>
        <time>2015-05-22T14:23:56Z</time>
      </trkpt>
      <trkpt lat="45.89016" lon="6.19357">
        <ele>1105</ele>
        <time>2015-05-22T14:23:58Z</time>
      </trkpt>
      <trkpt lat="45.89016" lon="6.19357">
        <ele>1105</ele>
        <time>2015-05-22T14:24:00Z</time>
      </trkpt>
      <trkpt lat="45.89016" lon="6.19357">
        <ele>1105</ele>
        <time>2015-05-22T14:24:02Z</time>
      </trkpt>
      <trkpt lat="45.89016" lon="6.19357">
        <ele>1105</ele>
        <time>2015-05-22T14:24:04Z</time>
      </trkpt>
      <trkpt lat="45.89018" lon="6.1936">
        <ele>1106</ele>
        <time>2015-05-22T14:24:06Z</time>
      </trkpt>
      <trkpt lat="45.89019" lon="6.19362">
        <ele>1105</ele>
        <time>2015-05-22T14:24:08Z</time>
      </trkpt>
      <trkpt lat="45.8902" lon="6.19364">
        <ele>1105</ele>
        <time>2015-05-22T14:24:09Z</time>
      </trkpt>
      <trkpt lat="45.89021" lon="6.19365">
        <ele>1105</ele>
        <time>2015-05-22T14:24:10Z</time>
      </trkpt>
      <trkpt lat="45.89025" lon="6.19361">
        <ele>1103</ele>
        <time>2015-05-22T14:24:11Z</time>
      </trkpt>
      <trkpt lat="45.89026" lon="6.1936">
        <ele>1103</ele>
        <time>2015-05-22T14:24:12Z</time>
      </trkpt>
      <trkpt lat="45.89028" lon="6.19359">
        <ele>1102</ele>
        <time>2015-05-22T14:24:13Z</time>
      </trkpt>
      <trkpt lat="45.89028" lon="6.19359">
        <ele>1103</ele>
        <time>2015-05-22T14:24:14Z</time>
      </trkpt>
      <trkpt lat="45.89029" lon="6.19359">
        <ele>1104</ele>
        <time>2015-05-22T14:24:16Z</time>
      </trkpt>
      <trkpt lat="45.89029" lon="6.1936">
        <ele>1104</ele>
        <time>2015-05-22T14:24:18Z</time>
      </trkpt>
      <trkpt lat="45.8903" lon="6.19361">
        <ele>1104</ele>
        <time>2015-05-22T14:24:20Z</time>
      </trkpt>
      <trkpt lat="45.8903" lon="6.19359">
        <ele>1103</ele>
        <time>2015-05-22T14:24:22Z</time>
      </trkpt>
      <trkpt lat="45.89031" lon="6.19359">
        <ele>1103</ele>
        <time>2015-05-22T14:24:24Z</time>
      </trkpt>
      <trkpt lat="45.89031" lon="6.19359">
        <ele>1103</ele>
        <time>2015-05-22T14:24:26Z</time>
      </trkpt>
      <trkpt lat="45.89031" lon="6.19359">
        <ele>1102</ele>
        <time>2015-05-22T14:24:28Z</time>
      </trkpt>
      <trkpt lat="45.89032" lon="6.19359">
        <ele>1103</ele>
        <time>2015-05-22T14:24:29Z</time>
      </trkpt>
      <trkpt lat="45.89032" lon="6.19359">
        <ele>1103</ele>
        <time>2015-05-22T14:24:30Z</time>
      </trkpt>
      <trkpt lat="45.89032" lon="6.19359">
        <ele>1103</ele>
        <time>2015-05-22T14:24:31Z</time>
      </trkpt>
      <trkpt lat="45.89032" lon="6.19359">
        <ele>1103</ele>
        <time>2015-05-22T14:24:32Z</time>
      </trkpt>
      <trkpt lat="45.89032" lon="6.19359">
        <ele>1103</ele>
        <time>2015-05-22T14:24:33Z</time>
      </trkpt>
      <trkpt lat="45.89032" lon="6.19359">
        <ele>1103</ele>
        <time>2015-05-22T14:24:35Z</time>
      </trkpt>
      <trkpt lat="45.89032" lon="6.19359">
        <ele>1103</ele>
        <time>2015-05-22T14:24:37Z</time>
      </trkpt>
      <trkpt lat="45.89032" lon="6.19359">
        <ele>1103</ele>
        <time>2015-05-22T14:24:39Z</time>
      </trkpt>
      <trkpt lat="45.89032" lon="6.19359">
        <ele>1103</ele>
        <time>2015-05-22T14:24:41Z</time>
      </trkpt>
      <trkpt lat="45.89032" lon="6.19359">
        <ele>1103</ele>
        <time>2015-05-22T14:24:43Z</time>
      </trkpt>
      <trkpt lat="45.89032" lon="6.19359">
        <ele>1103</ele>
        <time>2015-05-22T14:24:45Z</time>
      </trkpt>
      <trkpt lat="45.89032" lon="6.19359">
        <ele>1103</ele>
        <time>2015-05-22T14:24:47Z</time>
      </trkpt>
      <trkpt lat="45.89034" lon="6.19356">
        <ele>1102</ele>
        <time>2015-05-22T14:24:49Z</time>
      </trkpt>
      <trkpt lat="45.89035" lon="6.19356">
        <ele>1102</ele>
        <time>2015-05-22T14:24:50Z</time>
      </trkpt>
      <trkpt lat="45.89036" lon="6.19356">
        <ele>1104</ele>
        <time>2015-05-22T14:24:51Z</time>
      </trkpt>
      <trkpt lat="45.89038" lon="6.19356">
        <ele>1103</ele>
        <time>2015-05-22T14:24:52Z</time>
      </trkpt>
      <trkpt lat="45.89039" lon="6.19355">
        <ele>1102</ele>
        <time>2015-05-22T14:24:53Z</time>
      </trkpt>
      <trkpt lat="45.89041" lon="6.19354">
        <ele>1102</ele>
        <time>2015-05-22T14:24:54Z</time>
      </trkpt>
      <trkpt lat="45.89042" lon="6.19351">
        <ele>1101</ele>
        <time>2015-05-22T14:24:55Z</time>
      </trkpt>
      <trkpt lat="45.89045" lon="6.1935">
        <ele>1100</ele>
        <time>2015-05-22T14:24:56Z</time>
      </trkpt>
      <trkpt lat="45.89048" lon="6.19348">
        <ele>1100</ele>
        <time>2015-05-22T14:24:57Z</time>
      </trkpt>
      <trkpt lat="45.89048" lon="6.19347">
        <ele>1100</ele>
        <time>2015-05-22T14:24:58Z</time>
      </trkpt>
      <trkpt lat="45.89054" lon="6.19345">
        <ele>1097</ele>
        <time>2015-05-22T14:25:00Z</time>
      </trkpt>
      <trkpt lat="45.89059" lon="6.19348">
        <ele>1095</ele>
        <time>2015-05-22T14:25:02Z</time>
      </trkpt>
      <trkpt lat="45.89064" lon="6.19348">
        <ele>1095</ele>
        <time>2015-05-22T14:25:04Z</time>
      </trkpt>
      <trkpt lat="45.89066" lon="6.19348">
        <ele>1094</ele>
        <time>2015-05-22T14:25:05Z</time>
      </trkpt>
      <trkpt lat="45.8907" lon="6.1935">
        <ele>1095</ele>
        <time>2015-05-22T14:25:08Z</time>
      </trkpt>
      <trkpt lat="45.89072" lon="6.19352">
        <ele>1097</ele>
        <time>2015-05-22T14:25:09Z</time>
      </trkpt>
      <trkpt lat="45.89072" lon="6.19353">
        <ele>1097</ele>
        <time>2015-05-22T14:25:10Z</time>
      </trkpt>
      <trkpt lat="45.89073" lon="6.19355">
        <ele>1097</ele>
        <time>2015-05-22T14:25:11Z</time>
      </trkpt>
      <trkpt lat="45.89073" lon="6.19357">
        <ele>1097</ele>
        <time>2015-05-22T14:25:12Z</time>
      </trkpt>
      <trkpt lat="45.89074" lon="6.19355">
        <ele>1096</ele>
        <time>2015-05-22T14:25:13Z</time>
      </trkpt>
      <trkpt lat="45.89078" lon="6.19352">
        <ele>1095</ele>
        <time>2015-05-22T14:25:14Z</time>
      </trkpt>
      <trkpt lat="45.89079" lon="6.1935">
        <ele>1095</ele>
        <time>2015-05-22T14:25:15Z</time>
      </trkpt>
      <trkpt lat="45.89082" lon="6.19349">
        <ele>1095</ele>
        <time>2015-05-22T14:25:16Z</time>
      </trkpt>
      <trkpt lat="45.89082" lon="6.19351">
        <ele>1096</ele>
        <time>2015-05-22T14:25:17Z</time>
      </trkpt>
      <trkpt lat="45.89084" lon="6.19349">
        <ele>1096</ele>
        <time>2015-05-22T14:25:18Z</time>
      </trkpt>
      <trkpt lat="45.89086" lon="6.1935">
        <ele>1095</ele>
        <time>2015-05-22T14:25:19Z</time>
      </trkpt>
      <trkpt lat="45.89089" lon="6.19348">
        <ele>1097</ele>
        <time>2015-05-22T14:25:21Z</time>
      </trkpt>
      <trkpt lat="45.8909" lon="6.19347">
        <ele>1096</ele>
        <time>2015-05-22T14:25:23Z</time>
      </trkpt>
      <trkpt lat="45.89093" lon="6.19345">
        <ele>1097</ele>
        <time>2015-05-22T14:25:25Z</time>
      </trkpt>
      <trkpt lat="45.89094" lon="6.19342">
        <ele>1097</ele>
        <time>2015-05-22T14:25:27Z</time>
      </trkpt>
      <trkpt lat="45.89099" lon="6.1934">
        <ele>1097</ele>
        <time>2015-05-22T14:25:29Z</time>
      </trkpt>
      <trkpt lat="45.89101" lon="6.19338">
        <ele>1099</ele>
        <time>2015-05-22T14:25:30Z</time>
      </trkpt>
      <trkpt lat="45.89102" lon="6.19337">
        <ele>1099</ele>
        <time>2015-05-22T14:25:31Z</time>
      </trkpt>
      <trkpt lat="45.89102" lon="6.1934">
        <ele>1095</ele>
        <time>2015-05-22T14:25:32Z</time>
      </trkpt>
      <trkpt lat="45.89102" lon="6.1934">
        <ele>1096</ele>
        <time>2015-05-22T14:25:33Z</time>
      </trkpt>
      <trkpt lat="45.89103" lon="6.19338">
        <ele>1097</ele>
        <time>2015-05-22T14:25:34Z</time>
      </trkpt>
      <trkpt lat="45.89105" lon="6.19338">
        <ele>1098</ele>
        <time>2015-05-22T14:25:35Z</time>
      </trkpt>
      <trkpt lat="45.89105" lon="6.19342">
        <ele>1100</ele>
        <time>2015-05-22T14:25:37Z</time>
      </trkpt>
      <trkpt lat="45.89105" lon="6.1934">
        <ele>1099</ele>
        <time>2015-05-22T14:25:39Z</time>
      </trkpt>
      <trkpt lat="45.89107" lon="6.1934">
        <ele>1101</ele>
        <time>2015-05-22T14:25:41Z</time>
      </trkpt>
      <trkpt lat="45.89109" lon="6.19341">
        <ele>1102</ele>
        <time>2015-05-22T14:25:43Z</time>
      </trkpt>
      <trkpt lat="45.89111" lon="6.19342">
        <ele>1103</ele>
        <time>2015-05-22T14:25:45Z</time>
      </trkpt>
      <trkpt lat="45.89112" lon="6.19341">
        <ele>1102</ele>
        <time>2015-05-22T14:25:46Z</time>
      </trkpt>
      <trkpt lat="45.89114" lon="6.19341">
        <ele>1102</ele>
        <time>2015-05-22T14:25:47Z</time>
      </trkpt>
      <trkpt lat="45.89116" lon="6.19338">
        <ele>1102</ele>
        <time>2015-05-22T14:25:48Z</time>
      </trkpt>
      <trkpt lat="45.89119" lon="6.19344">
        <ele>1106</ele>
        <time>2015-05-22T14:25:49Z</time>
      </trkpt>
      <trkpt lat="45.89122" lon="6.19343">
        <ele>1108</ele>
        <time>2015-05-22T14:25:50Z</time>
      </trkpt>
      <trkpt lat="45.89121" lon="6.1934">
        <ele>1106</ele>
        <time>2015-05-22T14:25:51Z</time>
      </trkpt>
      <trkpt lat="45.89123" lon="6.19344">
        <ele>1107</ele>
        <time>2015-05-22T14:25:52Z</time>
      </trkpt>
      <trkpt lat="45.89124" lon="6.19344">
        <ele>1106</ele>
        <time>2015-05-22T14:25:53Z</time>
      </trkpt>
      <trkpt lat="45.89124" lon="6.19346">
        <ele>1106</ele>
        <time>2015-05-22T14:25:54Z</time>
      </trkpt>
      <trkpt lat="45.89125" lon="6.19344">
        <ele>1107</ele>
        <time>2015-05-22T14:25:55Z</time>
      </trkpt>
      <trkpt lat="45.89127" lon="6.19342">
        <ele>1107</ele>
        <time>2015-05-22T14:25:57Z</time>
      </trkpt>
      <trkpt lat="45.89128" lon="6.19341">
        <ele>1107</ele>
        <time>2015-05-22T14:25:59Z</time>
      </trkpt>
      <trkpt lat="45.89128" lon="6.19341">
        <ele>1108</ele>
        <time>2015-05-22T14:26:01Z</time>
      </trkpt>
      <trkpt lat="45.89128" lon="6.1934">
        <ele>1107</ele>
        <time>2015-05-22T14:26:03Z</time>
      </trkpt>
      <trkpt lat="45.89128" lon="6.1934">
        <ele>1107</ele>
        <time>2015-05-22T14:26:05Z</time>
      </trkpt>
      <trkpt lat="45.89128" lon="6.1934">
        <ele>1107</ele>
        <time>2015-05-22T14:26:07Z</time>
      </trkpt>
      <trkpt lat="45.89129" lon="6.19339">
        <ele>1106</ele>
        <time>2015-05-22T14:26:09Z</time>
      </trkpt>
      <trkpt lat="45.89129" lon="6.19339">
        <ele>1106</ele>
        <time>2015-05-22T14:26:10Z</time>
      </trkpt>
      <trkpt lat="45.89129" lon="6.19339">
        <ele>1106</ele>
        <time>2015-05-22T14:26:11Z</time>
      </trkpt>
      <trkpt lat="45.89129" lon="6.19339">
        <ele>1106</ele>
        <time>2015-05-22T14:26:12Z</time>
      </trkpt>
      <trkpt lat="45.89129" lon="6.19339">
        <ele>1106</ele>
        <time>2015-05-22T14:26:13Z</time>
      </trkpt>
      <trkpt lat="45.89129" lon="6.19339">
        <ele>1106</ele>
        <time>2015-05-22T14:26:14Z</time>
      </trkpt>
      <trkpt lat="45.89129" lon="6.19339">
        <ele>1106</ele>
        <time>2015-05-22T14:26:15Z</time>
      </trkpt>
      <trkpt lat="45.89129" lon="6.19339">
        <ele>1106</ele>
        <time>2015-05-22T14:26:17Z</time>
      </trkpt>
      <trkpt lat="45.89129" lon="6.19339">
        <ele>1106</ele>
        <time>2015-05-22T14:26:19Z</time>
      </trkpt>
      <trkpt lat="45.89133" lon="6.19336">
        <ele>1104</ele>
        <time>2015-05-22T14:26:21Z</time>
      </trkpt>
      <trkpt lat="45.89135" lon="6.19329">
        <ele>1102</ele>
        <time>2015-05-22T14:26:23Z</time>
      </trkpt>
      <trkpt lat="45.89138" lon="6.19327">
        <ele>1104</ele>
        <time>2015-05-22T14:26:25Z</time>
      </trkpt>
      <trkpt lat="45.89141" lon="6.19327">
        <ele>1103</ele>
        <time>2015-05-22T14:26:26Z</time>
      </trkpt>
      <trkpt lat="45.89144" lon="6.19322">
        <ele>1103</ele>
        <time>2015-05-22T14:26:29Z</time>
      </trkpt>
      <trkpt lat="45.89146" lon="6.1932">
        <ele>1103</ele>
        <time>2015-05-22T14:26:30Z</time>
      </trkpt>
      <trkpt lat="45.89147" lon="6.1932">
        <ele>1105</ele>
        <time>2015-05-22T14:26:31Z</time>
      </trkpt>
      <trkpt lat="45.8915" lon="6.1932">
        <ele>1105</ele>
        <time>2015-05-22T14:26:32Z</time>
      </trkpt>
      <trkpt lat="45.89152" lon="6.19323">
        <ele>1104</ele>
        <time>2015-05-22T14:26:33Z</time>
      </trkpt>
      <trkpt lat="45.89156" lon="6.19326">
        <ele>1103</ele>
        <time>2015-05-22T14:26:34Z</time>
      </trkpt>
      <trkpt lat="45.89156" lon="6.19324">
        <ele>1105</ele>
        <time>2015-05-22T14:26:35Z</time>
      </trkpt>
      <trkpt lat="45.89159" lon="6.19324">
        <ele>1109</ele>
        <time>2015-05-22T14:26:37Z</time>
      </trkpt>
      <trkpt lat="45.89163" lon="6.19322">
        <ele>1109</ele>
        <time>2015-05-22T14:26:39Z</time>
      </trkpt>
      <trkpt lat="45.89164" lon="6.19321">
        <ele>1109</ele>
        <time>2015-05-22T14:26:41Z</time>
      </trkpt>
      <trkpt lat="45.89166" lon="6.19323">
        <ele>1113</ele>
        <time>2015-05-22T14:26:43Z</time>
      </trkpt>
      <trkpt lat="45.89169" lon="6.19322">
        <ele>1112</ele>
        <time>2015-05-22T14:26:45Z</time>
      </trkpt>
      <trkpt lat="45.89171" lon="6.19322">
        <ele>1113</ele>
        <time>2015-05-22T14:26:47Z</time>
      </trkpt>
      <trkpt lat="45.89172" lon="6.1932">
        <ele>1115</ele>
        <time>2015-05-22T14:26:49Z</time>
      </trkpt>
      <trkpt lat="45.89174" lon="6.19318">
        <ele>1117</ele>
        <time>2015-05-22T14:26:50Z</time>
      </trkpt>
      <trkpt lat="45.89174" lon="6.19317">
        <ele>1116</ele>
        <time>2015-05-22T14:26:51Z</time>
      </trkpt>
      <trkpt lat="45.89176" lon="6.19313">
        <ele>1116</ele>
        <time>2015-05-22T14:26:52Z</time>
      </trkpt>
      <trkpt lat="45.89174" lon="6.19311">
        <ele>1114</ele>
        <time>2015-05-22T14:26:53Z</time>
      </trkpt>
      <trkpt lat="45.89175" lon="6.19312">
        <ele>1114</ele>
        <time>2015-05-22T14:26:54Z</time>
      </trkpt>
      <trkpt lat="45.89174" lon="6.1931">
        <ele>1112</ele>
        <time>2015-05-22T14:26:55Z</time>
      </trkpt>
      <trkpt lat="45.89173" lon="6.19311">
        <ele>1112</ele>
        <time>2015-05-22T14:26:57Z</time>
      </trkpt>
      <trkpt lat="45.89173" lon="6.19311">
        <ele>1112</ele>
        <time>2015-05-22T14:26:59Z</time>
      </trkpt>
      <trkpt lat="45.89173" lon="6.19309">
        <ele>1112</ele>
        <time>2015-05-22T14:27:01Z</time>
      </trkpt>
      <trkpt lat="45.89174" lon="6.19307">
        <ele>1112</ele>
        <time>2015-05-22T14:27:03Z</time>
      </trkpt>
      <trkpt lat="45.89174" lon="6.19306">
        <ele>1113</ele>
        <time>2015-05-22T14:27:05Z</time>
      </trkpt>
      <trkpt lat="45.89174" lon="6.19306">
        <ele>1113</ele>
        <time>2015-05-22T14:27:06Z</time>
      </trkpt>
      <trkpt lat="45.89174" lon="6.19306">
        <ele>1113</ele>
        <time>2015-05-22T14:27:07Z</time>
      </trkpt>
      <trkpt lat="45.89174" lon="6.19306">
        <ele>1113</ele>
        <time>2015-05-22T14:27:08Z</time>
      </trkpt>
      <trkpt lat="45.89174" lon="6.19306">
        <ele>1113</ele>
        <time>2015-05-22T14:27:10Z</time>
      </trkpt>
      <trkpt lat="45.89174" lon="6.19306">
        <ele>1113</ele>
        <time>2015-05-22T14:27:11Z</time>
      </trkpt>
      <trkpt lat="45.89174" lon="6.19306">
        <ele>1113</ele>
        <time>2015-05-22T14:27:12Z</time>
      </trkpt>
      <trkpt lat="45.89174" lon="6.19306">
        <ele>1113</ele>
        <time>2015-05-22T14:27:13Z</time>
      </trkpt>
      <trkpt lat="45.89174" lon="6.19306">
        <ele>1113</ele>
        <time>2015-05-22T14:27:14Z</time>
      </trkpt>
      <trkpt lat="45.89174" lon="6.19306">
        <ele>1113</ele>
        <time>2015-05-22T14:27:15Z</time>
      </trkpt>
      <trkpt lat="45.89174" lon="6.19306">
        <ele>1113</ele>
        <time>2015-05-22T14:27:16Z</time>
      </trkpt>
      <trkpt lat="45.89174" lon="6.19306">
        <ele>1113</ele>
        <time>2015-05-22T14:27:17Z</time>
      </trkpt>
      <trkpt lat="45.89174" lon="6.19306">
        <ele>1113</ele>
        <time>2015-05-22T14:27:18Z</time>
      </trkpt>
      <trkpt lat="45.89174" lon="6.19306">
        <ele>1113</ele>
        <time>2015-05-22T14:27:19Z</time>
      </trkpt>
      <trkpt lat="45.89174" lon="6.19306">
        <ele>1113</ele>
        <time>2015-05-22T14:27:20Z</time>
      </trkpt>
      <trkpt lat="45.89174" lon="6.19306">
        <ele>1113</ele>
        <time>2015-05-22T14:27:21Z</time>
      </trkpt>
      <trkpt lat="45.89174" lon="6.19306">
        <ele>1113</ele>
        <time>2015-05-22T14:27:22Z</time>
      </trkpt>
      <trkpt lat="45.89175" lon="6.19306">
        <ele>1113</ele>
        <time>2015-05-22T14:27:23Z</time>
      </trkpt>
      <trkpt lat="45.89177" lon="6.19304">
        <ele>1113</ele>
        <time>2015-05-22T14:27:24Z</time>
      </trkpt>
      <trkpt lat="45.89175" lon="6.19306">
        <ele>1113</ele>
        <time>2015-05-22T14:27:25Z</time>
      </trkpt>
      <trkpt lat="45.89177" lon="6.193">
        <ele>1112</ele>
        <time>2015-05-22T14:27:26Z</time>
      </trkpt>
      <trkpt lat="45.89179" lon="6.193">
        <ele>1112</ele>
        <time>2015-05-22T14:27:27Z</time>
      </trkpt>
      <trkpt lat="45.89181" lon="6.19301">
        <ele>1112</ele>
        <time>2015-05-22T14:27:28Z</time>
      </trkpt>
      <trkpt lat="45.89183" lon="6.19302">
        <ele>1113</ele>
        <time>2015-05-22T14:27:29Z</time>
      </trkpt>
      <trkpt lat="45.89183" lon="6.19299">
        <ele>1112</ele>
        <time>2015-05-22T14:27:30Z</time>
      </trkpt>
      <trkpt lat="45.89188" lon="6.19296">
        <ele>1115</ele>
        <time>2015-05-22T14:27:32Z</time>
      </trkpt>
      <trkpt lat="45.89189" lon="6.19296">
        <ele>1114</ele>
        <time>2015-05-22T14:27:34Z</time>
      </trkpt>
      <trkpt lat="45.89193" lon="6.19298">
        <ele>1113</ele>
        <time>2015-05-22T14:27:36Z</time>
      </trkpt>
      <trkpt lat="45.89197" lon="6.19293">
        <ele>1113</ele>
        <time>2015-05-22T14:27:38Z</time>
      </trkpt>
      <trkpt lat="45.89201" lon="6.19293">
        <ele>1115</ele>
        <time>2015-05-22T14:27:40Z</time>
      </trkpt>
      <trkpt lat="45.89207" lon="6.19287">
        <ele>1111</ele>
        <time>2015-05-22T14:27:42Z</time>
      </trkpt>
      <trkpt lat="45.89205" lon="6.1929">
        <ele>1115</ele>
        <time>2015-05-22T14:27:44Z</time>
      </trkpt>
      <trkpt lat="45.89206" lon="6.19288">
        <ele>1114</ele>
        <time>2015-05-22T14:27:45Z</time>
      </trkpt>
      <trkpt lat="45.89209" lon="6.19293">
        <ele>1115</ele>
        <time>2015-05-22T14:27:46Z</time>
      </trkpt>
      <trkpt lat="45.89209" lon="6.19294">
        <ele>1118</ele>
        <time>2015-05-22T14:27:47Z</time>
      </trkpt>
      <trkpt lat="45.89211" lon="6.19293">
        <ele>1119</ele>
        <time>2015-05-22T14:27:48Z</time>
      </trkpt>
      <trkpt lat="45.89214" lon="6.1929">
        <ele>1117</ele>
        <time>2015-05-22T14:27:49Z</time>
      </trkpt>
      <trkpt lat="45.89215" lon="6.19289">
        <ele>1117</ele>
        <time>2015-05-22T14:27:50Z</time>
      </trkpt>
      <trkpt lat="45.89218" lon="6.19287">
        <ele>1120</ele>
        <time>2015-05-22T14:27:52Z</time>
      </trkpt>
      <trkpt lat="45.89224" lon="6.19284">
        <ele>1124</ele>
        <time>2015-05-22T14:27:54Z</time>
      </trkpt>
      <trkpt lat="45.89224" lon="6.19286">
        <ele>1125</ele>
        <time>2015-05-22T14:27:56Z</time>
      </trkpt>
      <trkpt lat="45.89218" lon="6.19288">
        <ele>1125</ele>
        <time>2015-05-22T14:27:58Z</time>
      </trkpt>
      <trkpt lat="45.89221" lon="6.19287">
        <ele>1127</ele>
        <time>2015-05-22T14:28:00Z</time>
      </trkpt>
      <trkpt lat="45.89222" lon="6.19286">
        <ele>1126</ele>
        <time>2015-05-22T14:28:02Z</time>
      </trkpt>
      <trkpt lat="45.89224" lon="6.19285">
        <ele>1129</ele>
        <time>2015-05-22T14:28:04Z</time>
      </trkpt>
      <trkpt lat="45.89225" lon="6.19287">
        <ele>1130</ele>
        <time>2015-05-22T14:28:05Z</time>
      </trkpt>
      <trkpt lat="45.89225" lon="6.19286">
        <ele>1128</ele>
        <time>2015-05-22T14:28:06Z</time>
      </trkpt>
      <trkpt lat="45.89226" lon="6.19286">
        <ele>1129</ele>
        <time>2015-05-22T14:28:07Z</time>
      </trkpt>
      <trkpt lat="45.89226" lon="6.19286">
        <ele>1129</ele>
        <time>2015-05-22T14:28:08Z</time>
      </trkpt>
      <trkpt lat="45.89226" lon="6.19286">
        <ele>1128</ele>
        <time>2015-05-22T14:28:09Z</time>
      </trkpt>
      <trkpt lat="45.89226" lon="6.19285">
        <ele>1128</ele>
        <time>2015-05-22T14:28:10Z</time>
      </trkpt>
      <trkpt lat="45.89227" lon="6.19284">
        <ele>1128</ele>
        <time>2015-05-22T14:28:12Z</time>
      </trkpt>
      <trkpt lat="45.89228" lon="6.19284">
        <ele>1128</ele>
        <time>2015-05-22T14:28:14Z</time>
      </trkpt>
      <trkpt lat="45.89228" lon="6.19284">
        <ele>1128</ele>
        <time>2015-05-22T14:28:16Z</time>
      </trkpt>
      <trkpt lat="45.89229" lon="6.19283">
        <ele>1128</ele>
        <time>2015-05-22T14:28:18Z</time>
      </trkpt>
      <trkpt lat="45.89229" lon="6.19284">
        <ele>1128</ele>
        <time>2015-05-22T14:28:20Z</time>
      </trkpt>
      <trkpt lat="45.8923" lon="6.19281">
        <ele>1128</ele>
        <time>2015-05-22T14:28:22Z</time>
      </trkpt>
      <trkpt lat="45.8923" lon="6.19278">
        <ele>1126</ele>
        <time>2015-05-22T14:28:24Z</time>
      </trkpt>
      <trkpt lat="45.89232" lon="6.19277">
        <ele>1126</ele>
        <time>2015-05-22T14:28:25Z</time>
      </trkpt>
      <trkpt lat="45.89232" lon="6.19275">
        <ele>1124</ele>
        <time>2015-05-22T14:28:26Z</time>
      </trkpt>
      <trkpt lat="45.89233" lon="6.19276">
        <ele>1126</ele>
        <time>2015-05-22T14:28:27Z</time>
      </trkpt>
      <trkpt lat="45.89234" lon="6.19275">
        <ele>1125</ele>
        <time>2015-05-22T14:28:28Z</time>
      </trkpt>
      <trkpt lat="45.89235" lon="6.19275">
        <ele>1125</ele>
        <time>2015-05-22T14:28:29Z</time>
      </trkpt>
      <trkpt lat="45.89235" lon="6.19274">
        <ele>1124</ele>
        <time>2015-05-22T14:28:30Z</time>
      </trkpt>
      <trkpt lat="45.89237" lon="6.19273">
        <ele>1122</ele>
        <time>2015-05-22T14:28:32Z</time>
      </trkpt>
      <trkpt lat="45.89237" lon="6.19273">
        <ele>1122</ele>
        <time>2015-05-22T14:28:34Z</time>
      </trkpt>
      <trkpt lat="45.89237" lon="6.19273">
        <ele>1122</ele>
        <time>2015-05-22T14:28:36Z</time>
      </trkpt>
      <trkpt lat="45.89237" lon="6.19273">
        <ele>1122</ele>
        <time>2015-05-22T14:28:37Z</time>
      </trkpt>
      <trkpt lat="45.89237" lon="6.19273">
        <ele>1122</ele>
        <time>2015-05-22T14:28:38Z</time>
      </trkpt>
      <trkpt lat="45.8924" lon="6.19272">
        <ele>1122</ele>
        <time>2015-05-22T14:28:40Z</time>
      </trkpt>
      <trkpt lat="45.89241" lon="6.19271">
        <ele>1123</ele>
        <time>2015-05-22T14:28:41Z</time>
      </trkpt>
      <trkpt lat="45.89242" lon="6.1927">
        <ele>1122</ele>
        <time>2015-05-22T14:28:42Z</time>
      </trkpt>
      <trkpt lat="45.89243" lon="6.19271">
        <ele>1125</ele>
        <time>2015-05-22T14:28:43Z</time>
      </trkpt>
      <trkpt lat="45.89244" lon="6.1927">
        <ele>1125</ele>
        <time>2015-05-22T14:28:45Z</time>
      </trkpt>
      <trkpt lat="45.89245" lon="6.19269">
        <ele>1125</ele>
        <time>2015-05-22T14:28:46Z</time>
      </trkpt>
      <trkpt lat="45.89246" lon="6.19269">
        <ele>1126</ele>
        <time>2015-05-22T14:28:47Z</time>
      </trkpt>
      <trkpt lat="45.89246" lon="6.19269">
        <ele>1126</ele>
        <time>2015-05-22T14:28:48Z</time>
      </trkpt>
      <trkpt lat="45.89247" lon="6.19268">
        <ele>1126</ele>
        <time>2015-05-22T14:28:49Z</time>
      </trkpt>
      <trkpt lat="45.89247" lon="6.19267">
        <ele>1126</ele>
        <time>2015-05-22T14:28:50Z</time>
      </trkpt>
      <trkpt lat="45.89247" lon="6.19267">
        <ele>1126</ele>
        <time>2015-05-22T14:28:52Z</time>
      </trkpt>
      <trkpt lat="45.89247" lon="6.19267">
        <ele>1126</ele>
        <time>2015-05-22T14:28:54Z</time>
      </trkpt>
      <trkpt lat="45.89247" lon="6.19267">
        <ele>1126</ele>
        <time>2015-05-22T14:28:56Z</time>
      </trkpt>
      <trkpt lat="45.89247" lon="6.19267">
        <ele>1126</ele>
        <time>2015-05-22T14:28:58Z</time>
      </trkpt>
      <trkpt lat="45.89247" lon="6.19267">
        <ele>1126</ele>
        <time>2015-05-22T14:29:00Z</time>
      </trkpt>
      <trkpt lat="45.89247" lon="6.19267">
        <ele>1126</ele>
        <time>2015-05-22T14:29:02Z</time>
      </trkpt>
      <trkpt lat="45.89252" lon="6.19265">
        <ele>1127</ele>
        <time>2015-05-22T14:29:04Z</time>
      </trkpt>
      <trkpt lat="45.89253" lon="6.19263">
        <ele>1127</ele>
        <time>2015-05-22T14:29:05Z</time>
      </trkpt>
      <trkpt lat="45.89255" lon="6.19263">
        <ele>1129</ele>
        <time>2015-05-22T14:29:06Z</time>
      </trkpt>
      <trkpt lat="45.89253" lon="6.1926">
        <ele>1124</ele>
        <time>2015-05-22T14:29:07Z</time>
      </trkpt>
      <trkpt lat="45.89255" lon="6.19259">
        <ele>1123</ele>
        <time>2015-05-22T14:29:08Z</time>
      </trkpt>
      <trkpt lat="45.89256" lon="6.19258">
        <ele>1125</ele>
        <time>2015-05-22T14:29:09Z</time>
      </trkpt>
      <trkpt lat="45.89258" lon="6.19255">
        <ele>1125</ele>
        <time>2015-05-22T14:29:10Z</time>
      </trkpt>
      <trkpt lat="45.8926" lon="6.1925">
        <ele>1123</ele>
        <time>2015-05-22T14:29:12Z</time>
      </trkpt>
      <trkpt lat="45.8926" lon="6.19246">
        <ele>1123</ele>
        <time>2015-05-22T14:29:14Z</time>
      </trkpt>
      <trkpt lat="45.89261" lon="6.19245">
        <ele>1122</ele>
        <time>2015-05-22T14:29:16Z</time>
      </trkpt>
      <trkpt lat="45.89262" lon="6.19245">
        <ele>1121</ele>
        <time>2015-05-22T14:29:18Z</time>
      </trkpt>
      <trkpt lat="45.89264" lon="6.19242">
        <ele>1122</ele>
        <time>2015-05-22T14:29:20Z</time>
      </trkpt>
      <trkpt lat="45.89266" lon="6.19241">
        <ele>1123</ele>
        <time>2015-05-22T14:29:22Z</time>
      </trkpt>
      <trkpt lat="45.89266" lon="6.19241">
        <ele>1122</ele>
        <time>2015-05-22T14:29:24Z</time>
      </trkpt>
      <trkpt lat="45.89268" lon="6.19244">
        <ele>1124</ele>
        <time>2015-05-22T14:29:25Z</time>
      </trkpt>
      <trkpt lat="45.8927" lon="6.19245">
        <ele>1126</ele>
        <time>2015-05-22T14:29:26Z</time>
      </trkpt>
      <trkpt lat="45.89271" lon="6.19245">
        <ele>1126</ele>
        <time>2015-05-22T14:29:27Z</time>
      </trkpt>
      <trkpt lat="45.8927" lon="6.19243">
        <ele>1125</ele>
        <time>2015-05-22T14:29:28Z</time>
      </trkpt>
      <trkpt lat="45.8927" lon="6.19243">
        <ele>1126</ele>
        <time>2015-05-22T14:29:29Z</time>
      </trkpt>
      <trkpt lat="45.89272" lon="6.19242">
        <ele>1126</ele>
        <time>2015-05-22T14:29:30Z</time>
      </trkpt>
      <trkpt lat="45.89272" lon="6.19241">
        <ele>1128</ele>
        <time>2015-05-22T14:29:32Z</time>
      </trkpt>
      <trkpt lat="45.89273" lon="6.19239">
        <ele>1128</ele>
        <time>2015-05-22T14:29:34Z</time>
      </trkpt>
      <trkpt lat="45.89273" lon="6.19236">
        <ele>1129</ele>
        <time>2015-05-22T14:29:36Z</time>
      </trkpt>
      <trkpt lat="45.8927" lon="6.19238">
        <ele>1130</ele>
        <time>2015-05-22T14:29:38Z</time>
      </trkpt>
      <trkpt lat="45.89271" lon="6.1924">
        <ele>1133</ele>
        <time>2015-05-22T14:29:40Z</time>
      </trkpt>
      <trkpt lat="45.8927" lon="6.19239">
        <ele>1133</ele>
        <time>2015-05-22T14:29:42Z</time>
      </trkpt>
      <trkpt lat="45.89271" lon="6.19239">
        <ele>1133</ele>
        <time>2015-05-22T14:29:44Z</time>
      </trkpt>
      <trkpt lat="45.8927" lon="6.1924">
        <ele>1133</ele>
        <time>2015-05-22T14:29:45Z</time>
      </trkpt>
      <trkpt lat="45.8927" lon="6.19239">
        <ele>1133</ele>
        <time>2015-05-22T14:29:46Z</time>
      </trkpt>
      <trkpt lat="45.89271" lon="6.1924">
        <ele>1133</ele>
        <time>2015-05-22T14:29:47Z</time>
      </trkpt>
      <trkpt lat="45.89271" lon="6.1924">
        <ele>1133</ele>
        <time>2015-05-22T14:29:48Z</time>
      </trkpt>
      <trkpt lat="45.89271" lon="6.19239">
        <ele>1132</ele>
        <time>2015-05-22T14:29:49Z</time>
      </trkpt>
      <trkpt lat="45.89271" lon="6.19239">
        <ele>1133</ele>
        <time>2015-05-22T14:29:50Z</time>
      </trkpt>
      <trkpt lat="45.89271" lon="6.19239">
        <ele>1133</ele>
        <time>2015-05-22T14:29:52Z</time>
      </trkpt>
      <trkpt lat="45.89271" lon="6.19239">
        <ele>1133</ele>
        <time>2015-05-22T14:29:54Z</time>
      </trkpt>
      <trkpt lat="45.89271" lon="6.19239">
        <ele>1133</ele>
        <time>2015-05-22T14:29:56Z</time>
      </trkpt>
      <trkpt lat="45.89271" lon="6.19239">
        <ele>1133</ele>
        <time>2015-05-22T14:29:58Z</time>
      </trkpt>
      <trkpt lat="45.89271" lon="6.19239">
        <ele>1133</ele>
        <time>2015-05-22T14:30:00Z</time>
      </trkpt>
      <trkpt lat="45.89271" lon="6.19239">
        <ele>1134</ele>
        <time>2015-05-22T14:30:02Z</time>
      </trkpt>
      <trkpt lat="45.89271" lon="6.19239">
        <ele>1134</ele>
        <time>2015-05-22T14:30:04Z</time>
      </trkpt>
      <trkpt lat="45.89271" lon="6.19239">
        <ele>1133</ele>
        <time>2015-05-22T14:30:05Z</time>
      </trkpt>
      <trkpt lat="45.89271" lon="6.19239">
        <ele>1133</ele>
        <time>2015-05-22T14:30:06Z</time>
      </trkpt>
      <trkpt lat="45.89271" lon="6.19239">
        <ele>1133</ele>
        <time>2015-05-22T14:30:07Z</time>
      </trkpt>
      <trkpt lat="45.89271" lon="6.19239">
        <ele>1133</ele>
        <time>2015-05-22T14:30:08Z</time>
      </trkpt>
      <trkpt lat="45.89271" lon="6.19239">
        <ele>1133</ele>
        <time>2015-05-22T14:30:09Z</time>
      </trkpt>
      <trkpt lat="45.89271" lon="6.19239">
        <ele>1133</ele>
        <time>2015-05-22T14:30:10Z</time>
      </trkpt>
      <trkpt lat="45.89271" lon="6.19239">
        <ele>1133</ele>
        <time>2015-05-22T14:30:12Z</time>
      </trkpt>
      <trkpt lat="45.89271" lon="6.19239">
        <ele>1133</ele>
        <time>2015-05-22T14:30:14Z</time>
      </trkpt>
      <trkpt lat="45.89271" lon="6.19239">
        <ele>1133</ele>
        <time>2015-05-22T14:30:16Z</time>
      </trkpt>
      <trkpt lat="45.89271" lon="6.19239">
        <ele>1133</ele>
        <time>2015-05-22T14:30:18Z</time>
      </trkpt>
      <trkpt lat="45.89271" lon="6.19239">
        <ele>1133</ele>
        <time>2015-05-22T14:30:20Z</time>
      </trkpt>
      <trkpt lat="45.89271" lon="6.19239">
        <ele>1133</ele>
        <time>2015-05-22T14:30:21Z</time>
      </trkpt>
      <trkpt lat="45.89271" lon="6.19239">
        <ele>1133</ele>
        <time>2015-05-22T14:30:22Z</time>
      </trkpt>
      <trkpt lat="45.89271" lon="6.19239">
        <ele>1133</ele>
        <time>2015-05-22T14:30:23Z</time>
      </trkpt>
      <trkpt lat="45.89271" lon="6.19239">
        <ele>1133</ele>
        <time>2015-05-22T14:30:24Z</time>
      </trkpt>
      <trkpt lat="45.89271" lon="6.19239">
        <ele>1133</ele>
        <time>2015-05-22T14:30:25Z</time>
      </trkpt>
      <trkpt lat="45.89271" lon="6.19239">
        <ele>1133</ele>
        <time>2015-05-22T14:30:26Z</time>
      </trkpt>
      <trkpt lat="45.89271" lon="6.19239">
        <ele>1133</ele>
        <time>2015-05-22T14:30:27Z</time>
      </trkpt>
      <trkpt lat="45.89271" lon="6.19239">
        <ele>1133</ele>
        <time>2015-05-22T14:30:28Z</time>
      </trkpt>
      <trkpt lat="45.89271" lon="6.19239">
        <ele>1133</ele>
        <time>2015-05-22T14:30:29Z</time>
      </trkpt>
      <trkpt lat="45.89271" lon="6.19239">
        <ele>1133</ele>
        <time>2015-05-22T14:30:30Z</time>
      </trkpt>
      <trkpt lat="45.89271" lon="6.19239">
        <ele>1133</ele>
        <time>2015-05-22T14:30:31Z</time>
      </trkpt>
      <trkpt lat="45.89271" lon="6.19239">
        <ele>1133</ele>
        <time>2015-05-22T14:30:32Z</time>
      </trkpt>
      <trkpt lat="45.89271" lon="6.19239">
        <ele>1133</ele>
        <time>2015-05-22T14:30:33Z</time>
      </trkpt>
      <trkpt lat="45.89271" lon="6.19239">
        <ele>1133</ele>
        <time>2015-05-22T14:30:34Z</time>
      </trkpt>
      <trkpt lat="45.89271" lon="6.19239">
        <ele>1134</ele>
        <time>2015-05-22T14:30:36Z</time>
      </trkpt>
      <trkpt lat="45.89271" lon="6.19239">
        <ele>1133</ele>
        <time>2015-05-22T14:30:37Z</time>
      </trkpt>
      <trkpt lat="45.89271" lon="6.19239">
        <ele>1133</ele>
        <time>2015-05-22T14:30:39Z</time>
      </trkpt>
      <trkpt lat="45.89271" lon="6.19239">
        <ele>1133</ele>
        <time>2015-05-22T14:30:40Z</time>
      </trkpt>
      <trkpt lat="45.89271" lon="6.19239">
        <ele>1134</ele>
        <time>2015-05-22T14:30:41Z</time>
      </trkpt>
      <trkpt lat="45.89271" lon="6.19239">
        <ele>1134</ele>
        <time>2015-05-22T14:30:42Z</time>
      </trkpt>
      <trkpt lat="45.89271" lon="6.19239">
        <ele>1134</ele>
        <time>2015-05-22T14:30:43Z</time>
      </trkpt>
      <trkpt lat="45.89271" lon="6.19239">
        <ele>1134</ele>
        <time>2015-05-22T14:30:44Z</time>
      </trkpt>
      <trkpt lat="45.89271" lon="6.19239">
        <ele>1134</ele>
        <time>2015-05-22T14:30:45Z</time>
      </trkpt>
      <trkpt lat="45.89271" lon="6.19239">
        <ele>1134</ele>
        <time>2015-05-22T14:30:46Z</time>
      </trkpt>
      <trkpt lat="45.89271" lon="6.19239">
        <ele>1134</ele>
        <time>2015-05-22T14:30:47Z</time>
      </trkpt>
      <trkpt lat="45.89271" lon="6.19239">
        <ele>1134</ele>
        <time>2015-05-22T14:30:48Z</time>
      </trkpt>
      <trkpt lat="45.89271" lon="6.19239">
        <ele>1134</ele>
        <time>2015-05-22T14:30:49Z</time>
      </trkpt>
      <trkpt lat="45.89271" lon="6.19239">
        <ele>1134</ele>
        <time>2015-05-22T14:30:50Z</time>
      </trkpt>
      <trkpt lat="45.89271" lon="6.19239">
        <ele>1134</ele>
        <time>2015-05-22T14:30:51Z</time>
      </trkpt>
      <trkpt lat="45.89271" lon="6.19239">
        <ele>1134</ele>
        <time>2015-05-22T14:30:53Z</time>
      </trkpt>
      <trkpt lat="45.89271" lon="6.19239">
        <ele>1134</ele>
        <time>2015-05-22T14:30:55Z</time>
      </trkpt>
      <trkpt lat="45.89271" lon="6.19239">
        <ele>1134</ele>
        <time>2015-05-22T14:30:57Z</time>
      </trkpt>
      <trkpt lat="45.89271" lon="6.19239">
        <ele>1134</ele>
        <time>2015-05-22T14:30:59Z</time>
      </trkpt>
      <trkpt lat="45.89271" lon="6.19239">
        <ele>1134</ele>
        <time>2015-05-22T14:31:01Z</time>
      </trkpt>
      <trkpt lat="45.89271" lon="6.19239">
        <ele>1134</ele>
        <time>2015-05-22T14:31:03Z</time>
      </trkpt>
      <trkpt lat="45.8927" lon="6.19239">
        <ele>1134</ele>
        <time>2015-05-22T14:31:05Z</time>
      </trkpt>
      <trkpt lat="45.89269" lon="6.19238">
        <ele>1135</ele>
        <time>2015-05-22T14:31:06Z</time>
      </trkpt>
      <trkpt lat="45.89267" lon="6.19242">
        <ele>1137</ele>
        <time>2015-05-22T14:31:07Z</time>
      </trkpt>
      <trkpt lat="45.89265" lon="6.19241">
        <ele>1138</ele>
        <time>2015-05-22T14:31:08Z</time>
      </trkpt>
      <trkpt lat="45.89263" lon="6.19237">
        <ele>1137</ele>
        <time>2015-05-22T14:31:09Z</time>
      </trkpt>
      <trkpt lat="45.89262" lon="6.19237">
        <ele>1136</ele>
        <time>2015-05-22T14:31:10Z</time>
      </trkpt>
      <trkpt lat="45.89261" lon="6.19237">
        <ele>1136</ele>
        <time>2015-05-22T14:31:11Z</time>
      </trkpt>
      <trkpt lat="45.89261" lon="6.19239">
        <ele>1139</ele>
        <time>2015-05-22T14:31:13Z</time>
      </trkpt>
      <trkpt lat="45.89262" lon="6.1924">
        <ele>1140</ele>
        <time>2015-05-22T14:31:15Z</time>
      </trkpt>
      <trkpt lat="45.89259" lon="6.19244">
        <ele>1141</ele>
        <time>2015-05-22T14:31:17Z</time>
      </trkpt>
      <trkpt lat="45.89259" lon="6.19243">
        <ele>1142</ele>
        <time>2015-05-22T14:31:19Z</time>
      </trkpt>
      <trkpt lat="45.89256" lon="6.19244">
        <ele>1140</ele>
        <time>2015-05-22T14:31:21Z</time>
      </trkpt>
      <trkpt lat="45.89255" lon="6.19244">
        <ele>1140</ele>
        <time>2015-05-22T14:31:23Z</time>
      </trkpt>
      <trkpt lat="45.89255" lon="6.19247">
        <ele>1141</ele>
        <time>2015-05-22T14:31:25Z</time>
      </trkpt>
      <trkpt lat="45.89255" lon="6.19247">
        <ele>1141</ele>
        <time>2015-05-22T14:31:26Z</time>
      </trkpt>
      <trkpt lat="45.89254" lon="6.19249">
        <ele>1143</ele>
        <time>2015-05-22T14:31:27Z</time>
      </trkpt>
      <trkpt lat="45.89253" lon="6.19251">
        <ele>1145</ele>
        <time>2015-05-22T14:31:28Z</time>
      </trkpt>
      <trkpt lat="45.89254" lon="6.19251">
        <ele>1144</ele>
        <time>2015-05-22T14:31:29Z</time>
      </trkpt>
      <trkpt lat="45.89253" lon="6.19252">
        <ele>1145</ele>
        <time>2015-05-22T14:31:30Z</time>
      </trkpt>
      <trkpt lat="45.89254" lon="6.19253">
        <ele>1147</ele>
        <time>2015-05-22T14:31:31Z</time>
      </trkpt>
      <trkpt lat="45.89253" lon="6.19253">
        <ele>1146</ele>
        <time>2015-05-22T14:31:33Z</time>
      </trkpt>
      <trkpt lat="45.89252" lon="6.19253">
        <ele>1146</ele>
        <time>2015-05-22T14:31:34Z</time>
      </trkpt>
      <trkpt lat="45.89252" lon="6.19255">
        <ele>1147</ele>
        <time>2015-05-22T14:31:35Z</time>
      </trkpt>
      <trkpt lat="45.89251" lon="6.19254">
        <ele>1146</ele>
        <time>2015-05-22T14:31:37Z</time>
      </trkpt>
      <trkpt lat="45.89249" lon="6.19256">
        <ele>1146</ele>
        <time>2015-05-22T14:31:39Z</time>
      </trkpt>
      <trkpt lat="45.89249" lon="6.1926">
        <ele>1148</ele>
        <time>2015-05-22T14:31:41Z</time>
      </trkpt>
      <trkpt lat="45.89247" lon="6.19261">
        <ele>1149</ele>
        <time>2015-05-22T14:31:42Z</time>
      </trkpt>
      <trkpt lat="45.89246" lon="6.19262">
        <ele>1149</ele>
        <time>2015-05-22T14:31:43Z</time>
      </trkpt>
      <trkpt lat="45.89245" lon="6.19264">
        <ele>1149</ele>
        <time>2015-05-22T14:31:44Z</time>
      </trkpt>
      <trkpt lat="45.89244" lon="6.19268">
        <ele>1151</ele>
        <time>2015-05-22T14:31:45Z</time>
      </trkpt>
      <trkpt lat="45.89243" lon="6.19268">
        <ele>1151</ele>
        <time>2015-05-22T14:31:46Z</time>
      </trkpt>
      <trkpt lat="45.89242" lon="6.19267">
        <ele>1150</ele>
        <time>2015-05-22T14:31:47Z</time>
      </trkpt>
      <trkpt lat="45.8924" lon="6.19267">
        <ele>1149</ele>
        <time>2015-05-22T14:31:48Z</time>
      </trkpt>
      <trkpt lat="45.89239" lon="6.19267">
        <ele>1149</ele>
        <time>2015-05-22T14:31:49Z</time>
      </trkpt>
      <trkpt lat="45.89239" lon="6.19269">
        <ele>1149</ele>
        <time>2015-05-22T14:31:50Z</time>
      </trkpt>
      <trkpt lat="45.89239" lon="6.19267">
        <ele>1148</ele>
        <time>2015-05-22T14:31:51Z</time>
      </trkpt>
      <trkpt lat="45.89238" lon="6.19268">
        <ele>1149</ele>
        <time>2015-05-22T14:31:53Z</time>
      </trkpt>
      <trkpt lat="45.89236" lon="6.1927">
        <ele>1151</ele>
        <time>2015-05-22T14:31:55Z</time>
      </trkpt>
      <trkpt lat="45.89234" lon="6.19264">
        <ele>1148</ele>
        <time>2015-05-22T14:31:57Z</time>
      </trkpt>
      <trkpt lat="45.89233" lon="6.19268">
        <ele>1151</ele>
        <time>2015-05-22T14:31:59Z</time>
      </trkpt>
      <trkpt lat="45.89232" lon="6.19265">
        <ele>1149</ele>
        <time>2015-05-22T14:32:01Z</time>
      </trkpt>
      <trkpt lat="45.89232" lon="6.19261">
        <ele>1150</ele>
        <time>2015-05-22T14:32:03Z</time>
      </trkpt>
      <trkpt lat="45.89234" lon="6.19258">
        <ele>1150</ele>
        <time>2015-05-22T14:32:05Z</time>
      </trkpt>
      <trkpt lat="45.89234" lon="6.19258">
        <ele>1150</ele>
        <time>2015-05-22T14:32:06Z</time>
      </trkpt>
      <trkpt lat="45.89235" lon="6.19259">
        <ele>1151</ele>
        <time>2015-05-22T14:32:07Z</time>
      </trkpt>
      <trkpt lat="45.89234" lon="6.19259">
        <ele>1151</ele>
        <time>2015-05-22T14:32:08Z</time>
      </trkpt>
      <trkpt lat="45.89233" lon="6.19259">
        <ele>1150</ele>
        <time>2015-05-22T14:32:09Z</time>
      </trkpt>
      <trkpt lat="45.89233" lon="6.19259">
        <ele>1150</ele>
        <time>2015-05-22T14:32:10Z</time>
      </trkpt>
      <trkpt lat="45.89233" lon="6.19259">
        <ele>1151</ele>
        <time>2015-05-22T14:32:11Z</time>
      </trkpt>
      <trkpt lat="45.89232" lon="6.19258">
        <ele>1149</ele>
        <time>2015-05-22T14:32:13Z</time>
      </trkpt>
      <trkpt lat="45.89232" lon="6.19255">
        <ele>1148</ele>
        <time>2015-05-22T14:32:15Z</time>
      </trkpt>
      <trkpt lat="45.89231" lon="6.19255">
        <ele>1148</ele>
        <time>2015-05-22T14:32:17Z</time>
      </trkpt>
      <trkpt lat="45.8923" lon="6.19254">
        <ele>1148</ele>
        <time>2015-05-22T14:32:19Z</time>
      </trkpt>
      <trkpt lat="45.89228" lon="6.19255">
        <ele>1149</ele>
        <time>2015-05-22T14:32:21Z</time>
      </trkpt>
      <trkpt lat="45.89227" lon="6.19255">
        <ele>1149</ele>
        <time>2015-05-22T14:32:23Z</time>
      </trkpt>
      <trkpt lat="45.89227" lon="6.19254">
        <ele>1149</ele>
        <time>2015-05-22T14:32:25Z</time>
      </trkpt>
      <trkpt lat="45.89227" lon="6.19254">
        <ele>1149</ele>
        <time>2015-05-22T14:32:26Z</time>
      </trkpt>
      <trkpt lat="45.89227" lon="6.19253">
        <ele>1149</ele>
        <time>2015-05-22T14:32:27Z</time>
      </trkpt>
      <trkpt lat="45.89226" lon="6.19252">
        <ele>1149</ele>
        <time>2015-05-22T14:32:28Z</time>
      </trkpt>
      <trkpt lat="45.89226" lon="6.19251">
        <ele>1148</ele>
        <time>2015-05-22T14:32:29Z</time>
      </trkpt>
      <trkpt lat="45.89226" lon="6.19251">
        <ele>1148</ele>
        <time>2015-05-22T14:32:30Z</time>
      </trkpt>
      <trkpt lat="45.89227" lon="6.19248">
        <ele>1148</ele>
        <time>2015-05-22T14:32:31Z</time>
      </trkpt>
      <trkpt lat="45.89228" lon="6.19244">
        <ele>1148</ele>
        <time>2015-05-22T14:32:33Z</time>
      </trkpt>
      <trkpt lat="45.89228" lon="6.19241">
        <ele>1146</ele>
        <time>2015-05-22T14:32:35Z</time>
      </trkpt>
      <trkpt lat="45.89228" lon="6.19237">
        <ele>1146</ele>
        <time>2015-05-22T14:32:37Z</time>
      </trkpt>
      <trkpt lat="45.89228" lon="6.19236">
        <ele>1147</ele>
        <time>2015-05-22T14:32:39Z</time>
      </trkpt>
      <trkpt lat="45.89229" lon="6.19237">
        <ele>1147</ele>
        <time>2015-05-22T14:32:41Z</time>
      </trkpt>
      <trkpt lat="45.8923" lon="6.19236">
        <ele>1148</ele>
        <time>2015-05-22T14:32:43Z</time>
      </trkpt>
      <trkpt lat="45.89231" lon="6.19235">
        <ele>1148</ele>
        <time>2015-05-22T14:32:45Z</time>
      </trkpt>
      <trkpt lat="45.89231" lon="6.19235">
        <ele>1148</ele>
        <time>2015-05-22T14:32:46Z</time>
      </trkpt>
      <trkpt lat="45.89231" lon="6.19235">
        <ele>1148</ele>
        <time>2015-05-22T14:32:47Z</time>
      </trkpt>
      <trkpt lat="45.89231" lon="6.19235">
        <ele>1148</ele>
        <time>2015-05-22T14:32:48Z</time>
      </trkpt>
      <trkpt lat="45.8923" lon="6.19235">
        <ele>1148</ele>
        <time>2015-05-22T14:32:49Z</time>
      </trkpt>
      <trkpt lat="45.89231" lon="6.19235">
        <ele>1148</ele>
        <time>2015-05-22T14:32:50Z</time>
      </trkpt>
      <trkpt lat="45.89231" lon="6.19235">
        <ele>1148</ele>
        <time>2015-05-22T14:32:51Z</time>
      </trkpt>
      <trkpt lat="45.89231" lon="6.19235">
        <ele>1148</ele>
        <time>2015-05-22T14:32:53Z</time>
      </trkpt>
      <trkpt lat="45.89231" lon="6.19235">
        <ele>1148</ele>
        <time>2015-05-22T14:32:55Z</time>
      </trkpt>
      <trkpt lat="45.89231" lon="6.19235">
        <ele>1148</ele>
        <time>2015-05-22T14:32:57Z</time>
      </trkpt>
      <trkpt lat="45.89231" lon="6.19235">
        <ele>1148</ele>
        <time>2015-05-22T14:32:59Z</time>
      </trkpt>
      <trkpt lat="45.89231" lon="6.19235">
        <ele>1148</ele>
        <time>2015-05-22T14:33:00Z</time>
      </trkpt>
      <trkpt lat="45.89231" lon="6.19235">
        <ele>1148</ele>
        <time>2015-05-22T14:33:01Z</time>
      </trkpt>
      <trkpt lat="45.89231" lon="6.19235">
        <ele>1148</ele>
        <time>2015-05-22T14:33:02Z</time>
      </trkpt>
      <trkpt lat="45.89231" lon="6.19235">
        <ele>1148</ele>
        <time>2015-05-22T14:33:04Z</time>
      </trkpt>
      <trkpt lat="45.89231" lon="6.19235">
        <ele>1148</ele>
        <time>2015-05-22T14:33:05Z</time>
      </trkpt>
      <trkpt lat="45.89231" lon="6.19235">
        <ele>1148</ele>
        <time>2015-05-22T14:33:06Z</time>
      </trkpt>
      <trkpt lat="45.89231" lon="6.19235">
        <ele>1148</ele>
        <time>2015-05-22T14:33:07Z</time>
      </trkpt>
      <trkpt lat="45.89231" lon="6.19235">
        <ele>1148</ele>
        <time>2015-05-22T14:33:08Z</time>
      </trkpt>
      <trkpt lat="45.89231" lon="6.19235">
        <ele>1148</ele>
        <time>2015-05-22T14:33:09Z</time>
      </trkpt>
      <trkpt lat="45.89231" lon="6.19235">
        <ele>1148</ele>
        <time>2015-05-22T14:33:10Z</time>
      </trkpt>
      <trkpt lat="45.89231" lon="6.19235">
        <ele>1148</ele>
        <time>2015-05-22T14:33:11Z</time>
      </trkpt>
      <trkpt lat="45.89231" lon="6.19235">
        <ele>1148</ele>
        <time>2015-05-22T14:33:13Z</time>
      </trkpt>
      <trkpt lat="45.89231" lon="6.19235">
        <ele>1148</ele>
        <time>2015-05-22T14:33:15Z</time>
      </trkpt>
      <trkpt lat="45.89231" lon="6.19235">
        <ele>1148</ele>
        <time>2015-05-22T14:33:17Z</time>
      </trkpt>
      <trkpt lat="45.89231" lon="6.19235">
        <ele>1148</ele>
        <time>2015-05-22T14:33:18Z</time>
      </trkpt>
      <trkpt lat="45.89231" lon="6.19235">
        <ele>1148</ele>
        <time>2015-05-22T14:33:20Z</time>
      </trkpt>
      <trkpt lat="45.89231" lon="6.19235">
        <ele>1148</ele>
        <time>2015-05-22T14:33:21Z</time>
      </trkpt>
      <trkpt lat="45.89231" lon="6.19235">
        <ele>1149</ele>
        <time>2015-05-22T14:33:23Z</time>
      </trkpt>
      <trkpt lat="45.89231" lon="6.19235">
        <ele>1149</ele>
        <time>2015-05-22T14:33:24Z</time>
      </trkpt>
      <trkpt lat="45.89231" lon="6.19235">
        <ele>1149</ele>
        <time>2015-05-22T14:33:25Z</time>
      </trkpt>
      <trkpt lat="45.89231" lon="6.19235">
        <ele>1149</ele>
        <time>2015-05-22T14:33:26Z</time>
      </trkpt>
      <trkpt lat="45.89231" lon="6.19235">
        <ele>1149</ele>
        <time>2015-05-22T14:33:27Z</time>
      </trkpt>
      <trkpt lat="45.89231" lon="6.19235">
        <ele>1149</ele>
        <time>2015-05-22T14:33:28Z</time>
      </trkpt>
      <trkpt lat="45.89231" lon="6.19235">
        <ele>1149</ele>
        <time>2015-05-22T14:33:29Z</time>
      </trkpt>
      <trkpt lat="45.89231" lon="6.19235">
        <ele>1149</ele>
        <time>2015-05-22T14:33:30Z</time>
      </trkpt>
      <trkpt lat="45.89231" lon="6.19235">
        <ele>1149</ele>
        <time>2015-05-22T14:33:31Z</time>
      </trkpt>
      <trkpt lat="45.89231" lon="6.19235">
        <ele>1149</ele>
        <time>2015-05-22T14:33:33Z</time>
      </trkpt>
      <trkpt lat="45.8923" lon="6.19234">
        <ele>1148</ele>
        <time>2015-05-22T14:33:35Z</time>
      </trkpt>
      <trkpt lat="45.89229" lon="6.19236">
        <ele>1148</ele>
        <time>2015-05-22T14:33:37Z</time>
      </trkpt>
      <trkpt lat="45.89226" lon="6.19238">
        <ele>1150</ele>
        <time>2015-05-22T14:33:39Z</time>
      </trkpt>
      <trkpt lat="45.89223" lon="6.19233">
        <ele>1150</ele>
        <time>2015-05-22T14:33:41Z</time>
      </trkpt>
      <trkpt lat="45.89222" lon="6.19236">
        <ele>1151</ele>
        <time>2015-05-22T14:33:43Z</time>
      </trkpt>
      <trkpt lat="45.89219" lon="6.19234">
        <ele>1151</ele>
        <time>2015-05-22T14:33:45Z</time>
      </trkpt>
      <trkpt lat="45.89218" lon="6.19233">
        <ele>1152</ele>
        <time>2015-05-22T14:33:46Z</time>
      </trkpt>
      <trkpt lat="45.89218" lon="6.19232">
        <ele>1152</ele>
        <time>2015-05-22T14:33:47Z</time>
      </trkpt>
      <trkpt lat="45.89217" lon="6.19232">
        <ele>1153</ele>
        <time>2015-05-22T14:33:48Z</time>
      </trkpt>
      <trkpt lat="45.89217" lon="6.19234">
        <ele>1155</ele>
        <time>2015-05-22T14:33:49Z</time>
      </trkpt>
      <trkpt lat="45.89216" lon="6.19233">
        <ele>1155</ele>
        <time>2015-05-22T14:33:50Z</time>
      </trkpt>
      <trkpt lat="45.89216" lon="6.19237">
        <ele>1156</ele>
        <time>2015-05-22T14:33:51Z</time>
      </trkpt>
      <trkpt lat="45.89215" lon="6.19234">
        <ele>1156</ele>
        <time>2015-05-22T14:33:52Z</time>
      </trkpt>
      <trkpt lat="45.89214" lon="6.19233">
        <ele>1156</ele>
        <time>2015-05-22T14:33:53Z</time>
      </trkpt>
      <trkpt lat="45.89212" lon="6.19235">
        <ele>1157</ele>
        <time>2015-05-22T14:33:54Z</time>
      </trkpt>
      <trkpt lat="45.89211" lon="6.19237">
        <ele>1158</ele>
        <time>2015-05-22T14:33:55Z</time>
      </trkpt>
      <trkpt lat="45.89211" lon="6.19238">
        <ele>1159</ele>
        <time>2015-05-22T14:33:56Z</time>
      </trkpt>
      <trkpt lat="45.89209" lon="6.19243">
        <ele>1160</ele>
        <time>2015-05-22T14:33:57Z</time>
      </trkpt>
      <trkpt lat="45.89209" lon="6.19247">
        <ele>1161</ele>
        <time>2015-05-22T14:33:58Z</time>
      </trkpt>
      <trkpt lat="45.89208" lon="6.19249">
        <ele>1161</ele>
        <time>2015-05-22T14:33:59Z</time>
      </trkpt>
      <trkpt lat="45.89207" lon="6.19248">
        <ele>1162</ele>
        <time>2015-05-22T14:34:00Z</time>
      </trkpt>
      <trkpt lat="45.89207" lon="6.1925">
        <ele>1164</ele>
        <time>2015-05-22T14:34:01Z</time>
      </trkpt>
      <trkpt lat="45.89206" lon="6.19243">
        <ele>1160</ele>
        <time>2015-05-22T14:34:02Z</time>
      </trkpt>
      <trkpt lat="45.89205" lon="6.19243">
        <ele>1161</ele>
        <time>2015-05-22T14:34:04Z</time>
      </trkpt>
      <trkpt lat="45.89203" lon="6.19242">
        <ele>1160</ele>
        <time>2015-05-22T14:34:05Z</time>
      </trkpt>
      <trkpt lat="45.89204" lon="6.1924">
        <ele>1159</ele>
        <time>2015-05-22T14:34:06Z</time>
      </trkpt>
      <trkpt lat="45.89201" lon="6.19237">
        <ele>1157</ele>
        <time>2015-05-22T14:34:07Z</time>
      </trkpt>
      <trkpt lat="45.89199" lon="6.19239">
        <ele>1157</ele>
        <time>2015-05-22T14:34:08Z</time>
      </trkpt>
      <trkpt lat="45.892" lon="6.19241">
        <ele>1156</ele>
        <time>2015-05-22T14:34:09Z</time>
      </trkpt>
      <trkpt lat="45.892" lon="6.19241">
        <ele>1157</ele>
        <time>2015-05-22T14:34:10Z</time>
      </trkpt>
      <trkpt lat="45.892" lon="6.19244">
        <ele>1159</ele>
        <time>2015-05-22T14:34:11Z</time>
      </trkpt>
      <trkpt lat="45.89199" lon="6.19245">
        <ele>1159</ele>
        <time>2015-05-22T14:34:12Z</time>
      </trkpt>
      <trkpt lat="45.89198" lon="6.19238">
        <ele>1157</ele>
        <time>2015-05-22T14:34:14Z</time>
      </trkpt>
      <trkpt lat="45.89198" lon="6.19239">
        <ele>1157</ele>
        <time>2015-05-22T14:34:16Z</time>
      </trkpt>
      <trkpt lat="45.89195" lon="6.19235">
        <ele>1153</ele>
        <time>2015-05-22T14:34:18Z</time>
      </trkpt>
      <trkpt lat="45.89194" lon="6.19235">
        <ele>1153</ele>
        <time>2015-05-22T14:34:20Z</time>
      </trkpt>
      <trkpt lat="45.89195" lon="6.19235">
        <ele>1155</ele>
        <time>2015-05-22T14:34:22Z</time>
      </trkpt>
      <trkpt lat="45.89194" lon="6.19236">
        <ele>1155</ele>
        <time>2015-05-22T14:34:24Z</time>
      </trkpt>
      <trkpt lat="45.89194" lon="6.19236">
        <ele>1155</ele>
        <time>2015-05-22T14:34:26Z</time>
      </trkpt>
      <trkpt lat="45.89193" lon="6.19236">
        <ele>1155</ele>
        <time>2015-05-22T14:34:27Z</time>
      </trkpt>
      <trkpt lat="45.89193" lon="6.19236">
        <ele>1155</ele>
        <time>2015-05-22T14:34:28Z</time>
      </trkpt>
      <trkpt lat="45.89193" lon="6.19236">
        <ele>1155</ele>
        <time>2015-05-22T14:34:29Z</time>
      </trkpt>
      <trkpt lat="45.89193" lon="6.19235">
        <ele>1154</ele>
        <time>2015-05-22T14:34:30Z</time>
      </trkpt>
      <trkpt lat="45.89193" lon="6.19235">
        <ele>1154</ele>
        <time>2015-05-22T14:34:31Z</time>
      </trkpt>
      <trkpt lat="45.89193" lon="6.19235">
        <ele>1154</ele>
        <time>2015-05-22T14:34:32Z</time>
      </trkpt>
      <trkpt lat="45.89192" lon="6.19235">
        <ele>1155</ele>
        <time>2015-05-22T14:34:34Z</time>
      </trkpt>
      <trkpt lat="45.89193" lon="6.19232">
        <ele>1158</ele>
        <time>2015-05-22T14:34:36Z</time>
      </trkpt>
      <trkpt lat="45.8919" lon="6.1923">
        <ele>1157</ele>
        <time>2015-05-22T14:34:38Z</time>
      </trkpt>
      <trkpt lat="45.89188" lon="6.1923">
        <ele>1159</ele>
        <time>2015-05-22T14:34:40Z</time>
      </trkpt>
      <trkpt lat="45.89188" lon="6.19231">
        <ele>1161</ele>
        <time>2015-05-22T14:34:42Z</time>
      </trkpt>
      <trkpt lat="45.89187" lon="6.1923">
        <ele>1161</ele>
        <time>2015-05-22T14:34:44Z</time>
      </trkpt>
      <trkpt lat="45.89186" lon="6.19229">
        <ele>1162</ele>
        <time>2015-05-22T14:34:46Z</time>
      </trkpt>
      <trkpt lat="45.89186" lon="6.19229">
        <ele>1163</ele>
        <time>2015-05-22T14:34:47Z</time>
      </trkpt>
      <trkpt lat="45.89185" lon="6.1923">
        <ele>1163</ele>
        <time>2015-05-22T14:34:48Z</time>
      </trkpt>
      <trkpt lat="45.89185" lon="6.1923">
        <ele>1163</ele>
        <time>2015-05-22T14:34:49Z</time>
      </trkpt>
      <trkpt lat="45.89185" lon="6.1923">
        <ele>1163</ele>
        <time>2015-05-22T14:34:50Z</time>
      </trkpt>
      <trkpt lat="45.89185" lon="6.1923">
        <ele>1163</ele>
        <time>2015-05-22T14:34:51Z</time>
      </trkpt>
      <trkpt lat="45.89184" lon="6.19229">
        <ele>1161</ele>
        <time>2015-05-22T14:34:52Z</time>
      </trkpt>
      <trkpt lat="45.89184" lon="6.19228">
        <ele>1161</ele>
        <time>2015-05-22T14:34:54Z</time>
      </trkpt>
      <trkpt lat="45.89184" lon="6.19228">
        <ele>1160</ele>
        <time>2015-05-22T14:34:56Z</time>
      </trkpt>
      <trkpt lat="45.89184" lon="6.19228">
        <ele>1160</ele>
        <time>2015-05-22T14:34:58Z</time>
      </trkpt>
      <trkpt lat="45.89183" lon="6.19227">
        <ele>1160</ele>
        <time>2015-05-22T14:35:00Z</time>
      </trkpt>
      <trkpt lat="45.89177" lon="6.19229">
        <ele>1160</ele>
        <time>2015-05-22T14:35:02Z</time>
      </trkpt>
      <trkpt lat="45.89175" lon="6.19231">
        <ele>1162</ele>
        <time>2015-05-22T14:35:04Z</time>
      </trkpt>
      <trkpt lat="45.89175" lon="6.19231">
        <ele>1162</ele>
        <time>2015-05-22T14:35:06Z</time>
      </trkpt>
      <trkpt lat="45.89173" lon="6.1923">
        <ele>1162</ele>
        <time>2015-05-22T14:35:07Z</time>
      </trkpt>
      <trkpt lat="45.89172" lon="6.19228">
        <ele>1161</ele>
        <time>2015-05-22T14:35:08Z</time>
      </trkpt>
      <trkpt lat="45.89172" lon="6.19229">
        <ele>1161</ele>
        <time>2015-05-22T14:35:09Z</time>
      </trkpt>
      <trkpt lat="45.89172" lon="6.19229">
        <ele>1163</ele>
        <time>2015-05-22T14:35:10Z</time>
      </trkpt>
      <trkpt lat="45.89172" lon="6.19228">
        <ele>1162</ele>
        <time>2015-05-22T14:35:11Z</time>
      </trkpt>
      <trkpt lat="45.89172" lon="6.19229">
        <ele>1163</ele>
        <time>2015-05-22T14:35:12Z</time>
      </trkpt>
      <trkpt lat="45.89172" lon="6.19228">
        <ele>1163</ele>
        <time>2015-05-22T14:35:14Z</time>
      </trkpt>
      <trkpt lat="45.89171" lon="6.19228">
        <ele>1164</ele>
        <time>2015-05-22T14:35:16Z</time>
      </trkpt>
      <trkpt lat="45.89171" lon="6.19228">
        <ele>1164</ele>
        <time>2015-05-22T14:35:18Z</time>
      </trkpt>
      <trkpt lat="45.89171" lon="6.19228">
        <ele>1164</ele>
        <time>2015-05-22T14:35:20Z</time>
      </trkpt>
      <trkpt lat="45.89171" lon="6.19228">
        <ele>1164</ele>
        <time>2015-05-22T14:35:22Z</time>
      </trkpt>
      <trkpt lat="45.89171" lon="6.19228">
        <ele>1164</ele>
        <time>2015-05-22T14:35:23Z</time>
      </trkpt>
      <trkpt lat="45.89171" lon="6.19228">
        <ele>1164</ele>
        <time>2015-05-22T14:35:24Z</time>
      </trkpt>
      <trkpt lat="45.89171" lon="6.19228">
        <ele>1164</ele>
        <time>2015-05-22T14:35:25Z</time>
      </trkpt>
      <trkpt lat="45.89171" lon="6.19228">
        <ele>1163</ele>
        <time>2015-05-22T14:35:26Z</time>
      </trkpt>
      <trkpt lat="45.89171" lon="6.19228">
        <ele>1163</ele>
        <time>2015-05-22T14:35:27Z</time>
      </trkpt>
      <trkpt lat="45.8917" lon="6.19227">
        <ele>1163</ele>
        <time>2015-05-22T14:35:28Z</time>
      </trkpt>
      <trkpt lat="45.8917" lon="6.19227">
        <ele>1163</ele>
        <time>2015-05-22T14:35:29Z</time>
      </trkpt>
      <trkpt lat="45.8917" lon="6.19227">
        <ele>1163</ele>
        <time>2015-05-22T14:35:30Z</time>
      </trkpt>
      <trkpt lat="45.8917" lon="6.19227">
        <ele>1163</ele>
        <time>2015-05-22T14:35:31Z</time>
      </trkpt>
      <trkpt lat="45.8917" lon="6.19227">
        <ele>1163</ele>
        <time>2015-05-22T14:35:32Z</time>
      </trkpt>
      <trkpt lat="45.8917" lon="6.19227">
        <ele>1163</ele>
        <time>2015-05-22T14:35:34Z</time>
      </trkpt>
      <trkpt lat="45.8917" lon="6.19227">
        <ele>1163</ele>
        <time>2015-05-22T14:35:36Z</time>
      </trkpt>
      <trkpt lat="45.89168" lon="6.19223">
        <ele>1161</ele>
        <time>2015-05-22T14:35:38Z</time>
      </trkpt>
      <trkpt lat="45.89166" lon="6.19219">
        <ele>1159</ele>
        <time>2015-05-22T14:35:40Z</time>
      </trkpt>
      <trkpt lat="45.89162" lon="6.19219">
        <ele>1159</ele>
        <time>2015-05-22T14:35:42Z</time>
      </trkpt>
      <trkpt lat="45.89159" lon="6.19218">
        <ele>1157</ele>
        <time>2015-05-22T14:35:44Z</time>
      </trkpt>
      <trkpt lat="45.89153" lon="6.19219">
        <ele>1158</ele>
        <time>2015-05-22T14:35:46Z</time>
      </trkpt>
      <trkpt lat="45.89153" lon="6.19222">
        <ele>1158</ele>
        <time>2015-05-22T14:35:47Z</time>
      </trkpt>
      <trkpt lat="45.89151" lon="6.1922">
        <ele>1157</ele>
        <time>2015-05-22T14:35:48Z</time>
      </trkpt>
      <trkpt lat="45.8915" lon="6.19222">
        <ele>1159</ele>
        <time>2015-05-22T14:35:49Z</time>
      </trkpt>
      <trkpt lat="45.89149" lon="6.19218">
        <ele>1159</ele>
        <time>2015-05-22T14:35:50Z</time>
      </trkpt>
      <trkpt lat="45.89149" lon="6.1922">
        <ele>1160</ele>
        <time>2015-05-22T14:35:51Z</time>
      </trkpt>
      <trkpt lat="45.89148" lon="6.19221">
        <ele>1161</ele>
        <time>2015-05-22T14:35:52Z</time>
      </trkpt>
      <trkpt lat="45.89149" lon="6.19219">
        <ele>1162</ele>
        <time>2015-05-22T14:35:54Z</time>
      </trkpt>
      <trkpt lat="45.8915" lon="6.19217">
        <ele>1161</ele>
        <time>2015-05-22T14:35:56Z</time>
      </trkpt>
      <trkpt lat="45.8915" lon="6.19217">
        <ele>1161</ele>
        <time>2015-05-22T14:35:58Z</time>
      </trkpt>
      <trkpt lat="45.89149" lon="6.19216">
        <ele>1161</ele>
        <time>2015-05-22T14:36:00Z</time>
      </trkpt>
      <trkpt lat="45.89147" lon="6.19215">
        <ele>1160</ele>
        <time>2015-05-22T14:36:02Z</time>
      </trkpt>
      <trkpt lat="45.89146" lon="6.19215">
        <ele>1159</ele>
        <time>2015-05-22T14:36:04Z</time>
      </trkpt>
      <trkpt lat="45.89146" lon="6.19215">
        <ele>1160</ele>
        <time>2015-05-22T14:36:06Z</time>
      </trkpt>
      <trkpt lat="45.89146" lon="6.19215">
        <ele>1160</ele>
        <time>2015-05-22T14:36:07Z</time>
      </trkpt>
      <trkpt lat="45.89146" lon="6.19215">
        <ele>1160</ele>
        <time>2015-05-22T14:36:08Z</time>
      </trkpt>
      <trkpt lat="45.89146" lon="6.19215">
        <ele>1160</ele>
        <time>2015-05-22T14:36:09Z</time>
      </trkpt>
      <trkpt lat="45.89146" lon="6.19215">
        <ele>1160</ele>
        <time>2015-05-22T14:36:10Z</time>
      </trkpt>
      <trkpt lat="45.89146" lon="6.19215">
        <ele>1160</ele>
        <time>2015-05-22T14:36:11Z</time>
      </trkpt>
      <trkpt lat="45.89146" lon="6.19215">
        <ele>1160</ele>
        <time>2015-05-22T14:36:12Z</time>
      </trkpt>
      <trkpt lat="45.89146" lon="6.19215">
        <ele>1160</ele>
        <time>2015-05-22T14:36:14Z</time>
      </trkpt>
      <trkpt lat="45.89145" lon="6.19215">
        <ele>1160</ele>
        <time>2015-05-22T14:36:16Z</time>
      </trkpt>
      <trkpt lat="45.89145" lon="6.19215">
        <ele>1160</ele>
        <time>2015-05-22T14:36:18Z</time>
      </trkpt>
      <trkpt lat="45.89145" lon="6.19215">
        <ele>1160</ele>
        <time>2015-05-22T14:36:20Z</time>
      </trkpt>
      <trkpt lat="45.89145" lon="6.19215">
        <ele>1159</ele>
        <time>2015-05-22T14:36:22Z</time>
      </trkpt>
      <trkpt lat="45.89145" lon="6.19215">
        <ele>1159</ele>
        <time>2015-05-22T14:36:24Z</time>
      </trkpt>
      <trkpt lat="45.89145" lon="6.19215">
        <ele>1159</ele>
        <time>2015-05-22T14:36:26Z</time>
      </trkpt>
      <trkpt lat="45.89145" lon="6.19215">
        <ele>1159</ele>
        <time>2015-05-22T14:36:27Z</time>
      </trkpt>
      <trkpt lat="45.89145" lon="6.19215">
        <ele>1159</ele>
        <time>2015-05-22T14:36:28Z</time>
      </trkpt>
      <trkpt lat="45.89145" lon="6.19215">
        <ele>1159</ele>
        <time>2015-05-22T14:36:29Z</time>
      </trkpt>
      <trkpt lat="45.89145" lon="6.19215">
        <ele>1159</ele>
        <time>2015-05-22T14:36:30Z</time>
      </trkpt>
      <trkpt lat="45.89145" lon="6.19215">
        <ele>1159</ele>
        <time>2015-05-22T14:36:31Z</time>
      </trkpt>
      <trkpt lat="45.89145" lon="6.19215">
        <ele>1159</ele>
        <time>2015-05-22T14:36:32Z</time>
      </trkpt>
      <trkpt lat="45.89141" lon="6.19207">
        <ele>1155</ele>
        <time>2015-05-22T14:36:34Z</time>
      </trkpt>
      <trkpt lat="45.89138" lon="6.19207">
        <ele>1156</ele>
        <time>2015-05-22T14:36:36Z</time>
      </trkpt>
      <trkpt lat="45.89137" lon="6.19208">
        <ele>1159</ele>
        <time>2015-05-22T14:36:38Z</time>
      </trkpt>
      <trkpt lat="45.89136" lon="6.1921">
        <ele>1160</ele>
        <time>2015-05-22T14:36:40Z</time>
      </trkpt>
      <trkpt lat="45.89135" lon="6.1921">
        <ele>1161</ele>
        <time>2015-05-22T14:36:42Z</time>
      </trkpt>
      <trkpt lat="45.89134" lon="6.1921">
        <ele>1161</ele>
        <time>2015-05-22T14:36:43Z</time>
      </trkpt>
      <trkpt lat="45.89134" lon="6.19209">
        <ele>1159</ele>
        <time>2015-05-22T14:36:44Z</time>
      </trkpt>
      <trkpt lat="45.89134" lon="6.19209">
        <ele>1160</ele>
        <time>2015-05-22T14:36:45Z</time>
      </trkpt>
      <trkpt lat="45.89133" lon="6.19208">
        <ele>1160</ele>
        <time>2015-05-22T14:36:46Z</time>
      </trkpt>
      <trkpt lat="45.89133" lon="6.19209">
        <ele>1160</ele>
        <time>2015-05-22T14:36:47Z</time>
      </trkpt>
      <trkpt lat="45.89133" lon="6.19209">
        <ele>1160</ele>
        <time>2015-05-22T14:36:48Z</time>
      </trkpt>
      <trkpt lat="45.89133" lon="6.19209">
        <ele>1161</ele>
        <time>2015-05-22T14:36:49Z</time>
      </trkpt>
      <trkpt lat="45.89133" lon="6.19209">
        <ele>1161</ele>
        <time>2015-05-22T14:36:50Z</time>
      </trkpt>
      <trkpt lat="45.89133" lon="6.19209">
        <ele>1161</ele>
        <time>2015-05-22T14:36:51Z</time>
      </trkpt>
      <trkpt lat="45.89133" lon="6.19209">
        <ele>1161</ele>
        <time>2015-05-22T14:36:52Z</time>
      </trkpt>
      <trkpt lat="45.89133" lon="6.19209">
        <ele>1161</ele>
        <time>2015-05-22T14:36:53Z</time>
      </trkpt>
      <trkpt lat="45.89133" lon="6.19209">
        <ele>1161</ele>
        <time>2015-05-22T14:36:54Z</time>
      </trkpt>
      <trkpt lat="45.89133" lon="6.19209">
        <ele>1161</ele>
        <time>2015-05-22T14:36:55Z</time>
      </trkpt>
      <trkpt lat="45.89133" lon="6.19209">
        <ele>1161</ele>
        <time>2015-05-22T14:36:57Z</time>
      </trkpt>
      <trkpt lat="45.89133" lon="6.19209">
        <ele>1161</ele>
        <time>2015-05-22T14:36:59Z</time>
      </trkpt>
      <trkpt lat="45.89133" lon="6.19209">
        <ele>1161</ele>
        <time>2015-05-22T14:37:01Z</time>
      </trkpt>
      <trkpt lat="45.89133" lon="6.19209">
        <ele>1161</ele>
        <time>2015-05-22T14:37:03Z</time>
      </trkpt>
      <trkpt lat="45.89133" lon="6.19209">
        <ele>1161</ele>
        <time>2015-05-22T14:37:05Z</time>
      </trkpt>
      <trkpt lat="45.89133" lon="6.19209">
        <ele>1161</ele>
        <time>2015-05-22T14:37:06Z</time>
      </trkpt>
      <trkpt lat="45.89131" lon="6.1921">
        <ele>1162</ele>
        <time>2015-05-22T14:37:07Z</time>
      </trkpt>
      <trkpt lat="45.89129" lon="6.19211">
        <ele>1163</ele>
        <time>2015-05-22T14:37:08Z</time>
      </trkpt>
      <trkpt lat="45.89127" lon="6.19211">
        <ele>1164</ele>
        <time>2015-05-22T14:37:09Z</time>
      </trkpt>
      <trkpt lat="45.89126" lon="6.19211">
        <ele>1164</ele>
        <time>2015-05-22T14:37:10Z</time>
      </trkpt>
      <trkpt lat="45.89123" lon="6.19211">
        <ele>1162</ele>
        <time>2015-05-22T14:37:11Z</time>
      </trkpt>
      <trkpt lat="45.89123" lon="6.1921">
        <ele>1162</ele>
        <time>2015-05-22T14:37:12Z</time>
      </trkpt>
      <trkpt lat="45.89123" lon="6.19206">
        <ele>1160</ele>
        <time>2015-05-22T14:37:14Z</time>
      </trkpt>
      <trkpt lat="45.89122" lon="6.19203">
        <ele>1159</ele>
        <time>2015-05-22T14:37:16Z</time>
      </trkpt>
      <trkpt lat="45.8912" lon="6.19203">
        <ele>1161</ele>
        <time>2015-05-22T14:37:18Z</time>
      </trkpt>
      <trkpt lat="45.89114" lon="6.19206">
        <ele>1162</ele>
        <time>2015-05-22T14:37:20Z</time>
      </trkpt>
      <trkpt lat="45.89115" lon="6.1921">
        <ele>1167</ele>
        <time>2015-05-22T14:37:22Z</time>
      </trkpt>
      <trkpt lat="45.89111" lon="6.19206">
        <ele>1165</ele>
        <time>2015-05-22T14:37:24Z</time>
      </trkpt>
      <trkpt lat="45.89106" lon="6.19205">
        <ele>1168</ele>
        <time>2015-05-22T14:37:26Z</time>
      </trkpt>
      <trkpt lat="45.89106" lon="6.19205">
        <ele>1168</ele>
        <time>2015-05-22T14:37:27Z</time>
      </trkpt>
      <trkpt lat="45.89105" lon="6.19205">
        <ele>1169</ele>
        <time>2015-05-22T14:37:28Z</time>
      </trkpt>
      <trkpt lat="45.89107" lon="6.19205">
        <ele>1168</ele>
        <time>2015-05-22T14:37:29Z</time>
      </trkpt>
      <trkpt lat="45.89106" lon="6.19206">
        <ele>1169</ele>
        <time>2015-05-22T14:37:30Z</time>
      </trkpt>
      <trkpt lat="45.89106" lon="6.19206">
        <ele>1169</ele>
        <time>2015-05-22T14:37:31Z</time>
      </trkpt>
      <trkpt lat="45.89106" lon="6.19205">
        <ele>1169</ele>
        <time>2015-05-22T14:37:32Z</time>
      </trkpt>
      <trkpt lat="45.89107" lon="6.19204">
        <ele>1166</ele>
        <time>2015-05-22T14:37:34Z</time>
      </trkpt>
      <trkpt lat="45.89106" lon="6.19204">
        <ele>1168</ele>
        <time>2015-05-22T14:37:36Z</time>
      </trkpt>
      <trkpt lat="45.89108" lon="6.19206">
        <ele>1168</ele>
        <time>2015-05-22T14:37:38Z</time>
      </trkpt>
      <trkpt lat="45.89111" lon="6.19205">
        <ele>1168</ele>
        <time>2015-05-22T14:37:40Z</time>
      </trkpt>
      <trkpt lat="45.89112" lon="6.19207">
        <ele>1166</ele>
        <time>2015-05-22T14:37:42Z</time>
      </trkpt>
      <trkpt lat="45.89112" lon="6.19205">
        <ele>1166</ele>
        <time>2015-05-22T14:37:44Z</time>
      </trkpt>
      <trkpt lat="45.8911" lon="6.19205">
        <ele>1167</ele>
        <time>2015-05-22T14:37:46Z</time>
      </trkpt>
      <trkpt lat="45.8911" lon="6.19204">
        <ele>1167</ele>
        <time>2015-05-22T14:37:47Z</time>
      </trkpt>
      <trkpt lat="45.8911" lon="6.19204">
        <ele>1167</ele>
        <time>2015-05-22T14:37:48Z</time>
      </trkpt>
      <trkpt lat="45.8911" lon="6.19204">
        <ele>1168</ele>
        <time>2015-05-22T14:37:49Z</time>
      </trkpt>
      <trkpt lat="45.8911" lon="6.19202">
        <ele>1168</ele>
        <time>2015-05-22T14:37:50Z</time>
      </trkpt>
      <trkpt lat="45.89111" lon="6.19204">
        <ele>1170</ele>
        <time>2015-05-22T14:37:51Z</time>
      </trkpt>
      <trkpt lat="45.8911" lon="6.19203">
        <ele>1169</ele>
        <time>2015-05-22T14:37:52Z</time>
      </trkpt>
      <trkpt lat="45.8911" lon="6.19203">
        <ele>1169</ele>
        <time>2015-05-22T14:37:54Z</time>
      </trkpt>
      <trkpt lat="45.89109" lon="6.19202">
        <ele>1169</ele>
        <time>2015-05-22T14:37:56Z</time>
      </trkpt>
      <trkpt lat="45.89109" lon="6.19203">
        <ele>1170</ele>
        <time>2015-05-22T14:37:58Z</time>
      </trkpt>
      <trkpt lat="45.89109" lon="6.19203">
        <ele>1170</ele>
        <time>2015-05-22T14:38:00Z</time>
      </trkpt>
      <trkpt lat="45.89109" lon="6.19202">
        <ele>1169</ele>
        <time>2015-05-22T14:38:02Z</time>
      </trkpt>
      <trkpt lat="45.89109" lon="6.19202">
        <ele>1169</ele>
        <time>2015-05-22T14:38:03Z</time>
      </trkpt>
      <trkpt lat="45.89109" lon="6.19202">
        <ele>1169</ele>
        <time>2015-05-22T14:38:04Z</time>
      </trkpt>
      <trkpt lat="45.89109" lon="6.19202">
        <ele>1170</ele>
        <time>2015-05-22T14:38:05Z</time>
      </trkpt>
      <trkpt lat="45.89109" lon="6.19202">
        <ele>1170</ele>
        <time>2015-05-22T14:38:06Z</time>
      </trkpt>
      <trkpt lat="45.89109" lon="6.19202">
        <ele>1169</ele>
        <time>2015-05-22T14:38:07Z</time>
      </trkpt>
      <trkpt lat="45.89109" lon="6.19202">
        <ele>1169</ele>
        <time>2015-05-22T14:38:08Z</time>
      </trkpt>
      <trkpt lat="45.89109" lon="6.19202">
        <ele>1169</ele>
        <time>2015-05-22T14:38:09Z</time>
      </trkpt>
      <trkpt lat="45.89109" lon="6.19202">
        <ele>1169</ele>
        <time>2015-05-22T14:38:10Z</time>
      </trkpt>
      <trkpt lat="45.89109" lon="6.19202">
        <ele>1169</ele>
        <time>2015-05-22T14:38:11Z</time>
      </trkpt>
      <trkpt lat="45.89109" lon="6.19202">
        <ele>1169</ele>
        <time>2015-05-22T14:38:12Z</time>
      </trkpt>
      <trkpt lat="45.89109" lon="6.19202">
        <ele>1169</ele>
        <time>2015-05-22T14:38:14Z</time>
      </trkpt>
      <trkpt lat="45.89109" lon="6.19202">
        <ele>1169</ele>
        <time>2015-05-22T14:38:15Z</time>
      </trkpt>
      <trkpt lat="45.89109" lon="6.19202">
        <ele>1169</ele>
        <time>2015-05-22T14:38:16Z</time>
      </trkpt>
      <trkpt lat="45.89109" lon="6.19203">
        <ele>1170</ele>
        <time>2015-05-22T14:38:18Z</time>
      </trkpt>
      <trkpt lat="45.89109" lon="6.19203">
        <ele>1170</ele>
        <time>2015-05-22T14:38:20Z</time>
      </trkpt>
      <trkpt lat="45.89109" lon="6.19203">
        <ele>1170</ele>
        <time>2015-05-22T14:38:22Z</time>
      </trkpt>
      <trkpt lat="45.89109" lon="6.19203">
        <ele>1170</ele>
        <time>2015-05-22T14:38:24Z</time>
      </trkpt>
      <trkpt lat="45.89109" lon="6.19203">
        <ele>1170</ele>
        <time>2015-05-22T14:38:26Z</time>
      </trkpt>
      <trkpt lat="45.89109" lon="6.19203">
        <ele>1170</ele>
        <time>2015-05-22T14:38:27Z</time>
      </trkpt>
      <trkpt lat="45.89109" lon="6.19203">
        <ele>1170</ele>
        <time>2015-05-22T14:38:28Z</time>
      </trkpt>
      <trkpt lat="45.89109" lon="6.19203">
        <ele>1170</ele>
        <time>2015-05-22T14:38:29Z</time>
      </trkpt>
      <trkpt lat="45.89108" lon="6.19202">
        <ele>1169</ele>
        <time>2015-05-22T14:38:30Z</time>
      </trkpt>
      <trkpt lat="45.89108" lon="6.19206">
        <ele>1170</ele>
        <time>2015-05-22T14:38:31Z</time>
      </trkpt>
      <trkpt lat="45.89107" lon="6.19203">
        <ele>1170</ele>
        <time>2015-05-22T14:38:32Z</time>
      </trkpt>
      <trkpt lat="45.89106" lon="6.19199">
        <ele>1168</ele>
        <time>2015-05-22T14:38:34Z</time>
      </trkpt>
      <trkpt lat="45.89102" lon="6.19196">
        <ele>1166</ele>
        <time>2015-05-22T14:38:36Z</time>
      </trkpt>
      <trkpt lat="45.89098" lon="6.1919">
        <ele>1164</ele>
        <time>2015-05-22T14:38:38Z</time>
      </trkpt>
      <trkpt lat="45.891" lon="6.19188">
        <ele>1164</ele>
        <time>2015-05-22T14:38:40Z</time>
      </trkpt>
      <trkpt lat="45.89103" lon="6.1919">
        <ele>1168</ele>
        <time>2015-05-22T14:38:42Z</time>
      </trkpt>
      <trkpt lat="45.89103" lon="6.19189">
        <ele>1169</ele>
        <time>2015-05-22T14:38:44Z</time>
      </trkpt>
      <trkpt lat="45.89102" lon="6.19188">
        <ele>1172</ele>
        <time>2015-05-22T14:38:46Z</time>
      </trkpt>
      <trkpt lat="45.891" lon="6.19188">
        <ele>1171</ele>
        <time>2015-05-22T14:38:47Z</time>
      </trkpt>
      <trkpt lat="45.891" lon="6.19189">
        <ele>1171</ele>
        <time>2015-05-22T14:38:48Z</time>
      </trkpt>
      <trkpt lat="45.891" lon="6.19188">
        <ele>1171</ele>
        <time>2015-05-22T14:38:49Z</time>
      </trkpt>
      <trkpt lat="45.89099" lon="6.19189">
        <ele>1171</ele>
        <time>2015-05-22T14:38:50Z</time>
      </trkpt>
      <trkpt lat="45.89099" lon="6.1919">
        <ele>1171</ele>
        <time>2015-05-22T14:38:51Z</time>
      </trkpt>
      <trkpt lat="45.89099" lon="6.1919">
        <ele>1172</ele>
        <time>2015-05-22T14:38:52Z</time>
      </trkpt>
      <trkpt lat="45.89099" lon="6.1919">
        <ele>1173</ele>
        <time>2015-05-22T14:38:54Z</time>
      </trkpt>
      <trkpt lat="45.89098" lon="6.19189">
        <ele>1173</ele>
        <time>2015-05-22T14:38:56Z</time>
      </trkpt>
      <trkpt lat="45.89098" lon="6.19189">
        <ele>1173</ele>
        <time>2015-05-22T14:38:58Z</time>
      </trkpt>
      <trkpt lat="45.89098" lon="6.19189">
        <ele>1173</ele>
        <time>2015-05-22T14:39:00Z</time>
      </trkpt>
      <trkpt lat="45.89098" lon="6.19189">
        <ele>1172</ele>
        <time>2015-05-22T14:39:02Z</time>
      </trkpt>
      <trkpt lat="45.89098" lon="6.19189">
        <ele>1172</ele>
        <time>2015-05-22T14:39:04Z</time>
      </trkpt>
      <trkpt lat="45.89098" lon="6.19189">
        <ele>1172</ele>
        <time>2015-05-22T14:39:06Z</time>
      </trkpt>
      <trkpt lat="45.89098" lon="6.19189">
        <ele>1172</ele>
        <time>2015-05-22T14:39:07Z</time>
      </trkpt>
      <trkpt lat="45.89098" lon="6.19189">
        <ele>1172</ele>
        <time>2015-05-22T14:39:08Z</time>
      </trkpt>
      <trkpt lat="45.89098" lon="6.19189">
        <ele>1172</ele>
        <time>2015-05-22T14:39:09Z</time>
      </trkpt>
      <trkpt lat="45.89098" lon="6.19189">
        <ele>1172</ele>
        <time>2015-05-22T14:39:10Z</time>
      </trkpt>
      <trkpt lat="45.89098" lon="6.19189">
        <ele>1172</ele>
        <time>2015-05-22T14:39:11Z</time>
      </trkpt>
      <trkpt lat="45.89098" lon="6.19189">
        <ele>1172</ele>
        <time>2015-05-22T14:39:12Z</time>
      </trkpt>
      <trkpt lat="45.89098" lon="6.19189">
        <ele>1172</ele>
        <time>2015-05-22T14:39:14Z</time>
      </trkpt>
      <trkpt lat="45.89098" lon="6.19189">
        <ele>1172</ele>
        <time>2015-05-22T14:39:16Z</time>
      </trkpt>
      <trkpt lat="45.89098" lon="6.19189">
        <ele>1172</ele>
        <time>2015-05-22T14:39:18Z</time>
      </trkpt>
      <trkpt lat="45.89098" lon="6.19189">
        <ele>1172</ele>
        <time>2015-05-22T14:39:20Z</time>
      </trkpt>
      <trkpt lat="45.89098" lon="6.19189">
        <ele>1172</ele>
        <time>2015-05-22T14:39:22Z</time>
      </trkpt>
      <trkpt lat="45.89098" lon="6.19189">
        <ele>1172</ele>
        <time>2015-05-22T14:39:23Z</time>
      </trkpt>
      <trkpt lat="45.89098" lon="6.19189">
        <ele>1172</ele>
        <time>2015-05-22T14:39:24Z</time>
      </trkpt>
      <trkpt lat="45.89098" lon="6.19189">
        <ele>1172</ele>
        <time>2015-05-22T14:39:25Z</time>
      </trkpt>
      <trkpt lat="45.89098" lon="6.19189">
        <ele>1172</ele>
        <time>2015-05-22T14:39:26Z</time>
      </trkpt>
      <trkpt lat="45.89098" lon="6.19189">
        <ele>1172</ele>
        <time>2015-05-22T14:39:27Z</time>
      </trkpt>
      <trkpt lat="45.89098" lon="6.19189">
        <ele>1172</ele>
        <time>2015-05-22T14:39:28Z</time>
      </trkpt>
      <trkpt lat="45.89098" lon="6.19189">
        <ele>1173</ele>
        <time>2015-05-22T14:39:29Z</time>
      </trkpt>
      <trkpt lat="45.89098" lon="6.19189">
        <ele>1173</ele>
        <time>2015-05-22T14:39:30Z</time>
      </trkpt>
      <trkpt lat="45.89098" lon="6.19189">
        <ele>1173</ele>
        <time>2015-05-22T14:39:31Z</time>
      </trkpt>
      <trkpt lat="45.89098" lon="6.19189">
        <ele>1173</ele>
        <time>2015-05-22T14:39:32Z</time>
      </trkpt>
      <trkpt lat="45.89098" lon="6.19189">
        <ele>1173</ele>
        <time>2015-05-22T14:39:34Z</time>
      </trkpt>
      <trkpt lat="45.89098" lon="6.19189">
        <ele>1173</ele>
        <time>2015-05-22T14:39:36Z</time>
      </trkpt>
      <trkpt lat="45.89098" lon="6.19189">
        <ele>1173</ele>
        <time>2015-05-22T14:39:38Z</time>
      </trkpt>
      <trkpt lat="45.89098" lon="6.19189">
        <ele>1173</ele>
        <time>2015-05-22T14:39:40Z</time>
      </trkpt>
      <trkpt lat="45.89098" lon="6.19189">
        <ele>1173</ele>
        <time>2015-05-22T14:39:42Z</time>
      </trkpt>
      <trkpt lat="45.89098" lon="6.19189">
        <ele>1173</ele>
        <time>2015-05-22T14:39:44Z</time>
      </trkpt>
      <trkpt lat="45.89098" lon="6.19189">
        <ele>1173</ele>
        <time>2015-05-22T14:39:46Z</time>
      </trkpt>
      <trkpt lat="45.89098" lon="6.19189">
        <ele>1173</ele>
        <time>2015-05-22T14:39:47Z</time>
      </trkpt>
      <trkpt lat="45.89098" lon="6.19189">
        <ele>1173</ele>
        <time>2015-05-22T14:39:48Z</time>
      </trkpt>
      <trkpt lat="45.89098" lon="6.19189">
        <ele>1173</ele>
        <time>2015-05-22T14:39:49Z</time>
      </trkpt>
      <trkpt lat="45.89098" lon="6.19189">
        <ele>1173</ele>
        <time>2015-05-22T14:39:50Z</time>
      </trkpt>
      <trkpt lat="45.89098" lon="6.19189">
        <ele>1173</ele>
        <time>2015-05-22T14:39:51Z</time>
      </trkpt>
      <trkpt lat="45.89098" lon="6.19189">
        <ele>1173</ele>
        <time>2015-05-22T14:39:52Z</time>
      </trkpt>
      <trkpt lat="45.89098" lon="6.19189">
        <ele>1173</ele>
        <time>2015-05-22T14:39:53Z</time>
      </trkpt>
      <trkpt lat="45.89098" lon="6.19189">
        <ele>1173</ele>
        <time>2015-05-22T14:39:54Z</time>
      </trkpt>
      <trkpt lat="45.89098" lon="6.19189">
        <ele>1173</ele>
        <time>2015-05-22T14:39:55Z</time>
      </trkpt>
      <trkpt lat="45.89098" lon="6.19189">
        <ele>1173</ele>
        <time>2015-05-22T14:39:56Z</time>
      </trkpt>
      <trkpt lat="45.89098" lon="6.19189">
        <ele>1173</ele>
        <time>2015-05-22T14:39:58Z</time>
      </trkpt>
      <trkpt lat="45.89098" lon="6.19189">
        <ele>1173</ele>
        <time>2015-05-22T14:39:59Z</time>
      </trkpt>
      <trkpt lat="45.89098" lon="6.19189">
        <ele>1173</ele>
        <time>2015-05-22T14:40:01Z</time>
      </trkpt>
      <trkpt lat="45.89098" lon="6.19189">
        <ele>1173</ele>
        <time>2015-05-22T14:40:02Z</time>
      </trkpt>
      <trkpt lat="45.89098" lon="6.19189">
        <ele>1173</ele>
        <time>2015-05-22T14:40:03Z</time>
      </trkpt>
      <trkpt lat="45.89098" lon="6.19189">
        <ele>1173</ele>
        <time>2015-05-22T14:40:04Z</time>
      </trkpt>
      <trkpt lat="45.89098" lon="6.19189">
        <ele>1173</ele>
        <time>2015-05-22T14:40:05Z</time>
      </trkpt>
      <trkpt lat="45.89098" lon="6.19189">
        <ele>1173</ele>
        <time>2015-05-22T14:40:07Z</time>
      </trkpt>
      <trkpt lat="45.89098" lon="6.19189">
        <ele>1173</ele>
        <time>2015-05-22T14:40:08Z</time>
      </trkpt>
      <trkpt lat="45.89098" lon="6.19189">
        <ele>1173</ele>
        <time>2015-05-22T14:40:09Z</time>
      </trkpt>
      <trkpt lat="45.89098" lon="6.19189">
        <ele>1173</ele>
        <time>2015-05-22T14:40:10Z</time>
      </trkpt>
      <trkpt lat="45.89098" lon="6.19189">
        <ele>1173</ele>
        <time>2015-05-22T14:40:11Z</time>
      </trkpt>
      <trkpt lat="45.89098" lon="6.19189">
        <ele>1173</ele>
        <time>2015-05-22T14:40:12Z</time>
      </trkpt>
      <trkpt lat="45.89098" lon="6.19189">
        <ele>1173</ele>
        <time>2015-05-22T14:40:13Z</time>
      </trkpt>
      <trkpt lat="45.89098" lon="6.19189">
        <ele>1173</ele>
        <time>2015-05-22T14:40:15Z</time>
      </trkpt>
      <trkpt lat="45.89098" lon="6.19189">
        <ele>1173</ele>
        <time>2015-05-22T14:40:17Z</time>
      </trkpt>
      <trkpt lat="45.89098" lon="6.19189">
        <ele>1173</ele>
        <time>2015-05-22T14:40:19Z</time>
      </trkpt>
      <trkpt lat="45.89098" lon="6.19189">
        <ele>1173</ele>
        <time>2015-05-22T14:40:20Z</time>
      </trkpt>
      <trkpt lat="45.89098" lon="6.19189">
        <ele>1173</ele>
        <time>2015-05-22T14:40:23Z</time>
      </trkpt>
      <trkpt lat="45.89098" lon="6.19189">
        <ele>1173</ele>
        <time>2015-05-22T14:40:25Z</time>
      </trkpt>
      <trkpt lat="45.89098" lon="6.19189">
        <ele>1173</ele>
        <time>2015-05-22T14:40:27Z</time>
      </trkpt>
      <trkpt lat="45.89098" lon="6.19189">
        <ele>1173</ele>
        <time>2015-05-22T14:40:28Z</time>
      </trkpt>
      <trkpt lat="45.89098" lon="6.19189">
        <ele>1173</ele>
        <time>2015-05-22T14:40:29Z</time>
      </trkpt>
      <trkpt lat="45.89098" lon="6.19189">
        <ele>1173</ele>
        <time>2015-05-22T14:40:30Z</time>
      </trkpt>
      <trkpt lat="45.89098" lon="6.19189">
        <ele>1173</ele>
        <time>2015-05-22T14:40:31Z</time>
      </trkpt>
      <trkpt lat="45.89098" lon="6.19189">
        <ele>1173</ele>
        <time>2015-05-22T14:40:32Z</time>
      </trkpt>
      <trkpt lat="45.89098" lon="6.19189">
        <ele>1173</ele>
        <time>2015-05-22T14:40:33Z</time>
      </trkpt>
      <trkpt lat="45.89095" lon="6.19192">
        <ele>1175</ele>
        <time>2015-05-22T14:40:35Z</time>
      </trkpt>
      <trkpt lat="45.89088" lon="6.19199">
        <ele>1178</ele>
        <time>2015-05-22T14:40:37Z</time>
      </trkpt>
      <trkpt lat="45.89086" lon="6.19199">
        <ele>1177</ele>
        <time>2015-05-22T14:40:39Z</time>
      </trkpt>
      <trkpt lat="45.89084" lon="6.19201">
        <ele>1176</ele>
        <time>2015-05-22T14:40:41Z</time>
      </trkpt>
      <trkpt lat="45.89081" lon="6.19201">
        <ele>1173</ele>
        <time>2015-05-22T14:40:43Z</time>
      </trkpt>
      <trkpt lat="45.89081" lon="6.192">
        <ele>1173</ele>
        <time>2015-05-22T14:40:44Z</time>
      </trkpt>
      <trkpt lat="45.89081" lon="6.19199">
        <ele>1175</ele>
        <time>2015-05-22T14:40:45Z</time>
      </trkpt>
      <trkpt lat="45.8908" lon="6.19199">
        <ele>1176</ele>
        <time>2015-05-22T14:40:46Z</time>
      </trkpt>
      <trkpt lat="45.8908" lon="6.19198">
        <ele>1177</ele>
        <time>2015-05-22T14:40:47Z</time>
      </trkpt>
      <trkpt lat="45.8908" lon="6.19198">
        <ele>1177</ele>
        <time>2015-05-22T14:40:48Z</time>
      </trkpt>
      <trkpt lat="45.8908" lon="6.19198">
        <ele>1176</ele>
        <time>2015-05-22T14:40:49Z</time>
      </trkpt>
      <trkpt lat="45.8908" lon="6.19198">
        <ele>1177</ele>
        <time>2015-05-22T14:40:50Z</time>
      </trkpt>
      <trkpt lat="45.89079" lon="6.19198">
        <ele>1177</ele>
        <time>2015-05-22T14:40:51Z</time>
      </trkpt>
      <trkpt lat="45.8908" lon="6.19199">
        <ele>1178</ele>
        <time>2015-05-22T14:40:52Z</time>
      </trkpt>
      <trkpt lat="45.89079" lon="6.19199">
        <ele>1178</ele>
        <time>2015-05-22T14:40:53Z</time>
      </trkpt>
      <trkpt lat="45.89078" lon="6.19199">
        <ele>1178</ele>
        <time>2015-05-22T14:40:55Z</time>
      </trkpt>
      <trkpt lat="45.89077" lon="6.192">
        <ele>1179</ele>
        <time>2015-05-22T14:40:57Z</time>
      </trkpt>
      <trkpt lat="45.89076" lon="6.192">
        <ele>1180</ele>
        <time>2015-05-22T14:40:59Z</time>
      </trkpt>
      <trkpt lat="45.89076" lon="6.192">
        <ele>1180</ele>
        <time>2015-05-22T14:41:01Z</time>
      </trkpt>
      <trkpt lat="45.89075" lon="6.192">
        <ele>1180</ele>
        <time>2015-05-22T14:41:03Z</time>
      </trkpt>
      <trkpt lat="45.89075" lon="6.192">
        <ele>1180</ele>
        <time>2015-05-22T14:41:05Z</time>
      </trkpt>
      <trkpt lat="45.89076" lon="6.19201">
        <ele>1180</ele>
        <time>2015-05-22T14:41:07Z</time>
      </trkpt>
      <trkpt lat="45.89076" lon="6.192">
        <ele>1178</ele>
        <time>2015-05-22T14:41:08Z</time>
      </trkpt>
      <trkpt lat="45.89073" lon="6.19201">
        <ele>1178</ele>
        <time>2015-05-22T14:41:09Z</time>
      </trkpt>
      <trkpt lat="45.89073" lon="6.192">
        <ele>1177</ele>
        <time>2015-05-22T14:41:10Z</time>
      </trkpt>
      <trkpt lat="45.89073" lon="6.19199">
        <ele>1177</ele>
        <time>2015-05-22T14:41:11Z</time>
      </trkpt>
      <trkpt lat="45.89072" lon="6.19198">
        <ele>1177</ele>
        <time>2015-05-22T14:41:12Z</time>
      </trkpt>
      <trkpt lat="45.89071" lon="6.19198">
        <ele>1177</ele>
        <time>2015-05-22T14:41:13Z</time>
      </trkpt>
      <trkpt lat="45.89072" lon="6.19197">
        <ele>1177</ele>
        <time>2015-05-22T14:41:15Z</time>
      </trkpt>
      <trkpt lat="45.89071" lon="6.19197">
        <ele>1177</ele>
        <time>2015-05-22T14:41:17Z</time>
      </trkpt>
      <trkpt lat="45.89071" lon="6.19197">
        <ele>1177</ele>
        <time>2015-05-22T14:41:19Z</time>
      </trkpt>
      <trkpt lat="45.89071" lon="6.19197">
        <ele>1178</ele>
        <time>2015-05-22T14:41:21Z</time>
      </trkpt>
      <trkpt lat="45.89071" lon="6.19196">
        <ele>1178</ele>
        <time>2015-05-22T14:41:23Z</time>
      </trkpt>
      <trkpt lat="45.89071" lon="6.19196">
        <ele>1178</ele>
        <time>2015-05-22T14:41:25Z</time>
      </trkpt>
      <trkpt lat="45.89071" lon="6.19196">
        <ele>1178</ele>
        <time>2015-05-22T14:41:27Z</time>
      </trkpt>
      <trkpt lat="45.89071" lon="6.19196">
        <ele>1178</ele>
        <time>2015-05-22T14:41:28Z</time>
      </trkpt>
      <trkpt lat="45.89071" lon="6.19196">
        <ele>1178</ele>
        <time>2015-05-22T14:41:29Z</time>
      </trkpt>
      <trkpt lat="45.89071" lon="6.19196">
        <ele>1178</ele>
        <time>2015-05-22T14:41:30Z</time>
      </trkpt>
      <trkpt lat="45.89071" lon="6.19196">
        <ele>1178</ele>
        <time>2015-05-22T14:41:31Z</time>
      </trkpt>
      <trkpt lat="45.89071" lon="6.19196">
        <ele>1178</ele>
        <time>2015-05-22T14:41:32Z</time>
      </trkpt>
      <trkpt lat="45.89071" lon="6.19196">
        <ele>1178</ele>
        <time>2015-05-22T14:41:33Z</time>
      </trkpt>
      <trkpt lat="45.8907" lon="6.19195">
        <ele>1177</ele>
        <time>2015-05-22T14:41:35Z</time>
      </trkpt>
      <trkpt lat="45.89067" lon="6.19191">
        <ele>1176</ele>
        <time>2015-05-22T14:41:37Z</time>
      </trkpt>
      <trkpt lat="45.89066" lon="6.19185">
        <ele>1177</ele>
        <time>2015-05-22T14:41:39Z</time>
      </trkpt>
      <trkpt lat="45.89065" lon="6.19182">
        <ele>1176</ele>
        <time>2015-05-22T14:41:41Z</time>
      </trkpt>
      <trkpt lat="45.89066" lon="6.19174">
        <ele>1177</ele>
        <time>2015-05-22T14:41:43Z</time>
      </trkpt>
      <trkpt lat="45.89066" lon="6.19169">
        <ele>1176</ele>
        <time>2015-05-22T14:41:45Z</time>
      </trkpt>
      <trkpt lat="45.89065" lon="6.19167">
        <ele>1179</ele>
        <time>2015-05-22T14:41:47Z</time>
      </trkpt>
      <trkpt lat="45.89066" lon="6.19167">
        <ele>1180</ele>
        <time>2015-05-22T14:41:48Z</time>
      </trkpt>
      <trkpt lat="45.89066" lon="6.19166">
        <ele>1180</ele>
        <time>2015-05-22T14:41:49Z</time>
      </trkpt>
      <trkpt lat="45.89066" lon="6.19165">
        <ele>1181</ele>
        <time>2015-05-22T14:41:50Z</time>
      </trkpt>
      <trkpt lat="45.89069" lon="6.19163">
        <ele>1179</ele>
        <time>2015-05-22T14:41:51Z</time>
      </trkpt>
      <trkpt lat="45.89068" lon="6.19165">
        <ele>1181</ele>
        <time>2015-05-22T14:41:52Z</time>
      </trkpt>
      <trkpt lat="45.89068" lon="6.19165">
        <ele>1182</ele>
        <time>2015-05-22T14:41:53Z</time>
      </trkpt>
      <trkpt lat="45.8907" lon="6.19163">
        <ele>1179</ele>
        <time>2015-05-22T14:41:55Z</time>
      </trkpt>
      <trkpt lat="45.89068" lon="6.19162">
        <ele>1177</ele>
        <time>2015-05-22T14:41:57Z</time>
      </trkpt>
      <trkpt lat="45.89068" lon="6.19162">
        <ele>1178</ele>
        <time>2015-05-22T14:41:59Z</time>
      </trkpt>
      <trkpt lat="45.89066" lon="6.19161">
        <ele>1179</ele>
        <time>2015-05-22T14:42:01Z</time>
      </trkpt>
      <trkpt lat="45.89064" lon="6.1916">
        <ele>1180</ele>
        <time>2015-05-22T14:42:03Z</time>
      </trkpt>
      <trkpt lat="45.89063" lon="6.19159">
        <ele>1180</ele>
        <time>2015-05-22T14:42:05Z</time>
      </trkpt>
      <trkpt lat="45.89063" lon="6.19159">
        <ele>1181</ele>
        <time>2015-05-22T14:42:07Z</time>
      </trkpt>
      <trkpt lat="45.89063" lon="6.19158">
        <ele>1181</ele>
        <time>2015-05-22T14:42:08Z</time>
      </trkpt>
      <trkpt lat="45.89063" lon="6.19158">
        <ele>1181</ele>
        <time>2015-05-22T14:42:09Z</time>
      </trkpt>
      <trkpt lat="45.89063" lon="6.19158">
        <ele>1181</ele>
        <time>2015-05-22T14:42:10Z</time>
      </trkpt>
      <trkpt lat="45.89063" lon="6.19158">
        <ele>1181</ele>
        <time>2015-05-22T14:42:11Z</time>
      </trkpt>
      <trkpt lat="45.89063" lon="6.19158">
        <ele>1181</ele>
        <time>2015-05-22T14:42:12Z</time>
      </trkpt>
      <trkpt lat="45.89063" lon="6.19158">
        <ele>1181</ele>
        <time>2015-05-22T14:42:13Z</time>
      </trkpt>
      <trkpt lat="45.89063" lon="6.19158">
        <ele>1181</ele>
        <time>2015-05-22T14:42:15Z</time>
      </trkpt>
      <trkpt lat="45.89063" lon="6.19158">
        <ele>1181</ele>
        <time>2015-05-22T14:42:17Z</time>
      </trkpt>
      <trkpt lat="45.89063" lon="6.19158">
        <ele>1181</ele>
        <time>2015-05-22T14:42:19Z</time>
      </trkpt>
      <trkpt lat="45.89063" lon="6.19158">
        <ele>1181</ele>
        <time>2015-05-22T14:42:21Z</time>
      </trkpt>
      <trkpt lat="45.89063" lon="6.19158">
        <ele>1181</ele>
        <time>2015-05-22T14:42:23Z</time>
      </trkpt>
      <trkpt lat="45.89063" lon="6.19158">
        <ele>1181</ele>
        <time>2015-05-22T14:42:25Z</time>
      </trkpt>
      <trkpt lat="45.89063" lon="6.19158">
        <ele>1181</ele>
        <time>2015-05-22T14:42:27Z</time>
      </trkpt>
      <trkpt lat="45.89063" lon="6.19158">
        <ele>1181</ele>
        <time>2015-05-22T14:42:28Z</time>
      </trkpt>
      <trkpt lat="45.89063" lon="6.19158">
        <ele>1181</ele>
        <time>2015-05-22T14:42:29Z</time>
      </trkpt>
      <trkpt lat="45.89063" lon="6.19158">
        <ele>1181</ele>
        <time>2015-05-22T14:42:30Z</time>
      </trkpt>
      <trkpt lat="45.89063" lon="6.19158">
        <ele>1181</ele>
        <time>2015-05-22T14:42:31Z</time>
      </trkpt>
      <trkpt lat="45.89063" lon="6.19158">
        <ele>1181</ele>
        <time>2015-05-22T14:42:32Z</time>
      </trkpt>
      <trkpt lat="45.89063" lon="6.19158">
        <ele>1181</ele>
        <time>2015-05-22T14:42:33Z</time>
      </trkpt>
      <trkpt lat="45.89063" lon="6.19158">
        <ele>1181</ele>
        <time>2015-05-22T14:42:35Z</time>
      </trkpt>
      <trkpt lat="45.89063" lon="6.19158">
        <ele>1181</ele>
        <time>2015-05-22T14:42:37Z</time>
      </trkpt>
      <trkpt lat="45.89063" lon="6.19158">
        <ele>1181</ele>
        <time>2015-05-22T14:42:39Z</time>
      </trkpt>
      <trkpt lat="45.89063" lon="6.19158">
        <ele>1181</ele>
        <time>2015-05-22T14:42:41Z</time>
      </trkpt>
      <trkpt lat="45.89063" lon="6.19158">
        <ele>1181</ele>
        <time>2015-05-22T14:42:43Z</time>
      </trkpt>
      <trkpt lat="45.89063" lon="6.19158">
        <ele>1181</ele>
        <time>2015-05-22T14:42:45Z</time>
      </trkpt>
      <trkpt lat="45.89063" lon="6.19158">
        <ele>1181</ele>
        <time>2015-05-22T14:42:47Z</time>
      </trkpt>
      <trkpt lat="45.89063" lon="6.19158">
        <ele>1181</ele>
        <time>2015-05-22T14:42:48Z</time>
      </trkpt>
      <trkpt lat="45.89063" lon="6.19158">
        <ele>1181</ele>
        <time>2015-05-22T14:42:49Z</time>
      </trkpt>
      <trkpt lat="45.89063" lon="6.19158">
        <ele>1181</ele>
        <time>2015-05-22T14:42:50Z</time>
      </trkpt>
      <trkpt lat="45.89063" lon="6.19158">
        <ele>1181</ele>
        <time>2015-05-22T14:42:51Z</time>
      </trkpt>
      <trkpt lat="45.89063" lon="6.19158">
        <ele>1181</ele>
        <time>2015-05-22T14:42:52Z</time>
      </trkpt>
      <trkpt lat="45.89063" lon="6.19158">
        <ele>1181</ele>
        <time>2015-05-22T14:42:53Z</time>
      </trkpt>
      <trkpt lat="45.89063" lon="6.19158">
        <ele>1181</ele>
        <time>2015-05-22T14:42:54Z</time>
      </trkpt>
      <trkpt lat="45.89063" lon="6.19158">
        <ele>1181</ele>
        <time>2015-05-22T14:42:55Z</time>
      </trkpt>
      <trkpt lat="45.89063" lon="6.19158">
        <ele>1181</ele>
        <time>2015-05-22T14:42:56Z</time>
      </trkpt>
      <trkpt lat="45.89063" lon="6.19158">
        <ele>1181</ele>
        <time>2015-05-22T14:42:57Z</time>
      </trkpt>
      <trkpt lat="45.89063" lon="6.19158">
        <ele>1181</ele>
        <time>2015-05-22T14:42:59Z</time>
      </trkpt>
      <trkpt lat="45.89063" lon="6.19158">
        <ele>1181</ele>
        <time>2015-05-22T14:43:00Z</time>
      </trkpt>
      <trkpt lat="45.89063" lon="6.19158">
        <ele>1181</ele>
        <time>2015-05-22T14:43:02Z</time>
      </trkpt>
      <trkpt lat="45.89063" lon="6.19158">
        <ele>1181</ele>
        <time>2015-05-22T14:43:03Z</time>
      </trkpt>
      <trkpt lat="45.89063" lon="6.19158">
        <ele>1181</ele>
        <time>2015-05-22T14:43:04Z</time>
      </trkpt>
      <trkpt lat="45.89063" lon="6.19158">
        <ele>1181</ele>
        <time>2015-05-22T14:43:05Z</time>
      </trkpt>
      <trkpt lat="45.89063" lon="6.19158">
        <ele>1181</ele>
        <time>2015-05-22T14:43:07Z</time>
      </trkpt>
      <trkpt lat="45.89062" lon="6.19155">
        <ele>1181</ele>
        <time>2015-05-22T14:43:08Z</time>
      </trkpt>
      <trkpt lat="45.89062" lon="6.19148">
        <ele>1180</ele>
        <time>2015-05-22T14:43:10Z</time>
      </trkpt>
      <trkpt lat="45.89064" lon="6.1915">
        <ele>1179</ele>
        <time>2015-05-22T14:43:11Z</time>
      </trkpt>
      <trkpt lat="45.89064" lon="6.19149">
        <ele>1180</ele>
        <time>2015-05-22T14:43:12Z</time>
      </trkpt>
      <trkpt lat="45.89064" lon="6.19146">
        <ele>1181</ele>
        <time>2015-05-22T14:43:13Z</time>
      </trkpt>
      <trkpt lat="45.89063" lon="6.19145">
        <ele>1181</ele>
        <time>2015-05-22T14:43:14Z</time>
      </trkpt>
      <trkpt lat="45.89064" lon="6.19144">
        <ele>1181</ele>
        <time>2015-05-22T14:43:15Z</time>
      </trkpt>
      <trkpt lat="45.89065" lon="6.19142">
        <ele>1181</ele>
        <time>2015-05-22T14:43:16Z</time>
      </trkpt>
      <trkpt lat="45.89066" lon="6.19141">
        <ele>1181</ele>
        <time>2015-05-22T14:43:17Z</time>
      </trkpt>
      <trkpt lat="45.89067" lon="6.19139">
        <ele>1182</ele>
        <time>2015-05-22T14:43:18Z</time>
      </trkpt>
      <trkpt lat="45.89069" lon="6.1914">
        <ele>1182</ele>
        <time>2015-05-22T14:43:20Z</time>
      </trkpt>
      <trkpt lat="45.8907" lon="6.1914">
        <ele>1181</ele>
        <time>2015-05-22T14:43:22Z</time>
      </trkpt>
      <trkpt lat="45.89071" lon="6.19139">
        <ele>1181</ele>
        <time>2015-05-22T14:43:24Z</time>
      </trkpt>
      <trkpt lat="45.89073" lon="6.19138">
        <ele>1182</ele>
        <time>2015-05-22T14:43:26Z</time>
      </trkpt>
      <trkpt lat="45.89072" lon="6.19134">
        <ele>1182</ele>
        <time>2015-05-22T14:43:28Z</time>
      </trkpt>
      <trkpt lat="45.89072" lon="6.19134">
        <ele>1184</ele>
        <time>2015-05-22T14:43:29Z</time>
      </trkpt>
      <trkpt lat="45.89072" lon="6.19134">
        <ele>1184</ele>
        <time>2015-05-22T14:43:30Z</time>
      </trkpt>
      <trkpt lat="45.89073" lon="6.19134">
        <ele>1184</ele>
        <time>2015-05-22T14:43:31Z</time>
      </trkpt>
      <trkpt lat="45.89073" lon="6.19134">
        <ele>1184</ele>
        <time>2015-05-22T14:43:32Z</time>
      </trkpt>
      <trkpt lat="45.89074" lon="6.19133">
        <ele>1186</ele>
        <time>2015-05-22T14:43:33Z</time>
      </trkpt>
      <trkpt lat="45.89075" lon="6.19133">
        <ele>1185</ele>
        <time>2015-05-22T14:43:34Z</time>
      </trkpt>
      <trkpt lat="45.89075" lon="6.19133">
        <ele>1186</ele>
        <time>2015-05-22T14:43:35Z</time>
      </trkpt>
      <trkpt lat="45.89076" lon="6.19131">
        <ele>1187</ele>
        <time>2015-05-22T14:43:37Z</time>
      </trkpt>
      <trkpt lat="45.89076" lon="6.19131">
        <ele>1188</ele>
        <time>2015-05-22T14:43:39Z</time>
      </trkpt>
      <trkpt lat="45.89076" lon="6.19131">
        <ele>1188</ele>
        <time>2015-05-22T14:43:41Z</time>
      </trkpt>
      <trkpt lat="45.89077" lon="6.1913">
        <ele>1189</ele>
        <time>2015-05-22T14:43:43Z</time>
      </trkpt>
      <trkpt lat="45.89077" lon="6.19132">
        <ele>1190</ele>
        <time>2015-05-22T14:43:45Z</time>
      </trkpt>
      <trkpt lat="45.89077" lon="6.19131">
        <ele>1190</ele>
        <time>2015-05-22T14:43:46Z</time>
      </trkpt>
      <trkpt lat="45.89078" lon="6.19131">
        <ele>1189</ele>
        <time>2015-05-22T14:43:48Z</time>
      </trkpt>
      <trkpt lat="45.89079" lon="6.19132">
        <ele>1191</ele>
        <time>2015-05-22T14:43:49Z</time>
      </trkpt>
      <trkpt lat="45.8908" lon="6.19133">
        <ele>1192</ele>
        <time>2015-05-22T14:43:50Z</time>
      </trkpt>
      <trkpt lat="45.89082" lon="6.19133">
        <ele>1194</ele>
        <time>2015-05-22T14:43:51Z</time>
      </trkpt>
      <trkpt lat="45.89082" lon="6.19134">
        <ele>1194</ele>
        <time>2015-05-22T14:43:52Z</time>
      </trkpt>
      <trkpt lat="45.89082" lon="6.19135">
        <ele>1195</ele>
        <time>2015-05-22T14:43:53Z</time>
      </trkpt>
      <trkpt lat="45.89082" lon="6.19134">
        <ele>1194</ele>
        <time>2015-05-22T14:43:54Z</time>
      </trkpt>
      <trkpt lat="45.89082" lon="6.19133">
        <ele>1196</ele>
        <time>2015-05-22T14:43:55Z</time>
      </trkpt>
      <trkpt lat="45.89083" lon="6.19129">
        <ele>1197</ele>
        <time>2015-05-22T14:43:57Z</time>
      </trkpt>
      <trkpt lat="45.89088" lon="6.19132">
        <ele>1198</ele>
        <time>2015-05-22T14:43:59Z</time>
      </trkpt>
      <trkpt lat="45.89091" lon="6.19134">
        <ele>1200</ele>
        <time>2015-05-22T14:44:01Z</time>
      </trkpt>
      <trkpt lat="45.89092" lon="6.19133">
        <ele>1199</ele>
        <time>2015-05-22T14:44:03Z</time>
      </trkpt>
      <trkpt lat="45.89093" lon="6.19131">
        <ele>1198</ele>
        <time>2015-05-22T14:44:05Z</time>
      </trkpt>
      <trkpt lat="45.89092" lon="6.19132">
        <ele>1199</ele>
        <time>2015-05-22T14:44:06Z</time>
      </trkpt>
      <trkpt lat="45.89092" lon="6.19132">
        <ele>1197</ele>
        <time>2015-05-22T14:44:07Z</time>
      </trkpt>
      <trkpt lat="45.89092" lon="6.1913">
        <ele>1196</ele>
        <time>2015-05-22T14:44:08Z</time>
      </trkpt>
      <trkpt lat="45.89094" lon="6.19129">
        <ele>1196</ele>
        <time>2015-05-22T14:44:09Z</time>
      </trkpt>
      <trkpt lat="45.89096" lon="6.19129">
        <ele>1196</ele>
        <time>2015-05-22T14:44:10Z</time>
      </trkpt>
      <trkpt lat="45.89095" lon="6.1913">
        <ele>1199</ele>
        <time>2015-05-22T14:44:11Z</time>
      </trkpt>
      <trkpt lat="45.89099" lon="6.19129">
        <ele>1199</ele>
        <time>2015-05-22T14:44:12Z</time>
      </trkpt>
      <trkpt lat="45.89098" lon="6.19127">
        <ele>1202</ele>
        <time>2015-05-22T14:44:13Z</time>
      </trkpt>
      <trkpt lat="45.891" lon="6.19128">
        <ele>1200</ele>
        <time>2015-05-22T14:44:14Z</time>
      </trkpt>
      <trkpt lat="45.89101" lon="6.19127">
        <ele>1201</ele>
        <time>2015-05-22T14:44:15Z</time>
      </trkpt>
      <trkpt lat="45.89101" lon="6.19126">
        <ele>1201</ele>
        <time>2015-05-22T14:44:17Z</time>
      </trkpt>
      <trkpt lat="45.89101" lon="6.19129">
        <ele>1202</ele>
        <time>2015-05-22T14:44:19Z</time>
      </trkpt>
      <trkpt lat="45.89103" lon="6.19128">
        <ele>1201</ele>
        <time>2015-05-22T14:44:21Z</time>
      </trkpt>
      <trkpt lat="45.89104" lon="6.19127">
        <ele>1202</ele>
        <time>2015-05-22T14:44:23Z</time>
      </trkpt>
      <trkpt lat="45.89105" lon="6.19125">
        <ele>1205</ele>
        <time>2015-05-22T14:44:25Z</time>
      </trkpt>
      <trkpt lat="45.89104" lon="6.19122">
        <ele>1203</ele>
        <time>2015-05-22T14:44:27Z</time>
      </trkpt>
      <trkpt lat="45.89105" lon="6.19124">
        <ele>1199</ele>
        <time>2015-05-22T14:44:29Z</time>
      </trkpt>
      <trkpt lat="45.89104" lon="6.19122">
        <ele>1199</ele>
        <time>2015-05-22T14:44:30Z</time>
      </trkpt>
      <trkpt lat="45.89103" lon="6.19124">
        <ele>1198</ele>
        <time>2015-05-22T14:44:31Z</time>
      </trkpt>
      <trkpt lat="45.89104" lon="6.19124">
        <ele>1196</ele>
        <time>2015-05-22T14:44:32Z</time>
      </trkpt>
      <trkpt lat="45.89103" lon="6.19123">
        <ele>1197</ele>
        <time>2015-05-22T14:44:33Z</time>
      </trkpt>
      <trkpt lat="45.89102" lon="6.19122">
        <ele>1197</ele>
        <time>2015-05-22T14:44:34Z</time>
      </trkpt>
      <trkpt lat="45.89102" lon="6.19121">
        <ele>1193</ele>
        <time>2015-05-22T14:44:35Z</time>
      </trkpt>
      <trkpt lat="45.89101" lon="6.19119">
        <ele>1192</ele>
        <time>2015-05-22T14:44:37Z</time>
      </trkpt>
      <trkpt lat="45.891" lon="6.19119">
        <ele>1194</ele>
        <time>2015-05-22T14:44:39Z</time>
      </trkpt>
      <trkpt lat="45.89099" lon="6.19125">
        <ele>1193</ele>
        <time>2015-05-22T14:44:41Z</time>
      </trkpt>
      <trkpt lat="45.89096" lon="6.19122">
        <ele>1192</ele>
        <time>2015-05-22T14:44:43Z</time>
      </trkpt>
      <trkpt lat="45.89095" lon="6.1912">
        <ele>1193</ele>
        <time>2015-05-22T14:44:45Z</time>
      </trkpt>
      <trkpt lat="45.89095" lon="6.19121">
        <ele>1193</ele>
        <time>2015-05-22T14:44:46Z</time>
      </trkpt>
      <trkpt lat="45.89094" lon="6.1912">
        <ele>1193</ele>
        <time>2015-05-22T14:44:47Z</time>
      </trkpt>
      <trkpt lat="45.89094" lon="6.19119">
        <ele>1193</ele>
        <time>2015-05-22T14:44:48Z</time>
      </trkpt>
      <trkpt lat="45.89094" lon="6.19118">
        <ele>1193</ele>
        <time>2015-05-22T14:44:49Z</time>
      </trkpt>
      <trkpt lat="45.89094" lon="6.19117">
        <ele>1192</ele>
        <time>2015-05-22T14:44:50Z</time>
      </trkpt>
      <trkpt lat="45.89094" lon="6.19117">
        <ele>1192</ele>
        <time>2015-05-22T14:44:51Z</time>
      </trkpt>
      <trkpt lat="45.89094" lon="6.19116">
        <ele>1193</ele>
        <time>2015-05-22T14:44:52Z</time>
      </trkpt>
      <trkpt lat="45.89094" lon="6.19115">
        <ele>1193</ele>
        <time>2015-05-22T14:44:53Z</time>
      </trkpt>
      <trkpt lat="45.89094" lon="6.19115">
        <ele>1193</ele>
        <time>2015-05-22T14:44:54Z</time>
      </trkpt>
      <trkpt lat="45.89094" lon="6.19115">
        <ele>1194</ele>
        <time>2015-05-22T14:44:55Z</time>
      </trkpt>
      <trkpt lat="45.89094" lon="6.19115">
        <ele>1194</ele>
        <time>2015-05-22T14:44:57Z</time>
      </trkpt>
      <trkpt lat="45.89094" lon="6.19115">
        <ele>1194</ele>
        <time>2015-05-22T14:44:59Z</time>
      </trkpt>
      <trkpt lat="45.89094" lon="6.19115">
        <ele>1194</ele>
        <time>2015-05-22T14:45:01Z</time>
      </trkpt>
      <trkpt lat="45.89094" lon="6.19116">
        <ele>1194</ele>
        <time>2015-05-22T14:45:03Z</time>
      </trkpt>
      <trkpt lat="45.89094" lon="6.19116">
        <ele>1194</ele>
        <time>2015-05-22T14:45:05Z</time>
      </trkpt>
      <trkpt lat="45.89094" lon="6.19116">
        <ele>1194</ele>
        <time>2015-05-22T14:45:07Z</time>
      </trkpt>
      <trkpt lat="45.89094" lon="6.19116">
        <ele>1194</ele>
        <time>2015-05-22T14:45:09Z</time>
      </trkpt>
      <trkpt lat="45.89094" lon="6.19116">
        <ele>1194</ele>
        <time>2015-05-22T14:45:10Z</time>
      </trkpt>
      <trkpt lat="45.89094" lon="6.19116">
        <ele>1194</ele>
        <time>2015-05-22T14:45:11Z</time>
      </trkpt>
      <trkpt lat="45.89094" lon="6.19116">
        <ele>1194</ele>
        <time>2015-05-22T14:45:12Z</time>
      </trkpt>
      <trkpt lat="45.89094" lon="6.19116">
        <ele>1194</ele>
        <time>2015-05-22T14:45:13Z</time>
      </trkpt>
      <trkpt lat="45.89094" lon="6.19116">
        <ele>1194</ele>
        <time>2015-05-22T14:45:14Z</time>
      </trkpt>
      <trkpt lat="45.89094" lon="6.19116">
        <ele>1194</ele>
        <time>2015-05-22T14:45:15Z</time>
      </trkpt>
      <trkpt lat="45.89094" lon="6.19116">
        <ele>1194</ele>
        <time>2015-05-22T14:45:17Z</time>
      </trkpt>
      <trkpt lat="45.89094" lon="6.19116">
        <ele>1194</ele>
        <time>2015-05-22T14:45:19Z</time>
      </trkpt>
      <trkpt lat="45.89094" lon="6.19116">
        <ele>1194</ele>
        <time>2015-05-22T14:45:21Z</time>
      </trkpt>
      <trkpt lat="45.89094" lon="6.19116">
        <ele>1194</ele>
        <time>2015-05-22T14:45:23Z</time>
      </trkpt>
      <trkpt lat="45.89094" lon="6.19116">
        <ele>1194</ele>
        <time>2015-05-22T14:45:25Z</time>
      </trkpt>
      <trkpt lat="45.89094" lon="6.19116">
        <ele>1194</ele>
        <time>2015-05-22T14:45:26Z</time>
      </trkpt>
      <trkpt lat="45.89094" lon="6.19116">
        <ele>1194</ele>
        <time>2015-05-22T14:45:27Z</time>
      </trkpt>
      <trkpt lat="45.89094" lon="6.19116">
        <ele>1194</ele>
        <time>2015-05-22T14:45:28Z</time>
      </trkpt>
      <trkpt lat="45.89094" lon="6.19116">
        <ele>1194</ele>
        <time>2015-05-22T14:45:29Z</time>
      </trkpt>
      <trkpt lat="45.89094" lon="6.19116">
        <ele>1194</ele>
        <time>2015-05-22T14:45:30Z</time>
      </trkpt>
      <trkpt lat="45.89094" lon="6.19116">
        <ele>1194</ele>
        <time>2015-05-22T14:45:31Z</time>
      </trkpt>
      <trkpt lat="45.89094" lon="6.19116">
        <ele>1194</ele>
        <time>2015-05-22T14:45:32Z</time>
      </trkpt>
      <trkpt lat="45.89094" lon="6.19116">
        <ele>1194</ele>
        <time>2015-05-22T14:45:33Z</time>
      </trkpt>
      <trkpt lat="45.89094" lon="6.19116">
        <ele>1194</ele>
        <time>2015-05-22T14:45:34Z</time>
      </trkpt>
      <trkpt lat="45.89094" lon="6.19116">
        <ele>1194</ele>
        <time>2015-05-22T14:45:35Z</time>
      </trkpt>
      <trkpt lat="45.89096" lon="6.19116">
        <ele>1195</ele>
        <time>2015-05-22T14:45:37Z</time>
      </trkpt>
      <trkpt lat="45.89096" lon="6.19115">
        <ele>1200</ele>
        <time>2015-05-22T14:45:39Z</time>
      </trkpt>
      <trkpt lat="45.89099" lon="6.19112">
        <ele>1200</ele>
        <time>2015-05-22T14:45:41Z</time>
      </trkpt>
      <trkpt lat="45.891" lon="6.19113">
        <ele>1197</ele>
        <time>2015-05-22T14:45:43Z</time>
      </trkpt>
      <trkpt lat="45.89099" lon="6.19111">
        <ele>1199</ele>
        <time>2015-05-22T14:45:45Z</time>
      </trkpt>
      <trkpt lat="45.89099" lon="6.1911">
        <ele>1201</ele>
        <time>2015-05-22T14:45:47Z</time>
      </trkpt>
      <trkpt lat="45.89098" lon="6.19109">
        <ele>1202</ele>
        <time>2015-05-22T14:45:49Z</time>
      </trkpt>
      <trkpt lat="45.89098" lon="6.19108">
        <ele>1202</ele>
        <time>2015-05-22T14:45:50Z</time>
      </trkpt>
      <trkpt lat="45.89098" lon="6.19108">
        <ele>1202</ele>
        <time>2015-05-22T14:45:51Z</time>
      </trkpt>
      <trkpt lat="45.89097" lon="6.19107">
        <ele>1202</ele>
        <time>2015-05-22T14:45:52Z</time>
      </trkpt>
      <trkpt lat="45.89098" lon="6.19107">
        <ele>1203</ele>
        <time>2015-05-22T14:45:53Z</time>
      </trkpt>
      <trkpt lat="45.89098" lon="6.19107">
        <ele>1203</ele>
        <time>2015-05-22T14:45:54Z</time>
      </trkpt>
      <trkpt lat="45.89098" lon="6.19107">
        <ele>1203</ele>
        <time>2015-05-22T14:45:55Z</time>
      </trkpt>
      <trkpt lat="45.89098" lon="6.19106">
        <ele>1203</ele>
        <time>2015-05-22T14:45:57Z</time>
      </trkpt>
      <trkpt lat="45.89098" lon="6.19106">
        <ele>1204</ele>
        <time>2015-05-22T14:45:59Z</time>
      </trkpt>
      <trkpt lat="45.89098" lon="6.19106">
        <ele>1204</ele>
        <time>2015-05-22T14:46:01Z</time>
      </trkpt>
      <trkpt lat="45.89098" lon="6.19106">
        <ele>1204</ele>
        <time>2015-05-22T14:46:03Z</time>
      </trkpt>
      <trkpt lat="45.89098" lon="6.19106">
        <ele>1204</ele>
        <time>2015-05-22T14:46:05Z</time>
      </trkpt>
      <trkpt lat="45.89098" lon="6.19106">
        <ele>1204</ele>
        <time>2015-05-22T14:46:07Z</time>
      </trkpt>
      <trkpt lat="45.89098" lon="6.19106">
        <ele>1204</ele>
        <time>2015-05-22T14:46:09Z</time>
      </trkpt>
      <trkpt lat="45.89098" lon="6.19106">
        <ele>1204</ele>
        <time>2015-05-22T14:46:10Z</time>
      </trkpt>
      <trkpt lat="45.89098" lon="6.19106">
        <ele>1204</ele>
        <time>2015-05-22T14:46:11Z</time>
      </trkpt>
      <trkpt lat="45.89098" lon="6.19106">
        <ele>1204</ele>
        <time>2015-05-22T14:46:12Z</time>
      </trkpt>
      <trkpt lat="45.89098" lon="6.19103">
        <ele>1205</ele>
        <time>2015-05-22T14:46:13Z</time>
      </trkpt>
      <trkpt lat="45.89099" lon="6.19103">
        <ele>1206</ele>
        <time>2015-05-22T14:46:14Z</time>
      </trkpt>
      <trkpt lat="45.89099" lon="6.19103">
        <ele>1207</ele>
        <time>2015-05-22T14:46:15Z</time>
      </trkpt>
      <trkpt lat="45.89099" lon="6.19102">
        <ele>1206</ele>
        <time>2015-05-22T14:46:16Z</time>
      </trkpt>
      <trkpt lat="45.89099" lon="6.19103">
        <ele>1207</ele>
        <time>2015-05-22T14:46:17Z</time>
      </trkpt>
      <trkpt lat="45.89099" lon="6.19102">
        <ele>1207</ele>
        <time>2015-05-22T14:46:18Z</time>
      </trkpt>
      <trkpt lat="45.891" lon="6.19101">
        <ele>1207</ele>
        <time>2015-05-22T14:46:19Z</time>
      </trkpt>
      <trkpt lat="45.891" lon="6.191">
        <ele>1207</ele>
        <time>2015-05-22T14:46:21Z</time>
      </trkpt>
      <trkpt lat="45.89101" lon="6.191">
        <ele>1208</ele>
        <time>2015-05-22T14:46:22Z</time>
      </trkpt>
      <trkpt lat="45.89101" lon="6.19099">
        <ele>1208</ele>
        <time>2015-05-22T14:46:24Z</time>
      </trkpt>
      <trkpt lat="45.89102" lon="6.19099">
        <ele>1208</ele>
        <time>2015-05-22T14:46:25Z</time>
      </trkpt>
      <trkpt lat="45.89102" lon="6.19099">
        <ele>1208</ele>
        <time>2015-05-22T14:46:26Z</time>
      </trkpt>
      <trkpt lat="45.89102" lon="6.19099">
        <ele>1208</ele>
        <time>2015-05-22T14:46:27Z</time>
      </trkpt>
      <trkpt lat="45.89102" lon="6.19099">
        <ele>1208</ele>
        <time>2015-05-22T14:46:28Z</time>
      </trkpt>
      <trkpt lat="45.89102" lon="6.19099">
        <ele>1208</ele>
        <time>2015-05-22T14:46:29Z</time>
      </trkpt>
      <trkpt lat="45.89102" lon="6.19099">
        <ele>1208</ele>
        <time>2015-05-22T14:46:30Z</time>
      </trkpt>
      <trkpt lat="45.89102" lon="6.191">
        <ele>1209</ele>
        <time>2015-05-22T14:46:31Z</time>
      </trkpt>
      <trkpt lat="45.89102" lon="6.191">
        <ele>1209</ele>
        <time>2015-05-22T14:46:32Z</time>
      </trkpt>
      <trkpt lat="45.89102" lon="6.191">
        <ele>1209</ele>
        <time>2015-05-22T14:46:33Z</time>
      </trkpt>
      <trkpt lat="45.89102" lon="6.191">
        <ele>1209</ele>
        <time>2015-05-22T14:46:34Z</time>
      </trkpt>
      <trkpt lat="45.89102" lon="6.191">
        <ele>1209</ele>
        <time>2015-05-22T14:46:35Z</time>
      </trkpt>
      <trkpt lat="45.89102" lon="6.191">
        <ele>1209</ele>
        <time>2015-05-22T14:46:36Z</time>
      </trkpt>
      <trkpt lat="45.89102" lon="6.191">
        <ele>1209</ele>
        <time>2015-05-22T14:46:38Z</time>
      </trkpt>
      <trkpt lat="45.89102" lon="6.191">
        <ele>1209</ele>
        <time>2015-05-22T14:46:40Z</time>
      </trkpt>
      <trkpt lat="45.89102" lon="6.191">
        <ele>1209</ele>
        <time>2015-05-22T14:46:42Z</time>
      </trkpt>
      <trkpt lat="45.89102" lon="6.191">
        <ele>1209</ele>
        <time>2015-05-22T14:46:44Z</time>
      </trkpt>
      <trkpt lat="45.89102" lon="6.191">
        <ele>1209</ele>
        <time>2015-05-22T14:46:46Z</time>
      </trkpt>
      <trkpt lat="45.89102" lon="6.191">
        <ele>1209</ele>
        <time>2015-05-22T14:46:48Z</time>
      </trkpt>
      <trkpt lat="45.89102" lon="6.19099">
        <ele>1209</ele>
        <time>2015-05-22T14:46:50Z</time>
      </trkpt>
      <trkpt lat="45.89102" lon="6.19099">
        <ele>1209</ele>
        <time>2015-05-22T14:46:51Z</time>
      </trkpt>
      <trkpt lat="45.89102" lon="6.19099">
        <ele>1208</ele>
        <time>2015-05-22T14:46:52Z</time>
      </trkpt>
      <trkpt lat="45.89103" lon="6.19097">
        <ele>1209</ele>
        <time>2015-05-22T14:46:53Z</time>
      </trkpt>
      <trkpt lat="45.89105" lon="6.19098">
        <ele>1209</ele>
        <time>2015-05-22T14:46:54Z</time>
      </trkpt>
      <trkpt lat="45.89106" lon="6.19097">
        <ele>1210</ele>
        <time>2015-05-22T14:46:55Z</time>
      </trkpt>
      <trkpt lat="45.89107" lon="6.19096">
        <ele>1212</ele>
        <time>2015-05-22T14:46:56Z</time>
      </trkpt>
      <trkpt lat="45.89113" lon="6.19092">
        <ele>1211</ele>
        <time>2015-05-22T14:46:58Z</time>
      </trkpt>
      <trkpt lat="45.89114" lon="6.19091">
        <ele>1212</ele>
        <time>2015-05-22T14:47:00Z</time>
      </trkpt>
      <trkpt lat="45.89116" lon="6.19091">
        <ele>1213</ele>
        <time>2015-05-22T14:47:02Z</time>
      </trkpt>
      <trkpt lat="45.89117" lon="6.1909">
        <ele>1214</ele>
        <time>2015-05-22T14:47:04Z</time>
      </trkpt>
      <trkpt lat="45.89118" lon="6.19091">
        <ele>1214</ele>
        <time>2015-05-22T14:47:06Z</time>
      </trkpt>
      <trkpt lat="45.89119" lon="6.1909">
        <ele>1214</ele>
        <time>2015-05-22T14:47:08Z</time>
      </trkpt>
      <trkpt lat="45.89119" lon="6.19089">
        <ele>1214</ele>
        <time>2015-05-22T14:47:10Z</time>
      </trkpt>
      <trkpt lat="45.89119" lon="6.19088">
        <ele>1214</ele>
        <time>2015-05-22T14:47:11Z</time>
      </trkpt>
      <trkpt lat="45.89119" lon="6.19088">
        <ele>1215</ele>
        <time>2015-05-22T14:47:12Z</time>
      </trkpt>
      <trkpt lat="45.8912" lon="6.19088">
        <ele>1215</ele>
        <time>2015-05-22T14:47:13Z</time>
      </trkpt>
      <trkpt lat="45.8912" lon="6.19088">
        <ele>1214</ele>
        <time>2015-05-22T14:47:14Z</time>
      </trkpt>
      <trkpt lat="45.8912" lon="6.19088">
        <ele>1214</ele>
        <time>2015-05-22T14:47:15Z</time>
      </trkpt>
      <trkpt lat="45.8912" lon="6.19088">
        <ele>1214</ele>
        <time>2015-05-22T14:47:16Z</time>
      </trkpt>
      <trkpt lat="45.8912" lon="6.19088">
        <ele>1214</ele>
        <time>2015-05-22T14:47:18Z</time>
      </trkpt>
      <trkpt lat="45.8912" lon="6.19088">
        <ele>1214</ele>
        <time>2015-05-22T14:47:20Z</time>
      </trkpt>
      <trkpt lat="45.8912" lon="6.19088">
        <ele>1214</ele>
        <time>2015-05-22T14:47:22Z</time>
      </trkpt>
      <trkpt lat="45.8912" lon="6.19088">
        <ele>1214</ele>
        <time>2015-05-22T14:47:24Z</time>
      </trkpt>
      <trkpt lat="45.8912" lon="6.19088">
        <ele>1214</ele>
        <time>2015-05-22T14:47:26Z</time>
      </trkpt>
      <trkpt lat="45.8912" lon="6.19088">
        <ele>1214</ele>
        <time>2015-05-22T14:47:28Z</time>
      </trkpt>
      <trkpt lat="45.8912" lon="6.19088">
        <ele>1214</ele>
        <time>2015-05-22T14:47:30Z</time>
      </trkpt>
      <trkpt lat="45.8912" lon="6.19088">
        <ele>1214</ele>
        <time>2015-05-22T14:47:31Z</time>
      </trkpt>
      <trkpt lat="45.8912" lon="6.19088">
        <ele>1214</ele>
        <time>2015-05-22T14:47:32Z</time>
      </trkpt>
      <trkpt lat="45.8912" lon="6.19088">
        <ele>1214</ele>
        <time>2015-05-22T14:47:33Z</time>
      </trkpt>
      <trkpt lat="45.8912" lon="6.19088">
        <ele>1214</ele>
        <time>2015-05-22T14:47:34Z</time>
      </trkpt>
      <trkpt lat="45.8912" lon="6.19088">
        <ele>1214</ele>
        <time>2015-05-22T14:47:35Z</time>
      </trkpt>
      <trkpt lat="45.8912" lon="6.19088">
        <ele>1214</ele>
        <time>2015-05-22T14:47:36Z</time>
      </trkpt>
      <trkpt lat="45.8912" lon="6.19088">
        <ele>1214</ele>
        <time>2015-05-22T14:47:38Z</time>
      </trkpt>
      <trkpt lat="45.8912" lon="6.19088">
        <ele>1214</ele>
        <time>2015-05-22T14:47:40Z</time>
      </trkpt>
      <trkpt lat="45.8912" lon="6.19088">
        <ele>1214</ele>
        <time>2015-05-22T14:47:42Z</time>
      </trkpt>
      <trkpt lat="45.8912" lon="6.19089">
        <ele>1214</ele>
        <time>2015-05-22T14:47:44Z</time>
      </trkpt>
      <trkpt lat="45.8912" lon="6.19089">
        <ele>1214</ele>
        <time>2015-05-22T14:47:46Z</time>
      </trkpt>
      <trkpt lat="45.8912" lon="6.19089">
        <ele>1214</ele>
        <time>2015-05-22T14:47:47Z</time>
      </trkpt>
      <trkpt lat="45.8912" lon="6.19089">
        <ele>1214</ele>
        <time>2015-05-22T14:47:48Z</time>
      </trkpt>
      <trkpt lat="45.8912" lon="6.19089">
        <ele>1214</ele>
        <time>2015-05-22T14:47:49Z</time>
      </trkpt>
      <trkpt lat="45.8912" lon="6.19089">
        <ele>1214</ele>
        <time>2015-05-22T14:47:50Z</time>
      </trkpt>
      <trkpt lat="45.8912" lon="6.19089">
        <ele>1214</ele>
        <time>2015-05-22T14:47:52Z</time>
      </trkpt>
      <trkpt lat="45.8912" lon="6.19089">
        <ele>1214</ele>
        <time>2015-05-22T14:47:53Z</time>
      </trkpt>
      <trkpt lat="45.8912" lon="6.19089">
        <ele>1214</ele>
        <time>2015-05-22T14:47:54Z</time>
      </trkpt>
      <trkpt lat="45.8912" lon="6.19089">
        <ele>1214</ele>
        <time>2015-05-22T14:47:55Z</time>
      </trkpt>
      <trkpt lat="45.8912" lon="6.19089">
        <ele>1214</ele>
        <time>2015-05-22T14:47:56Z</time>
      </trkpt>
      <trkpt lat="45.8912" lon="6.19089">
        <ele>1214</ele>
        <time>2015-05-22T14:47:58Z</time>
      </trkpt>
      <trkpt lat="45.8912" lon="6.19089">
        <ele>1214</ele>
        <time>2015-05-22T14:47:59Z</time>
      </trkpt>
      <trkpt lat="45.8912" lon="6.19085">
        <ele>1214</ele>
        <time>2015-05-22T14:48:02Z</time>
      </trkpt>
      <trkpt lat="45.89121" lon="6.19083">
        <ele>1214</ele>
        <time>2015-05-22T14:48:03Z</time>
      </trkpt>
      <trkpt lat="45.89121" lon="6.19082">
        <ele>1214</ele>
        <time>2015-05-22T14:48:04Z</time>
      </trkpt>
      <trkpt lat="45.89121" lon="6.19082">
        <ele>1214</ele>
        <time>2015-05-22T14:48:05Z</time>
      </trkpt>
      <trkpt lat="45.89121" lon="6.19081">
        <ele>1214</ele>
        <time>2015-05-22T14:48:06Z</time>
      </trkpt>
      <trkpt lat="45.89121" lon="6.19081">
        <ele>1214</ele>
        <time>2015-05-22T14:48:07Z</time>
      </trkpt>
      <trkpt lat="45.89121" lon="6.19081">
        <ele>1215</ele>
        <time>2015-05-22T14:48:08Z</time>
      </trkpt>
      <trkpt lat="45.89122" lon="6.19082">
        <ele>1215</ele>
        <time>2015-05-22T14:48:09Z</time>
      </trkpt>
      <trkpt lat="45.89121" lon="6.19083">
        <ele>1215</ele>
        <time>2015-05-22T14:48:10Z</time>
      </trkpt>
      <trkpt lat="45.89121" lon="6.19083">
        <ele>1215</ele>
        <time>2015-05-22T14:48:11Z</time>
      </trkpt>
      <trkpt lat="45.89121" lon="6.19083">
        <ele>1215</ele>
        <time>2015-05-22T14:48:12Z</time>
      </trkpt>
      <trkpt lat="45.89121" lon="6.19083">
        <ele>1215</ele>
        <time>2015-05-22T14:48:13Z</time>
      </trkpt>
      <trkpt lat="45.89121" lon="6.19083">
        <ele>1215</ele>
        <time>2015-05-22T14:48:14Z</time>
      </trkpt>
      <trkpt lat="45.89121" lon="6.19083">
        <ele>1215</ele>
        <time>2015-05-22T14:48:15Z</time>
      </trkpt>
      <trkpt lat="45.89121" lon="6.19083">
        <ele>1215</ele>
        <time>2015-05-22T14:48:16Z</time>
      </trkpt>
      <trkpt lat="45.89121" lon="6.19083">
        <ele>1215</ele>
        <time>2015-05-22T14:48:18Z</time>
      </trkpt>
      <trkpt lat="45.89121" lon="6.19083">
        <ele>1215</ele>
        <time>2015-05-22T14:48:20Z</time>
      </trkpt>
      <trkpt lat="45.89121" lon="6.19083">
        <ele>1215</ele>
        <time>2015-05-22T14:48:22Z</time>
      </trkpt>
      <trkpt lat="45.89121" lon="6.19084">
        <ele>1215</ele>
        <time>2015-05-22T14:48:24Z</time>
      </trkpt>
      <trkpt lat="45.89121" lon="6.19084">
        <ele>1215</ele>
        <time>2015-05-22T14:48:26Z</time>
      </trkpt>
      <trkpt lat="45.89121" lon="6.19084">
        <ele>1215</ele>
        <time>2015-05-22T14:48:28Z</time>
      </trkpt>
      <trkpt lat="45.89121" lon="6.19084">
        <ele>1215</ele>
        <time>2015-05-22T14:48:29Z</time>
      </trkpt>
      <trkpt lat="45.89121" lon="6.19084">
        <ele>1215</ele>
        <time>2015-05-22T14:48:30Z</time>
      </trkpt>
      <trkpt lat="45.89121" lon="6.19084">
        <ele>1215</ele>
        <time>2015-05-22T14:48:31Z</time>
      </trkpt>
      <trkpt lat="45.89121" lon="6.19084">
        <ele>1215</ele>
        <time>2015-05-22T14:48:32Z</time>
      </trkpt>
      <trkpt lat="45.89121" lon="6.19084">
        <ele>1215</ele>
        <time>2015-05-22T14:48:33Z</time>
      </trkpt>
      <trkpt lat="45.89121" lon="6.19084">
        <ele>1215</ele>
        <time>2015-05-22T14:48:34Z</time>
      </trkpt>
      <trkpt lat="45.89121" lon="6.19084">
        <ele>1215</ele>
        <time>2015-05-22T14:48:35Z</time>
      </trkpt>
      <trkpt lat="45.89121" lon="6.19084">
        <ele>1215</ele>
        <time>2015-05-22T14:48:36Z</time>
      </trkpt>
      <trkpt lat="45.89121" lon="6.19084">
        <ele>1215</ele>
        <time>2015-05-22T14:48:37Z</time>
      </trkpt>
      <trkpt lat="45.89121" lon="6.19084">
        <ele>1215</ele>
        <time>2015-05-22T14:48:38Z</time>
      </trkpt>
      <trkpt lat="45.89121" lon="6.19084">
        <ele>1215</ele>
        <time>2015-05-22T14:48:39Z</time>
      </trkpt>
      <trkpt lat="45.89121" lon="6.19084">
        <ele>1215</ele>
        <time>2015-05-22T14:48:40Z</time>
      </trkpt>
      <trkpt lat="45.89121" lon="6.19084">
        <ele>1215</ele>
        <time>2015-05-22T14:48:42Z</time>
      </trkpt>
      <trkpt lat="45.89121" lon="6.19084">
        <ele>1215</ele>
        <time>2015-05-22T14:48:43Z</time>
      </trkpt>
      <trkpt lat="45.89121" lon="6.19084">
        <ele>1215</ele>
        <time>2015-05-22T14:48:46Z</time>
      </trkpt>
      <trkpt lat="45.89121" lon="6.19084">
        <ele>1215</ele>
        <time>2015-05-22T14:48:47Z</time>
      </trkpt>
      <trkpt lat="45.89121" lon="6.19084">
        <ele>1215</ele>
        <time>2015-05-22T14:48:48Z</time>
      </trkpt>
      <trkpt lat="45.89121" lon="6.19084">
        <ele>1215</ele>
        <time>2015-05-22T14:48:50Z</time>
      </trkpt>
      <trkpt lat="45.89121" lon="6.19084">
        <ele>1215</ele>
        <time>2015-05-22T14:48:51Z</time>
      </trkpt>
      <trkpt lat="45.89121" lon="6.19084">
        <ele>1215</ele>
        <time>2015-05-22T14:48:52Z</time>
      </trkpt>
      <trkpt lat="45.89121" lon="6.19084">
        <ele>1215</ele>
        <time>2015-05-22T14:48:53Z</time>
      </trkpt>
      <trkpt lat="45.89121" lon="6.19084">
        <ele>1215</ele>
        <time>2015-05-22T14:48:54Z</time>
      </trkpt>
      <trkpt lat="45.89121" lon="6.19084">
        <ele>1215</ele>
        <time>2015-05-22T14:48:55Z</time>
      </trkpt>
      <trkpt lat="45.89121" lon="6.19084">
        <ele>1215</ele>
        <time>2015-05-22T14:48:56Z</time>
      </trkpt>
      <trkpt lat="45.89121" lon="6.19084">
        <ele>1215</ele>
        <time>2015-05-22T14:48:58Z</time>
      </trkpt>
      <trkpt lat="45.89121" lon="6.19084">
        <ele>1215</ele>
        <time>2015-05-22T14:49:00Z</time>
      </trkpt>
      <trkpt lat="45.89121" lon="6.19084">
        <ele>1215</ele>
        <time>2015-05-22T14:49:02Z</time>
      </trkpt>
      <trkpt lat="45.89121" lon="6.19084">
        <ele>1215</ele>
        <time>2015-05-22T14:49:04Z</time>
      </trkpt>
      <trkpt lat="45.89121" lon="6.19084">
        <ele>1215</ele>
        <time>2015-05-22T14:49:06Z</time>
      </trkpt>
      <trkpt lat="45.89121" lon="6.19084">
        <ele>1215</ele>
        <time>2015-05-22T14:49:07Z</time>
      </trkpt>
      <trkpt lat="45.89121" lon="6.19084">
        <ele>1215</ele>
        <time>2015-05-22T14:49:08Z</time>
      </trkpt>
      <trkpt lat="45.89121" lon="6.1908">
        <ele>1216</ele>
        <time>2015-05-22T14:49:09Z</time>
      </trkpt>
      <trkpt lat="45.89122" lon="6.19078">
        <ele>1216</ele>
        <time>2015-05-22T14:49:10Z</time>
      </trkpt>
      <trkpt lat="45.89121" lon="6.19078">
        <ele>1217</ele>
        <time>2015-05-22T14:49:11Z</time>
      </trkpt>
      <trkpt lat="45.89123" lon="6.19078">
        <ele>1216</ele>
        <time>2015-05-22T14:49:12Z</time>
      </trkpt>
      <trkpt lat="45.89124" lon="6.19076">
        <ele>1215</ele>
        <time>2015-05-22T14:49:13Z</time>
      </trkpt>
      <trkpt lat="45.89125" lon="6.19076">
        <ele>1213</ele>
        <time>2015-05-22T14:49:14Z</time>
      </trkpt>
      <trkpt lat="45.89125" lon="6.19076">
        <ele>1211</ele>
        <time>2015-05-22T14:49:15Z</time>
      </trkpt>
      <trkpt lat="45.89122" lon="6.19079">
        <ele>1213</ele>
        <time>2015-05-22T14:49:16Z</time>
      </trkpt>
      <trkpt lat="45.89121" lon="6.19078">
        <ele>1213</ele>
        <time>2015-05-22T14:49:18Z</time>
      </trkpt>
      <trkpt lat="45.89119" lon="6.19077">
        <ele>1214</ele>
        <time>2015-05-22T14:49:20Z</time>
      </trkpt>
      <trkpt lat="45.89119" lon="6.19077">
        <ele>1215</ele>
        <time>2015-05-22T14:49:22Z</time>
      </trkpt>
      <trkpt lat="45.89118" lon="6.19078">
        <ele>1215</ele>
        <time>2015-05-22T14:49:24Z</time>
      </trkpt>
      <trkpt lat="45.89117" lon="6.19077">
        <ele>1216</ele>
        <time>2015-05-22T14:49:26Z</time>
      </trkpt>
      <trkpt lat="45.89118" lon="6.19077">
        <ele>1216</ele>
        <time>2015-05-22T14:49:27Z</time>
      </trkpt>
      <trkpt lat="45.89117" lon="6.19077">
        <ele>1216</ele>
        <time>2015-05-22T14:49:28Z</time>
      </trkpt>
      <trkpt lat="45.89117" lon="6.19077">
        <ele>1216</ele>
        <time>2015-05-22T14:49:30Z</time>
      </trkpt>
      <trkpt lat="45.89117" lon="6.19077">
        <ele>1216</ele>
        <time>2015-05-22T14:49:31Z</time>
      </trkpt>
      <trkpt lat="45.89117" lon="6.19077">
        <ele>1216</ele>
        <time>2015-05-22T14:49:32Z</time>
      </trkpt>
      <trkpt lat="45.89116" lon="6.19077">
        <ele>1216</ele>
        <time>2015-05-22T14:49:33Z</time>
      </trkpt>
      <trkpt lat="45.89115" lon="6.19075">
        <ele>1215</ele>
        <time>2015-05-22T14:49:34Z</time>
      </trkpt>
      <trkpt lat="45.89113" lon="6.19075">
        <ele>1215</ele>
        <time>2015-05-22T14:49:35Z</time>
      </trkpt>
      <trkpt lat="45.89113" lon="6.19073">
        <ele>1217</ele>
        <time>2015-05-22T14:49:36Z</time>
      </trkpt>
      <trkpt lat="45.89112" lon="6.19072">
        <ele>1217</ele>
        <time>2015-05-22T14:49:37Z</time>
      </trkpt>
      <trkpt lat="45.89111" lon="6.19072">
        <ele>1217</ele>
        <time>2015-05-22T14:49:38Z</time>
      </trkpt>
      <trkpt lat="45.89111" lon="6.19068">
        <ele>1215</ele>
        <time>2015-05-22T14:49:39Z</time>
      </trkpt>
      <trkpt lat="45.8911" lon="6.19068">
        <ele>1215</ele>
        <time>2015-05-22T14:49:40Z</time>
      </trkpt>
      <trkpt lat="45.89109" lon="6.1907">
        <ele>1213</ele>
        <time>2015-05-22T14:49:41Z</time>
      </trkpt>
      <trkpt lat="45.89107" lon="6.19069">
        <ele>1213</ele>
        <time>2015-05-22T14:49:42Z</time>
      </trkpt>
      <trkpt lat="45.89108" lon="6.1907">
        <ele>1213</ele>
        <time>2015-05-22T14:49:43Z</time>
      </trkpt>
      <trkpt lat="45.89108" lon="6.1907">
        <ele>1214</ele>
        <time>2015-05-22T14:49:44Z</time>
      </trkpt>
      <trkpt lat="45.89107" lon="6.1907">
        <ele>1216</ele>
        <time>2015-05-22T14:49:46Z</time>
      </trkpt>
      <trkpt lat="45.89107" lon="6.1907">
        <ele>1216</ele>
        <time>2015-05-22T14:49:47Z</time>
      </trkpt>
      <trkpt lat="45.89106" lon="6.1907">
        <ele>1217</ele>
        <time>2015-05-22T14:49:49Z</time>
      </trkpt>
      <trkpt lat="45.89106" lon="6.1907">
        <ele>1216</ele>
        <time>2015-05-22T14:49:50Z</time>
      </trkpt>
      <trkpt lat="45.89106" lon="6.19071">
        <ele>1217</ele>
        <time>2015-05-22T14:49:51Z</time>
      </trkpt>
      <trkpt lat="45.89106" lon="6.19071">
        <ele>1216</ele>
        <time>2015-05-22T14:49:52Z</time>
      </trkpt>
      <trkpt lat="45.89107" lon="6.19071">
        <ele>1216</ele>
        <time>2015-05-22T14:49:53Z</time>
      </trkpt>
      <trkpt lat="45.89106" lon="6.19071">
        <ele>1217</ele>
        <time>2015-05-22T14:49:54Z</time>
      </trkpt>
      <trkpt lat="45.89106" lon="6.19071">
        <ele>1217</ele>
        <time>2015-05-22T14:49:55Z</time>
      </trkpt>
      <trkpt lat="45.89106" lon="6.19071">
        <ele>1217</ele>
        <time>2015-05-22T14:49:56Z</time>
      </trkpt>
      <trkpt lat="45.89106" lon="6.1907">
        <ele>1217</ele>
        <time>2015-05-22T14:49:57Z</time>
      </trkpt>
      <trkpt lat="45.89106" lon="6.19072">
        <ele>1217</ele>
        <time>2015-05-22T14:49:59Z</time>
      </trkpt>
      <trkpt lat="45.89106" lon="6.19072">
        <ele>1217</ele>
        <time>2015-05-22T14:50:00Z</time>
      </trkpt>
      <trkpt lat="45.89106" lon="6.19071">
        <ele>1217</ele>
        <time>2015-05-22T14:50:01Z</time>
      </trkpt>
      <trkpt lat="45.89106" lon="6.19072">
        <ele>1217</ele>
        <time>2015-05-22T14:50:03Z</time>
      </trkpt>
      <trkpt lat="45.89106" lon="6.19072">
        <ele>1217</ele>
        <time>2015-05-22T14:50:05Z</time>
      </trkpt>
      <trkpt lat="45.89105" lon="6.19073">
        <ele>1218</ele>
        <time>2015-05-22T14:50:07Z</time>
      </trkpt>
      <trkpt lat="45.89104" lon="6.1907">
        <ele>1216</ele>
        <time>2015-05-22T14:50:09Z</time>
      </trkpt>
      <trkpt lat="45.89103" lon="6.19066">
        <ele>1215</ele>
        <time>2015-05-22T14:50:11Z</time>
      </trkpt>
      <trkpt lat="45.89101" lon="6.19067">
        <ele>1216</ele>
        <time>2015-05-22T14:50:12Z</time>
      </trkpt>
      <trkpt lat="45.891" lon="6.19067">
        <ele>1216</ele>
        <time>2015-05-22T14:50:13Z</time>
      </trkpt>
      <trkpt lat="45.89099" lon="6.19066">
        <ele>1215</ele>
        <time>2015-05-22T14:50:14Z</time>
      </trkpt>
      <trkpt lat="45.89099" lon="6.19068">
        <ele>1217</ele>
        <time>2015-05-22T14:50:15Z</time>
      </trkpt>
      <trkpt lat="45.89098" lon="6.19068">
        <ele>1218</ele>
        <time>2015-05-22T14:50:16Z</time>
      </trkpt>
      <trkpt lat="45.89098" lon="6.19067">
        <ele>1217</ele>
        <time>2015-05-22T14:50:17Z</time>
      </trkpt>
      <trkpt lat="45.89098" lon="6.19068">
        <ele>1218</ele>
        <time>2015-05-22T14:50:19Z</time>
      </trkpt>
      <trkpt lat="45.89098" lon="6.19067">
        <ele>1218</ele>
        <time>2015-05-22T14:50:21Z</time>
      </trkpt>
      <trkpt lat="45.89097" lon="6.19068">
        <ele>1219</ele>
        <time>2015-05-22T14:50:23Z</time>
      </trkpt>
      <trkpt lat="45.89097" lon="6.19069">
        <ele>1220</ele>
        <time>2015-05-22T14:50:25Z</time>
      </trkpt>
      <trkpt lat="45.89097" lon="6.1907">
        <ele>1220</ele>
        <time>2015-05-22T14:50:27Z</time>
      </trkpt>
      <trkpt lat="45.89097" lon="6.1907">
        <ele>1220</ele>
        <time>2015-05-22T14:50:28Z</time>
      </trkpt>
      <trkpt lat="45.89096" lon="6.1907">
        <ele>1221</ele>
        <time>2015-05-22T14:50:29Z</time>
      </trkpt>
      <trkpt lat="45.89096" lon="6.19071">
        <ele>1220</ele>
        <time>2015-05-22T14:50:30Z</time>
      </trkpt>
      <trkpt lat="45.89096" lon="6.19071">
        <ele>1221</ele>
        <time>2015-05-22T14:50:31Z</time>
      </trkpt>
      <trkpt lat="45.89096" lon="6.19071">
        <ele>1221</ele>
        <time>2015-05-22T14:50:33Z</time>
      </trkpt>
      <trkpt lat="45.89096" lon="6.19071">
        <ele>1221</ele>
        <time>2015-05-22T14:50:34Z</time>
      </trkpt>
      <trkpt lat="45.89096" lon="6.19071">
        <ele>1221</ele>
        <time>2015-05-22T14:50:35Z</time>
      </trkpt>
      <trkpt lat="45.89096" lon="6.19071">
        <ele>1221</ele>
        <time>2015-05-22T14:50:36Z</time>
      </trkpt>
      <trkpt lat="45.89096" lon="6.19071">
        <ele>1221</ele>
        <time>2015-05-22T14:50:37Z</time>
      </trkpt>
      <trkpt lat="45.89096" lon="6.19071">
        <ele>1221</ele>
        <time>2015-05-22T14:50:38Z</time>
      </trkpt>
      <trkpt lat="45.89096" lon="6.19071">
        <ele>1221</ele>
        <time>2015-05-22T14:50:40Z</time>
      </trkpt>
      <trkpt lat="45.89096" lon="6.19071">
        <ele>1221</ele>
        <time>2015-05-22T14:50:42Z</time>
      </trkpt>
      <trkpt lat="45.89096" lon="6.19071">
        <ele>1221</ele>
        <time>2015-05-22T14:50:44Z</time>
      </trkpt>
      <trkpt lat="45.89096" lon="6.19071">
        <ele>1221</ele>
        <time>2015-05-22T14:50:46Z</time>
      </trkpt>
      <trkpt lat="45.89096" lon="6.19071">
        <ele>1221</ele>
        <time>2015-05-22T14:50:48Z</time>
      </trkpt>
      <trkpt lat="45.89096" lon="6.19071">
        <ele>1221</ele>
        <time>2015-05-22T14:50:50Z</time>
      </trkpt>
      <trkpt lat="45.89096" lon="6.19071">
        <ele>1221</ele>
        <time>2015-05-22T14:50:52Z</time>
      </trkpt>
      <trkpt lat="45.89096" lon="6.19072">
        <ele>1222</ele>
        <time>2015-05-22T14:50:53Z</time>
      </trkpt>
      <trkpt lat="45.89095" lon="6.19072">
        <ele>1222</ele>
        <time>2015-05-22T14:50:54Z</time>
      </trkpt>
      <trkpt lat="45.89095" lon="6.19071">
        <ele>1222</ele>
        <time>2015-05-22T14:50:55Z</time>
      </trkpt>
      <trkpt lat="45.89095" lon="6.19071">
        <ele>1222</ele>
        <time>2015-05-22T14:50:56Z</time>
      </trkpt>
      <trkpt lat="45.89094" lon="6.19071">
        <ele>1222</ele>
        <time>2015-05-22T14:50:57Z</time>
      </trkpt>
      <trkpt lat="45.89094" lon="6.19071">
        <ele>1221</ele>
        <time>2015-05-22T14:50:59Z</time>
      </trkpt>
      <trkpt lat="45.89094" lon="6.19071">
        <ele>1222</ele>
        <time>2015-05-22T14:51:00Z</time>
      </trkpt>
      <trkpt lat="45.89093" lon="6.1907">
        <ele>1221</ele>
        <time>2015-05-22T14:51:01Z</time>
      </trkpt>
      <trkpt lat="45.89091" lon="6.19071">
        <ele>1221</ele>
        <time>2015-05-22T14:51:03Z</time>
      </trkpt>
      <trkpt lat="45.8909" lon="6.19069">
        <ele>1222</ele>
        <time>2015-05-22T14:51:04Z</time>
      </trkpt>
      <trkpt lat="45.8909" lon="6.19067">
        <ele>1222</ele>
        <time>2015-05-22T14:51:06Z</time>
      </trkpt>
      <trkpt lat="45.8909" lon="6.19068">
        <ele>1222</ele>
        <time>2015-05-22T14:51:07Z</time>
      </trkpt>
      <trkpt lat="45.8909" lon="6.19068">
        <ele>1222</ele>
        <time>2015-05-22T14:51:08Z</time>
      </trkpt>
      <trkpt lat="45.89089" lon="6.19068">
        <ele>1223</ele>
        <time>2015-05-22T14:51:09Z</time>
      </trkpt>
      <trkpt lat="45.89089" lon="6.19068">
        <ele>1223</ele>
        <time>2015-05-22T14:51:10Z</time>
      </trkpt>
      <trkpt lat="45.89089" lon="6.19068">
        <ele>1223</ele>
        <time>2015-05-22T14:51:11Z</time>
      </trkpt>
      <trkpt lat="45.89089" lon="6.19068">
        <ele>1223</ele>
        <time>2015-05-22T14:51:12Z</time>
      </trkpt>
      <trkpt lat="45.89089" lon="6.19069">
        <ele>1223</ele>
        <time>2015-05-22T14:51:13Z</time>
      </trkpt>
      <trkpt lat="45.89089" lon="6.19068">
        <ele>1223</ele>
        <time>2015-05-22T14:51:14Z</time>
      </trkpt>
      <trkpt lat="45.89089" lon="6.19068">
        <ele>1223</ele>
        <time>2015-05-22T14:51:15Z</time>
      </trkpt>
      <trkpt lat="45.89088" lon="6.19066">
        <ele>1223</ele>
        <time>2015-05-22T14:51:16Z</time>
      </trkpt>
      <trkpt lat="45.89087" lon="6.19065">
        <ele>1223</ele>
        <time>2015-05-22T14:51:17Z</time>
      </trkpt>
      <trkpt lat="45.89086" lon="6.19065">
        <ele>1224</ele>
        <time>2015-05-22T14:51:19Z</time>
      </trkpt>
      <trkpt lat="45.89086" lon="6.19065">
        <ele>1224</ele>
        <time>2015-05-22T14:51:21Z</time>
      </trkpt>
      <trkpt lat="45.89086" lon="6.19063">
        <ele>1224</ele>
        <time>2015-05-22T14:51:23Z</time>
      </trkpt>
      <trkpt lat="45.89086" lon="6.19062">
        <ele>1223</ele>
        <time>2015-05-22T14:51:24Z</time>
      </trkpt>
      <trkpt lat="45.89085" lon="6.19064">
        <ele>1224</ele>
        <time>2015-05-22T14:51:25Z</time>
      </trkpt>
      <trkpt lat="45.89086" lon="6.19066">
        <ele>1226</ele>
        <time>2015-05-22T14:51:26Z</time>
      </trkpt>
      <trkpt lat="45.89085" lon="6.19066">
        <ele>1226</ele>
        <time>2015-05-22T14:51:27Z</time>
      </trkpt>
      <trkpt lat="45.89085" lon="6.19066">
        <ele>1227</ele>
        <time>2015-05-22T14:51:29Z</time>
      </trkpt>
      <trkpt lat="45.89085" lon="6.19065">
        <ele>1227</ele>
        <time>2015-05-22T14:51:31Z</time>
      </trkpt>
      <trkpt lat="45.89084" lon="6.19065">
        <ele>1227</ele>
        <time>2015-05-22T14:51:32Z</time>
      </trkpt>
      <trkpt lat="45.89084" lon="6.19065">
        <ele>1227</ele>
        <time>2015-05-22T14:51:33Z</time>
      </trkpt>
      <trkpt lat="45.89084" lon="6.19066">
        <ele>1228</ele>
        <time>2015-05-22T14:51:34Z</time>
      </trkpt>
      <trkpt lat="45.89083" lon="6.19066">
        <ele>1227</ele>
        <time>2015-05-22T14:51:35Z</time>
      </trkpt>
      <trkpt lat="45.89083" lon="6.19066">
        <ele>1228</ele>
        <time>2015-05-22T14:51:36Z</time>
      </trkpt>
      <trkpt lat="45.89083" lon="6.19067">
        <ele>1228</ele>
        <time>2015-05-22T14:51:37Z</time>
      </trkpt>
      <trkpt lat="45.89083" lon="6.19067">
        <ele>1229</ele>
        <time>2015-05-22T14:51:39Z</time>
      </trkpt>
      <trkpt lat="45.89082" lon="6.19065">
        <ele>1228</ele>
        <time>2015-05-22T14:51:41Z</time>
      </trkpt>
      <trkpt lat="45.89082" lon="6.19066">
        <ele>1229</ele>
        <time>2015-05-22T14:51:43Z</time>
      </trkpt>
      <trkpt lat="45.89082" lon="6.19066">
        <ele>1229</ele>
        <time>2015-05-22T14:51:45Z</time>
      </trkpt>
      <trkpt lat="45.8908" lon="6.19066">
        <ele>1231</ele>
        <time>2015-05-22T14:51:47Z</time>
      </trkpt>
      <trkpt lat="45.8908" lon="6.19064">
        <ele>1230</ele>
        <time>2015-05-22T14:51:49Z</time>
      </trkpt>
      <trkpt lat="45.89079" lon="6.19064">
        <ele>1229</ele>
        <time>2015-05-22T14:51:51Z</time>
      </trkpt>
      <trkpt lat="45.89079" lon="6.19064">
        <ele>1230</ele>
        <time>2015-05-22T14:51:52Z</time>
      </trkpt>
      <trkpt lat="45.89079" lon="6.19064">
        <ele>1229</ele>
        <time>2015-05-22T14:51:53Z</time>
      </trkpt>
      <trkpt lat="45.89078" lon="6.19064">
        <ele>1229</ele>
        <time>2015-05-22T14:51:54Z</time>
      </trkpt>
      <trkpt lat="45.89078" lon="6.19064">
        <ele>1229</ele>
        <time>2015-05-22T14:51:55Z</time>
      </trkpt>
      <trkpt lat="45.89078" lon="6.19064">
        <ele>1229</ele>
        <time>2015-05-22T14:51:56Z</time>
      </trkpt>
      <trkpt lat="45.89078" lon="6.19065">
        <ele>1230</ele>
        <time>2015-05-22T14:51:57Z</time>
      </trkpt>
      <trkpt lat="45.89078" lon="6.19065">
        <ele>1230</ele>
        <time>2015-05-22T14:51:59Z</time>
      </trkpt>
      <trkpt lat="45.89078" lon="6.19065">
        <ele>1230</ele>
        <time>2015-05-22T14:52:00Z</time>
      </trkpt>
      <trkpt lat="45.89078" lon="6.19065">
        <ele>1230</ele>
        <time>2015-05-22T14:52:01Z</time>
      </trkpt>
      <trkpt lat="45.89078" lon="6.19065">
        <ele>1230</ele>
        <time>2015-05-22T14:52:03Z</time>
      </trkpt>
      <trkpt lat="45.89078" lon="6.19065">
        <ele>1230</ele>
        <time>2015-05-22T14:52:05Z</time>
      </trkpt>
      <trkpt lat="45.89078" lon="6.19065">
        <ele>1230</ele>
        <time>2015-05-22T14:52:07Z</time>
      </trkpt>
      <trkpt lat="45.89078" lon="6.19065">
        <ele>1230</ele>
        <time>2015-05-22T14:52:09Z</time>
      </trkpt>
      <trkpt lat="45.89078" lon="6.19065">
        <ele>1230</ele>
        <time>2015-05-22T14:52:11Z</time>
      </trkpt>
      <trkpt lat="45.89078" lon="6.19065">
        <ele>1230</ele>
        <time>2015-05-22T14:52:12Z</time>
      </trkpt>
      <trkpt lat="45.89078" lon="6.19065">
        <ele>1230</ele>
        <time>2015-05-22T14:52:13Z</time>
      </trkpt>
      <trkpt lat="45.89078" lon="6.19065">
        <ele>1230</ele>
        <time>2015-05-22T14:52:14Z</time>
      </trkpt>
      <trkpt lat="45.89078" lon="6.19065">
        <ele>1230</ele>
        <time>2015-05-22T14:52:15Z</time>
      </trkpt>
      <trkpt lat="45.89078" lon="6.19065">
        <ele>1230</ele>
        <time>2015-05-22T14:52:16Z</time>
      </trkpt>
      <trkpt lat="45.89077" lon="6.19065">
        <ele>1230</ele>
        <time>2015-05-22T14:52:17Z</time>
      </trkpt>
      <trkpt lat="45.89077" lon="6.19065">
        <ele>1230</ele>
        <time>2015-05-22T14:52:19Z</time>
      </trkpt>
      <trkpt lat="45.89077" lon="6.19065">
        <ele>1230</ele>
        <time>2015-05-22T14:52:21Z</time>
      </trkpt>
      <trkpt lat="45.89077" lon="6.19065">
        <ele>1230</ele>
        <time>2015-05-22T14:52:23Z</time>
      </trkpt>
      <trkpt lat="45.89077" lon="6.19065">
        <ele>1230</ele>
        <time>2015-05-22T14:52:25Z</time>
      </trkpt>
      <trkpt lat="45.89077" lon="6.19065">
        <ele>1230</ele>
        <time>2015-05-22T14:52:27Z</time>
      </trkpt>
      <trkpt lat="45.89077" lon="6.19065">
        <ele>1230</ele>
        <time>2015-05-22T14:52:28Z</time>
      </trkpt>
      <trkpt lat="45.89077" lon="6.19065">
        <ele>1230</ele>
        <time>2015-05-22T14:52:29Z</time>
      </trkpt>
      <trkpt lat="45.89077" lon="6.19065">
        <ele>1230</ele>
        <time>2015-05-22T14:52:30Z</time>
      </trkpt>
      <trkpt lat="45.89077" lon="6.19065">
        <ele>1230</ele>
        <time>2015-05-22T14:52:31Z</time>
      </trkpt>
      <trkpt lat="45.89077" lon="6.19065">
        <ele>1230</ele>
        <time>2015-05-22T14:52:32Z</time>
      </trkpt>
      <trkpt lat="45.89077" lon="6.19065">
        <ele>1230</ele>
        <time>2015-05-22T14:52:33Z</time>
      </trkpt>
      <trkpt lat="45.89077" lon="6.19065">
        <ele>1230</ele>
        <time>2015-05-22T14:52:34Z</time>
      </trkpt>
      <trkpt lat="45.89076" lon="6.19064">
        <ele>1231</ele>
        <time>2015-05-22T14:52:35Z</time>
      </trkpt>
      <trkpt lat="45.89074" lon="6.19064">
        <ele>1231</ele>
        <time>2015-05-22T14:52:36Z</time>
      </trkpt>
      <trkpt lat="45.89074" lon="6.19064">
        <ele>1231</ele>
        <time>2015-05-22T14:52:37Z</time>
      </trkpt>
      <trkpt lat="45.89073" lon="6.19065">
        <ele>1230</ele>
        <time>2015-05-22T14:52:39Z</time>
      </trkpt>
      <trkpt lat="45.89073" lon="6.19065">
        <ele>1231</ele>
        <time>2015-05-22T14:52:41Z</time>
      </trkpt>
      <trkpt lat="45.89073" lon="6.19065">
        <ele>1231</ele>
        <time>2015-05-22T14:52:43Z</time>
      </trkpt>
      <trkpt lat="45.89073" lon="6.19065">
        <ele>1231</ele>
        <time>2015-05-22T14:52:45Z</time>
      </trkpt>
      <trkpt lat="45.89073" lon="6.19063">
        <ele>1233</ele>
        <time>2015-05-22T14:52:47Z</time>
      </trkpt>
      <trkpt lat="45.89072" lon="6.19063">
        <ele>1234</ele>
        <time>2015-05-22T14:52:48Z</time>
      </trkpt>
      <trkpt lat="45.89072" lon="6.19063">
        <ele>1235</ele>
        <time>2015-05-22T14:52:51Z</time>
      </trkpt>
      <trkpt lat="45.89071" lon="6.19063">
        <ele>1235</ele>
        <time>2015-05-22T14:52:52Z</time>
      </trkpt>
      <trkpt lat="45.89071" lon="6.19064">
        <ele>1235</ele>
        <time>2015-05-22T14:52:53Z</time>
      </trkpt>
      <trkpt lat="45.89071" lon="6.19063">
        <ele>1235</ele>
        <time>2015-05-22T14:52:54Z</time>
      </trkpt>
      <trkpt lat="45.89071" lon="6.19063">
        <ele>1235</ele>
        <time>2015-05-22T14:52:55Z</time>
      </trkpt>
      <trkpt lat="45.8907" lon="6.19064">
        <ele>1236</ele>
        <time>2015-05-22T14:52:56Z</time>
      </trkpt>
      <trkpt lat="45.89071" lon="6.19065">
        <ele>1238</ele>
        <time>2015-05-22T14:52:57Z</time>
      </trkpt>
      <trkpt lat="45.8907" lon="6.19064">
        <ele>1239</ele>
        <time>2015-05-22T14:52:58Z</time>
      </trkpt>
      <trkpt lat="45.89071" lon="6.19062">
        <ele>1238</ele>
        <time>2015-05-22T14:52:59Z</time>
      </trkpt>
      <trkpt lat="45.89072" lon="6.19062">
        <ele>1238</ele>
        <time>2015-05-22T14:53:00Z</time>
      </trkpt>
      <trkpt lat="45.89071" lon="6.19063">
        <ele>1238</ele>
        <time>2015-05-22T14:53:01Z</time>
      </trkpt>
      <trkpt lat="45.8907" lon="6.1906">
        <ele>1239</ele>
        <time>2015-05-22T14:53:02Z</time>
      </trkpt>
      <trkpt lat="45.89069" lon="6.1906">
        <ele>1240</ele>
        <time>2015-05-22T14:53:03Z</time>
      </trkpt>
      <trkpt lat="45.89069" lon="6.19059">
        <ele>1240</ele>
        <time>2015-05-22T14:53:04Z</time>
      </trkpt>
      <trkpt lat="45.89069" lon="6.19059">
        <ele>1240</ele>
        <time>2015-05-22T14:53:05Z</time>
      </trkpt>
      <trkpt lat="45.89067" lon="6.19059">
        <ele>1241</ele>
        <time>2015-05-22T14:53:07Z</time>
      </trkpt>
      <trkpt lat="45.89067" lon="6.19059">
        <ele>1240</ele>
        <time>2015-05-22T14:53:08Z</time>
      </trkpt>
      <trkpt lat="45.89067" lon="6.19059">
        <ele>1240</ele>
        <time>2015-05-22T14:53:10Z</time>
      </trkpt>
      <trkpt lat="45.89067" lon="6.19059">
        <ele>1240</ele>
        <time>2015-05-22T14:53:11Z</time>
      </trkpt>
      <trkpt lat="45.89067" lon="6.19057">
        <ele>1239</ele>
        <time>2015-05-22T14:53:12Z</time>
      </trkpt>
      <trkpt lat="45.89067" lon="6.19058">
        <ele>1239</ele>
        <time>2015-05-22T14:53:13Z</time>
      </trkpt>
      <trkpt lat="45.89067" lon="6.19058">
        <ele>1240</ele>
        <time>2015-05-22T14:53:14Z</time>
      </trkpt>
      <trkpt lat="45.89067" lon="6.19058">
        <ele>1240</ele>
        <time>2015-05-22T14:53:15Z</time>
      </trkpt>
      <trkpt lat="45.89068" lon="6.19059">
        <ele>1241</ele>
        <time>2015-05-22T14:53:16Z</time>
      </trkpt>
      <trkpt lat="45.89067" lon="6.19058">
        <ele>1241</ele>
        <time>2015-05-22T14:53:17Z</time>
      </trkpt>
      <trkpt lat="45.89067" lon="6.19058">
        <ele>1241</ele>
        <time>2015-05-22T14:53:18Z</time>
      </trkpt>
      <trkpt lat="45.89067" lon="6.19056">
        <ele>1240</ele>
        <time>2015-05-22T14:53:20Z</time>
      </trkpt>
      <trkpt lat="45.89067" lon="6.19056">
        <ele>1241</ele>
        <time>2015-05-22T14:53:22Z</time>
      </trkpt>
      <trkpt lat="45.89067" lon="6.19053">
        <ele>1241</ele>
        <time>2015-05-22T14:53:24Z</time>
      </trkpt>
      <trkpt lat="45.89065" lon="6.19055">
        <ele>1241</ele>
        <time>2015-05-22T14:53:26Z</time>
      </trkpt>
      <trkpt lat="45.89064" lon="6.19054">
        <ele>1241</ele>
        <time>2015-05-22T14:53:28Z</time>
      </trkpt>
      <trkpt lat="45.89064" lon="6.19053">
        <ele>1241</ele>
        <time>2015-05-22T14:53:30Z</time>
      </trkpt>
      <trkpt lat="45.89064" lon="6.19052">
        <ele>1241</ele>
        <time>2015-05-22T14:53:32Z</time>
      </trkpt>
      <trkpt lat="45.89065" lon="6.19051">
        <ele>1241</ele>
        <time>2015-05-22T14:53:33Z</time>
      </trkpt>
      <trkpt lat="45.89064" lon="6.19051">
        <ele>1241</ele>
        <time>2015-05-22T14:53:34Z</time>
      </trkpt>
      <trkpt lat="45.89064" lon="6.19052">
        <ele>1241</ele>
        <time>2015-05-22T14:53:35Z</time>
      </trkpt>
      <trkpt lat="45.89064" lon="6.19051">
        <ele>1241</ele>
        <time>2015-05-22T14:53:36Z</time>
      </trkpt>
      <trkpt lat="45.89064" lon="6.19051">
        <ele>1241</ele>
        <time>2015-05-22T14:53:37Z</time>
      </trkpt>
      <trkpt lat="45.89064" lon="6.1905">
        <ele>1241</ele>
        <time>2015-05-22T14:53:38Z</time>
      </trkpt>
      <trkpt lat="45.89062" lon="6.19052">
        <ele>1242</ele>
        <time>2015-05-22T14:53:40Z</time>
      </trkpt>
      <trkpt lat="45.89062" lon="6.19049">
        <ele>1242</ele>
        <time>2015-05-22T14:53:42Z</time>
      </trkpt>
      <trkpt lat="45.89063" lon="6.19047">
        <ele>1242</ele>
        <time>2015-05-22T14:53:44Z</time>
      </trkpt>
      <trkpt lat="45.89061" lon="6.19046">
        <ele>1243</ele>
        <time>2015-05-22T14:53:45Z</time>
      </trkpt>
      <trkpt lat="45.89062" lon="6.19045">
        <ele>1243</ele>
        <time>2015-05-22T14:53:46Z</time>
      </trkpt>
      <trkpt lat="45.89063" lon="6.19044">
        <ele>1242</ele>
        <time>2015-05-22T14:53:48Z</time>
      </trkpt>
      <trkpt lat="45.89063" lon="6.19044">
        <ele>1242</ele>
        <time>2015-05-22T14:53:50Z</time>
      </trkpt>
      <trkpt lat="45.89063" lon="6.19043">
        <ele>1242</ele>
        <time>2015-05-22T14:53:52Z</time>
      </trkpt>
      <trkpt lat="45.89062" lon="6.19042">
        <ele>1242</ele>
        <time>2015-05-22T14:53:53Z</time>
      </trkpt>
      <trkpt lat="45.89062" lon="6.19041">
        <ele>1241</ele>
        <time>2015-05-22T14:53:54Z</time>
      </trkpt>
      <trkpt lat="45.89062" lon="6.19041">
        <ele>1241</ele>
        <time>2015-05-22T14:53:55Z</time>
      </trkpt>
      <trkpt lat="45.89061" lon="6.1904">
        <ele>1242</ele>
        <time>2015-05-22T14:53:56Z</time>
      </trkpt>
      <trkpt lat="45.89061" lon="6.1904">
        <ele>1242</ele>
        <time>2015-05-22T14:53:57Z</time>
      </trkpt>
      <trkpt lat="45.89061" lon="6.1904">
        <ele>1242</ele>
        <time>2015-05-22T14:53:58Z</time>
      </trkpt>
      <trkpt lat="45.89061" lon="6.1904">
        <ele>1242</ele>
        <time>2015-05-22T14:54:00Z</time>
      </trkpt>
      <trkpt lat="45.8906" lon="6.1904">
        <ele>1242</ele>
        <time>2015-05-22T14:54:02Z</time>
      </trkpt>
      <trkpt lat="45.89059" lon="6.19039">
        <ele>1243</ele>
        <time>2015-05-22T14:54:04Z</time>
      </trkpt>
      <trkpt lat="45.89059" lon="6.19039">
        <ele>1243</ele>
        <time>2015-05-22T14:54:06Z</time>
      </trkpt>
      <trkpt lat="45.89059" lon="6.19039">
        <ele>1243</ele>
        <time>2015-05-22T14:54:08Z</time>
      </trkpt>
      <trkpt lat="45.89059" lon="6.19039">
        <ele>1243</ele>
        <time>2015-05-22T14:54:09Z</time>
      </trkpt>
      <trkpt lat="45.89059" lon="6.19039">
        <ele>1243</ele>
        <time>2015-05-22T14:54:10Z</time>
      </trkpt>
      <trkpt lat="45.89059" lon="6.19038">
        <ele>1243</ele>
        <time>2015-05-22T14:54:11Z</time>
      </trkpt>
      <trkpt lat="45.89059" lon="6.19038">
        <ele>1243</ele>
        <time>2015-05-22T14:54:12Z</time>
      </trkpt>
      <trkpt lat="45.89059" lon="6.19038">
        <ele>1243</ele>
        <time>2015-05-22T14:54:13Z</time>
      </trkpt>
      <trkpt lat="45.8906" lon="6.19036">
        <ele>1243</ele>
        <time>2015-05-22T14:54:14Z</time>
      </trkpt>
      <trkpt lat="45.89061" lon="6.19036">
        <ele>1243</ele>
        <time>2015-05-22T14:54:15Z</time>
      </trkpt>
      <trkpt lat="45.89061" lon="6.19035">
        <ele>1242</ele>
        <time>2015-05-22T14:54:16Z</time>
      </trkpt>
      <trkpt lat="45.89061" lon="6.19034">
        <ele>1244</ele>
        <time>2015-05-22T14:54:17Z</time>
      </trkpt>
      <trkpt lat="45.89061" lon="6.19034">
        <ele>1244</ele>
        <time>2015-05-22T14:54:18Z</time>
      </trkpt>
      <trkpt lat="45.89061" lon="6.19034">
        <ele>1245</ele>
        <time>2015-05-22T14:54:20Z</time>
      </trkpt>
      <trkpt lat="45.8906" lon="6.19034">
        <ele>1245</ele>
        <time>2015-05-22T14:54:22Z</time>
      </trkpt>
      <trkpt lat="45.89061" lon="6.19034">
        <ele>1244</ele>
        <time>2015-05-22T14:54:24Z</time>
      </trkpt>
      <trkpt lat="45.89061" lon="6.19034">
        <ele>1243</ele>
        <time>2015-05-22T14:54:26Z</time>
      </trkpt>
      <trkpt lat="45.89061" lon="6.19034">
        <ele>1243</ele>
        <time>2015-05-22T14:54:28Z</time>
      </trkpt>
      <trkpt lat="45.89061" lon="6.19034">
        <ele>1243</ele>
        <time>2015-05-22T14:54:29Z</time>
      </trkpt>
      <trkpt lat="45.89061" lon="6.19034">
        <ele>1243</ele>
        <time>2015-05-22T14:54:31Z</time>
      </trkpt>
      <trkpt lat="45.89061" lon="6.19034">
        <ele>1243</ele>
        <time>2015-05-22T14:54:32Z</time>
      </trkpt>
      <trkpt lat="45.89061" lon="6.19034">
        <ele>1243</ele>
        <time>2015-05-22T14:54:33Z</time>
      </trkpt>
      <trkpt lat="45.89061" lon="6.19034">
        <ele>1243</ele>
        <time>2015-05-22T14:54:34Z</time>
      </trkpt>
      <trkpt lat="45.89061" lon="6.19034">
        <ele>1243</ele>
        <time>2015-05-22T14:54:35Z</time>
      </trkpt>
      <trkpt lat="45.89061" lon="6.19034">
        <ele>1243</ele>
        <time>2015-05-22T14:54:36Z</time>
      </trkpt>
      <trkpt lat="45.89061" lon="6.19034">
        <ele>1243</ele>
        <time>2015-05-22T14:54:37Z</time>
      </trkpt>
      <trkpt lat="45.89061" lon="6.19034">
        <ele>1243</ele>
        <time>2015-05-22T14:54:38Z</time>
      </trkpt>
      <trkpt lat="45.89061" lon="6.19034">
        <ele>1243</ele>
        <time>2015-05-22T14:54:40Z</time>
      </trkpt>
      <trkpt lat="45.89061" lon="6.19034">
        <ele>1243</ele>
        <time>2015-05-22T14:54:42Z</time>
      </trkpt>
      <trkpt lat="45.89061" lon="6.19034">
        <ele>1243</ele>
        <time>2015-05-22T14:54:44Z</time>
      </trkpt>
      <trkpt lat="45.89061" lon="6.19034">
        <ele>1243</ele>
        <time>2015-05-22T14:54:46Z</time>
      </trkpt>
      <trkpt lat="45.89061" lon="6.19034">
        <ele>1243</ele>
        <time>2015-05-22T14:54:48Z</time>
      </trkpt>
      <trkpt lat="45.89061" lon="6.19034">
        <ele>1243</ele>
        <time>2015-05-22T14:54:50Z</time>
      </trkpt>
      <trkpt lat="45.89061" lon="6.19034">
        <ele>1243</ele>
        <time>2015-05-22T14:54:52Z</time>
      </trkpt>
      <trkpt lat="45.89061" lon="6.19034">
        <ele>1243</ele>
        <time>2015-05-22T14:54:53Z</time>
      </trkpt>
      <trkpt lat="45.89061" lon="6.19034">
        <ele>1243</ele>
        <time>2015-05-22T14:54:54Z</time>
      </trkpt>
      <trkpt lat="45.89061" lon="6.19034">
        <ele>1243</ele>
        <time>2015-05-22T14:54:55Z</time>
      </trkpt>
      <trkpt lat="45.89061" lon="6.19034">
        <ele>1243</ele>
        <time>2015-05-22T14:54:56Z</time>
      </trkpt>
      <trkpt lat="45.89061" lon="6.19034">
        <ele>1243</ele>
        <time>2015-05-22T14:54:57Z</time>
      </trkpt>
      <trkpt lat="45.89061" lon="6.19034">
        <ele>1243</ele>
        <time>2015-05-22T14:54:58Z</time>
      </trkpt>
      <trkpt lat="45.89061" lon="6.19034">
        <ele>1243</ele>
        <time>2015-05-22T14:55:00Z</time>
      </trkpt>
      <trkpt lat="45.89061" lon="6.19035">
        <ele>1243</ele>
        <time>2015-05-22T14:55:02Z</time>
      </trkpt>
      <trkpt lat="45.89061" lon="6.19034">
        <ele>1243</ele>
        <time>2015-05-22T14:55:04Z</time>
      </trkpt>
      <trkpt lat="45.89061" lon="6.19034">
        <ele>1243</ele>
        <time>2015-05-22T14:55:06Z</time>
      </trkpt>
      <trkpt lat="45.89061" lon="6.19034">
        <ele>1243</ele>
        <time>2015-05-22T14:55:08Z</time>
      </trkpt>
      <trkpt lat="45.89061" lon="6.19034">
        <ele>1243</ele>
        <time>2015-05-22T14:55:10Z</time>
      </trkpt>
      <trkpt lat="45.89061" lon="6.19034">
        <ele>1243</ele>
        <time>2015-05-22T14:55:12Z</time>
      </trkpt>
      <trkpt lat="45.89061" lon="6.19034">
        <ele>1243</ele>
        <time>2015-05-22T14:55:13Z</time>
      </trkpt>
      <trkpt lat="45.89061" lon="6.19034">
        <ele>1243</ele>
        <time>2015-05-22T14:55:14Z</time>
      </trkpt>
      <trkpt lat="45.89061" lon="6.19034">
        <ele>1243</ele>
        <time>2015-05-22T14:55:15Z</time>
      </trkpt>
      <trkpt lat="45.89061" lon="6.19034">
        <ele>1243</ele>
        <time>2015-05-22T14:55:16Z</time>
      </trkpt>
      <trkpt lat="45.89061" lon="6.19034">
        <ele>1243</ele>
        <time>2015-05-22T14:55:17Z</time>
      </trkpt>
      <trkpt lat="45.89061" lon="6.19034">
        <ele>1243</ele>
        <time>2015-05-22T14:55:18Z</time>
      </trkpt>
      <trkpt lat="45.89061" lon="6.19034">
        <ele>1243</ele>
        <time>2015-05-22T14:55:19Z</time>
      </trkpt>
      <trkpt lat="45.89061" lon="6.19034">
        <ele>1243</ele>
        <time>2015-05-22T14:55:20Z</time>
      </trkpt>
      <trkpt lat="45.89061" lon="6.19034">
        <ele>1243</ele>
        <time>2015-05-22T14:55:21Z</time>
      </trkpt>
      <trkpt lat="45.89061" lon="6.19034">
        <ele>1243</ele>
        <time>2015-05-22T14:55:22Z</time>
      </trkpt>
      <trkpt lat="45.89061" lon="6.19034">
        <ele>1243</ele>
        <time>2015-05-22T14:55:23Z</time>
      </trkpt>
      <trkpt lat="45.89061" lon="6.19034">
        <ele>1243</ele>
        <time>2015-05-22T14:55:24Z</time>
      </trkpt>
      <trkpt lat="45.89061" lon="6.19034">
        <ele>1243</ele>
        <time>2015-05-22T14:55:25Z</time>
      </trkpt>
      <trkpt lat="45.89061" lon="6.19034">
        <ele>1243</ele>
        <time>2015-05-22T14:55:26Z</time>
      </trkpt>
      <trkpt lat="45.89061" lon="6.19034">
        <ele>1243</ele>
        <time>2015-05-22T14:55:27Z</time>
      </trkpt>
      <trkpt lat="45.89061" lon="6.19034">
        <ele>1243</ele>
        <time>2015-05-22T14:55:28Z</time>
      </trkpt>
      <trkpt lat="45.89061" lon="6.19034">
        <ele>1243</ele>
        <time>2015-05-22T14:55:29Z</time>
      </trkpt>
      <trkpt lat="45.89061" lon="6.19034">
        <ele>1243</ele>
        <time>2015-05-22T14:55:30Z</time>
      </trkpt>
      <trkpt lat="45.89061" lon="6.19034">
        <ele>1243</ele>
        <time>2015-05-22T14:55:31Z</time>
      </trkpt>
      <trkpt lat="45.89061" lon="6.19034">
        <ele>1243</ele>
        <time>2015-05-22T14:55:32Z</time>
      </trkpt>
      <trkpt lat="45.89061" lon="6.19034">
        <ele>1243</ele>
        <time>2015-05-22T14:55:33Z</time>
      </trkpt>
      <trkpt lat="45.89061" lon="6.19034">
        <ele>1243</ele>
        <time>2015-05-22T14:55:34Z</time>
      </trkpt>
      <trkpt lat="45.89061" lon="6.19034">
        <ele>1243</ele>
        <time>2015-05-22T14:55:35Z</time>
      </trkpt>
      <trkpt lat="45.89061" lon="6.19034">
        <ele>1243</ele>
        <time>2015-05-22T14:55:36Z</time>
      </trkpt>
      <trkpt lat="45.89061" lon="6.19034">
        <ele>1243</ele>
        <time>2015-05-22T14:55:37Z</time>
      </trkpt>
      <trkpt lat="45.89061" lon="6.19035">
        <ele>1244</ele>
        <time>2015-05-22T14:55:38Z</time>
      </trkpt>
      <trkpt lat="45.8906" lon="6.19035">
        <ele>1244</ele>
        <time>2015-05-22T14:55:39Z</time>
      </trkpt>
      <trkpt lat="45.8906" lon="6.19035">
        <ele>1244</ele>
        <time>2015-05-22T14:55:40Z</time>
      </trkpt>
      <trkpt lat="45.8906" lon="6.19035">
        <ele>1244</ele>
        <time>2015-05-22T14:55:41Z</time>
      </trkpt>
      <trkpt lat="45.8906" lon="6.19035">
        <ele>1244</ele>
        <time>2015-05-22T14:55:42Z</time>
      </trkpt>
      <trkpt lat="45.8906" lon="6.19035">
        <ele>1245</ele>
        <time>2015-05-22T14:55:43Z</time>
      </trkpt>
      <trkpt lat="45.8906" lon="6.19034">
        <ele>1245</ele>
        <time>2015-05-22T14:55:44Z</time>
      </trkpt>
      <trkpt lat="45.8906" lon="6.19034">
        <ele>1245</ele>
        <time>2015-05-22T14:55:45Z</time>
      </trkpt>
      <trkpt lat="45.89059" lon="6.19034">
        <ele>1245</ele>
        <time>2015-05-22T14:55:46Z</time>
      </trkpt>
      <trkpt lat="45.8906" lon="6.19035">
        <ele>1245</ele>
        <time>2015-05-22T14:55:48Z</time>
      </trkpt>
      <trkpt lat="45.8906" lon="6.19035">
        <ele>1245</ele>
        <time>2015-05-22T14:55:49Z</time>
      </trkpt>
      <trkpt lat="45.8906" lon="6.19035">
        <ele>1245</ele>
        <time>2015-05-22T14:55:50Z</time>
      </trkpt>
      <trkpt lat="45.8906" lon="6.19035">
        <ele>1245</ele>
        <time>2015-05-22T14:55:51Z</time>
      </trkpt>
      <trkpt lat="45.8906" lon="6.19035">
        <ele>1245</ele>
        <time>2015-05-22T14:55:53Z</time>
      </trkpt>
      <trkpt lat="45.8906" lon="6.19035">
        <ele>1245</ele>
        <time>2015-05-22T14:55:55Z</time>
      </trkpt>
      <trkpt lat="45.8906" lon="6.19035">
        <ele>1245</ele>
        <time>2015-05-22T14:55:57Z</time>
      </trkpt>
      <trkpt lat="45.8906" lon="6.19035">
        <ele>1245</ele>
        <time>2015-05-22T14:55:59Z</time>
      </trkpt>
      <trkpt lat="45.8906" lon="6.19035">
        <ele>1245</ele>
        <time>2015-05-22T14:56:01Z</time>
      </trkpt>
      <trkpt lat="45.8906" lon="6.19035">
        <ele>1245</ele>
        <time>2015-05-22T14:56:03Z</time>
      </trkpt>
      <trkpt lat="45.8906" lon="6.19035">
        <ele>1245</ele>
        <time>2015-05-22T14:56:05Z</time>
      </trkpt>
      <trkpt lat="45.8906" lon="6.19035">
        <ele>1245</ele>
        <time>2015-05-22T14:56:06Z</time>
      </trkpt>
      <trkpt lat="45.8906" lon="6.19035">
        <ele>1245</ele>
        <time>2015-05-22T14:56:07Z</time>
      </trkpt>
      <trkpt lat="45.8906" lon="6.19035">
        <ele>1245</ele>
        <time>2015-05-22T14:56:08Z</time>
      </trkpt>
      <trkpt lat="45.8906" lon="6.19035">
        <ele>1245</ele>
        <time>2015-05-22T14:56:10Z</time>
      </trkpt>
      <trkpt lat="45.8906" lon="6.19035">
        <ele>1245</ele>
        <time>2015-05-22T14:56:12Z</time>
      </trkpt>
      <trkpt lat="45.8906" lon="6.19035">
        <ele>1245</ele>
        <time>2015-05-22T14:56:14Z</time>
      </trkpt>
      <trkpt lat="45.8906" lon="6.19035">
        <ele>1245</ele>
        <time>2015-05-22T14:56:16Z</time>
      </trkpt>
      <trkpt lat="45.8906" lon="6.19035">
        <ele>1245</ele>
        <time>2015-05-22T14:56:18Z</time>
      </trkpt>
      <trkpt lat="45.8906" lon="6.19035">
        <ele>1245</ele>
        <time>2015-05-22T14:56:20Z</time>
      </trkpt>
      <trkpt lat="45.8906" lon="6.19035">
        <ele>1245</ele>
        <time>2015-05-22T14:56:22Z</time>
      </trkpt>
      <trkpt lat="45.8906" lon="6.19035">
        <ele>1245</ele>
        <time>2015-05-22T14:56:24Z</time>
      </trkpt>
      <trkpt lat="45.8906" lon="6.19035">
        <ele>1245</ele>
        <time>2015-05-22T14:56:25Z</time>
      </trkpt>
      <trkpt lat="45.8906" lon="6.19035">
        <ele>1245</ele>
        <time>2015-05-22T14:56:26Z</time>
      </trkpt>
      <trkpt lat="45.8906" lon="6.19035">
        <ele>1245</ele>
        <time>2015-05-22T14:56:27Z</time>
      </trkpt>
      <trkpt lat="45.8906" lon="6.19035">
        <ele>1245</ele>
        <time>2015-05-22T14:56:29Z</time>
      </trkpt>
      <trkpt lat="45.8906" lon="6.19035">
        <ele>1245</ele>
        <time>2015-05-22T14:56:31Z</time>
      </trkpt>
      <trkpt lat="45.8906" lon="6.19035">
        <ele>1245</ele>
        <time>2015-05-22T14:56:32Z</time>
      </trkpt>
      <trkpt lat="45.8906" lon="6.19035">
        <ele>1245</ele>
        <time>2015-05-22T14:56:33Z</time>
      </trkpt>
      <trkpt lat="45.8906" lon="6.19035">
        <ele>1245</ele>
        <time>2015-05-22T14:56:35Z</time>
      </trkpt>
      <trkpt lat="45.8906" lon="6.19035">
        <ele>1245</ele>
        <time>2015-05-22T14:56:37Z</time>
      </trkpt>
      <trkpt lat="45.8906" lon="6.19035">
        <ele>1245</ele>
        <time>2015-05-22T14:56:39Z</time>
      </trkpt>
      <trkpt lat="45.8906" lon="6.19035">
        <ele>1245</ele>
        <time>2015-05-22T14:56:41Z</time>
      </trkpt>
      <trkpt lat="45.8906" lon="6.19035">
        <ele>1245</ele>
        <time>2015-05-22T14:56:43Z</time>
      </trkpt>
      <trkpt lat="45.8906" lon="6.19035">
        <ele>1245</ele>
        <time>2015-05-22T14:56:44Z</time>
      </trkpt>
      <trkpt lat="45.8906" lon="6.19035">
        <ele>1245</ele>
        <time>2015-05-22T14:56:45Z</time>
      </trkpt>
      <trkpt lat="45.8906" lon="6.19035">
        <ele>1245</ele>
        <time>2015-05-22T14:56:46Z</time>
      </trkpt>
      <trkpt lat="45.8906" lon="6.19035">
        <ele>1245</ele>
        <time>2015-05-22T14:56:47Z</time>
      </trkpt>
      <trkpt lat="45.8906" lon="6.19035">
        <ele>1245</ele>
        <time>2015-05-22T14:56:48Z</time>
      </trkpt>
      <trkpt lat="45.8906" lon="6.19035">
        <ele>1246</ele>
        <time>2015-05-22T14:56:51Z</time>
      </trkpt>
      <trkpt lat="45.8906" lon="6.19035">
        <ele>1246</ele>
        <time>2015-05-22T14:56:53Z</time>
      </trkpt>
      <trkpt lat="45.8906" lon="6.19035">
        <ele>1246</ele>
        <time>2015-05-22T14:56:55Z</time>
      </trkpt>
      <trkpt lat="45.8906" lon="6.19035">
        <ele>1246</ele>
        <time>2015-05-22T14:56:57Z</time>
      </trkpt>
      <trkpt lat="45.8906" lon="6.19035">
        <ele>1245</ele>
        <time>2015-05-22T14:56:59Z</time>
      </trkpt>
      <trkpt lat="45.8906" lon="6.19035">
        <ele>1245</ele>
        <time>2015-05-22T14:57:01Z</time>
      </trkpt>
      <trkpt lat="45.8906" lon="6.19035">
        <ele>1245</ele>
        <time>2015-05-22T14:57:03Z</time>
      </trkpt>
      <trkpt lat="45.8906" lon="6.19035">
        <ele>1246</ele>
        <time>2015-05-22T14:57:04Z</time>
      </trkpt>
      <trkpt lat="45.8906" lon="6.19035">
        <ele>1246</ele>
        <time>2015-05-22T14:57:05Z</time>
      </trkpt>
      <trkpt lat="45.8906" lon="6.19035">
        <ele>1246</ele>
        <time>2015-05-22T14:57:06Z</time>
      </trkpt>
      <trkpt lat="45.8906" lon="6.19035">
        <ele>1246</ele>
        <time>2015-05-22T14:57:07Z</time>
      </trkpt>
      <trkpt lat="45.8906" lon="6.19035">
        <ele>1246</ele>
        <time>2015-05-22T14:57:09Z</time>
      </trkpt>
      <trkpt lat="45.8906" lon="6.19035">
        <ele>1246</ele>
        <time>2015-05-22T14:57:10Z</time>
      </trkpt>
      <trkpt lat="45.8906" lon="6.19035">
        <ele>1246</ele>
        <time>2015-05-22T14:57:11Z</time>
      </trkpt>
      <trkpt lat="45.8906" lon="6.19035">
        <ele>1246</ele>
        <time>2015-05-22T14:57:12Z</time>
      </trkpt>
      <trkpt lat="45.8906" lon="6.19035">
        <ele>1245</ele>
        <time>2015-05-22T14:57:14Z</time>
      </trkpt>
      <trkpt lat="45.8906" lon="6.19035">
        <ele>1246</ele>
        <time>2015-05-22T14:57:16Z</time>
      </trkpt>
      <trkpt lat="45.8906" lon="6.19035">
        <ele>1245</ele>
        <time>2015-05-22T14:57:18Z</time>
      </trkpt>
      <trkpt lat="45.8906" lon="6.19035">
        <ele>1245</ele>
        <time>2015-05-22T14:57:20Z</time>
      </trkpt>
      <trkpt lat="45.8906" lon="6.19035">
        <ele>1246</ele>
        <time>2015-05-22T14:57:22Z</time>
      </trkpt>
      <trkpt lat="45.8906" lon="6.19035">
        <ele>1246</ele>
        <time>2015-05-22T14:57:24Z</time>
      </trkpt>
      <trkpt lat="45.8906" lon="6.19035">
        <ele>1246</ele>
        <time>2015-05-22T14:57:26Z</time>
      </trkpt>
      <trkpt lat="45.8906" lon="6.19034">
        <ele>1246</ele>
        <time>2015-05-22T14:57:28Z</time>
      </trkpt>
      <trkpt lat="45.8906" lon="6.19034">
        <ele>1245</ele>
        <time>2015-05-22T14:57:29Z</time>
      </trkpt>
      <trkpt lat="45.89059" lon="6.19035">
        <ele>1246</ele>
        <time>2015-05-22T14:57:30Z</time>
      </trkpt>
      <trkpt lat="45.8906" lon="6.19035">
        <ele>1247</ele>
        <time>2015-05-22T14:57:31Z</time>
      </trkpt>
      <trkpt lat="45.8906" lon="6.19035">
        <ele>1246</ele>
        <time>2015-05-22T14:57:32Z</time>
      </trkpt>
      <trkpt lat="45.89059" lon="6.19034">
        <ele>1246</ele>
        <time>2015-05-22T14:57:34Z</time>
      </trkpt>
      <trkpt lat="45.89059" lon="6.19034">
        <ele>1246</ele>
        <time>2015-05-22T14:57:36Z</time>
      </trkpt>
      <trkpt lat="45.89059" lon="6.19034">
        <ele>1246</ele>
        <time>2015-05-22T14:57:38Z</time>
      </trkpt>
      <trkpt lat="45.89059" lon="6.19034">
        <ele>1247</ele>
        <time>2015-05-22T14:57:40Z</time>
      </trkpt>
      <trkpt lat="45.89059" lon="6.19034">
        <ele>1247</ele>
        <time>2015-05-22T14:57:42Z</time>
      </trkpt>
      <trkpt lat="45.89059" lon="6.19034">
        <ele>1247</ele>
        <time>2015-05-22T14:57:44Z</time>
      </trkpt>
      <trkpt lat="45.89059" lon="6.19034">
        <ele>1247</ele>
        <time>2015-05-22T14:57:45Z</time>
      </trkpt>
      <trkpt lat="45.89059" lon="6.19034">
        <ele>1247</ele>
        <time>2015-05-22T14:57:46Z</time>
      </trkpt>
      <trkpt lat="45.89059" lon="6.19034">
        <ele>1247</ele>
        <time>2015-05-22T14:57:47Z</time>
      </trkpt>
      <trkpt lat="45.89059" lon="6.19035">
        <ele>1248</ele>
        <time>2015-05-22T14:57:48Z</time>
      </trkpt>
      <trkpt lat="45.89058" lon="6.19035">
        <ele>1248</ele>
        <time>2015-05-22T14:57:49Z</time>
      </trkpt>
      <trkpt lat="45.89058" lon="6.19035">
        <ele>1248</ele>
        <time>2015-05-22T14:57:50Z</time>
      </trkpt>
      <trkpt lat="45.89058" lon="6.19035">
        <ele>1248</ele>
        <time>2015-05-22T14:57:51Z</time>
      </trkpt>
      <trkpt lat="45.89058" lon="6.19035">
        <ele>1249</ele>
        <time>2015-05-22T14:57:52Z</time>
      </trkpt>
      <trkpt lat="45.89058" lon="6.19035">
        <ele>1249</ele>
        <time>2015-05-22T14:57:54Z</time>
      </trkpt>
      <trkpt lat="45.89058" lon="6.19035">
        <ele>1249</ele>
        <time>2015-05-22T14:57:56Z</time>
      </trkpt>
      <trkpt lat="45.89058" lon="6.19035">
        <ele>1248</ele>
        <time>2015-05-22T14:57:58Z</time>
      </trkpt>
      <trkpt lat="45.89058" lon="6.19035">
        <ele>1248</ele>
        <time>2015-05-22T14:58:00Z</time>
      </trkpt>
      <trkpt lat="45.89058" lon="6.19035">
        <ele>1248</ele>
        <time>2015-05-22T14:58:02Z</time>
      </trkpt>
      <trkpt lat="45.89058" lon="6.19035">
        <ele>1248</ele>
        <time>2015-05-22T14:58:04Z</time>
      </trkpt>
      <trkpt lat="45.89058" lon="6.19035">
        <ele>1248</ele>
        <time>2015-05-22T14:58:06Z</time>
      </trkpt>
      <trkpt lat="45.89058" lon="6.19035">
        <ele>1248</ele>
        <time>2015-05-22T14:58:08Z</time>
      </trkpt>
      <trkpt lat="45.89058" lon="6.19035">
        <ele>1248</ele>
        <time>2015-05-22T14:58:09Z</time>
      </trkpt>
      <trkpt lat="45.89058" lon="6.19035">
        <ele>1248</ele>
        <time>2015-05-22T14:58:10Z</time>
      </trkpt>
      <trkpt lat="45.89058" lon="6.19035">
        <ele>1248</ele>
        <time>2015-05-22T14:58:11Z</time>
      </trkpt>
      <trkpt lat="45.89058" lon="6.19035">
        <ele>1248</ele>
        <time>2015-05-22T14:58:12Z</time>
      </trkpt>
      <trkpt lat="45.89058" lon="6.19035">
        <ele>1248</ele>
        <time>2015-05-22T14:58:13Z</time>
      </trkpt>
      <trkpt lat="45.89058" lon="6.19035">
        <ele>1248</ele>
        <time>2015-05-22T14:58:14Z</time>
      </trkpt>
      <trkpt lat="45.89058" lon="6.19035">
        <ele>1248</ele>
        <time>2015-05-22T14:58:15Z</time>
      </trkpt>
      <trkpt lat="45.89058" lon="6.19035">
        <ele>1248</ele>
        <time>2015-05-22T14:58:16Z</time>
      </trkpt>
      <trkpt lat="45.89058" lon="6.19035">
        <ele>1248</ele>
        <time>2015-05-22T14:58:17Z</time>
      </trkpt>
      <trkpt lat="45.89058" lon="6.19035">
        <ele>1248</ele>
        <time>2015-05-22T14:58:19Z</time>
      </trkpt>
      <trkpt lat="45.89058" lon="6.19035">
        <ele>1248</ele>
        <time>2015-05-22T14:58:20Z</time>
      </trkpt>
      <trkpt lat="45.89058" lon="6.19035">
        <ele>1248</ele>
        <time>2015-05-22T14:58:22Z</time>
      </trkpt>
      <trkpt lat="45.89058" lon="6.19035">
        <ele>1248</ele>
        <time>2015-05-22T14:58:23Z</time>
      </trkpt>
      <trkpt lat="45.89058" lon="6.19035">
        <ele>1248</ele>
        <time>2015-05-22T14:58:24Z</time>
      </trkpt>
      <trkpt lat="45.89058" lon="6.19035">
        <ele>1248</ele>
        <time>2015-05-22T14:58:25Z</time>
      </trkpt>
      <trkpt lat="45.89058" lon="6.19035">
        <ele>1248</ele>
        <time>2015-05-22T14:58:27Z</time>
      </trkpt>
      <trkpt lat="45.89059" lon="6.19035">
        <ele>1249</ele>
        <time>2015-05-22T14:58:28Z</time>
      </trkpt>
      <trkpt lat="45.89058" lon="6.19034">
        <ele>1249</ele>
        <time>2015-05-22T14:58:29Z</time>
      </trkpt>
      <trkpt lat="45.89061" lon="6.19034">
        <ele>1248</ele>
        <time>2015-05-22T14:58:31Z</time>
      </trkpt>
      <trkpt lat="45.89061" lon="6.19033">
        <ele>1248</ele>
        <time>2015-05-22T14:58:33Z</time>
      </trkpt>
      <trkpt lat="45.89061" lon="6.19031">
        <ele>1248</ele>
        <time>2015-05-22T14:58:35Z</time>
      </trkpt>
      <trkpt lat="45.89061" lon="6.19031">
        <ele>1248</ele>
        <time>2015-05-22T14:58:37Z</time>
      </trkpt>
      <trkpt lat="45.89062" lon="6.19029">
        <ele>1247</ele>
        <time>2015-05-22T14:58:39Z</time>
      </trkpt>
      <trkpt lat="45.89062" lon="6.19027">
        <ele>1248</ele>
        <time>2015-05-22T14:58:41Z</time>
      </trkpt>
      <trkpt lat="45.89063" lon="6.19025">
        <ele>1247</ele>
        <time>2015-05-22T14:58:43Z</time>
      </trkpt>
      <trkpt lat="45.89063" lon="6.19025">
        <ele>1248</ele>
        <time>2015-05-22T14:58:44Z</time>
      </trkpt>
      <trkpt lat="45.89063" lon="6.19024">
        <ele>1248</ele>
        <time>2015-05-22T14:58:45Z</time>
      </trkpt>
      <trkpt lat="45.89064" lon="6.19024">
        <ele>1248</ele>
        <time>2015-05-22T14:58:46Z</time>
      </trkpt>
      <trkpt lat="45.89064" lon="6.19026">
        <ele>1248</ele>
        <time>2015-05-22T14:58:47Z</time>
      </trkpt>
      <trkpt lat="45.89065" lon="6.19027">
        <ele>1247</ele>
        <time>2015-05-22T14:58:48Z</time>
      </trkpt>
      <trkpt lat="45.89065" lon="6.19026">
        <ele>1249</ele>
        <time>2015-05-22T14:58:49Z</time>
      </trkpt>
      <trkpt lat="45.89066" lon="6.19028">
        <ele>1248</ele>
        <time>2015-05-22T14:58:51Z</time>
      </trkpt>
      <trkpt lat="45.89066" lon="6.19029">
        <ele>1248</ele>
        <time>2015-05-22T14:58:53Z</time>
      </trkpt>
      <trkpt lat="45.89067" lon="6.19029">
        <ele>1248</ele>
        <time>2015-05-22T14:58:55Z</time>
      </trkpt>
      <trkpt lat="45.89068" lon="6.1903">
        <ele>1247</ele>
        <time>2015-05-22T14:58:57Z</time>
      </trkpt>
      <trkpt lat="45.89067" lon="6.1903">
        <ele>1246</ele>
        <time>2015-05-22T14:58:59Z</time>
      </trkpt>
      <trkpt lat="45.89067" lon="6.1903">
        <ele>1246</ele>
        <time>2015-05-22T14:59:00Z</time>
      </trkpt>
      <trkpt lat="45.89068" lon="6.19029">
        <ele>1247</ele>
        <time>2015-05-22T14:59:01Z</time>
      </trkpt>
      <trkpt lat="45.89068" lon="6.19027">
        <ele>1247</ele>
        <time>2015-05-22T14:59:02Z</time>
      </trkpt>
      <trkpt lat="45.89069" lon="6.19027">
        <ele>1247</ele>
        <time>2015-05-22T14:59:04Z</time>
      </trkpt>
      <trkpt lat="45.8907" lon="6.19029">
        <ele>1248</ele>
        <time>2015-05-22T14:59:06Z</time>
      </trkpt>
      <trkpt lat="45.89071" lon="6.1903">
        <ele>1249</ele>
        <time>2015-05-22T14:59:08Z</time>
      </trkpt>
      <trkpt lat="45.89071" lon="6.1903">
        <ele>1250</ele>
        <time>2015-05-22T14:59:10Z</time>
      </trkpt>
      <trkpt lat="45.89071" lon="6.19031">
        <ele>1251</ele>
        <time>2015-05-22T14:59:12Z</time>
      </trkpt>
      <trkpt lat="45.89072" lon="6.19031">
        <ele>1251</ele>
        <time>2015-05-22T14:59:14Z</time>
      </trkpt>
      <trkpt lat="45.89072" lon="6.19027">
        <ele>1251</ele>
        <time>2015-05-22T14:59:16Z</time>
      </trkpt>
      <trkpt lat="45.89073" lon="6.19028">
        <ele>1251</ele>
        <time>2015-05-22T14:59:17Z</time>
      </trkpt>
      <trkpt lat="45.89074" lon="6.19029">
        <ele>1251</ele>
        <time>2015-05-22T14:59:18Z</time>
      </trkpt>
      <trkpt lat="45.89075" lon="6.1903">
        <ele>1252</ele>
        <time>2015-05-22T14:59:19Z</time>
      </trkpt>
      <trkpt lat="45.89075" lon="6.1903">
        <ele>1252</ele>
        <time>2015-05-22T14:59:20Z</time>
      </trkpt>
      <trkpt lat="45.89076" lon="6.19029">
        <ele>1253</ele>
        <time>2015-05-22T14:59:21Z</time>
      </trkpt>
      <trkpt lat="45.89076" lon="6.19028">
        <ele>1254</ele>
        <time>2015-05-22T14:59:22Z</time>
      </trkpt>
      <trkpt lat="45.89076" lon="6.19027">
        <ele>1255</ele>
        <time>2015-05-22T14:59:24Z</time>
      </trkpt>
      <trkpt lat="45.89075" lon="6.19026">
        <ele>1254</ele>
        <time>2015-05-22T14:59:26Z</time>
      </trkpt>
      <trkpt lat="45.89074" lon="6.19026">
        <ele>1255</ele>
        <time>2015-05-22T14:59:28Z</time>
      </trkpt>
      <trkpt lat="45.89074" lon="6.19026">
        <ele>1255</ele>
        <time>2015-05-22T14:59:30Z</time>
      </trkpt>
      <trkpt lat="45.89074" lon="6.19026">
        <ele>1255</ele>
        <time>2015-05-22T14:59:32Z</time>
      </trkpt>
      <trkpt lat="45.89074" lon="6.19025">
        <ele>1255</ele>
        <time>2015-05-22T14:59:33Z</time>
      </trkpt>
      <trkpt lat="45.89073" lon="6.19025">
        <ele>1255</ele>
        <time>2015-05-22T14:59:34Z</time>
      </trkpt>
      <trkpt lat="45.89073" lon="6.19024">
        <ele>1256</ele>
        <time>2015-05-22T14:59:35Z</time>
      </trkpt>
      <trkpt lat="45.89072" lon="6.19024">
        <ele>1256</ele>
        <time>2015-05-22T14:59:36Z</time>
      </trkpt>
      <trkpt lat="45.89072" lon="6.19022">
        <ele>1256</ele>
        <time>2015-05-22T14:59:38Z</time>
      </trkpt>
      <trkpt lat="45.89072" lon="6.19021">
        <ele>1256</ele>
        <time>2015-05-22T14:59:39Z</time>
      </trkpt>
      <trkpt lat="45.89072" lon="6.19021">
        <ele>1256</ele>
        <time>2015-05-22T14:59:40Z</time>
      </trkpt>
      <trkpt lat="45.89072" lon="6.19021">
        <ele>1257</ele>
        <time>2015-05-22T14:59:42Z</time>
      </trkpt>
      <trkpt lat="45.89072" lon="6.1902">
        <ele>1257</ele>
        <time>2015-05-22T14:59:44Z</time>
      </trkpt>
      <trkpt lat="45.89072" lon="6.1902">
        <ele>1257</ele>
        <time>2015-05-22T14:59:45Z</time>
      </trkpt>
      <trkpt lat="45.89072" lon="6.1902">
        <ele>1257</ele>
        <time>2015-05-22T14:59:47Z</time>
      </trkpt>
      <trkpt lat="45.89072" lon="6.1902">
        <ele>1257</ele>
        <time>2015-05-22T14:59:48Z</time>
      </trkpt>
      <trkpt lat="45.89072" lon="6.1902">
        <ele>1257</ele>
        <time>2015-05-22T14:59:49Z</time>
      </trkpt>
      <trkpt lat="45.89073" lon="6.1902">
        <ele>1257</ele>
        <time>2015-05-22T14:59:51Z</time>
      </trkpt>
      <trkpt lat="45.89073" lon="6.1902">
        <ele>1257</ele>
        <time>2015-05-22T14:59:53Z</time>
      </trkpt>
      <trkpt lat="45.89073" lon="6.1902">
        <ele>1258</ele>
        <time>2015-05-22T14:59:55Z</time>
      </trkpt>
      <trkpt lat="45.89074" lon="6.1902">
        <ele>1257</ele>
        <time>2015-05-22T14:59:56Z</time>
      </trkpt>
      <trkpt lat="45.89074" lon="6.1902">
        <ele>1258</ele>
        <time>2015-05-22T14:59:58Z</time>
      </trkpt>
      <trkpt lat="45.89074" lon="6.1902">
        <ele>1258</ele>
        <time>2015-05-22T14:59:59Z</time>
      </trkpt>
      <trkpt lat="45.89074" lon="6.1902">
        <ele>1258</ele>
        <time>2015-05-22T15:00:00Z</time>
      </trkpt>
      <trkpt lat="45.89074" lon="6.1902">
        <ele>1258</ele>
        <time>2015-05-22T15:00:01Z</time>
      </trkpt>
      <trkpt lat="45.89073" lon="6.19019">
        <ele>1259</ele>
        <time>2015-05-22T15:00:03Z</time>
      </trkpt>
      <trkpt lat="45.89074" lon="6.19019">
        <ele>1259</ele>
        <time>2015-05-22T15:00:05Z</time>
      </trkpt>
      <trkpt lat="45.89073" lon="6.19019">
        <ele>1259</ele>
        <time>2015-05-22T15:00:07Z</time>
      </trkpt>
      <trkpt lat="45.89073" lon="6.19019">
        <ele>1259</ele>
        <time>2015-05-22T15:00:09Z</time>
      </trkpt>
      <trkpt lat="45.89074" lon="6.19019">
        <ele>1259</ele>
        <time>2015-05-22T15:00:11Z</time>
      </trkpt>
      <trkpt lat="45.89076" lon="6.1902">
        <ele>1260</ele>
        <time>2015-05-22T15:00:13Z</time>
      </trkpt>
      <trkpt lat="45.89078" lon="6.1902">
        <ele>1258</ele>
        <time>2015-05-22T15:00:15Z</time>
      </trkpt>
      <trkpt lat="45.89078" lon="6.1902">
        <ele>1258</ele>
        <time>2015-05-22T15:00:16Z</time>
      </trkpt>
      <trkpt lat="45.8908" lon="6.19021">
        <ele>1259</ele>
        <time>2015-05-22T15:00:18Z</time>
      </trkpt>
      <trkpt lat="45.8908" lon="6.1902">
        <ele>1260</ele>
        <time>2015-05-22T15:00:19Z</time>
      </trkpt>
      <trkpt lat="45.8908" lon="6.1902">
        <ele>1260</ele>
        <time>2015-05-22T15:00:20Z</time>
      </trkpt>
      <trkpt lat="45.89082" lon="6.19018">
        <ele>1263</ele>
        <time>2015-05-22T15:00:22Z</time>
      </trkpt>
      <trkpt lat="45.89083" lon="6.19016">
        <ele>1264</ele>
        <time>2015-05-22T15:00:24Z</time>
      </trkpt>
      <trkpt lat="45.89083" lon="6.19016">
        <ele>1266</ele>
        <time>2015-05-22T15:00:26Z</time>
      </trkpt>
      <trkpt lat="45.89083" lon="6.19015">
        <ele>1266</ele>
        <time>2015-05-22T15:00:28Z</time>
      </trkpt>
      <trkpt lat="45.89084" lon="6.19016">
        <ele>1265</ele>
        <time>2015-05-22T15:00:30Z</time>
      </trkpt>
      <trkpt lat="45.89084" lon="6.19016">
        <ele>1265</ele>
        <time>2015-05-22T15:00:32Z</time>
      </trkpt>
      <trkpt lat="45.89084" lon="6.19016">
        <ele>1266</ele>
        <time>2015-05-22T15:00:34Z</time>
      </trkpt>
      <trkpt lat="45.89084" lon="6.19015">
        <ele>1266</ele>
        <time>2015-05-22T15:00:36Z</time>
      </trkpt>
      <trkpt lat="45.89084" lon="6.19015">
        <ele>1265</ele>
        <time>2015-05-22T15:00:38Z</time>
      </trkpt>
      <trkpt lat="45.89084" lon="6.19016">
        <ele>1264</ele>
        <time>2015-05-22T15:00:39Z</time>
      </trkpt>
      <trkpt lat="45.89084" lon="6.19015">
        <ele>1263</ele>
        <time>2015-05-22T15:00:40Z</time>
      </trkpt>
      <trkpt lat="45.89084" lon="6.19016">
        <ele>1263</ele>
        <time>2015-05-22T15:00:42Z</time>
      </trkpt>
      <trkpt lat="45.89084" lon="6.19015">
        <ele>1264</ele>
        <time>2015-05-22T15:00:44Z</time>
      </trkpt>
      <trkpt lat="45.89083" lon="6.19014">
        <ele>1264</ele>
        <time>2015-05-22T15:00:46Z</time>
      </trkpt>
      <trkpt lat="45.89083" lon="6.19014">
        <ele>1264</ele>
        <time>2015-05-22T15:00:48Z</time>
      </trkpt>
      <trkpt lat="45.89083" lon="6.19014">
        <ele>1265</ele>
        <time>2015-05-22T15:00:50Z</time>
      </trkpt>
      <trkpt lat="45.89083" lon="6.19014">
        <ele>1267</ele>
        <time>2015-05-22T15:00:51Z</time>
      </trkpt>
      <trkpt lat="45.89083" lon="6.19013">
        <ele>1268</ele>
        <time>2015-05-22T15:00:53Z</time>
      </trkpt>
      <trkpt lat="45.89083" lon="6.19012">
        <ele>1269</ele>
        <time>2015-05-22T15:00:54Z</time>
      </trkpt>
      <trkpt lat="45.89083" lon="6.19012">
        <ele>1269</ele>
        <time>2015-05-22T15:00:55Z</time>
      </trkpt>
      <trkpt lat="45.89083" lon="6.19012">
        <ele>1269</ele>
        <time>2015-05-22T15:00:56Z</time>
      </trkpt>
      <trkpt lat="45.89083" lon="6.19011">
        <ele>1270</ele>
        <time>2015-05-22T15:00:57Z</time>
      </trkpt>
      <trkpt lat="45.89083" lon="6.19012">
        <ele>1270</ele>
        <time>2015-05-22T15:00:58Z</time>
      </trkpt>
      <trkpt lat="45.89082" lon="6.19011">
        <ele>1270</ele>
        <time>2015-05-22T15:00:59Z</time>
      </trkpt>
      <trkpt lat="45.89082" lon="6.19011">
        <ele>1270</ele>
        <time>2015-05-22T15:01:00Z</time>
      </trkpt>
      <trkpt lat="45.89082" lon="6.19011">
        <ele>1269</ele>
        <time>2015-05-22T15:01:02Z</time>
      </trkpt>
      <trkpt lat="45.89082" lon="6.19011">
        <ele>1269</ele>
        <time>2015-05-22T15:01:04Z</time>
      </trkpt>
      <trkpt lat="45.89082" lon="6.19007">
        <ele>1271</ele>
        <time>2015-05-22T15:01:06Z</time>
      </trkpt>
      <trkpt lat="45.89081" lon="6.19004">
        <ele>1269</ele>
        <time>2015-05-22T15:01:08Z</time>
      </trkpt>
      <trkpt lat="45.89081" lon="6.19004">
        <ele>1270</ele>
        <time>2015-05-22T15:01:10Z</time>
      </trkpt>
      <trkpt lat="45.89081" lon="6.19004">
        <ele>1270</ele>
        <time>2015-05-22T15:01:12Z</time>
      </trkpt>
      <trkpt lat="45.89081" lon="6.19004">
        <ele>1270</ele>
        <time>2015-05-22T15:01:14Z</time>
      </trkpt>
      <trkpt lat="45.89081" lon="6.19004">
        <ele>1270</ele>
        <time>2015-05-22T15:01:16Z</time>
      </trkpt>
      <trkpt lat="45.89081" lon="6.19004">
        <ele>1270</ele>
        <time>2015-05-22T15:01:17Z</time>
      </trkpt>
      <trkpt lat="45.89081" lon="6.19004">
        <ele>1270</ele>
        <time>2015-05-22T15:01:18Z</time>
      </trkpt>
      <trkpt lat="45.89081" lon="6.19004">
        <ele>1270</ele>
        <time>2015-05-22T15:01:19Z</time>
      </trkpt>
      <trkpt lat="45.89081" lon="6.19004">
        <ele>1270</ele>
        <time>2015-05-22T15:01:20Z</time>
      </trkpt>
      <trkpt lat="45.89081" lon="6.19004">
        <ele>1270</ele>
        <time>2015-05-22T15:01:22Z</time>
      </trkpt>
      <trkpt lat="45.89081" lon="6.19003">
        <ele>1270</ele>
        <time>2015-05-22T15:01:23Z</time>
      </trkpt>
      <trkpt lat="45.89081" lon="6.19002">
        <ele>1270</ele>
        <time>2015-05-22T15:01:25Z</time>
      </trkpt>
      <trkpt lat="45.89082" lon="6.19003">
        <ele>1270</ele>
        <time>2015-05-22T15:01:26Z</time>
      </trkpt>
      <trkpt lat="45.89082" lon="6.19002">
        <ele>1270</ele>
        <time>2015-05-22T15:01:27Z</time>
      </trkpt>
      <trkpt lat="45.89082" lon="6.19002">
        <ele>1270</ele>
        <time>2015-05-22T15:01:29Z</time>
      </trkpt>
      <trkpt lat="45.89082" lon="6.19003">
        <ele>1270</ele>
        <time>2015-05-22T15:01:31Z</time>
      </trkpt>
      <trkpt lat="45.89083" lon="6.19003">
        <ele>1269</ele>
        <time>2015-05-22T15:01:33Z</time>
      </trkpt>
      <trkpt lat="45.89083" lon="6.19004">
        <ele>1268</ele>
        <time>2015-05-22T15:01:34Z</time>
      </trkpt>
      <trkpt lat="45.89083" lon="6.19005">
        <ele>1268</ele>
        <time>2015-05-22T15:01:35Z</time>
      </trkpt>
      <trkpt lat="45.89084" lon="6.19005">
        <ele>1268</ele>
        <time>2015-05-22T15:01:36Z</time>
      </trkpt>
      <trkpt lat="45.89084" lon="6.19006">
        <ele>1268</ele>
        <time>2015-05-22T15:01:37Z</time>
      </trkpt>
      <trkpt lat="45.89084" lon="6.19006">
        <ele>1268</ele>
        <time>2015-05-22T15:01:38Z</time>
      </trkpt>
      <trkpt lat="45.89083" lon="6.19006">
        <ele>1268</ele>
        <time>2015-05-22T15:01:39Z</time>
      </trkpt>
      <trkpt lat="45.89083" lon="6.19006">
        <ele>1269</ele>
        <time>2015-05-22T15:01:41Z</time>
      </trkpt>
      <trkpt lat="45.89083" lon="6.19006">
        <ele>1269</ele>
        <time>2015-05-22T15:01:42Z</time>
      </trkpt>
      <trkpt lat="45.89084" lon="6.19006">
        <ele>1269</ele>
        <time>2015-05-22T15:01:44Z</time>
      </trkpt>
      <trkpt lat="45.89084" lon="6.19006">
        <ele>1269</ele>
        <time>2015-05-22T15:01:45Z</time>
      </trkpt>
      <trkpt lat="45.89085" lon="6.19004">
        <ele>1268</ele>
        <time>2015-05-22T15:01:47Z</time>
      </trkpt>
      <trkpt lat="45.89086" lon="6.19001">
        <ele>1269</ele>
        <time>2015-05-22T15:01:49Z</time>
      </trkpt>
      <trkpt lat="45.89086" lon="6.19001">
        <ele>1268</ele>
        <time>2015-05-22T15:01:51Z</time>
      </trkpt>
      <trkpt lat="45.89086" lon="6.19">
        <ele>1269</ele>
        <time>2015-05-22T15:01:52Z</time>
      </trkpt>
      <trkpt lat="45.89087" lon="6.19">
        <ele>1269</ele>
        <time>2015-05-22T15:01:55Z</time>
      </trkpt>
      <trkpt lat="45.89087" lon="6.19">
        <ele>1269</ele>
        <time>2015-05-22T15:01:56Z</time>
      </trkpt>
      <trkpt lat="45.89088" lon="6.19">
        <ele>1270</ele>
        <time>2015-05-22T15:01:57Z</time>
      </trkpt>
      <trkpt lat="45.89088" lon="6.19">
        <ele>1270</ele>
        <time>2015-05-22T15:01:58Z</time>
      </trkpt>
      <trkpt lat="45.89088" lon="6.18999">
        <ele>1270</ele>
        <time>2015-05-22T15:02:01Z</time>
      </trkpt>
      <trkpt lat="45.89088" lon="6.18997">
        <ele>1270</ele>
        <time>2015-05-22T15:02:03Z</time>
      </trkpt>
      <trkpt lat="45.89089" lon="6.18996">
        <ele>1271</ele>
        <time>2015-05-22T15:02:05Z</time>
      </trkpt>
      <trkpt lat="45.89089" lon="6.18996">
        <ele>1271</ele>
        <time>2015-05-22T15:02:07Z</time>
      </trkpt>
      <trkpt lat="45.89089" lon="6.18996">
        <ele>1271</ele>
        <time>2015-05-22T15:02:09Z</time>
      </trkpt>
      <trkpt lat="45.89089" lon="6.18995">
        <ele>1272</ele>
        <time>2015-05-22T15:02:11Z</time>
      </trkpt>
      <trkpt lat="45.8909" lon="6.18994">
        <ele>1272</ele>
        <time>2015-05-22T15:02:13Z</time>
      </trkpt>
      <trkpt lat="45.8909" lon="6.18992">
        <ele>1273</ele>
        <time>2015-05-22T15:02:15Z</time>
      </trkpt>
      <trkpt lat="45.8909" lon="6.18991">
        <ele>1274</ele>
        <time>2015-05-22T15:02:17Z</time>
      </trkpt>
      <trkpt lat="45.89091" lon="6.18991">
        <ele>1274</ele>
        <time>2015-05-22T15:02:18Z</time>
      </trkpt>
      <trkpt lat="45.89091" lon="6.1899">
        <ele>1274</ele>
        <time>2015-05-22T15:02:19Z</time>
      </trkpt>
      <trkpt lat="45.89091" lon="6.18989">
        <ele>1274</ele>
        <time>2015-05-22T15:02:20Z</time>
      </trkpt>
      <trkpt lat="45.89092" lon="6.18988">
        <ele>1274</ele>
        <time>2015-05-22T15:02:21Z</time>
      </trkpt>
      <trkpt lat="45.89092" lon="6.18988">
        <ele>1274</ele>
        <time>2015-05-22T15:02:22Z</time>
      </trkpt>
      <trkpt lat="45.89092" lon="6.18987">
        <ele>1274</ele>
        <time>2015-05-22T15:02:24Z</time>
      </trkpt>
      <trkpt lat="45.89094" lon="6.18987">
        <ele>1273</ele>
        <time>2015-05-22T15:02:26Z</time>
      </trkpt>
      <trkpt lat="45.89094" lon="6.18986">
        <ele>1273</ele>
        <time>2015-05-22T15:02:28Z</time>
      </trkpt>
      <trkpt lat="45.89094" lon="6.18985">
        <ele>1273</ele>
        <time>2015-05-22T15:02:30Z</time>
      </trkpt>
      <trkpt lat="45.89095" lon="6.18985">
        <ele>1273</ele>
        <time>2015-05-22T15:02:32Z</time>
      </trkpt>
      <trkpt lat="45.89096" lon="6.18987">
        <ele>1273</ele>
        <time>2015-05-22T15:02:34Z</time>
      </trkpt>
      <trkpt lat="45.89095" lon="6.18986">
        <ele>1273</ele>
        <time>2015-05-22T15:02:36Z</time>
      </trkpt>
      <trkpt lat="45.89096" lon="6.18986">
        <ele>1274</ele>
        <time>2015-05-22T15:02:38Z</time>
      </trkpt>
      <trkpt lat="45.89096" lon="6.18986">
        <ele>1273</ele>
        <time>2015-05-22T15:02:39Z</time>
      </trkpt>
      <trkpt lat="45.89096" lon="6.18986">
        <ele>1273</ele>
        <time>2015-05-22T15:02:40Z</time>
      </trkpt>
      <trkpt lat="45.89096" lon="6.18986">
        <ele>1273</ele>
        <time>2015-05-22T15:02:41Z</time>
      </trkpt>
      <trkpt lat="45.89096" lon="6.18987">
        <ele>1273</ele>
        <time>2015-05-22T15:02:42Z</time>
      </trkpt>
      <trkpt lat="45.89096" lon="6.18987">
        <ele>1273</ele>
        <time>2015-05-22T15:02:43Z</time>
      </trkpt>
      <trkpt lat="45.89096" lon="6.18987">
        <ele>1273</ele>
        <time>2015-05-22T15:02:45Z</time>
      </trkpt>
      <trkpt lat="45.89095" lon="6.18987">
        <ele>1273</ele>
        <time>2015-05-22T15:02:47Z</time>
      </trkpt>
      <trkpt lat="45.89095" lon="6.18987">
        <ele>1273</ele>
        <time>2015-05-22T15:02:49Z</time>
      </trkpt>
      <trkpt lat="45.89095" lon="6.18987">
        <ele>1273</ele>
        <time>2015-05-22T15:02:51Z</time>
      </trkpt>
      <trkpt lat="45.89095" lon="6.18987">
        <ele>1273</ele>
        <time>2015-05-22T15:02:53Z</time>
      </trkpt>
      <trkpt lat="45.89095" lon="6.18987">
        <ele>1273</ele>
        <time>2015-05-22T15:02:55Z</time>
      </trkpt>
      <trkpt lat="45.89095" lon="6.18987">
        <ele>1273</ele>
        <time>2015-05-22T15:02:57Z</time>
      </trkpt>
      <trkpt lat="45.89095" lon="6.18987">
        <ele>1273</ele>
        <time>2015-05-22T15:02:58Z</time>
      </trkpt>
      <trkpt lat="45.89095" lon="6.18987">
        <ele>1273</ele>
        <time>2015-05-22T15:02:59Z</time>
      </trkpt>
      <trkpt lat="45.89095" lon="6.18987">
        <ele>1273</ele>
        <time>2015-05-22T15:03:00Z</time>
      </trkpt>
      <trkpt lat="45.89095" lon="6.18987">
        <ele>1273</ele>
        <time>2015-05-22T15:03:01Z</time>
      </trkpt>
      <trkpt lat="45.89095" lon="6.18987">
        <ele>1273</ele>
        <time>2015-05-22T15:03:02Z</time>
      </trkpt>
      <trkpt lat="45.89095" lon="6.18987">
        <ele>1273</ele>
        <time>2015-05-22T15:03:03Z</time>
      </trkpt>
      <trkpt lat="45.89095" lon="6.18987">
        <ele>1273</ele>
        <time>2015-05-22T15:03:05Z</time>
      </trkpt>
      <trkpt lat="45.89095" lon="6.18987">
        <ele>1273</ele>
        <time>2015-05-22T15:03:07Z</time>
      </trkpt>
      <trkpt lat="45.89095" lon="6.18987">
        <ele>1273</ele>
        <time>2015-05-22T15:03:09Z</time>
      </trkpt>
      <trkpt lat="45.89095" lon="6.18987">
        <ele>1273</ele>
        <time>2015-05-22T15:03:11Z</time>
      </trkpt>
      <trkpt lat="45.89095" lon="6.18987">
        <ele>1273</ele>
        <time>2015-05-22T15:03:13Z</time>
      </trkpt>
      <trkpt lat="45.89095" lon="6.18987">
        <ele>1273</ele>
        <time>2015-05-22T15:03:14Z</time>
      </trkpt>
      <trkpt lat="45.89095" lon="6.18987">
        <ele>1273</ele>
        <time>2015-05-22T15:03:15Z</time>
      </trkpt>
      <trkpt lat="45.89095" lon="6.18987">
        <ele>1273</ele>
        <time>2015-05-22T15:03:16Z</time>
      </trkpt>
      <trkpt lat="45.89095" lon="6.18987">
        <ele>1273</ele>
        <time>2015-05-22T15:03:17Z</time>
      </trkpt>
      <trkpt lat="45.89095" lon="6.18987">
        <ele>1273</ele>
        <time>2015-05-22T15:03:19Z</time>
      </trkpt>
      <trkpt lat="45.89095" lon="6.18987">
        <ele>1273</ele>
        <time>2015-05-22T15:03:20Z</time>
      </trkpt>
      <trkpt lat="45.89095" lon="6.18987">
        <ele>1273</ele>
        <time>2015-05-22T15:03:21Z</time>
      </trkpt>
      <trkpt lat="45.89095" lon="6.18987">
        <ele>1273</ele>
        <time>2015-05-22T15:03:22Z</time>
      </trkpt>
      <trkpt lat="45.89095" lon="6.18987">
        <ele>1273</ele>
        <time>2015-05-22T15:03:23Z</time>
      </trkpt>
      <trkpt lat="45.89095" lon="6.18987">
        <ele>1273</ele>
        <time>2015-05-22T15:03:25Z</time>
      </trkpt>
      <trkpt lat="45.89095" lon="6.18987">
        <ele>1273</ele>
        <time>2015-05-22T15:03:27Z</time>
      </trkpt>
      <trkpt lat="45.89095" lon="6.18987">
        <ele>1274</ele>
        <time>2015-05-22T15:03:29Z</time>
      </trkpt>
      <trkpt lat="45.89095" lon="6.18987">
        <ele>1274</ele>
        <time>2015-05-22T15:03:31Z</time>
      </trkpt>
      <trkpt lat="45.89095" lon="6.18987">
        <ele>1274</ele>
        <time>2015-05-22T15:03:33Z</time>
      </trkpt>
      <trkpt lat="45.89095" lon="6.18987">
        <ele>1274</ele>
        <time>2015-05-22T15:03:35Z</time>
      </trkpt>
      <trkpt lat="45.89095" lon="6.18987">
        <ele>1274</ele>
        <time>2015-05-22T15:03:37Z</time>
      </trkpt>
      <trkpt lat="45.89095" lon="6.18987">
        <ele>1274</ele>
        <time>2015-05-22T15:03:39Z</time>
      </trkpt>
      <trkpt lat="45.89095" lon="6.18987">
        <ele>1274</ele>
        <time>2015-05-22T15:03:40Z</time>
      </trkpt>
      <trkpt lat="45.89095" lon="6.18987">
        <ele>1274</ele>
        <time>2015-05-22T15:03:41Z</time>
      </trkpt>
      <trkpt lat="45.89095" lon="6.18987">
        <ele>1274</ele>
        <time>2015-05-22T15:03:42Z</time>
      </trkpt>
      <trkpt lat="45.89095" lon="6.18987">
        <ele>1274</ele>
        <time>2015-05-22T15:03:43Z</time>
      </trkpt>
      <trkpt lat="45.89095" lon="6.18987">
        <ele>1274</ele>
        <time>2015-05-22T15:03:44Z</time>
      </trkpt>
      <trkpt lat="45.89095" lon="6.18987">
        <ele>1274</ele>
        <time>2015-05-22T15:03:47Z</time>
      </trkpt>
      <trkpt lat="45.89095" lon="6.18987">
        <ele>1274</ele>
        <time>2015-05-22T15:03:49Z</time>
      </trkpt>
      <trkpt lat="45.89095" lon="6.18987">
        <ele>1274</ele>
        <time>2015-05-22T15:03:51Z</time>
      </trkpt>
      <trkpt lat="45.89095" lon="6.18987">
        <ele>1274</ele>
        <time>2015-05-22T15:03:52Z</time>
      </trkpt>
      <trkpt lat="45.89095" lon="6.18987">
        <ele>1274</ele>
        <time>2015-05-22T15:03:53Z</time>
      </trkpt>
      <trkpt lat="45.89095" lon="6.18987">
        <ele>1274</ele>
        <time>2015-05-22T15:03:54Z</time>
      </trkpt>
      <trkpt lat="45.89095" lon="6.18987">
        <ele>1274</ele>
        <time>2015-05-22T15:03:55Z</time>
      </trkpt>
      <trkpt lat="45.89095" lon="6.18987">
        <ele>1274</ele>
        <time>2015-05-22T15:03:56Z</time>
      </trkpt>
      <trkpt lat="45.89095" lon="6.18987">
        <ele>1274</ele>
        <time>2015-05-22T15:03:58Z</time>
      </trkpt>
      <trkpt lat="45.89095" lon="6.18987">
        <ele>1274</ele>
        <time>2015-05-22T15:03:59Z</time>
      </trkpt>
      <trkpt lat="45.89095" lon="6.18987">
        <ele>1274</ele>
        <time>2015-05-22T15:04:00Z</time>
      </trkpt>
      <trkpt lat="45.89095" lon="6.18987">
        <ele>1274</ele>
        <time>2015-05-22T15:04:02Z</time>
      </trkpt>
      <trkpt lat="45.89095" lon="6.18987">
        <ele>1274</ele>
        <time>2015-05-22T15:04:04Z</time>
      </trkpt>
      <trkpt lat="45.89095" lon="6.18985">
        <ele>1273</ele>
        <time>2015-05-22T15:04:06Z</time>
      </trkpt>
      <trkpt lat="45.89096" lon="6.18982">
        <ele>1271</ele>
        <time>2015-05-22T15:04:08Z</time>
      </trkpt>
      <trkpt lat="45.89096" lon="6.18982">
        <ele>1271</ele>
        <time>2015-05-22T15:04:10Z</time>
      </trkpt>
      <trkpt lat="45.89096" lon="6.18981">
        <ele>1271</ele>
        <time>2015-05-22T15:04:12Z</time>
      </trkpt>
      <trkpt lat="45.89096" lon="6.18981">
        <ele>1270</ele>
        <time>2015-05-22T15:04:14Z</time>
      </trkpt>
      <trkpt lat="45.89096" lon="6.1898">
        <ele>1270</ele>
        <time>2015-05-22T15:04:16Z</time>
      </trkpt>
      <trkpt lat="45.89096" lon="6.18979">
        <ele>1271</ele>
        <time>2015-05-22T15:04:18Z</time>
      </trkpt>
      <trkpt lat="45.89095" lon="6.18979">
        <ele>1271</ele>
        <time>2015-05-22T15:04:19Z</time>
      </trkpt>
      <trkpt lat="45.89096" lon="6.18979">
        <ele>1271</ele>
        <time>2015-05-22T15:04:20Z</time>
      </trkpt>
      <trkpt lat="45.89096" lon="6.1898">
        <ele>1271</ele>
        <time>2015-05-22T15:04:22Z</time>
      </trkpt>
      <trkpt lat="45.89096" lon="6.1898">
        <ele>1271</ele>
        <time>2015-05-22T15:04:24Z</time>
      </trkpt>
      <trkpt lat="45.89096" lon="6.1898">
        <ele>1272</ele>
        <time>2015-05-22T15:04:26Z</time>
      </trkpt>
      <trkpt lat="45.89096" lon="6.1898">
        <ele>1272</ele>
        <time>2015-05-22T15:04:28Z</time>
      </trkpt>
      <trkpt lat="45.89095" lon="6.18978">
        <ele>1273</ele>
        <time>2015-05-22T15:04:30Z</time>
      </trkpt>
      <trkpt lat="45.89096" lon="6.18978">
        <ele>1273</ele>
        <time>2015-05-22T15:04:32Z</time>
      </trkpt>
      <trkpt lat="45.89096" lon="6.18978">
        <ele>1274</ele>
        <time>2015-05-22T15:04:34Z</time>
      </trkpt>
      <trkpt lat="45.89097" lon="6.18977">
        <ele>1274</ele>
        <time>2015-05-22T15:04:35Z</time>
      </trkpt>
      <trkpt lat="45.89097" lon="6.18976">
        <ele>1274</ele>
        <time>2015-05-22T15:04:36Z</time>
      </trkpt>
      <trkpt lat="45.89097" lon="6.18976">
        <ele>1274</ele>
        <time>2015-05-22T15:04:37Z</time>
      </trkpt>
      <trkpt lat="45.89097" lon="6.18976">
        <ele>1274</ele>
        <time>2015-05-22T15:04:38Z</time>
      </trkpt>
      <trkpt lat="45.89097" lon="6.18977">
        <ele>1275</ele>
        <time>2015-05-22T15:04:39Z</time>
      </trkpt>
      <trkpt lat="45.89096" lon="6.18977">
        <ele>1275</ele>
        <time>2015-05-22T15:04:41Z</time>
      </trkpt>
      <trkpt lat="45.89096" lon="6.18976">
        <ele>1277</ele>
        <time>2015-05-22T15:04:43Z</time>
      </trkpt>
      <trkpt lat="45.89095" lon="6.18976">
        <ele>1279</ele>
        <time>2015-05-22T15:04:45Z</time>
      </trkpt>
      <trkpt lat="45.89096" lon="6.18974">
        <ele>1280</ele>
        <time>2015-05-22T15:04:47Z</time>
      </trkpt>
      <trkpt lat="45.89095" lon="6.18973">
        <ele>1281</ele>
        <time>2015-05-22T15:04:49Z</time>
      </trkpt>
      <trkpt lat="45.89095" lon="6.18973">
        <ele>1281</ele>
        <time>2015-05-22T15:04:50Z</time>
      </trkpt>
      <trkpt lat="45.89096" lon="6.18973">
        <ele>1281</ele>
        <time>2015-05-22T15:04:51Z</time>
      </trkpt>
      <trkpt lat="45.89096" lon="6.18973">
        <ele>1281</ele>
        <time>2015-05-22T15:04:52Z</time>
      </trkpt>
      <trkpt lat="45.89095" lon="6.18972">
        <ele>1285</ele>
        <time>2015-05-22T15:04:54Z</time>
      </trkpt>
      <trkpt lat="45.89095" lon="6.18971">
        <ele>1285</ele>
        <time>2015-05-22T15:04:56Z</time>
      </trkpt>
      <trkpt lat="45.89096" lon="6.18971">
        <ele>1284</ele>
        <time>2015-05-22T15:04:58Z</time>
      </trkpt>
      <trkpt lat="45.89096" lon="6.18971">
        <ele>1287</ele>
        <time>2015-05-22T15:05:00Z</time>
      </trkpt>
      <trkpt lat="45.89096" lon="6.1897">
        <ele>1286</ele>
        <time>2015-05-22T15:05:02Z</time>
      </trkpt>
      <trkpt lat="45.89096" lon="6.1897">
        <ele>1287</ele>
        <time>2015-05-22T15:05:03Z</time>
      </trkpt>
      <trkpt lat="45.89096" lon="6.1897">
        <ele>1287</ele>
        <time>2015-05-22T15:05:06Z</time>
      </trkpt>
      <trkpt lat="45.89095" lon="6.18968">
        <ele>1289</ele>
        <time>2015-05-22T15:05:07Z</time>
      </trkpt>
      <trkpt lat="45.89095" lon="6.18968">
        <ele>1289</ele>
        <time>2015-05-22T15:05:08Z</time>
      </trkpt>
      <trkpt lat="45.89095" lon="6.18968">
        <ele>1289</ele>
        <time>2015-05-22T15:05:09Z</time>
      </trkpt>
      <trkpt lat="45.89094" lon="6.18968">
        <ele>1289</ele>
        <time>2015-05-22T15:05:10Z</time>
      </trkpt>
      <trkpt lat="45.89094" lon="6.18968">
        <ele>1289</ele>
        <time>2015-05-22T15:05:11Z</time>
      </trkpt>
      <trkpt lat="45.89095" lon="6.18967">
        <ele>1289</ele>
        <time>2015-05-22T15:05:12Z</time>
      </trkpt>
      <trkpt lat="45.89096" lon="6.18966">
        <ele>1288</ele>
        <time>2015-05-22T15:05:13Z</time>
      </trkpt>
      <trkpt lat="45.89096" lon="6.18967">
        <ele>1289</ele>
        <time>2015-05-22T15:05:14Z</time>
      </trkpt>
      <trkpt lat="45.89096" lon="6.18967">
        <ele>1289</ele>
        <time>2015-05-22T15:05:16Z</time>
      </trkpt>
      <trkpt lat="45.89096" lon="6.18967">
        <ele>1289</ele>
        <time>2015-05-22T15:05:18Z</time>
      </trkpt>
      <trkpt lat="45.89096" lon="6.18966">
        <ele>1289</ele>
        <time>2015-05-22T15:05:20Z</time>
      </trkpt>
      <trkpt lat="45.89096" lon="6.18965">
        <ele>1290</ele>
        <time>2015-05-22T15:05:22Z</time>
      </trkpt>
      <trkpt lat="45.89096" lon="6.18965">
        <ele>1290</ele>
        <time>2015-05-22T15:05:24Z</time>
      </trkpt>
      <trkpt lat="45.89096" lon="6.18965">
        <ele>1290</ele>
        <time>2015-05-22T15:05:26Z</time>
      </trkpt>
      <trkpt lat="45.89096" lon="6.18965">
        <ele>1290</ele>
        <time>2015-05-22T15:05:28Z</time>
      </trkpt>
      <trkpt lat="45.89096" lon="6.18965">
        <ele>1290</ele>
        <time>2015-05-22T15:05:29Z</time>
      </trkpt>
      <trkpt lat="45.89096" lon="6.18965">
        <ele>1290</ele>
        <time>2015-05-22T15:05:30Z</time>
      </trkpt>
      <trkpt lat="45.89096" lon="6.18965">
        <ele>1290</ele>
        <time>2015-05-22T15:05:31Z</time>
      </trkpt>
      <trkpt lat="45.89096" lon="6.18965">
        <ele>1290</ele>
        <time>2015-05-22T15:05:32Z</time>
      </trkpt>
      <trkpt lat="45.89096" lon="6.18965">
        <ele>1290</ele>
        <time>2015-05-22T15:05:33Z</time>
      </trkpt>
      <trkpt lat="45.89096" lon="6.18965">
        <ele>1290</ele>
        <time>2015-05-22T15:05:34Z</time>
      </trkpt>
      <trkpt lat="45.89096" lon="6.18965">
        <ele>1290</ele>
        <time>2015-05-22T15:05:36Z</time>
      </trkpt>
      <trkpt lat="45.89096" lon="6.18965">
        <ele>1290</ele>
        <time>2015-05-22T15:05:38Z</time>
      </trkpt>
      <trkpt lat="45.89096" lon="6.18965">
        <ele>1290</ele>
        <time>2015-05-22T15:05:40Z</time>
      </trkpt>
      <trkpt lat="45.89096" lon="6.18965">
        <ele>1290</ele>
        <time>2015-05-22T15:05:42Z</time>
      </trkpt>
      <trkpt lat="45.89096" lon="6.18965">
        <ele>1290</ele>
        <time>2015-05-22T15:05:44Z</time>
      </trkpt>
      <trkpt lat="45.89096" lon="6.18965">
        <ele>1290</ele>
        <time>2015-05-22T15:05:46Z</time>
      </trkpt>
      <trkpt lat="45.89096" lon="6.18965">
        <ele>1290</ele>
        <time>2015-05-22T15:05:48Z</time>
      </trkpt>
      <trkpt lat="45.89096" lon="6.18965">
        <ele>1290</ele>
        <time>2015-05-22T15:05:49Z</time>
      </trkpt>
      <trkpt lat="45.89096" lon="6.18965">
        <ele>1290</ele>
        <time>2015-05-22T15:05:50Z</time>
      </trkpt>
      <trkpt lat="45.89096" lon="6.18965">
        <ele>1290</ele>
        <time>2015-05-22T15:05:51Z</time>
      </trkpt>
      <trkpt lat="45.89096" lon="6.18965">
        <ele>1290</ele>
        <time>2015-05-22T15:05:52Z</time>
      </trkpt>
      <trkpt lat="45.89096" lon="6.18965">
        <ele>1290</ele>
        <time>2015-05-22T15:05:53Z</time>
      </trkpt>
      <trkpt lat="45.89096" lon="6.18965">
        <ele>1290</ele>
        <time>2015-05-22T15:05:54Z</time>
      </trkpt>
      <trkpt lat="45.89096" lon="6.18965">
        <ele>1290</ele>
        <time>2015-05-22T15:05:56Z</time>
      </trkpt>
      <trkpt lat="45.89096" lon="6.18965">
        <ele>1290</ele>
        <time>2015-05-22T15:05:58Z</time>
      </trkpt>
      <trkpt lat="45.89096" lon="6.18965">
        <ele>1290</ele>
        <time>2015-05-22T15:06:00Z</time>
      </trkpt>
      <trkpt lat="45.89096" lon="6.18965">
        <ele>1290</ele>
        <time>2015-05-22T15:06:02Z</time>
      </trkpt>
      <trkpt lat="45.89096" lon="6.18965">
        <ele>1290</ele>
        <time>2015-05-22T15:06:04Z</time>
      </trkpt>
      <trkpt lat="45.89096" lon="6.18965">
        <ele>1290</ele>
        <time>2015-05-22T15:06:06Z</time>
      </trkpt>
      <trkpt lat="45.89096" lon="6.18965">
        <ele>1290</ele>
        <time>2015-05-22T15:06:08Z</time>
      </trkpt>
      <trkpt lat="45.89096" lon="6.18965">
        <ele>1290</ele>
        <time>2015-05-22T15:06:09Z</time>
      </trkpt>
      <trkpt lat="45.89096" lon="6.18965">
        <ele>1290</ele>
        <time>2015-05-22T15:06:10Z</time>
      </trkpt>
      <trkpt lat="45.89096" lon="6.18965">
        <ele>1290</ele>
        <time>2015-05-22T15:06:11Z</time>
      </trkpt>
      <trkpt lat="45.89096" lon="6.18965">
        <ele>1290</ele>
        <time>2015-05-22T15:06:12Z</time>
      </trkpt>
      <trkpt lat="45.89096" lon="6.18965">
        <ele>1290</ele>
        <time>2015-05-22T15:06:13Z</time>
      </trkpt>
      <trkpt lat="45.89095" lon="6.18965">
        <ele>1290</ele>
        <time>2015-05-22T15:06:14Z</time>
      </trkpt>
      <trkpt lat="45.89096" lon="6.18966">
        <ele>1291</ele>
        <time>2015-05-22T15:06:16Z</time>
      </trkpt>
      <trkpt lat="45.89096" lon="6.18965">
        <ele>1290</ele>
        <time>2015-05-22T15:06:18Z</time>
      </trkpt>
      <trkpt lat="45.89097" lon="6.18965">
        <ele>1289</ele>
        <time>2015-05-22T15:06:20Z</time>
      </trkpt>
      <trkpt lat="45.89097" lon="6.18965">
        <ele>1289</ele>
        <time>2015-05-22T15:06:22Z</time>
      </trkpt>
      <trkpt lat="45.89097" lon="6.18965">
        <ele>1289</ele>
        <time>2015-05-22T15:06:24Z</time>
      </trkpt>
      <trkpt lat="45.89098" lon="6.18965">
        <ele>1287</ele>
        <time>2015-05-22T15:06:26Z</time>
      </trkpt>
      <trkpt lat="45.89099" lon="6.18966">
        <ele>1286</ele>
        <time>2015-05-22T15:06:28Z</time>
      </trkpt>
      <trkpt lat="45.891" lon="6.18966">
        <ele>1286</ele>
        <time>2015-05-22T15:06:29Z</time>
      </trkpt>
      <trkpt lat="45.89099" lon="6.18966">
        <ele>1287</ele>
        <time>2015-05-22T15:06:30Z</time>
      </trkpt>
      <trkpt lat="45.89099" lon="6.18966">
        <ele>1286</ele>
        <time>2015-05-22T15:06:31Z</time>
      </trkpt>
      <trkpt lat="45.89099" lon="6.18967">
        <ele>1286</ele>
        <time>2015-05-22T15:06:32Z</time>
      </trkpt>
      <trkpt lat="45.89099" lon="6.18967">
        <ele>1286</ele>
        <time>2015-05-22T15:06:33Z</time>
      </trkpt>
      <trkpt lat="45.89099" lon="6.18967">
        <ele>1285</ele>
        <time>2015-05-22T15:06:34Z</time>
      </trkpt>
      <trkpt lat="45.89099" lon="6.18966">
        <ele>1285</ele>
        <time>2015-05-22T15:06:36Z</time>
      </trkpt>
      <trkpt lat="45.891" lon="6.18967">
        <ele>1285</ele>
        <time>2015-05-22T15:06:38Z</time>
      </trkpt>
      <trkpt lat="45.891" lon="6.18967">
        <ele>1285</ele>
        <time>2015-05-22T15:06:40Z</time>
      </trkpt>
      <trkpt lat="45.891" lon="6.18967">
        <ele>1285</ele>
        <time>2015-05-22T15:06:42Z</time>
      </trkpt>
      <trkpt lat="45.891" lon="6.18967">
        <ele>1285</ele>
        <time>2015-05-22T15:06:44Z</time>
      </trkpt>
      <trkpt lat="45.891" lon="6.18967">
        <ele>1285</ele>
        <time>2015-05-22T15:06:45Z</time>
      </trkpt>
      <trkpt lat="45.891" lon="6.18967">
        <ele>1285</ele>
        <time>2015-05-22T15:06:46Z</time>
      </trkpt>
      <trkpt lat="45.891" lon="6.18967">
        <ele>1285</ele>
        <time>2015-05-22T15:06:47Z</time>
      </trkpt>
      <trkpt lat="45.891" lon="6.18967">
        <ele>1285</ele>
        <time>2015-05-22T15:06:48Z</time>
      </trkpt>
      <trkpt lat="45.891" lon="6.18967">
        <ele>1285</ele>
        <time>2015-05-22T15:06:49Z</time>
      </trkpt>
      <trkpt lat="45.891" lon="6.18967">
        <ele>1285</ele>
        <time>2015-05-22T15:06:51Z</time>
      </trkpt>
      <trkpt lat="45.891" lon="6.18967">
        <ele>1285</ele>
        <time>2015-05-22T15:06:52Z</time>
      </trkpt>
      <trkpt lat="45.891" lon="6.18967">
        <ele>1285</ele>
        <time>2015-05-22T15:06:54Z</time>
      </trkpt>
      <trkpt lat="45.891" lon="6.18967">
        <ele>1285</ele>
        <time>2015-05-22T15:06:55Z</time>
      </trkpt>
      <trkpt lat="45.891" lon="6.18967">
        <ele>1285</ele>
        <time>2015-05-22T15:06:56Z</time>
      </trkpt>
      <trkpt lat="45.891" lon="6.18967">
        <ele>1285</ele>
        <time>2015-05-22T15:06:58Z</time>
      </trkpt>
      <trkpt lat="45.891" lon="6.18967">
        <ele>1285</ele>
        <time>2015-05-22T15:07:00Z</time>
      </trkpt>
      <trkpt lat="45.891" lon="6.18966">
        <ele>1288</ele>
        <time>2015-05-22T15:07:02Z</time>
      </trkpt>
      <trkpt lat="45.891" lon="6.18965">
        <ele>1288</ele>
        <time>2015-05-22T15:07:03Z</time>
      </trkpt>
      <trkpt lat="45.891" lon="6.18965">
        <ele>1289</ele>
        <time>2015-05-22T15:07:04Z</time>
      </trkpt>
      <trkpt lat="45.891" lon="6.18964">
        <ele>1288</ele>
        <time>2015-05-22T15:07:05Z</time>
      </trkpt>
      <trkpt lat="45.891" lon="6.18962">
        <ele>1288</ele>
        <time>2015-05-22T15:07:07Z</time>
      </trkpt>
      <trkpt lat="45.89102" lon="6.18962">
        <ele>1287</ele>
        <time>2015-05-22T15:07:09Z</time>
      </trkpt>
      <trkpt lat="45.89103" lon="6.1896">
        <ele>1286</ele>
        <time>2015-05-22T15:07:11Z</time>
      </trkpt>
      <trkpt lat="45.89104" lon="6.1896">
        <ele>1286</ele>
        <time>2015-05-22T15:07:13Z</time>
      </trkpt>
      <trkpt lat="45.89104" lon="6.1896">
        <ele>1286</ele>
        <time>2015-05-22T15:07:15Z</time>
      </trkpt>
      <trkpt lat="45.89105" lon="6.18959">
        <ele>1287</ele>
        <time>2015-05-22T15:07:17Z</time>
      </trkpt>
      <trkpt lat="45.89105" lon="6.18959">
        <ele>1286</ele>
        <time>2015-05-22T15:07:19Z</time>
      </trkpt>
      <trkpt lat="45.89105" lon="6.18958">
        <ele>1287</ele>
        <time>2015-05-22T15:07:21Z</time>
      </trkpt>
      <trkpt lat="45.89106" lon="6.18958">
        <ele>1287</ele>
        <time>2015-05-22T15:07:22Z</time>
      </trkpt>
      <trkpt lat="45.89106" lon="6.18958">
        <ele>1287</ele>
        <time>2015-05-22T15:07:23Z</time>
      </trkpt>
      <trkpt lat="45.89106" lon="6.18957">
        <ele>1287</ele>
        <time>2015-05-22T15:07:24Z</time>
      </trkpt>
      <trkpt lat="45.89106" lon="6.18957">
        <ele>1288</ele>
        <time>2015-05-22T15:07:26Z</time>
      </trkpt>
      <trkpt lat="45.89106" lon="6.18957">
        <ele>1288</ele>
        <time>2015-05-22T15:07:27Z</time>
      </trkpt>
      <trkpt lat="45.89106" lon="6.18957">
        <ele>1288</ele>
        <time>2015-05-22T15:07:29Z</time>
      </trkpt>
      <trkpt lat="45.89106" lon="6.18957">
        <ele>1288</ele>
        <time>2015-05-22T15:07:31Z</time>
      </trkpt>
      <trkpt lat="45.89106" lon="6.18957">
        <ele>1288</ele>
        <time>2015-05-22T15:07:33Z</time>
      </trkpt>
      <trkpt lat="45.89107" lon="6.18956">
        <ele>1289</ele>
        <time>2015-05-22T15:07:35Z</time>
      </trkpt>
      <trkpt lat="45.89108" lon="6.18957">
        <ele>1289</ele>
        <time>2015-05-22T15:07:37Z</time>
      </trkpt>
      <trkpt lat="45.89109" lon="6.18956">
        <ele>1289</ele>
        <time>2015-05-22T15:07:39Z</time>
      </trkpt>
      <trkpt lat="45.89109" lon="6.18956">
        <ele>1289</ele>
        <time>2015-05-22T15:07:40Z</time>
      </trkpt>
      <trkpt lat="45.89109" lon="6.18955">
        <ele>1289</ele>
        <time>2015-05-22T15:07:41Z</time>
      </trkpt>
      <trkpt lat="45.8911" lon="6.18955">
        <ele>1288</ele>
        <time>2015-05-22T15:07:42Z</time>
      </trkpt>
      <trkpt lat="45.89111" lon="6.18954">
        <ele>1287</ele>
        <time>2015-05-22T15:07:44Z</time>
      </trkpt>
      <trkpt lat="45.89111" lon="6.18954">
        <ele>1287</ele>
        <time>2015-05-22T15:07:46Z</time>
      </trkpt>
      <trkpt lat="45.89112" lon="6.18954">
        <ele>1287</ele>
        <time>2015-05-22T15:07:47Z</time>
      </trkpt>
      <trkpt lat="45.89112" lon="6.18954">
        <ele>1287</ele>
        <time>2015-05-22T15:07:49Z</time>
      </trkpt>
      <trkpt lat="45.89113" lon="6.18954">
        <ele>1288</ele>
        <time>2015-05-22T15:07:51Z</time>
      </trkpt>
      <trkpt lat="45.89113" lon="6.18953">
        <ele>1287</ele>
        <time>2015-05-22T15:07:53Z</time>
      </trkpt>
      <trkpt lat="45.89113" lon="6.18954">
        <ele>1287</ele>
        <time>2015-05-22T15:07:55Z</time>
      </trkpt>
      <trkpt lat="45.89113" lon="6.18954">
        <ele>1288</ele>
        <time>2015-05-22T15:07:57Z</time>
      </trkpt>
      <trkpt lat="45.89113" lon="6.18954">
        <ele>1288</ele>
        <time>2015-05-22T15:07:59Z</time>
      </trkpt>
      <trkpt lat="45.89113" lon="6.18954">
        <ele>1288</ele>
        <time>2015-05-22T15:08:00Z</time>
      </trkpt>
      <trkpt lat="45.89113" lon="6.18955">
        <ele>1288</ele>
        <time>2015-05-22T15:08:01Z</time>
      </trkpt>
      <trkpt lat="45.89113" lon="6.18954">
        <ele>1288</ele>
        <time>2015-05-22T15:08:02Z</time>
      </trkpt>
      <trkpt lat="45.89113" lon="6.18954">
        <ele>1288</ele>
        <time>2015-05-22T15:08:04Z</time>
      </trkpt>
      <trkpt lat="45.89113" lon="6.18954">
        <ele>1288</ele>
        <time>2015-05-22T15:08:06Z</time>
      </trkpt>
      <trkpt lat="45.89112" lon="6.18954">
        <ele>1288</ele>
        <time>2015-05-22T15:08:08Z</time>
      </trkpt>
      <trkpt lat="45.89112" lon="6.18954">
        <ele>1288</ele>
        <time>2015-05-22T15:08:09Z</time>
      </trkpt>
      <trkpt lat="45.89112" lon="6.18954">
        <ele>1288</ele>
        <time>2015-05-22T15:08:10Z</time>
      </trkpt>
      <trkpt lat="45.89112" lon="6.18954">
        <ele>1288</ele>
        <time>2015-05-22T15:08:11Z</time>
      </trkpt>
      <trkpt lat="45.89112" lon="6.18954">
        <ele>1288</ele>
        <time>2015-05-22T15:08:12Z</time>
      </trkpt>
      <trkpt lat="45.89112" lon="6.18954">
        <ele>1288</ele>
        <time>2015-05-22T15:08:13Z</time>
      </trkpt>
      <trkpt lat="45.89112" lon="6.18954">
        <ele>1288</ele>
        <time>2015-05-22T15:08:14Z</time>
      </trkpt>
      <trkpt lat="45.89112" lon="6.18954">
        <ele>1288</ele>
        <time>2015-05-22T15:08:15Z</time>
      </trkpt>
      <trkpt lat="45.89112" lon="6.18954">
        <ele>1288</ele>
        <time>2015-05-22T15:08:16Z</time>
      </trkpt>
      <trkpt lat="45.89112" lon="6.18954">
        <ele>1288</ele>
        <time>2015-05-22T15:08:17Z</time>
      </trkpt>
      <trkpt lat="45.89112" lon="6.18954">
        <ele>1288</ele>
        <time>2015-05-22T15:08:18Z</time>
      </trkpt>
      <trkpt lat="45.89112" lon="6.18954">
        <ele>1288</ele>
        <time>2015-05-22T15:08:20Z</time>
      </trkpt>
      <trkpt lat="45.89112" lon="6.18954">
        <ele>1288</ele>
        <time>2015-05-22T15:08:21Z</time>
      </trkpt>
      <trkpt lat="45.89112" lon="6.18954">
        <ele>1288</ele>
        <time>2015-05-22T15:08:23Z</time>
      </trkpt>
      <trkpt lat="45.89112" lon="6.18954">
        <ele>1288</ele>
        <time>2015-05-22T15:08:24Z</time>
      </trkpt>
      <trkpt lat="45.89114" lon="6.18953">
        <ele>1287</ele>
        <time>2015-05-22T15:08:25Z</time>
      </trkpt>
      <trkpt lat="45.89114" lon="6.18953">
        <ele>1287</ele>
        <time>2015-05-22T15:08:26Z</time>
      </trkpt>
      <trkpt lat="45.89115" lon="6.18953">
        <ele>1286</ele>
        <time>2015-05-22T15:08:27Z</time>
      </trkpt>
      <trkpt lat="45.89114" lon="6.18953">
        <ele>1287</ele>
        <time>2015-05-22T15:08:28Z</time>
      </trkpt>
      <trkpt lat="45.89115" lon="6.18953">
        <ele>1287</ele>
        <time>2015-05-22T15:08:29Z</time>
      </trkpt>
      <trkpt lat="45.89115" lon="6.18954">
        <ele>1287</ele>
        <time>2015-05-22T15:08:30Z</time>
      </trkpt>
      <trkpt lat="45.89116" lon="6.18954">
        <ele>1285</ele>
        <time>2015-05-22T15:08:31Z</time>
      </trkpt>
      <trkpt lat="45.89117" lon="6.18953">
        <ele>1285</ele>
        <time>2015-05-22T15:08:33Z</time>
      </trkpt>
      <trkpt lat="45.89117" lon="6.18953">
        <ele>1286</ele>
        <time>2015-05-22T15:08:35Z</time>
      </trkpt>
      <trkpt lat="45.89117" lon="6.18953">
        <ele>1285</ele>
        <time>2015-05-22T15:08:37Z</time>
      </trkpt>
      <trkpt lat="45.89118" lon="6.18952">
        <ele>1285</ele>
        <time>2015-05-22T15:08:39Z</time>
      </trkpt>
      <trkpt lat="45.89119" lon="6.18951">
        <ele>1286</ele>
        <time>2015-05-22T15:08:41Z</time>
      </trkpt>
      <trkpt lat="45.89121" lon="6.18952">
        <ele>1285</ele>
        <time>2015-05-22T15:08:43Z</time>
      </trkpt>
      <trkpt lat="45.89122" lon="6.18952">
        <ele>1283</ele>
        <time>2015-05-22T15:08:45Z</time>
      </trkpt>
      <trkpt lat="45.89124" lon="6.18953">
        <ele>1283</ele>
        <time>2015-05-22T15:08:46Z</time>
      </trkpt>
      <trkpt lat="45.89124" lon="6.18953">
        <ele>1283</ele>
        <time>2015-05-22T15:08:47Z</time>
      </trkpt>
      <trkpt lat="45.89125" lon="6.18952">
        <ele>1283</ele>
        <time>2015-05-22T15:08:48Z</time>
      </trkpt>
      <trkpt lat="45.89126" lon="6.18952">
        <ele>1283</ele>
        <time>2015-05-22T15:08:49Z</time>
      </trkpt>
      <trkpt lat="45.89126" lon="6.18951">
        <ele>1283</ele>
        <time>2015-05-22T15:08:50Z</time>
      </trkpt>
      <trkpt lat="45.89126" lon="6.18951">
        <ele>1283</ele>
        <time>2015-05-22T15:08:51Z</time>
      </trkpt>
      <trkpt lat="45.89128" lon="6.18951">
        <ele>1283</ele>
        <time>2015-05-22T15:08:53Z</time>
      </trkpt>
      <trkpt lat="45.89128" lon="6.18951">
        <ele>1283</ele>
        <time>2015-05-22T15:08:55Z</time>
      </trkpt>
      <trkpt lat="45.89128" lon="6.1895">
        <ele>1283</ele>
        <time>2015-05-22T15:08:57Z</time>
      </trkpt>
      <trkpt lat="45.8913" lon="6.1895">
        <ele>1282</ele>
        <time>2015-05-22T15:08:59Z</time>
      </trkpt>
      <trkpt lat="45.89131" lon="6.18949">
        <ele>1282</ele>
        <time>2015-05-22T15:09:01Z</time>
      </trkpt>
      <trkpt lat="45.89132" lon="6.18948">
        <ele>1282</ele>
        <time>2015-05-22T15:09:03Z</time>
      </trkpt>
      <trkpt lat="45.89132" lon="6.18947">
        <ele>1283</ele>
        <time>2015-05-22T15:09:05Z</time>
      </trkpt>
      <trkpt lat="45.89133" lon="6.18947">
        <ele>1283</ele>
        <time>2015-05-22T15:09:06Z</time>
      </trkpt>
      <trkpt lat="45.89133" lon="6.18948">
        <ele>1283</ele>
        <time>2015-05-22T15:09:07Z</time>
      </trkpt>
      <trkpt lat="45.89132" lon="6.18948">
        <ele>1283</ele>
        <time>2015-05-22T15:09:08Z</time>
      </trkpt>
      <trkpt lat="45.89132" lon="6.18948">
        <ele>1283</ele>
        <time>2015-05-22T15:09:09Z</time>
      </trkpt>
      <trkpt lat="45.89132" lon="6.18948">
        <ele>1283</ele>
        <time>2015-05-22T15:09:10Z</time>
      </trkpt>
      <trkpt lat="45.89132" lon="6.18948">
        <ele>1283</ele>
        <time>2015-05-22T15:09:11Z</time>
      </trkpt>
      <trkpt lat="45.89132" lon="6.18948">
        <ele>1283</ele>
        <time>2015-05-22T15:09:13Z</time>
      </trkpt>
      <trkpt lat="45.89132" lon="6.18948">
        <ele>1283</ele>
        <time>2015-05-22T15:09:15Z</time>
      </trkpt>
      <trkpt lat="45.89132" lon="6.18948">
        <ele>1284</ele>
        <time>2015-05-22T15:09:17Z</time>
      </trkpt>
      <trkpt lat="45.89132" lon="6.18948">
        <ele>1284</ele>
        <time>2015-05-22T15:09:18Z</time>
      </trkpt>
      <trkpt lat="45.89133" lon="6.18947">
        <ele>1284</ele>
        <time>2015-05-22T15:09:19Z</time>
      </trkpt>
      <trkpt lat="45.89133" lon="6.18947">
        <ele>1284</ele>
        <time>2015-05-22T15:09:21Z</time>
      </trkpt>
      <trkpt lat="45.89133" lon="6.18947">
        <ele>1284</ele>
        <time>2015-05-22T15:09:22Z</time>
      </trkpt>
      <trkpt lat="45.89133" lon="6.18947">
        <ele>1284</ele>
        <time>2015-05-22T15:09:25Z</time>
      </trkpt>
      <trkpt lat="45.89133" lon="6.18947">
        <ele>1283</ele>
        <time>2015-05-22T15:09:26Z</time>
      </trkpt>
      <trkpt lat="45.89133" lon="6.18947">
        <ele>1283</ele>
        <time>2015-05-22T15:09:27Z</time>
      </trkpt>
      <trkpt lat="45.89133" lon="6.18946">
        <ele>1283</ele>
        <time>2015-05-22T15:09:28Z</time>
      </trkpt>
      <trkpt lat="45.89133" lon="6.18946">
        <ele>1283</ele>
        <time>2015-05-22T15:09:29Z</time>
      </trkpt>
      <trkpt lat="45.89133" lon="6.18946">
        <ele>1283</ele>
        <time>2015-05-22T15:09:30Z</time>
      </trkpt>
      <trkpt lat="45.89133" lon="6.18946">
        <ele>1283</ele>
        <time>2015-05-22T15:09:31Z</time>
      </trkpt>
      <trkpt lat="45.89134" lon="6.18945">
        <ele>1283</ele>
        <time>2015-05-22T15:09:33Z</time>
      </trkpt>
      <trkpt lat="45.89134" lon="6.18944">
        <ele>1284</ele>
        <time>2015-05-22T15:09:35Z</time>
      </trkpt>
      <trkpt lat="45.89134" lon="6.18944">
        <ele>1284</ele>
        <time>2015-05-22T15:09:37Z</time>
      </trkpt>
      <trkpt lat="45.89134" lon="6.18944">
        <ele>1284</ele>
        <time>2015-05-22T15:09:38Z</time>
      </trkpt>
      <trkpt lat="45.89134" lon="6.18943">
        <ele>1284</ele>
        <time>2015-05-22T15:09:40Z</time>
      </trkpt>
      <trkpt lat="45.89134" lon="6.18943">
        <ele>1284</ele>
        <time>2015-05-22T15:09:41Z</time>
      </trkpt>
      <trkpt lat="45.89134" lon="6.18943">
        <ele>1284</ele>
        <time>2015-05-22T15:09:42Z</time>
      </trkpt>
      <trkpt lat="45.89134" lon="6.18943">
        <ele>1284</ele>
        <time>2015-05-22T15:09:44Z</time>
      </trkpt>
      <trkpt lat="45.89134" lon="6.18943">
        <ele>1285</ele>
        <time>2015-05-22T15:09:45Z</time>
      </trkpt>
      <trkpt lat="45.89134" lon="6.18943">
        <ele>1285</ele>
        <time>2015-05-22T15:09:46Z</time>
      </trkpt>
      <trkpt lat="45.89135" lon="6.18943">
        <ele>1285</ele>
        <time>2015-05-22T15:09:47Z</time>
      </trkpt>
      <trkpt lat="45.89136" lon="6.18943">
        <ele>1285</ele>
        <time>2015-05-22T15:09:48Z</time>
      </trkpt>
      <trkpt lat="45.89136" lon="6.18942">
        <ele>1285</ele>
        <time>2015-05-22T15:09:49Z</time>
      </trkpt>
      <trkpt lat="45.89137" lon="6.18942">
        <ele>1285</ele>
        <time>2015-05-22T15:09:50Z</time>
      </trkpt>
      <trkpt lat="45.89138" lon="6.18941">
        <ele>1285</ele>
        <time>2015-05-22T15:09:51Z</time>
      </trkpt>
      <trkpt lat="45.89139" lon="6.1894">
        <ele>1286</ele>
        <time>2015-05-22T15:09:53Z</time>
      </trkpt>
      <trkpt lat="45.8914" lon="6.1894">
        <ele>1286</ele>
        <time>2015-05-22T15:09:55Z</time>
      </trkpt>
      <trkpt lat="45.89141" lon="6.18939">
        <ele>1286</ele>
        <time>2015-05-22T15:09:58Z</time>
      </trkpt>
      <trkpt lat="45.89141" lon="6.18939">
        <ele>1287</ele>
        <time>2015-05-22T15:10:00Z</time>
      </trkpt>
      <trkpt lat="45.89142" lon="6.18938">
        <ele>1288</ele>
        <time>2015-05-22T15:10:02Z</time>
      </trkpt>
      <trkpt lat="45.89143" lon="6.18938">
        <ele>1287</ele>
        <time>2015-05-22T15:10:04Z</time>
      </trkpt>
      <trkpt lat="45.89145" lon="6.18937">
        <ele>1286</ele>
        <time>2015-05-22T15:10:06Z</time>
      </trkpt>
      <trkpt lat="45.89145" lon="6.18937">
        <ele>1287</ele>
        <time>2015-05-22T15:10:07Z</time>
      </trkpt>
      <trkpt lat="45.89146" lon="6.18937">
        <ele>1286</ele>
        <time>2015-05-22T15:10:08Z</time>
      </trkpt>
      <trkpt lat="45.89146" lon="6.18937">
        <ele>1286</ele>
        <time>2015-05-22T15:10:09Z</time>
      </trkpt>
      <trkpt lat="45.89148" lon="6.18937">
        <ele>1286</ele>
        <time>2015-05-22T15:10:10Z</time>
      </trkpt>
      <trkpt lat="45.89149" lon="6.18937">
        <ele>1286</ele>
        <time>2015-05-22T15:10:11Z</time>
      </trkpt>
      <trkpt lat="45.8915" lon="6.18935">
        <ele>1287</ele>
        <time>2015-05-22T15:10:13Z</time>
      </trkpt>
      <trkpt lat="45.89151" lon="6.18934">
        <ele>1288</ele>
        <time>2015-05-22T15:10:15Z</time>
      </trkpt>
      <trkpt lat="45.89152" lon="6.18933">
        <ele>1288</ele>
        <time>2015-05-22T15:10:17Z</time>
      </trkpt>
      <trkpt lat="45.89153" lon="6.18932">
        <ele>1288</ele>
        <time>2015-05-22T15:10:19Z</time>
      </trkpt>
      <trkpt lat="45.89154" lon="6.18931">
        <ele>1288</ele>
        <time>2015-05-22T15:10:21Z</time>
      </trkpt>
      <trkpt lat="45.89156" lon="6.18931">
        <ele>1288</ele>
        <time>2015-05-22T15:10:23Z</time>
      </trkpt>
      <trkpt lat="45.89157" lon="6.1893">
        <ele>1288</ele>
        <time>2015-05-22T15:10:25Z</time>
      </trkpt>
      <trkpt lat="45.89158" lon="6.18929">
        <ele>1288</ele>
        <time>2015-05-22T15:10:26Z</time>
      </trkpt>
      <trkpt lat="45.89159" lon="6.18929">
        <ele>1288</ele>
        <time>2015-05-22T15:10:27Z</time>
      </trkpt>
      <trkpt lat="45.8916" lon="6.18929">
        <ele>1287</ele>
        <time>2015-05-22T15:10:28Z</time>
      </trkpt>
      <trkpt lat="45.8916" lon="6.18929">
        <ele>1288</ele>
        <time>2015-05-22T15:10:29Z</time>
      </trkpt>
      <trkpt lat="45.8916" lon="6.18929">
        <ele>1287</ele>
        <time>2015-05-22T15:10:30Z</time>
      </trkpt>
      <trkpt lat="45.89161" lon="6.18929">
        <ele>1288</ele>
        <time>2015-05-22T15:10:31Z</time>
      </trkpt>
      <trkpt lat="45.89162" lon="6.18929">
        <ele>1287</ele>
        <time>2015-05-22T15:10:33Z</time>
      </trkpt>
      <trkpt lat="45.89163" lon="6.18928">
        <ele>1287</ele>
        <time>2015-05-22T15:10:35Z</time>
      </trkpt>
      <trkpt lat="45.89164" lon="6.18928">
        <ele>1288</ele>
        <time>2015-05-22T15:10:37Z</time>
      </trkpt>
      <trkpt lat="45.89164" lon="6.18928">
        <ele>1288</ele>
        <time>2015-05-22T15:10:39Z</time>
      </trkpt>
      <trkpt lat="45.89165" lon="6.18928">
        <ele>1288</ele>
        <time>2015-05-22T15:10:41Z</time>
      </trkpt>
      <trkpt lat="45.89166" lon="6.18928">
        <ele>1288</ele>
        <time>2015-05-22T15:10:43Z</time>
      </trkpt>
      <trkpt lat="45.89168" lon="6.18927">
        <ele>1288</ele>
        <time>2015-05-22T15:10:45Z</time>
      </trkpt>
      <trkpt lat="45.89168" lon="6.18927">
        <ele>1288</ele>
        <time>2015-05-22T15:10:46Z</time>
      </trkpt>
      <trkpt lat="45.89169" lon="6.18927">
        <ele>1287</ele>
        <time>2015-05-22T15:10:47Z</time>
      </trkpt>
      <trkpt lat="45.8917" lon="6.18927">
        <ele>1287</ele>
        <time>2015-05-22T15:10:48Z</time>
      </trkpt>
      <trkpt lat="45.8917" lon="6.18927">
        <ele>1287</ele>
        <time>2015-05-22T15:10:49Z</time>
      </trkpt>
      <trkpt lat="45.8917" lon="6.18927">
        <ele>1288</ele>
        <time>2015-05-22T15:10:50Z</time>
      </trkpt>
      <trkpt lat="45.89171" lon="6.18926">
        <ele>1288</ele>
        <time>2015-05-22T15:10:51Z</time>
      </trkpt>
      <trkpt lat="45.89173" lon="6.18927">
        <ele>1288</ele>
        <time>2015-05-22T15:10:53Z</time>
      </trkpt>
      <trkpt lat="45.89174" lon="6.18926">
        <ele>1289</ele>
        <time>2015-05-22T15:10:55Z</time>
      </trkpt>
      <trkpt lat="45.89175" lon="6.18925">
        <ele>1289</ele>
        <time>2015-05-22T15:10:57Z</time>
      </trkpt>
      <trkpt lat="45.89176" lon="6.18926">
        <ele>1290</ele>
        <time>2015-05-22T15:10:59Z</time>
      </trkpt>
      <trkpt lat="45.89176" lon="6.18926">
        <ele>1290</ele>
        <time>2015-05-22T15:11:01Z</time>
      </trkpt>
      <trkpt lat="45.89176" lon="6.18926">
        <ele>1290</ele>
        <time>2015-05-22T15:11:03Z</time>
      </trkpt>
      <trkpt lat="45.89178" lon="6.18927">
        <ele>1289</ele>
        <time>2015-05-22T15:11:05Z</time>
      </trkpt>
      <trkpt lat="45.89178" lon="6.18927">
        <ele>1289</ele>
        <time>2015-05-22T15:11:06Z</time>
      </trkpt>
      <trkpt lat="45.89178" lon="6.18927">
        <ele>1290</ele>
        <time>2015-05-22T15:11:07Z</time>
      </trkpt>
      <trkpt lat="45.89179" lon="6.18927">
        <ele>1289</ele>
        <time>2015-05-22T15:11:08Z</time>
      </trkpt>
      <trkpt lat="45.89179" lon="6.18927">
        <ele>1289</ele>
        <time>2015-05-22T15:11:09Z</time>
      </trkpt>
      <trkpt lat="45.89179" lon="6.18927">
        <ele>1289</ele>
        <time>2015-05-22T15:11:10Z</time>
      </trkpt>
      <trkpt lat="45.8918" lon="6.18928">
        <ele>1289</ele>
        <time>2015-05-22T15:11:11Z</time>
      </trkpt>
      <trkpt lat="45.8918" lon="6.18926">
        <ele>1289</ele>
        <time>2015-05-22T15:11:13Z</time>
      </trkpt>
      <trkpt lat="45.89182" lon="6.18925">
        <ele>1290</ele>
        <time>2015-05-22T15:11:15Z</time>
      </trkpt>
      <trkpt lat="45.89183" lon="6.18925">
        <ele>1290</ele>
        <time>2015-05-22T15:11:17Z</time>
      </trkpt>
      <trkpt lat="45.89183" lon="6.18924">
        <ele>1291</ele>
        <time>2015-05-22T15:11:19Z</time>
      </trkpt>
      <trkpt lat="45.89185" lon="6.18923">
        <ele>1291</ele>
        <time>2015-05-22T15:11:21Z</time>
      </trkpt>
      <trkpt lat="45.89185" lon="6.18922">
        <ele>1291</ele>
        <time>2015-05-22T15:11:22Z</time>
      </trkpt>
      <trkpt lat="45.89186" lon="6.18922">
        <ele>1292</ele>
        <time>2015-05-22T15:11:23Z</time>
      </trkpt>
      <trkpt lat="45.89186" lon="6.18922">
        <ele>1292</ele>
        <time>2015-05-22T15:11:24Z</time>
      </trkpt>
      <trkpt lat="45.89187" lon="6.18921">
        <ele>1292</ele>
        <time>2015-05-22T15:11:25Z</time>
      </trkpt>
      <trkpt lat="45.89188" lon="6.1892">
        <ele>1293</ele>
        <time>2015-05-22T15:11:27Z</time>
      </trkpt>
      <trkpt lat="45.89188" lon="6.18919">
        <ele>1293</ele>
        <time>2015-05-22T15:11:28Z</time>
      </trkpt>
      <trkpt lat="45.89188" lon="6.1892">
        <ele>1294</ele>
        <time>2015-05-22T15:11:29Z</time>
      </trkpt>
      <trkpt lat="45.89189" lon="6.1892">
        <ele>1294</ele>
        <time>2015-05-22T15:11:30Z</time>
      </trkpt>
      <trkpt lat="45.8919" lon="6.18919">
        <ele>1294</ele>
        <time>2015-05-22T15:11:31Z</time>
      </trkpt>
      <trkpt lat="45.8919" lon="6.1892">
        <ele>1295</ele>
        <time>2015-05-22T15:11:32Z</time>
      </trkpt>
      <trkpt lat="45.8919" lon="6.18919">
        <ele>1296</ele>
        <time>2015-05-22T15:11:33Z</time>
      </trkpt>
      <trkpt lat="45.8919" lon="6.18918">
        <ele>1296</ele>
        <time>2015-05-22T15:11:34Z</time>
      </trkpt>
      <trkpt lat="45.8919" lon="6.18919">
        <ele>1296</ele>
        <time>2015-05-22T15:11:35Z</time>
      </trkpt>
      <trkpt lat="45.8919" lon="6.18918">
        <ele>1297</ele>
        <time>2015-05-22T15:11:36Z</time>
      </trkpt>
      <trkpt lat="45.89191" lon="6.18917">
        <ele>1297</ele>
        <time>2015-05-22T15:11:38Z</time>
      </trkpt>
      <trkpt lat="45.89192" lon="6.18915">
        <ele>1297</ele>
        <time>2015-05-22T15:11:39Z</time>
      </trkpt>
      <trkpt lat="45.89192" lon="6.18916">
        <ele>1296</ele>
        <time>2015-05-22T15:11:40Z</time>
      </trkpt>
      <trkpt lat="45.89193" lon="6.18915">
        <ele>1296</ele>
        <time>2015-05-22T15:11:41Z</time>
      </trkpt>
      <trkpt lat="45.89193" lon="6.18913">
        <ele>1296</ele>
        <time>2015-05-22T15:11:42Z</time>
      </trkpt>
      <trkpt lat="45.89193" lon="6.18914">
        <ele>1296</ele>
        <time>2015-05-22T15:11:43Z</time>
      </trkpt>
      <trkpt lat="45.89195" lon="6.18913">
        <ele>1295</ele>
        <time>2015-05-22T15:11:44Z</time>
      </trkpt>
      <trkpt lat="45.89195" lon="6.18913">
        <ele>1295</ele>
        <time>2015-05-22T15:11:46Z</time>
      </trkpt>
      <trkpt lat="45.89195" lon="6.18912">
        <ele>1295</ele>
        <time>2015-05-22T15:11:47Z</time>
      </trkpt>
      <trkpt lat="45.89195" lon="6.18912">
        <ele>1295</ele>
        <time>2015-05-22T15:11:48Z</time>
      </trkpt>
      <trkpt lat="45.89195" lon="6.18912">
        <ele>1296</ele>
        <time>2015-05-22T15:11:50Z</time>
      </trkpt>
      <trkpt lat="45.89195" lon="6.18911">
        <ele>1296</ele>
        <time>2015-05-22T15:11:51Z</time>
      </trkpt>
      <trkpt lat="45.89194" lon="6.1891">
        <ele>1296</ele>
        <time>2015-05-22T15:11:52Z</time>
      </trkpt>
      <trkpt lat="45.89194" lon="6.1891">
        <ele>1296</ele>
        <time>2015-05-22T15:11:53Z</time>
      </trkpt>
      <trkpt lat="45.89194" lon="6.1891">
        <ele>1297</ele>
        <time>2015-05-22T15:11:54Z</time>
      </trkpt>
      <trkpt lat="45.89195" lon="6.1891">
        <ele>1297</ele>
        <time>2015-05-22T15:11:56Z</time>
      </trkpt>
      <trkpt lat="45.89194" lon="6.1891">
        <ele>1296</ele>
        <time>2015-05-22T15:11:58Z</time>
      </trkpt>
      <trkpt lat="45.89194" lon="6.1891">
        <ele>1297</ele>
        <time>2015-05-22T15:12:00Z</time>
      </trkpt>
      <trkpt lat="45.89195" lon="6.1891">
        <ele>1297</ele>
        <time>2015-05-22T15:12:01Z</time>
      </trkpt>
      <trkpt lat="45.89195" lon="6.18909">
        <ele>1297</ele>
        <time>2015-05-22T15:12:03Z</time>
      </trkpt>
      <trkpt lat="45.89195" lon="6.18909">
        <ele>1297</ele>
        <time>2015-05-22T15:12:04Z</time>
      </trkpt>
      <trkpt lat="45.89195" lon="6.18909">
        <ele>1297</ele>
        <time>2015-05-22T15:12:05Z</time>
      </trkpt>
      <trkpt lat="45.89195" lon="6.18909">
        <ele>1297</ele>
        <time>2015-05-22T15:12:07Z</time>
      </trkpt>
      <trkpt lat="45.89195" lon="6.18909">
        <ele>1297</ele>
        <time>2015-05-22T15:12:08Z</time>
      </trkpt>
      <trkpt lat="45.89195" lon="6.18909">
        <ele>1297</ele>
        <time>2015-05-22T15:12:09Z</time>
      </trkpt>
      <trkpt lat="45.89195" lon="6.18909">
        <ele>1297</ele>
        <time>2015-05-22T15:12:10Z</time>
      </trkpt>
      <trkpt lat="45.89195" lon="6.18909">
        <ele>1297</ele>
        <time>2015-05-22T15:12:11Z</time>
      </trkpt>
      <trkpt lat="45.89195" lon="6.18909">
        <ele>1297</ele>
        <time>2015-05-22T15:12:12Z</time>
      </trkpt>
      <trkpt lat="45.89195" lon="6.18909">
        <ele>1297</ele>
        <time>2015-05-22T15:12:13Z</time>
      </trkpt>
      <trkpt lat="45.89195" lon="6.18909">
        <ele>1297</ele>
        <time>2015-05-22T15:12:14Z</time>
      </trkpt>
      <trkpt lat="45.89195" lon="6.18909">
        <ele>1297</ele>
        <time>2015-05-22T15:12:16Z</time>
      </trkpt>
      <trkpt lat="45.89195" lon="6.18909">
        <ele>1297</ele>
        <time>2015-05-22T15:12:18Z</time>
      </trkpt>
      <trkpt lat="45.89195" lon="6.18909">
        <ele>1297</ele>
        <time>2015-05-22T15:12:20Z</time>
      </trkpt>
      <trkpt lat="45.89195" lon="6.18909">
        <ele>1296</ele>
        <time>2015-05-22T15:12:22Z</time>
      </trkpt>
      <trkpt lat="45.89195" lon="6.18909">
        <ele>1296</ele>
        <time>2015-05-22T15:12:24Z</time>
      </trkpt>
      <trkpt lat="45.89195" lon="6.18908">
        <ele>1296</ele>
        <time>2015-05-22T15:12:26Z</time>
      </trkpt>
      <trkpt lat="45.89195" lon="6.18908">
        <ele>1296</ele>
        <time>2015-05-22T15:12:28Z</time>
      </trkpt>
      <trkpt lat="45.89195" lon="6.18908">
        <ele>1297</ele>
        <time>2015-05-22T15:12:29Z</time>
      </trkpt>
      <trkpt lat="45.89195" lon="6.18907">
        <ele>1297</ele>
        <time>2015-05-22T15:12:30Z</time>
      </trkpt>
      <trkpt lat="45.89195" lon="6.18907">
        <ele>1296</ele>
        <time>2015-05-22T15:12:31Z</time>
      </trkpt>
      <trkpt lat="45.89195" lon="6.18907">
        <ele>1297</ele>
        <time>2015-05-22T15:12:32Z</time>
      </trkpt>
      <trkpt lat="45.89195" lon="6.18907">
        <ele>1297</ele>
        <time>2015-05-22T15:12:33Z</time>
      </trkpt>
      <trkpt lat="45.89195" lon="6.18907">
        <ele>1296</ele>
        <time>2015-05-22T15:12:34Z</time>
      </trkpt>
      <trkpt lat="45.89195" lon="6.18907">
        <ele>1297</ele>
        <time>2015-05-22T15:12:36Z</time>
      </trkpt>
      <trkpt lat="45.89195" lon="6.18907">
        <ele>1297</ele>
        <time>2015-05-22T15:12:38Z</time>
      </trkpt>
      <trkpt lat="45.89195" lon="6.18907">
        <ele>1297</ele>
        <time>2015-05-22T15:12:40Z</time>
      </trkpt>
      <trkpt lat="45.89195" lon="6.18907">
        <ele>1296</ele>
        <time>2015-05-22T15:12:42Z</time>
      </trkpt>
      <trkpt lat="45.89195" lon="6.18906">
        <ele>1296</ele>
        <time>2015-05-22T15:12:44Z</time>
      </trkpt>
      <trkpt lat="45.89195" lon="6.18906">
        <ele>1296</ele>
        <time>2015-05-22T15:12:46Z</time>
      </trkpt>
      <trkpt lat="45.89195" lon="6.18906">
        <ele>1297</ele>
        <time>2015-05-22T15:12:48Z</time>
      </trkpt>
      <trkpt lat="45.89195" lon="6.18906">
        <ele>1297</ele>
        <time>2015-05-22T15:12:49Z</time>
      </trkpt>
      <trkpt lat="45.89194" lon="6.18906">
        <ele>1297</ele>
        <time>2015-05-22T15:12:50Z</time>
      </trkpt>
      <trkpt lat="45.89194" lon="6.18906">
        <ele>1297</ele>
        <time>2015-05-22T15:12:51Z</time>
      </trkpt>
      <trkpt lat="45.89194" lon="6.18905">
        <ele>1297</ele>
        <time>2015-05-22T15:12:52Z</time>
      </trkpt>
      <trkpt lat="45.89193" lon="6.18906">
        <ele>1298</ele>
        <time>2015-05-22T15:12:53Z</time>
      </trkpt>
      <trkpt lat="45.89193" lon="6.18906">
        <ele>1298</ele>
        <time>2015-05-22T15:12:54Z</time>
      </trkpt>
      <trkpt lat="45.89193" lon="6.18906">
        <ele>1298</ele>
        <time>2015-05-22T15:12:56Z</time>
      </trkpt>
      <trkpt lat="45.89192" lon="6.18906">
        <ele>1299</ele>
        <time>2015-05-22T15:12:58Z</time>
      </trkpt>
      <trkpt lat="45.89192" lon="6.18907">
        <ele>1299</ele>
        <time>2015-05-22T15:13:00Z</time>
      </trkpt>
      <trkpt lat="45.89191" lon="6.18907">
        <ele>1299</ele>
        <time>2015-05-22T15:13:02Z</time>
      </trkpt>
      <trkpt lat="45.89191" lon="6.18907">
        <ele>1299</ele>
        <time>2015-05-22T15:13:04Z</time>
      </trkpt>
      <trkpt lat="45.89191" lon="6.18907">
        <ele>1299</ele>
        <time>2015-05-22T15:13:06Z</time>
      </trkpt>
      <trkpt lat="45.89191" lon="6.18907">
        <ele>1299</ele>
        <time>2015-05-22T15:13:08Z</time>
      </trkpt>
      <trkpt lat="45.89191" lon="6.18907">
        <ele>1299</ele>
        <time>2015-05-22T15:13:09Z</time>
      </trkpt>
      <trkpt lat="45.89191" lon="6.18907">
        <ele>1299</ele>
        <time>2015-05-22T15:13:10Z</time>
      </trkpt>
      <trkpt lat="45.89191" lon="6.18907">
        <ele>1299</ele>
        <time>2015-05-22T15:13:11Z</time>
      </trkpt>
      <trkpt lat="45.89191" lon="6.18907">
        <ele>1299</ele>
        <time>2015-05-22T15:13:12Z</time>
      </trkpt>
      <trkpt lat="45.89191" lon="6.18907">
        <ele>1299</ele>
        <time>2015-05-22T15:13:13Z</time>
      </trkpt>
      <trkpt lat="45.89191" lon="6.18907">
        <ele>1299</ele>
        <time>2015-05-22T15:13:14Z</time>
      </trkpt>
      <trkpt lat="45.89191" lon="6.18907">
        <ele>1299</ele>
        <time>2015-05-22T15:13:16Z</time>
      </trkpt>
      <trkpt lat="45.89192" lon="6.18907">
        <ele>1298</ele>
        <time>2015-05-22T15:13:18Z</time>
      </trkpt>
      <trkpt lat="45.89193" lon="6.18907">
        <ele>1297</ele>
        <time>2015-05-22T15:13:20Z</time>
      </trkpt>
      <trkpt lat="45.89193" lon="6.18907">
        <ele>1297</ele>
        <time>2015-05-22T15:13:22Z</time>
      </trkpt>
      <trkpt lat="45.89193" lon="6.18908">
        <ele>1297</ele>
        <time>2015-05-22T15:13:24Z</time>
      </trkpt>
      <trkpt lat="45.89194" lon="6.18908">
        <ele>1297</ele>
        <time>2015-05-22T15:13:26Z</time>
      </trkpt>
      <trkpt lat="45.89195" lon="6.1891">
        <ele>1296</ele>
        <time>2015-05-22T15:13:28Z</time>
      </trkpt>
      <trkpt lat="45.89195" lon="6.1891">
        <ele>1297</ele>
        <time>2015-05-22T15:13:29Z</time>
      </trkpt>
      <trkpt lat="45.89195" lon="6.18911">
        <ele>1296</ele>
        <time>2015-05-22T15:13:30Z</time>
      </trkpt>
      <trkpt lat="45.89195" lon="6.18911">
        <ele>1297</ele>
        <time>2015-05-22T15:13:31Z</time>
      </trkpt>
      <trkpt lat="45.89194" lon="6.1891">
        <ele>1297</ele>
        <time>2015-05-22T15:13:32Z</time>
      </trkpt>
      <trkpt lat="45.89194" lon="6.1891">
        <ele>1297</ele>
        <time>2015-05-22T15:13:33Z</time>
      </trkpt>
      <trkpt lat="45.89194" lon="6.1891">
        <ele>1297</ele>
        <time>2015-05-22T15:13:34Z</time>
      </trkpt>
      <trkpt lat="45.89194" lon="6.1891">
        <ele>1297</ele>
        <time>2015-05-22T15:13:36Z</time>
      </trkpt>
      <trkpt lat="45.89194" lon="6.1891">
        <ele>1296</ele>
        <time>2015-05-22T15:13:38Z</time>
      </trkpt>
      <trkpt lat="45.89194" lon="6.18909">
        <ele>1296</ele>
        <time>2015-05-22T15:13:40Z</time>
      </trkpt>
      <trkpt lat="45.89194" lon="6.18909">
        <ele>1296</ele>
        <time>2015-05-22T15:13:42Z</time>
      </trkpt>
      <trkpt lat="45.89194" lon="6.18909">
        <ele>1296</ele>
        <time>2015-05-22T15:13:44Z</time>
      </trkpt>
      <trkpt lat="45.89194" lon="6.18909">
        <ele>1296</ele>
        <time>2015-05-22T15:13:45Z</time>
      </trkpt>
      <trkpt lat="45.89194" lon="6.18909">
        <ele>1296</ele>
        <time>2015-05-22T15:13:46Z</time>
      </trkpt>
      <trkpt lat="45.89194" lon="6.18909">
        <ele>1296</ele>
        <time>2015-05-22T15:13:47Z</time>
      </trkpt>
      <trkpt lat="45.89194" lon="6.18909">
        <ele>1296</ele>
        <time>2015-05-22T15:13:48Z</time>
      </trkpt>
      <trkpt lat="45.89194" lon="6.18909">
        <ele>1296</ele>
        <time>2015-05-22T15:13:49Z</time>
      </trkpt>
      <trkpt lat="45.89194" lon="6.18909">
        <ele>1296</ele>
        <time>2015-05-22T15:13:50Z</time>
      </trkpt>
      <trkpt lat="45.89194" lon="6.18909">
        <ele>1296</ele>
        <time>2015-05-22T15:13:51Z</time>
      </trkpt>
      <trkpt lat="45.89194" lon="6.18909">
        <ele>1296</ele>
        <time>2015-05-22T15:13:52Z</time>
      </trkpt>
      <trkpt lat="45.89194" lon="6.18909">
        <ele>1296</ele>
        <time>2015-05-22T15:13:53Z</time>
      </trkpt>
      <trkpt lat="45.89194" lon="6.18909">
        <ele>1296</ele>
        <time>2015-05-22T15:13:54Z</time>
      </trkpt>
      <trkpt lat="45.89194" lon="6.18909">
        <ele>1296</ele>
        <time>2015-05-22T15:13:55Z</time>
      </trkpt>
      <trkpt lat="45.89194" lon="6.18909">
        <ele>1296</ele>
        <time>2015-05-22T15:13:56Z</time>
      </trkpt>
      <trkpt lat="45.89194" lon="6.18909">
        <ele>1296</ele>
        <time>2015-05-22T15:13:57Z</time>
      </trkpt>
      <trkpt lat="45.89194" lon="6.18909">
        <ele>1296</ele>
        <time>2015-05-22T15:13:58Z</time>
      </trkpt>
      <trkpt lat="45.89194" lon="6.18909">
        <ele>1296</ele>
        <time>2015-05-22T15:13:59Z</time>
      </trkpt>
      <trkpt lat="45.89194" lon="6.18909">
        <ele>1296</ele>
        <time>2015-05-22T15:14:00Z</time>
      </trkpt>
      <trkpt lat="45.89194" lon="6.18909">
        <ele>1296</ele>
        <time>2015-05-22T15:14:01Z</time>
      </trkpt>
      <trkpt lat="45.89194" lon="6.18909">
        <ele>1296</ele>
        <time>2015-05-22T15:14:02Z</time>
      </trkpt>
      <trkpt lat="45.89194" lon="6.18909">
        <ele>1296</ele>
        <time>2015-05-22T15:14:03Z</time>
      </trkpt>
      <trkpt lat="45.89194" lon="6.18909">
        <ele>1296</ele>
        <time>2015-05-22T15:14:04Z</time>
      </trkpt>
      <trkpt lat="45.89194" lon="6.18909">
        <ele>1296</ele>
        <time>2015-05-22T15:14:05Z</time>
      </trkpt>
      <trkpt lat="45.89194" lon="6.18909">
        <ele>1296</ele>
        <time>2015-05-22T15:14:06Z</time>
      </trkpt>
      <trkpt lat="45.89194" lon="6.18909">
        <ele>1296</ele>
        <time>2015-05-22T15:14:07Z</time>
      </trkpt>
      <trkpt lat="45.89194" lon="6.18909">
        <ele>1296</ele>
        <time>2015-05-22T15:14:08Z</time>
      </trkpt>
      <trkpt lat="45.89194" lon="6.18909">
        <ele>1296</ele>
        <time>2015-05-22T15:14:09Z</time>
      </trkpt>
      <trkpt lat="45.89194" lon="6.18909">
        <ele>1297</ele>
        <time>2015-05-22T15:14:10Z</time>
      </trkpt>
      <trkpt lat="45.89194" lon="6.18909">
        <ele>1297</ele>
        <time>2015-05-22T15:14:11Z</time>
      </trkpt>
      <trkpt lat="45.89194" lon="6.18909">
        <ele>1297</ele>
        <time>2015-05-22T15:14:12Z</time>
      </trkpt>
      <trkpt lat="45.89194" lon="6.18909">
        <ele>1297</ele>
        <time>2015-05-22T15:14:13Z</time>
      </trkpt>
      <trkpt lat="45.89195" lon="6.1891">
        <ele>1298</ele>
        <time>2015-05-22T15:14:14Z</time>
      </trkpt>
      <trkpt lat="45.89195" lon="6.1891">
        <ele>1298</ele>
        <time>2015-05-22T15:14:15Z</time>
      </trkpt>
      <trkpt lat="45.89195" lon="6.1891">
        <ele>1298</ele>
        <time>2015-05-22T15:14:16Z</time>
      </trkpt>
      <trkpt lat="45.89195" lon="6.1891">
        <ele>1298</ele>
        <time>2015-05-22T15:14:17Z</time>
      </trkpt>
      <trkpt lat="45.89195" lon="6.1891">
        <ele>1298</ele>
        <time>2015-05-22T15:14:18Z</time>
      </trkpt>
      <trkpt lat="45.89195" lon="6.1891">
        <ele>1298</ele>
        <time>2015-05-22T15:14:19Z</time>
      </trkpt>
      <trkpt lat="45.89195" lon="6.1891">
        <ele>1298</ele>
        <time>2015-05-22T15:14:20Z</time>
      </trkpt>
      <trkpt lat="45.89195" lon="6.1891">
        <ele>1298</ele>
        <time>2015-05-22T15:14:21Z</time>
      </trkpt>
      <trkpt lat="45.89195" lon="6.1891">
        <ele>1298</ele>
        <time>2015-05-22T15:14:22Z</time>
      </trkpt>
      <trkpt lat="45.89195" lon="6.1891">
        <ele>1298</ele>
        <time>2015-05-22T15:14:23Z</time>
      </trkpt>
      <trkpt lat="45.89195" lon="6.1891">
        <ele>1298</ele>
        <time>2015-05-22T15:14:24Z</time>
      </trkpt>
      <trkpt lat="45.89195" lon="6.1891">
        <ele>1298</ele>
        <time>2015-05-22T15:14:25Z</time>
      </trkpt>
      <trkpt lat="45.89195" lon="6.1891">
        <ele>1298</ele>
        <time>2015-05-22T15:14:26Z</time>
      </trkpt>
      <trkpt lat="45.89195" lon="6.1891">
        <ele>1298</ele>
        <time>2015-05-22T15:14:27Z</time>
      </trkpt>
      <trkpt lat="45.89195" lon="6.1891">
        <ele>1298</ele>
        <time>2015-05-22T15:14:28Z</time>
      </trkpt>
      <trkpt lat="45.89195" lon="6.1891">
        <ele>1298</ele>
        <time>2015-05-22T15:14:29Z</time>
      </trkpt>
      <trkpt lat="45.89195" lon="6.1891">
        <ele>1298</ele>
        <time>2015-05-22T15:14:30Z</time>
      </trkpt>
      <trkpt lat="45.89195" lon="6.1891">
        <ele>1298</ele>
        <time>2015-05-22T15:14:31Z</time>
      </trkpt>
      <trkpt lat="45.89195" lon="6.1891">
        <ele>1298</ele>
        <time>2015-05-22T15:14:32Z</time>
      </trkpt>
      <trkpt lat="45.89195" lon="6.1891">
        <ele>1298</ele>
        <time>2015-05-22T15:14:33Z</time>
      </trkpt>
      <trkpt lat="45.89195" lon="6.1891">
        <ele>1298</ele>
        <time>2015-05-22T15:14:34Z</time>
      </trkpt>
      <trkpt lat="45.89195" lon="6.1891">
        <ele>1298</ele>
        <time>2015-05-22T15:14:35Z</time>
      </trkpt>
      <trkpt lat="45.89195" lon="6.1891">
        <ele>1298</ele>
        <time>2015-05-22T15:14:36Z</time>
      </trkpt>
      <trkpt lat="45.89195" lon="6.1891">
        <ele>1298</ele>
        <time>2015-05-22T15:14:37Z</time>
      </trkpt>
      <trkpt lat="45.89195" lon="6.1891">
        <ele>1298</ele>
        <time>2015-05-22T15:14:38Z</time>
      </trkpt>
      <trkpt lat="45.89195" lon="6.1891">
        <ele>1298</ele>
        <time>2015-05-22T15:14:39Z</time>
      </trkpt>
      <trkpt lat="45.89195" lon="6.1891">
        <ele>1298</ele>
        <time>2015-05-22T15:14:40Z</time>
      </trkpt>
      <trkpt lat="45.89195" lon="6.1891">
        <ele>1298</ele>
        <time>2015-05-22T15:14:41Z</time>
      </trkpt>
      <trkpt lat="45.89194" lon="6.18911">
        <ele>1297</ele>
        <time>2015-05-22T15:14:42Z</time>
      </trkpt>
      <trkpt lat="45.89195" lon="6.18911">
        <ele>1298</ele>
        <time>2015-05-22T15:14:43Z</time>
      </trkpt>
      <trkpt lat="45.89195" lon="6.1891">
        <ele>1299</ele>
        <time>2015-05-22T15:14:44Z</time>
      </trkpt>
      <trkpt lat="45.89195" lon="6.18911">
        <ele>1299</ele>
        <time>2015-05-22T15:14:45Z</time>
      </trkpt>
      <trkpt lat="45.89194" lon="6.1891">
        <ele>1299</ele>
        <time>2015-05-22T15:14:46Z</time>
      </trkpt>
      <trkpt lat="45.89195" lon="6.1891">
        <ele>1299</ele>
        <time>2015-05-22T15:14:47Z</time>
      </trkpt>
      <trkpt lat="45.89195" lon="6.1891">
        <ele>1299</ele>
        <time>2015-05-22T15:14:49Z</time>
      </trkpt>
      <trkpt lat="45.89195" lon="6.1891">
        <ele>1299</ele>
        <time>2015-05-22T15:14:50Z</time>
      </trkpt>
      <trkpt lat="45.89195" lon="6.1891">
        <ele>1299</ele>
        <time>2015-05-22T15:14:52Z</time>
      </trkpt>
      <trkpt lat="45.89195" lon="6.1891">
        <ele>1299</ele>
        <time>2015-05-22T15:14:53Z</time>
      </trkpt>
      <trkpt lat="45.89195" lon="6.18909">
        <ele>1299</ele>
        <time>2015-05-22T15:14:54Z</time>
      </trkpt>
      <trkpt lat="45.89194" lon="6.18908">
        <ele>1300</ele>
        <time>2015-05-22T15:14:55Z</time>
      </trkpt>
      <trkpt lat="45.89194" lon="6.18907">
        <ele>1300</ele>
        <time>2015-05-22T15:14:56Z</time>
      </trkpt>
      <trkpt lat="45.89194" lon="6.18906">
        <ele>1300</ele>
        <time>2015-05-22T15:14:57Z</time>
      </trkpt>
      <trkpt lat="45.89194" lon="6.18905">
        <ele>1300</ele>
        <time>2015-05-22T15:14:58Z</time>
      </trkpt>
      <trkpt lat="45.89194" lon="6.18906">
        <ele>1299</ele>
        <time>2015-05-22T15:14:59Z</time>
      </trkpt>
      <trkpt lat="45.89193" lon="6.18906">
        <ele>1301</ele>
        <time>2015-05-22T15:15:00Z</time>
      </trkpt>
      <trkpt lat="45.89194" lon="6.18906">
        <ele>1301</ele>
        <time>2015-05-22T15:15:01Z</time>
      </trkpt>
      <trkpt lat="45.89193" lon="6.18906">
        <ele>1302</ele>
        <time>2015-05-22T15:15:03Z</time>
      </trkpt>
      <trkpt lat="45.89194" lon="6.18906">
        <ele>1301</ele>
        <time>2015-05-22T15:15:05Z</time>
      </trkpt>
      <trkpt lat="45.89194" lon="6.18907">
        <ele>1302</ele>
        <time>2015-05-22T15:15:07Z</time>
      </trkpt>
      <trkpt lat="45.89194" lon="6.18907">
        <ele>1302</ele>
        <time>2015-05-22T15:15:09Z</time>
      </trkpt>
      <trkpt lat="45.89194" lon="6.18906">
        <ele>1301</ele>
        <time>2015-05-22T15:15:11Z</time>
      </trkpt>
      <trkpt lat="45.89194" lon="6.18905">
        <ele>1300</ele>
        <time>2015-05-22T15:15:13Z</time>
      </trkpt>
      <trkpt lat="45.89194" lon="6.18905">
        <ele>1300</ele>
        <time>2015-05-22T15:15:15Z</time>
      </trkpt>
      <trkpt lat="45.89194" lon="6.18905">
        <ele>1300</ele>
        <time>2015-05-22T15:15:16Z</time>
      </trkpt>
      <trkpt lat="45.89194" lon="6.18905">
        <ele>1300</ele>
        <time>2015-05-22T15:15:17Z</time>
      </trkpt>
      <trkpt lat="45.89194" lon="6.18905">
        <ele>1300</ele>
        <time>2015-05-22T15:15:18Z</time>
      </trkpt>
      <trkpt lat="45.89194" lon="6.18905">
        <ele>1300</ele>
        <time>2015-05-22T15:15:19Z</time>
      </trkpt>
      <trkpt lat="45.89194" lon="6.18905">
        <ele>1300</ele>
        <time>2015-05-22T15:15:20Z</time>
      </trkpt>
      <trkpt lat="45.89194" lon="6.18905">
        <ele>1300</ele>
        <time>2015-05-22T15:15:22Z</time>
      </trkpt>
      <trkpt lat="45.89194" lon="6.18905">
        <ele>1300</ele>
        <time>2015-05-22T15:15:24Z</time>
      </trkpt>
      <trkpt lat="45.89194" lon="6.18905">
        <ele>1300</ele>
        <time>2015-05-22T15:15:26Z</time>
      </trkpt>
      <trkpt lat="45.89194" lon="6.18905">
        <ele>1300</ele>
        <time>2015-05-22T15:15:28Z</time>
      </trkpt>
      <trkpt lat="45.89194" lon="6.18905">
        <ele>1300</ele>
        <time>2015-05-22T15:15:30Z</time>
      </trkpt>
      <trkpt lat="45.89194" lon="6.18904">
        <ele>1299</ele>
        <time>2015-05-22T15:15:32Z</time>
      </trkpt>
      <trkpt lat="45.89195" lon="6.18908">
        <ele>1300</ele>
        <time>2015-05-22T15:15:34Z</time>
      </trkpt>
      <trkpt lat="45.89195" lon="6.18908">
        <ele>1300</ele>
        <time>2015-05-22T15:15:35Z</time>
      </trkpt>
      <trkpt lat="45.89195" lon="6.18909">
        <ele>1300</ele>
        <time>2015-05-22T15:15:36Z</time>
      </trkpt>
      <trkpt lat="45.89195" lon="6.18909">
        <ele>1299</ele>
        <time>2015-05-22T15:15:37Z</time>
      </trkpt>
      <trkpt lat="45.89195" lon="6.1891">
        <ele>1299</ele>
        <time>2015-05-22T15:15:38Z</time>
      </trkpt>
      <trkpt lat="45.89197" lon="6.18912">
        <ele>1299</ele>
        <time>2015-05-22T15:15:40Z</time>
      </trkpt>
      <trkpt lat="45.89198" lon="6.18915">
        <ele>1299</ele>
        <time>2015-05-22T15:15:42Z</time>
      </trkpt>
      <trkpt lat="45.89198" lon="6.18917">
        <ele>1299</ele>
        <time>2015-05-22T15:15:44Z</time>
      </trkpt>
      <trkpt lat="45.892" lon="6.18919">
        <ele>1299</ele>
        <time>2015-05-22T15:15:46Z</time>
      </trkpt>
      <trkpt lat="45.892" lon="6.18923">
        <ele>1300</ele>
        <time>2015-05-22T15:15:48Z</time>
      </trkpt>
      <trkpt lat="45.892" lon="6.18926">
        <ele>1300</ele>
        <time>2015-05-22T15:15:50Z</time>
      </trkpt>
      <trkpt lat="45.89201" lon="6.18928">
        <ele>1300</ele>
        <time>2015-05-22T15:15:52Z</time>
      </trkpt>
      <trkpt lat="45.89201" lon="6.18929">
        <ele>1300</ele>
        <time>2015-05-22T15:15:53Z</time>
      </trkpt>
      <trkpt lat="45.89201" lon="6.18931">
        <ele>1300</ele>
        <time>2015-05-22T15:15:54Z</time>
      </trkpt>
      <trkpt lat="45.892" lon="6.18931">
        <ele>1299</ele>
        <time>2015-05-22T15:15:55Z</time>
      </trkpt>
      <trkpt lat="45.892" lon="6.18932">
        <ele>1299</ele>
        <time>2015-05-22T15:15:56Z</time>
      </trkpt>
      <trkpt lat="45.892" lon="6.18932">
        <ele>1301</ele>
        <time>2015-05-22T15:15:58Z</time>
      </trkpt>
      <trkpt lat="45.892" lon="6.18932">
        <ele>1301</ele>
        <time>2015-05-22T15:15:59Z</time>
      </trkpt>
      <trkpt lat="45.892" lon="6.18932">
        <ele>1302</ele>
        <time>2015-05-22T15:16:01Z</time>
      </trkpt>
      <trkpt lat="45.892" lon="6.18932">
        <ele>1302</ele>
        <time>2015-05-22T15:16:02Z</time>
      </trkpt>
      <trkpt lat="45.892" lon="6.18932">
        <ele>1302</ele>
        <time>2015-05-22T15:16:03Z</time>
      </trkpt>
      <trkpt lat="45.892" lon="6.18932">
        <ele>1302</ele>
        <time>2015-05-22T15:16:04Z</time>
      </trkpt>
      <trkpt lat="45.892" lon="6.18932">
        <ele>1302</ele>
        <time>2015-05-22T15:16:05Z</time>
      </trkpt>
      <trkpt lat="45.892" lon="6.18932">
        <ele>1303</ele>
        <time>2015-05-22T15:16:06Z</time>
      </trkpt>
      <trkpt lat="45.892" lon="6.18932">
        <ele>1303</ele>
        <time>2015-05-22T15:16:08Z</time>
      </trkpt>
      <trkpt lat="45.892" lon="6.18932">
        <ele>1303</ele>
        <time>2015-05-22T15:16:10Z</time>
      </trkpt>
      <trkpt lat="45.892" lon="6.18932">
        <ele>1303</ele>
        <time>2015-05-22T15:16:12Z</time>
      </trkpt>
      <trkpt lat="45.892" lon="6.18932">
        <ele>1302</ele>
        <time>2015-05-22T15:16:14Z</time>
      </trkpt>
      <trkpt lat="45.892" lon="6.18932">
        <ele>1302</ele>
        <time>2015-05-22T15:16:16Z</time>
      </trkpt>
      <trkpt lat="45.892" lon="6.18932">
        <ele>1302</ele>
        <time>2015-05-22T15:16:17Z</time>
      </trkpt>
      <trkpt lat="45.892" lon="6.18932">
        <ele>1302</ele>
        <time>2015-05-22T15:16:19Z</time>
      </trkpt>
      <trkpt lat="45.892" lon="6.18932">
        <ele>1302</ele>
        <time>2015-05-22T15:16:20Z</time>
      </trkpt>
      <trkpt lat="45.892" lon="6.18932">
        <ele>1302</ele>
        <time>2015-05-22T15:16:21Z</time>
      </trkpt>
      <trkpt lat="45.892" lon="6.18932">
        <ele>1302</ele>
        <time>2015-05-22T15:16:22Z</time>
      </trkpt>
      <trkpt lat="45.892" lon="6.18932">
        <ele>1302</ele>
        <time>2015-05-22T15:16:23Z</time>
      </trkpt>
      <trkpt lat="45.892" lon="6.18932">
        <ele>1302</ele>
        <time>2015-05-22T15:16:24Z</time>
      </trkpt>
      <trkpt lat="45.892" lon="6.18932">
        <ele>1302</ele>
        <time>2015-05-22T15:16:25Z</time>
      </trkpt>
      <trkpt lat="45.892" lon="6.18932">
        <ele>1302</ele>
        <time>2015-05-22T15:16:27Z</time>
      </trkpt>
      <trkpt lat="45.892" lon="6.18932">
        <ele>1302</ele>
        <time>2015-05-22T15:16:28Z</time>
      </trkpt>
      <trkpt lat="45.892" lon="6.18932">
        <ele>1302</ele>
        <time>2015-05-22T15:16:29Z</time>
      </trkpt>
      <trkpt lat="45.892" lon="6.18932">
        <ele>1302</ele>
        <time>2015-05-22T15:16:31Z</time>
      </trkpt>
      <trkpt lat="45.892" lon="6.18932">
        <ele>1302</ele>
        <time>2015-05-22T15:16:32Z</time>
      </trkpt>
      <trkpt lat="45.892" lon="6.18932">
        <ele>1302</ele>
        <time>2015-05-22T15:16:34Z</time>
      </trkpt>
      <trkpt lat="45.892" lon="6.18932">
        <ele>1302</ele>
        <time>2015-05-22T15:16:35Z</time>
      </trkpt>
      <trkpt lat="45.892" lon="6.18932">
        <ele>1302</ele>
        <time>2015-05-22T15:16:36Z</time>
      </trkpt>
      <trkpt lat="45.892" lon="6.18932">
        <ele>1302</ele>
        <time>2015-05-22T15:16:38Z</time>
      </trkpt>
      <trkpt lat="45.892" lon="6.18932">
        <ele>1302</ele>
        <time>2015-05-22T15:16:39Z</time>
      </trkpt>
      <trkpt lat="45.892" lon="6.18932">
        <ele>1302</ele>
        <time>2015-05-22T15:16:40Z</time>
      </trkpt>
      <trkpt lat="45.892" lon="6.18932">
        <ele>1302</ele>
        <time>2015-05-22T15:16:42Z</time>
      </trkpt>
      <trkpt lat="45.892" lon="6.18932">
        <ele>1302</ele>
        <time>2015-05-22T15:16:43Z</time>
      </trkpt>
      <trkpt lat="45.892" lon="6.18932">
        <ele>1302</ele>
        <time>2015-05-22T15:16:44Z</time>
      </trkpt>
      <trkpt lat="45.892" lon="6.18932">
        <ele>1302</ele>
        <time>2015-05-22T15:16:45Z</time>
      </trkpt>
      <trkpt lat="45.892" lon="6.18932">
        <ele>1302</ele>
        <time>2015-05-22T15:16:46Z</time>
      </trkpt>
      <trkpt lat="45.892" lon="6.18932">
        <ele>1302</ele>
        <time>2015-05-22T15:16:48Z</time>
      </trkpt>
      <trkpt lat="45.892" lon="6.18932">
        <ele>1302</ele>
        <time>2015-05-22T15:16:50Z</time>
      </trkpt>
      <trkpt lat="45.892" lon="6.18932">
        <ele>1302</ele>
        <time>2015-05-22T15:16:52Z</time>
      </trkpt>
      <trkpt lat="45.892" lon="6.18932">
        <ele>1302</ele>
        <time>2015-05-22T15:16:54Z</time>
      </trkpt>
      <trkpt lat="45.892" lon="6.18932">
        <ele>1302</ele>
        <time>2015-05-22T15:16:56Z</time>
      </trkpt>
      <trkpt lat="45.892" lon="6.18932">
        <ele>1302</ele>
        <time>2015-05-22T15:16:57Z</time>
      </trkpt>
      <trkpt lat="45.892" lon="6.18932">
        <ele>1302</ele>
        <time>2015-05-22T15:16:58Z</time>
      </trkpt>
      <trkpt lat="45.892" lon="6.18932">
        <ele>1302</ele>
        <time>2015-05-22T15:16:59Z</time>
      </trkpt>
      <trkpt lat="45.892" lon="6.18932">
        <ele>1302</ele>
        <time>2015-05-22T15:17:00Z</time>
      </trkpt>
      <trkpt lat="45.892" lon="6.18932">
        <ele>1302</ele>
        <time>2015-05-22T15:17:02Z</time>
      </trkpt>
      <trkpt lat="45.892" lon="6.18932">
        <ele>1302</ele>
        <time>2015-05-22T15:17:04Z</time>
      </trkpt>
      <trkpt lat="45.892" lon="6.18932">
        <ele>1302</ele>
        <time>2015-05-22T15:17:06Z</time>
      </trkpt>
      <trkpt lat="45.892" lon="6.18932">
        <ele>1302</ele>
        <time>2015-05-22T15:17:08Z</time>
      </trkpt>
      <trkpt lat="45.892" lon="6.18933">
        <ele>1303</ele>
        <time>2015-05-22T15:17:10Z</time>
      </trkpt>
      <trkpt lat="45.892" lon="6.18933">
        <ele>1303</ele>
        <time>2015-05-22T15:17:12Z</time>
      </trkpt>
      <trkpt lat="45.892" lon="6.18933">
        <ele>1303</ele>
        <time>2015-05-22T15:17:14Z</time>
      </trkpt>
      <trkpt lat="45.892" lon="6.18934">
        <ele>1303</ele>
        <time>2015-05-22T15:17:15Z</time>
      </trkpt>
      <trkpt lat="45.892" lon="6.18934">
        <ele>1302</ele>
        <time>2015-05-22T15:17:16Z</time>
      </trkpt>
      <trkpt lat="45.892" lon="6.18934">
        <ele>1302</ele>
        <time>2015-05-22T15:17:17Z</time>
      </trkpt>
      <trkpt lat="45.892" lon="6.18934">
        <ele>1302</ele>
        <time>2015-05-22T15:17:18Z</time>
      </trkpt>
      <trkpt lat="45.892" lon="6.18934">
        <ele>1302</ele>
        <time>2015-05-22T15:17:19Z</time>
      </trkpt>
      <trkpt lat="45.892" lon="6.18934">
        <ele>1302</ele>
        <time>2015-05-22T15:17:20Z</time>
      </trkpt>
      <trkpt lat="45.892" lon="6.18934">
        <ele>1302</ele>
        <time>2015-05-22T15:17:22Z</time>
      </trkpt>
      <trkpt lat="45.892" lon="6.18934">
        <ele>1302</ele>
        <time>2015-05-22T15:17:24Z</time>
      </trkpt>
      <trkpt lat="45.89201" lon="6.18935">
        <ele>1302</ele>
        <time>2015-05-22T15:17:26Z</time>
      </trkpt>
      <trkpt lat="45.89201" lon="6.18935">
        <ele>1302</ele>
        <time>2015-05-22T15:17:28Z</time>
      </trkpt>
      <trkpt lat="45.89201" lon="6.18935">
        <ele>1301</ele>
        <time>2015-05-22T15:17:30Z</time>
      </trkpt>
      <trkpt lat="45.89201" lon="6.18934">
        <ele>1301</ele>
        <time>2015-05-22T15:17:31Z</time>
      </trkpt>
      <trkpt lat="45.89201" lon="6.18934">
        <ele>1301</ele>
        <time>2015-05-22T15:17:32Z</time>
      </trkpt>
      <trkpt lat="45.89201" lon="6.18934">
        <ele>1301</ele>
        <time>2015-05-22T15:17:33Z</time>
      </trkpt>
      <trkpt lat="45.89201" lon="6.18934">
        <ele>1300</ele>
        <time>2015-05-22T15:17:34Z</time>
      </trkpt>
      <trkpt lat="45.89201" lon="6.18934">
        <ele>1300</ele>
        <time>2015-05-22T15:17:36Z</time>
      </trkpt>
      <trkpt lat="45.89201" lon="6.18934">
        <ele>1300</ele>
        <time>2015-05-22T15:17:37Z</time>
      </trkpt>
      <trkpt lat="45.89201" lon="6.18934">
        <ele>1300</ele>
        <time>2015-05-22T15:17:38Z</time>
      </trkpt>
      <trkpt lat="45.89201" lon="6.18933">
        <ele>1300</ele>
        <time>2015-05-22T15:17:39Z</time>
      </trkpt>
      <trkpt lat="45.89201" lon="6.18931">
        <ele>1299</ele>
        <time>2015-05-22T15:17:40Z</time>
      </trkpt>
      <trkpt lat="45.892" lon="6.18928">
        <ele>1298</ele>
        <time>2015-05-22T15:17:42Z</time>
      </trkpt>
      <trkpt lat="45.892" lon="6.18928">
        <ele>1298</ele>
        <time>2015-05-22T15:17:44Z</time>
      </trkpt>
      <trkpt lat="45.892" lon="6.18926">
        <ele>1297</ele>
        <time>2015-05-22T15:17:46Z</time>
      </trkpt>
      <trkpt lat="45.892" lon="6.18924">
        <ele>1296</ele>
        <time>2015-05-22T15:17:48Z</time>
      </trkpt>
      <trkpt lat="45.89201" lon="6.18922">
        <ele>1297</ele>
        <time>2015-05-22T15:17:50Z</time>
      </trkpt>
      <trkpt lat="45.89202" lon="6.18922">
        <ele>1297</ele>
        <time>2015-05-22T15:17:51Z</time>
      </trkpt>
      <trkpt lat="45.89203" lon="6.18923">
        <ele>1297</ele>
        <time>2015-05-22T15:17:52Z</time>
      </trkpt>
      <trkpt lat="45.89204" lon="6.18922">
        <ele>1296</ele>
        <time>2015-05-22T15:17:53Z</time>
      </trkpt>
      <trkpt lat="45.89206" lon="6.18921">
        <ele>1296</ele>
        <time>2015-05-22T15:17:55Z</time>
      </trkpt>
      <trkpt lat="45.89207" lon="6.18921">
        <ele>1296</ele>
        <time>2015-05-22T15:17:56Z</time>
      </trkpt>
      <trkpt lat="45.89208" lon="6.1892">
        <ele>1297</ele>
        <time>2015-05-22T15:17:57Z</time>
      </trkpt>
      <trkpt lat="45.89209" lon="6.18919">
        <ele>1297</ele>
        <time>2015-05-22T15:17:58Z</time>
      </trkpt>
      <trkpt lat="45.89209" lon="6.18918">
        <ele>1297</ele>
        <time>2015-05-22T15:17:59Z</time>
      </trkpt>
      <trkpt lat="45.8921" lon="6.18918">
        <ele>1297</ele>
        <time>2015-05-22T15:18:00Z</time>
      </trkpt>
      <trkpt lat="45.89211" lon="6.18917">
        <ele>1297</ele>
        <time>2015-05-22T15:18:01Z</time>
      </trkpt>
      <trkpt lat="45.89212" lon="6.18917">
        <ele>1297</ele>
        <time>2015-05-22T15:18:02Z</time>
      </trkpt>
      <trkpt lat="45.89213" lon="6.18917">
        <ele>1296</ele>
        <time>2015-05-22T15:18:03Z</time>
      </trkpt>
      <trkpt lat="45.89214" lon="6.18916">
        <ele>1296</ele>
        <time>2015-05-22T15:18:04Z</time>
      </trkpt>
      <trkpt lat="45.89215" lon="6.18916">
        <ele>1296</ele>
        <time>2015-05-22T15:18:05Z</time>
      </trkpt>
      <trkpt lat="45.89216" lon="6.18916">
        <ele>1296</ele>
        <time>2015-05-22T15:18:06Z</time>
      </trkpt>
      <trkpt lat="45.89219" lon="6.18916">
        <ele>1295</ele>
        <time>2015-05-22T15:18:08Z</time>
      </trkpt>
      <trkpt lat="45.8922" lon="6.18916">
        <ele>1296</ele>
        <time>2015-05-22T15:18:10Z</time>
      </trkpt>
      <trkpt lat="45.89222" lon="6.18916">
        <ele>1296</ele>
        <time>2015-05-22T15:18:12Z</time>
      </trkpt>
      <trkpt lat="45.89223" lon="6.18915">
        <ele>1296</ele>
        <time>2015-05-22T15:18:13Z</time>
      </trkpt>
      <trkpt lat="45.89224" lon="6.18915">
        <ele>1296</ele>
        <time>2015-05-22T15:18:14Z</time>
      </trkpt>
      <trkpt lat="45.89224" lon="6.18915">
        <ele>1295</ele>
        <time>2015-05-22T15:18:15Z</time>
      </trkpt>
      <trkpt lat="45.89224" lon="6.18916">
        <ele>1296</ele>
        <time>2015-05-22T15:18:17Z</time>
      </trkpt>
      <trkpt lat="45.89224" lon="6.18915">
        <ele>1296</ele>
        <time>2015-05-22T15:18:18Z</time>
      </trkpt>
      <trkpt lat="45.89225" lon="6.18915">
        <ele>1296</ele>
        <time>2015-05-22T15:18:19Z</time>
      </trkpt>
      <trkpt lat="45.89226" lon="6.18914">
        <ele>1296</ele>
        <time>2015-05-22T15:18:20Z</time>
      </trkpt>
      <trkpt lat="45.89227" lon="6.18914">
        <ele>1295</ele>
        <time>2015-05-22T15:18:21Z</time>
      </trkpt>
      <trkpt lat="45.89228" lon="6.18913">
        <ele>1296</ele>
        <time>2015-05-22T15:18:23Z</time>
      </trkpt>
      <trkpt lat="45.8923" lon="6.18912">
        <ele>1296</ele>
        <time>2015-05-22T15:18:25Z</time>
      </trkpt>
      <trkpt lat="45.89233" lon="6.18913">
        <ele>1297</ele>
        <time>2015-05-22T15:18:27Z</time>
      </trkpt>
      <trkpt lat="45.89235" lon="6.18914">
        <ele>1297</ele>
        <time>2015-05-22T15:18:29Z</time>
      </trkpt>
      <trkpt lat="45.89236" lon="6.18911">
        <ele>1296</ele>
        <time>2015-05-22T15:18:31Z</time>
      </trkpt>
      <trkpt lat="45.89237" lon="6.1891">
        <ele>1297</ele>
        <time>2015-05-22T15:18:33Z</time>
      </trkpt>
      <trkpt lat="45.89238" lon="6.1891">
        <ele>1297</ele>
        <time>2015-05-22T15:18:35Z</time>
      </trkpt>
      <trkpt lat="45.89237" lon="6.1891">
        <ele>1298</ele>
        <time>2015-05-22T15:18:36Z</time>
      </trkpt>
      <trkpt lat="45.89237" lon="6.1891">
        <ele>1298</ele>
        <time>2015-05-22T15:18:37Z</time>
      </trkpt>
      <trkpt lat="45.89237" lon="6.18911">
        <ele>1298</ele>
        <time>2015-05-22T15:18:38Z</time>
      </trkpt>
      <trkpt lat="45.89237" lon="6.18911">
        <ele>1298</ele>
        <time>2015-05-22T15:18:39Z</time>
      </trkpt>
      <trkpt lat="45.89237" lon="6.18911">
        <ele>1298</ele>
        <time>2015-05-22T15:18:40Z</time>
      </trkpt>
      <trkpt lat="45.89237" lon="6.18911">
        <ele>1298</ele>
        <time>2015-05-22T15:18:41Z</time>
      </trkpt>
      <trkpt lat="45.89237" lon="6.1891">
        <ele>1298</ele>
        <time>2015-05-22T15:18:43Z</time>
      </trkpt>
      <trkpt lat="45.89238" lon="6.1891">
        <ele>1297</ele>
        <time>2015-05-22T15:18:45Z</time>
      </trkpt>
      <trkpt lat="45.89238" lon="6.1891">
        <ele>1297</ele>
        <time>2015-05-22T15:18:47Z</time>
      </trkpt>
      <trkpt lat="45.89238" lon="6.1891">
        <ele>1297</ele>
        <time>2015-05-22T15:18:49Z</time>
      </trkpt>
      <trkpt lat="45.89238" lon="6.1891">
        <ele>1297</ele>
        <time>2015-05-22T15:18:51Z</time>
      </trkpt>
      <trkpt lat="45.89238" lon="6.1891">
        <ele>1297</ele>
        <time>2015-05-22T15:18:52Z</time>
      </trkpt>
      <trkpt lat="45.89238" lon="6.1891">
        <ele>1297</ele>
        <time>2015-05-22T15:18:53Z</time>
      </trkpt>
      <trkpt lat="45.89238" lon="6.1891">
        <ele>1297</ele>
        <time>2015-05-22T15:18:54Z</time>
      </trkpt>
      <trkpt lat="45.89238" lon="6.1891">
        <ele>1297</ele>
        <time>2015-05-22T15:18:55Z</time>
      </trkpt>
      <trkpt lat="45.89238" lon="6.1891">
        <ele>1297</ele>
        <time>2015-05-22T15:18:56Z</time>
      </trkpt>
      <trkpt lat="45.89238" lon="6.1891">
        <ele>1297</ele>
        <time>2015-05-22T15:18:57Z</time>
      </trkpt>
      <trkpt lat="45.89238" lon="6.1891">
        <ele>1297</ele>
        <time>2015-05-22T15:18:58Z</time>
      </trkpt>
      <trkpt lat="45.89238" lon="6.1891">
        <ele>1297</ele>
        <time>2015-05-22T15:19:00Z</time>
      </trkpt>
      <trkpt lat="45.89238" lon="6.1891">
        <ele>1297</ele>
        <time>2015-05-22T15:19:02Z</time>
      </trkpt>
      <trkpt lat="45.89238" lon="6.1891">
        <ele>1297</ele>
        <time>2015-05-22T15:19:04Z</time>
      </trkpt>
      <trkpt lat="45.89238" lon="6.1891">
        <ele>1297</ele>
        <time>2015-05-22T15:19:06Z</time>
      </trkpt>
      <trkpt lat="45.89238" lon="6.1891">
        <ele>1297</ele>
        <time>2015-05-22T15:19:08Z</time>
      </trkpt>
      <trkpt lat="45.89238" lon="6.1891">
        <ele>1297</ele>
        <time>2015-05-22T15:19:10Z</time>
      </trkpt>
      <trkpt lat="45.89238" lon="6.1891">
        <ele>1297</ele>
        <time>2015-05-22T15:19:12Z</time>
      </trkpt>
      <trkpt lat="45.89238" lon="6.1891">
        <ele>1297</ele>
        <time>2015-05-22T15:19:14Z</time>
      </trkpt>
      <trkpt lat="45.89238" lon="6.1891">
        <ele>1297</ele>
        <time>2015-05-22T15:19:15Z</time>
      </trkpt>
      <trkpt lat="45.89238" lon="6.1891">
        <ele>1297</ele>
        <time>2015-05-22T15:19:16Z</time>
      </trkpt>
      <trkpt lat="45.89238" lon="6.1891">
        <ele>1297</ele>
        <time>2015-05-22T15:19:17Z</time>
      </trkpt>
      <trkpt lat="45.89238" lon="6.1891">
        <ele>1297</ele>
        <time>2015-05-22T15:19:18Z</time>
      </trkpt>
      <trkpt lat="45.89238" lon="6.1891">
        <ele>1297</ele>
        <time>2015-05-22T15:19:19Z</time>
      </trkpt>
      <trkpt lat="45.89238" lon="6.1891">
        <ele>1297</ele>
        <time>2015-05-22T15:19:22Z</time>
      </trkpt>
      <trkpt lat="45.89238" lon="6.1891">
        <ele>1297</ele>
        <time>2015-05-22T15:19:23Z</time>
      </trkpt>
      <trkpt lat="45.89238" lon="6.1891">
        <ele>1297</ele>
        <time>2015-05-22T15:19:26Z</time>
      </trkpt>
      <trkpt lat="45.89238" lon="6.1891">
        <ele>1297</ele>
        <time>2015-05-22T15:19:28Z</time>
      </trkpt>
      <trkpt lat="45.89238" lon="6.1891">
        <ele>1297</ele>
        <time>2015-05-22T15:19:30Z</time>
      </trkpt>
      <trkpt lat="45.89238" lon="6.1891">
        <ele>1297</ele>
        <time>2015-05-22T15:19:31Z</time>
      </trkpt>
      <trkpt lat="45.89238" lon="6.1891">
        <ele>1297</ele>
        <time>2015-05-22T15:19:32Z</time>
      </trkpt>
      <trkpt lat="45.89238" lon="6.1891">
        <ele>1297</ele>
        <time>2015-05-22T15:19:33Z</time>
      </trkpt>
      <trkpt lat="45.89238" lon="6.1891">
        <ele>1297</ele>
        <time>2015-05-22T15:19:35Z</time>
      </trkpt>
      <trkpt lat="45.89238" lon="6.1891">
        <ele>1297</ele>
        <time>2015-05-22T15:19:37Z</time>
      </trkpt>
      <trkpt lat="45.89238" lon="6.1891">
        <ele>1297</ele>
        <time>2015-05-22T15:19:39Z</time>
      </trkpt>
      <trkpt lat="45.89238" lon="6.1891">
        <ele>1297</ele>
        <time>2015-05-22T15:19:41Z</time>
      </trkpt>
      <trkpt lat="45.89238" lon="6.1891">
        <ele>1297</ele>
        <time>2015-05-22T15:19:43Z</time>
      </trkpt>
      <trkpt lat="45.89238" lon="6.1891">
        <ele>1297</ele>
        <time>2015-05-22T15:19:45Z</time>
      </trkpt>
      <trkpt lat="45.89238" lon="6.1891">
        <ele>1297</ele>
        <time>2015-05-22T15:19:47Z</time>
      </trkpt>
      <trkpt lat="45.89238" lon="6.1891">
        <ele>1297</ele>
        <time>2015-05-22T15:19:49Z</time>
      </trkpt>
      <trkpt lat="45.89238" lon="6.1891">
        <ele>1297</ele>
        <time>2015-05-22T15:19:50Z</time>
      </trkpt>
      <trkpt lat="45.89238" lon="6.1891">
        <ele>1297</ele>
        <time>2015-05-22T15:19:51Z</time>
      </trkpt>
      <trkpt lat="45.89238" lon="6.1891">
        <ele>1297</ele>
        <time>2015-05-22T15:19:52Z</time>
      </trkpt>
      <trkpt lat="45.89238" lon="6.1891">
        <ele>1297</ele>
        <time>2015-05-22T15:19:53Z</time>
      </trkpt>
      <trkpt lat="45.89238" lon="6.1891">
        <ele>1297</ele>
        <time>2015-05-22T15:19:54Z</time>
      </trkpt>
      <trkpt lat="45.89238" lon="6.1891">
        <ele>1297</ele>
        <time>2015-05-22T15:19:55Z</time>
      </trkpt>
      <trkpt lat="45.89238" lon="6.1891">
        <ele>1297</ele>
        <time>2015-05-22T15:19:57Z</time>
      </trkpt>
      <trkpt lat="45.89238" lon="6.1891">
        <ele>1297</ele>
        <time>2015-05-22T15:19:59Z</time>
      </trkpt>
      <trkpt lat="45.89238" lon="6.1891">
        <ele>1297</ele>
        <time>2015-05-22T15:20:01Z</time>
      </trkpt>
      <trkpt lat="45.89238" lon="6.1891">
        <ele>1297</ele>
        <time>2015-05-22T15:20:03Z</time>
      </trkpt>
      <trkpt lat="45.89238" lon="6.1891">
        <ele>1297</ele>
        <time>2015-05-22T15:20:05Z</time>
      </trkpt>
      <trkpt lat="45.89238" lon="6.1891">
        <ele>1297</ele>
        <time>2015-05-22T15:20:07Z</time>
      </trkpt>
      <trkpt lat="45.89238" lon="6.1891">
        <ele>1297</ele>
        <time>2015-05-22T15:20:09Z</time>
      </trkpt>
      <trkpt lat="45.89238" lon="6.1891">
        <ele>1297</ele>
        <time>2015-05-22T15:20:10Z</time>
      </trkpt>
      <trkpt lat="45.89238" lon="6.1891">
        <ele>1297</ele>
        <time>2015-05-22T15:20:11Z</time>
      </trkpt>
      <trkpt lat="45.89238" lon="6.1891">
        <ele>1297</ele>
        <time>2015-05-22T15:20:12Z</time>
      </trkpt>
      <trkpt lat="45.89238" lon="6.1891">
        <ele>1297</ele>
        <time>2015-05-22T15:20:13Z</time>
      </trkpt>
      <trkpt lat="45.89238" lon="6.1891">
        <ele>1297</ele>
        <time>2015-05-22T15:20:14Z</time>
      </trkpt>
      <trkpt lat="45.89238" lon="6.1891">
        <ele>1297</ele>
        <time>2015-05-22T15:20:15Z</time>
      </trkpt>
      <trkpt lat="45.89238" lon="6.1891">
        <ele>1297</ele>
        <time>2015-05-22T15:20:17Z</time>
      </trkpt>
      <trkpt lat="45.89238" lon="6.1891">
        <ele>1297</ele>
        <time>2015-05-22T15:20:19Z</time>
      </trkpt>
      <trkpt lat="45.89238" lon="6.1891">
        <ele>1297</ele>
        <time>2015-05-22T15:20:21Z</time>
      </trkpt>
      <trkpt lat="45.89238" lon="6.1891">
        <ele>1297</ele>
        <time>2015-05-22T15:20:23Z</time>
      </trkpt>
      <trkpt lat="45.89238" lon="6.1891">
        <ele>1297</ele>
        <time>2015-05-22T15:20:25Z</time>
      </trkpt>
      <trkpt lat="45.89238" lon="6.1891">
        <ele>1297</ele>
        <time>2015-05-22T15:20:26Z</time>
      </trkpt>
      <trkpt lat="45.89238" lon="6.1891">
        <ele>1297</ele>
        <time>2015-05-22T15:20:27Z</time>
      </trkpt>
      <trkpt lat="45.89238" lon="6.1891">
        <ele>1297</ele>
        <time>2015-05-22T15:20:28Z</time>
      </trkpt>
      <trkpt lat="45.89238" lon="6.1891">
        <ele>1297</ele>
        <time>2015-05-22T15:20:29Z</time>
      </trkpt>
      <trkpt lat="45.89238" lon="6.1891">
        <ele>1297</ele>
        <time>2015-05-22T15:20:30Z</time>
      </trkpt>
      <trkpt lat="45.89238" lon="6.1891">
        <ele>1297</ele>
        <time>2015-05-22T15:20:31Z</time>
      </trkpt>
      <trkpt lat="45.89238" lon="6.1891">
        <ele>1297</ele>
        <time>2015-05-22T15:20:32Z</time>
      </trkpt>
      <trkpt lat="45.89238" lon="6.1891">
        <ele>1297</ele>
        <time>2015-05-22T15:20:33Z</time>
      </trkpt>
      <trkpt lat="45.89238" lon="6.1891">
        <ele>1297</ele>
        <time>2015-05-22T15:20:34Z</time>
      </trkpt>
      <trkpt lat="45.89238" lon="6.1891">
        <ele>1297</ele>
        <time>2015-05-22T15:20:35Z</time>
      </trkpt>
      <trkpt lat="45.89238" lon="6.1891">
        <ele>1297</ele>
        <time>2015-05-22T15:20:37Z</time>
      </trkpt>
      <trkpt lat="45.89238" lon="6.1891">
        <ele>1297</ele>
        <time>2015-05-22T15:20:39Z</time>
      </trkpt>
      <trkpt lat="45.89238" lon="6.1891">
        <ele>1297</ele>
        <time>2015-05-22T15:20:41Z</time>
      </trkpt>
      <trkpt lat="45.89238" lon="6.1891">
        <ele>1297</ele>
        <time>2015-05-22T15:20:43Z</time>
      </trkpt>
      <trkpt lat="45.89238" lon="6.1891">
        <ele>1297</ele>
        <time>2015-05-22T15:20:45Z</time>
      </trkpt>
      <trkpt lat="45.89238" lon="6.1891">
        <ele>1297</ele>
        <time>2015-05-22T15:20:47Z</time>
      </trkpt>
      <trkpt lat="45.89238" lon="6.1891">
        <ele>1297</ele>
        <time>2015-05-22T15:20:49Z</time>
      </trkpt>
      <trkpt lat="45.89238" lon="6.1891">
        <ele>1297</ele>
        <time>2015-05-22T15:20:50Z</time>
      </trkpt>
      <trkpt lat="45.89238" lon="6.1891">
        <ele>1297</ele>
        <time>2015-05-22T15:20:51Z</time>
      </trkpt>
      <trkpt lat="45.89238" lon="6.1891">
        <ele>1297</ele>
        <time>2015-05-22T15:20:52Z</time>
      </trkpt>
      <trkpt lat="45.89238" lon="6.1891">
        <ele>1297</ele>
        <time>2015-05-22T15:20:53Z</time>
      </trkpt>
      <trkpt lat="45.89238" lon="6.1891">
        <ele>1297</ele>
        <time>2015-05-22T15:20:54Z</time>
      </trkpt>
      <trkpt lat="45.89238" lon="6.1891">
        <ele>1297</ele>
        <time>2015-05-22T15:20:55Z</time>
      </trkpt>
      <trkpt lat="45.89238" lon="6.1891">
        <ele>1297</ele>
        <time>2015-05-22T15:20:56Z</time>
      </trkpt>
      <trkpt lat="45.89238" lon="6.1891">
        <ele>1297</ele>
        <time>2015-05-22T15:20:57Z</time>
      </trkpt>
      <trkpt lat="45.89238" lon="6.1891">
        <ele>1297</ele>
        <time>2015-05-22T15:20:58Z</time>
      </trkpt>
      <trkpt lat="45.89238" lon="6.1891">
        <ele>1297</ele>
        <time>2015-05-22T15:21:00Z</time>
      </trkpt>
      <trkpt lat="45.89238" lon="6.1891">
        <ele>1297</ele>
        <time>2015-05-22T15:21:01Z</time>
      </trkpt>
      <trkpt lat="45.89238" lon="6.1891">
        <ele>1297</ele>
        <time>2015-05-22T15:21:03Z</time>
      </trkpt>
      <trkpt lat="45.89238" lon="6.1891">
        <ele>1297</ele>
        <time>2015-05-22T15:21:04Z</time>
      </trkpt>
      <trkpt lat="45.89238" lon="6.1891">
        <ele>1297</ele>
        <time>2015-05-22T15:21:05Z</time>
      </trkpt>
      <trkpt lat="45.89238" lon="6.1891">
        <ele>1297</ele>
        <time>2015-05-22T15:21:06Z</time>
      </trkpt>
      <trkpt lat="45.89238" lon="6.1891">
        <ele>1297</ele>
        <time>2015-05-22T15:21:08Z</time>
      </trkpt>
      <trkpt lat="45.89238" lon="6.1891">
        <ele>1297</ele>
        <time>2015-05-22T15:21:09Z</time>
      </trkpt>
      <trkpt lat="45.89238" lon="6.1891">
        <ele>1297</ele>
        <time>2015-05-22T15:21:10Z</time>
      </trkpt>
      <trkpt lat="45.89238" lon="6.1891">
        <ele>1297</ele>
        <time>2015-05-22T15:21:11Z</time>
      </trkpt>
      <trkpt lat="45.89238" lon="6.1891">
        <ele>1297</ele>
        <time>2015-05-22T15:21:12Z</time>
      </trkpt>
      <trkpt lat="45.89238" lon="6.1891">
        <ele>1297</ele>
        <time>2015-05-22T15:21:13Z</time>
      </trkpt>
      <trkpt lat="45.89238" lon="6.1891">
        <ele>1297</ele>
        <time>2015-05-22T15:21:14Z</time>
      </trkpt>
      <trkpt lat="45.89238" lon="6.1891">
        <ele>1297</ele>
        <time>2015-05-22T15:21:15Z</time>
      </trkpt>
      <trkpt lat="45.89238" lon="6.1891">
        <ele>1297</ele>
        <time>2015-05-22T15:21:16Z</time>
      </trkpt>
      <trkpt lat="45.89238" lon="6.1891">
        <ele>1297</ele>
        <time>2015-05-22T15:21:18Z</time>
      </trkpt>
      <trkpt lat="45.89238" lon="6.1891">
        <ele>1297</ele>
        <time>2015-05-22T15:21:20Z</time>
      </trkpt>
      <trkpt lat="45.89238" lon="6.1891">
        <ele>1297</ele>
        <time>2015-05-22T15:21:22Z</time>
      </trkpt>
      <trkpt lat="45.89238" lon="6.1891">
        <ele>1297</ele>
        <time>2015-05-22T15:21:24Z</time>
      </trkpt>
      <trkpt lat="45.89238" lon="6.1891">
        <ele>1297</ele>
        <time>2015-05-22T15:21:26Z</time>
      </trkpt>
      <trkpt lat="45.89238" lon="6.1891">
        <ele>1297</ele>
        <time>2015-05-22T15:21:28Z</time>
      </trkpt>
      <trkpt lat="45.89238" lon="6.1891">
        <ele>1297</ele>
        <time>2015-05-22T15:21:30Z</time>
      </trkpt>
      <trkpt lat="45.89238" lon="6.1891">
        <ele>1297</ele>
        <time>2015-05-22T15:21:31Z</time>
      </trkpt>
      <trkpt lat="45.89238" lon="6.1891">
        <ele>1297</ele>
        <time>2015-05-22T15:21:32Z</time>
      </trkpt>
      <trkpt lat="45.89238" lon="6.1891">
        <ele>1297</ele>
        <time>2015-05-22T15:21:33Z</time>
      </trkpt>
      <trkpt lat="45.89238" lon="6.1891">
        <ele>1297</ele>
        <time>2015-05-22T15:21:34Z</time>
      </trkpt>
      <trkpt lat="45.89238" lon="6.1891">
        <ele>1297</ele>
        <time>2015-05-22T15:21:35Z</time>
      </trkpt>
      <trkpt lat="45.89238" lon="6.1891">
        <ele>1297</ele>
        <time>2015-05-22T15:21:37Z</time>
      </trkpt>
      <trkpt lat="45.89238" lon="6.1891">
        <ele>1297</ele>
        <time>2015-05-22T15:21:39Z</time>
      </trkpt>
      <trkpt lat="45.89238" lon="6.1891">
        <ele>1297</ele>
        <time>2015-05-22T15:21:41Z</time>
      </trkpt>
      <trkpt lat="45.89238" lon="6.1891">
        <ele>1297</ele>
        <time>2015-05-22T15:21:43Z</time>
      </trkpt>
      <trkpt lat="45.89238" lon="6.1891">
        <ele>1297</ele>
        <time>2015-05-22T15:21:45Z</time>
      </trkpt>
      <trkpt lat="45.89238" lon="6.1891">
        <ele>1297</ele>
        <time>2015-05-22T15:21:47Z</time>
      </trkpt>
      <trkpt lat="45.89238" lon="6.1891">
        <ele>1297</ele>
        <time>2015-05-22T15:21:49Z</time>
      </trkpt>
      <trkpt lat="45.89238" lon="6.1891">
        <ele>1297</ele>
        <time>2015-05-22T15:21:50Z</time>
      </trkpt>
      <trkpt lat="45.89238" lon="6.1891">
        <ele>1297</ele>
        <time>2015-05-22T15:21:51Z</time>
      </trkpt>
      <trkpt lat="45.89238" lon="6.1891">
        <ele>1297</ele>
        <time>2015-05-22T15:21:52Z</time>
      </trkpt>
      <trkpt lat="45.89238" lon="6.1891">
        <ele>1297</ele>
        <time>2015-05-22T15:21:53Z</time>
      </trkpt>
      <trkpt lat="45.89238" lon="6.1891">
        <ele>1297</ele>
        <time>2015-05-22T15:21:54Z</time>
      </trkpt>
      <trkpt lat="45.89238" lon="6.1891">
        <ele>1297</ele>
        <time>2015-05-22T15:21:55Z</time>
      </trkpt>
      <trkpt lat="45.89238" lon="6.1891">
        <ele>1297</ele>
        <time>2015-05-22T15:21:57Z</time>
      </trkpt>
      <trkpt lat="45.89238" lon="6.1891">
        <ele>1297</ele>
        <time>2015-05-22T15:21:59Z</time>
      </trkpt>
      <trkpt lat="45.89238" lon="6.1891">
        <ele>1297</ele>
        <time>2015-05-22T15:22:01Z</time>
      </trkpt>
      <trkpt lat="45.89238" lon="6.1891">
        <ele>1297</ele>
        <time>2015-05-22T15:22:03Z</time>
      </trkpt>
      <trkpt lat="45.89238" lon="6.1891">
        <ele>1297</ele>
        <time>2015-05-22T15:22:05Z</time>
      </trkpt>
      <trkpt lat="45.89238" lon="6.1891">
        <ele>1297</ele>
        <time>2015-05-22T15:22:06Z</time>
      </trkpt>
      <trkpt lat="45.89238" lon="6.1891">
        <ele>1297</ele>
        <time>2015-05-22T15:22:07Z</time>
      </trkpt>
      <trkpt lat="45.89238" lon="6.1891">
        <ele>1297</ele>
        <time>2015-05-22T15:22:08Z</time>
      </trkpt>
      <trkpt lat="45.89238" lon="6.1891">
        <ele>1297</ele>
        <time>2015-05-22T15:22:09Z</time>
      </trkpt>
      <trkpt lat="45.89238" lon="6.1891">
        <ele>1297</ele>
        <time>2015-05-22T15:22:10Z</time>
      </trkpt>
      <trkpt lat="45.89238" lon="6.1891">
        <ele>1297</ele>
        <time>2015-05-22T15:22:12Z</time>
      </trkpt>
      <trkpt lat="45.89238" lon="6.1891">
        <ele>1297</ele>
        <time>2015-05-22T15:22:14Z</time>
      </trkpt>
      <trkpt lat="45.89238" lon="6.1891">
        <ele>1297</ele>
        <time>2015-05-22T15:22:16Z</time>
      </trkpt>
      <trkpt lat="45.89238" lon="6.1891">
        <ele>1297</ele>
        <time>2015-05-22T15:22:18Z</time>
      </trkpt>
      <trkpt lat="45.89238" lon="6.1891">
        <ele>1297</ele>
        <time>2015-05-22T15:22:20Z</time>
      </trkpt>
      <trkpt lat="45.89238" lon="6.1891">
        <ele>1297</ele>
        <time>2015-05-22T15:22:22Z</time>
      </trkpt>
      <trkpt lat="45.89238" lon="6.1891">
        <ele>1297</ele>
        <time>2015-05-22T15:22:24Z</time>
      </trkpt>
      <trkpt lat="45.89238" lon="6.1891">
        <ele>1297</ele>
        <time>2015-05-22T15:22:25Z</time>
      </trkpt>
      <trkpt lat="45.89238" lon="6.1891">
        <ele>1297</ele>
        <time>2015-05-22T15:22:26Z</time>
      </trkpt>
      <trkpt lat="45.89237" lon="6.1891">
        <ele>1297</ele>
        <time>2015-05-22T15:22:27Z</time>
      </trkpt>
      <trkpt lat="45.89237" lon="6.1891">
        <ele>1297</ele>
        <time>2015-05-22T15:22:28Z</time>
      </trkpt>
      <trkpt lat="45.89237" lon="6.1891">
        <ele>1297</ele>
        <time>2015-05-22T15:22:29Z</time>
      </trkpt>
      <trkpt lat="45.89237" lon="6.1891">
        <ele>1297</ele>
        <time>2015-05-22T15:22:30Z</time>
      </trkpt>
      <trkpt lat="45.89237" lon="6.1891">
        <ele>1297</ele>
        <time>2015-05-22T15:22:32Z</time>
      </trkpt>
      <trkpt lat="45.89237" lon="6.1891">
        <ele>1297</ele>
        <time>2015-05-22T15:22:34Z</time>
      </trkpt>
      <trkpt lat="45.89237" lon="6.1891">
        <ele>1297</ele>
        <time>2015-05-22T15:22:36Z</time>
      </trkpt>
      <trkpt lat="45.89237" lon="6.1891">
        <ele>1297</ele>
        <time>2015-05-22T15:22:38Z</time>
      </trkpt>
      <trkpt lat="45.89237" lon="6.1891">
        <ele>1297</ele>
        <time>2015-05-22T15:22:40Z</time>
      </trkpt>
      <trkpt lat="45.89237" lon="6.1891">
        <ele>1297</ele>
        <time>2015-05-22T15:22:41Z</time>
      </trkpt>
      <trkpt lat="45.89237" lon="6.1891">
        <ele>1297</ele>
        <time>2015-05-22T15:22:42Z</time>
      </trkpt>
      <trkpt lat="45.89237" lon="6.1891">
        <ele>1297</ele>
        <time>2015-05-22T15:22:43Z</time>
      </trkpt>
      <trkpt lat="45.89237" lon="6.1891">
        <ele>1297</ele>
        <time>2015-05-22T15:22:45Z</time>
      </trkpt>
      <trkpt lat="45.89237" lon="6.1891">
        <ele>1297</ele>
        <time>2015-05-22T15:22:46Z</time>
      </trkpt>
      <trkpt lat="45.89237" lon="6.1891">
        <ele>1297</ele>
        <time>2015-05-22T15:22:47Z</time>
      </trkpt>
      <trkpt lat="45.89237" lon="6.1891">
        <ele>1297</ele>
        <time>2015-05-22T15:22:48Z</time>
      </trkpt>
      <trkpt lat="45.89237" lon="6.1891">
        <ele>1297</ele>
        <time>2015-05-22T15:22:49Z</time>
      </trkpt>
      <trkpt lat="45.89237" lon="6.1891">
        <ele>1297</ele>
        <time>2015-05-22T15:22:50Z</time>
      </trkpt>
      <trkpt lat="45.89237" lon="6.1891">
        <ele>1297</ele>
        <time>2015-05-22T15:22:52Z</time>
      </trkpt>
      <trkpt lat="45.89237" lon="6.1891">
        <ele>1297</ele>
        <time>2015-05-22T15:22:54Z</time>
      </trkpt>
      <trkpt lat="45.89237" lon="6.1891">
        <ele>1297</ele>
        <time>2015-05-22T15:22:56Z</time>
      </trkpt>
      <trkpt lat="45.89237" lon="6.1891">
        <ele>1297</ele>
        <time>2015-05-22T15:22:58Z</time>
      </trkpt>
      <trkpt lat="45.89237" lon="6.1891">
        <ele>1297</ele>
        <time>2015-05-22T15:23:00Z</time>
      </trkpt>
      <trkpt lat="45.89237" lon="6.1891">
        <ele>1297</ele>
        <time>2015-05-22T15:23:02Z</time>
      </trkpt>
      <trkpt lat="45.89237" lon="6.1891">
        <ele>1297</ele>
        <time>2015-05-22T15:23:04Z</time>
      </trkpt>
      <trkpt lat="45.89237" lon="6.1891">
        <ele>1297</ele>
        <time>2015-05-22T15:23:05Z</time>
      </trkpt>
      <trkpt lat="45.89237" lon="6.1891">
        <ele>1297</ele>
        <time>2015-05-22T15:23:06Z</time>
      </trkpt>
      <trkpt lat="45.89237" lon="6.1891">
        <ele>1297</ele>
        <time>2015-05-22T15:23:07Z</time>
      </trkpt>
      <trkpt lat="45.89237" lon="6.1891">
        <ele>1297</ele>
        <time>2015-05-22T15:23:08Z</time>
      </trkpt>
      <trkpt lat="45.89237" lon="6.1891">
        <ele>1297</ele>
        <time>2015-05-22T15:23:09Z</time>
      </trkpt>
      <trkpt lat="45.89237" lon="6.1891">
        <ele>1297</ele>
        <time>2015-05-22T15:23:10Z</time>
      </trkpt>
      <trkpt lat="45.89237" lon="6.1891">
        <ele>1297</ele>
        <time>2015-05-22T15:23:12Z</time>
      </trkpt>
      <trkpt lat="45.89237" lon="6.1891">
        <ele>1297</ele>
        <time>2015-05-22T15:23:14Z</time>
      </trkpt>
      <trkpt lat="45.89237" lon="6.1891">
        <ele>1297</ele>
        <time>2015-05-22T15:23:16Z</time>
      </trkpt>
      <trkpt lat="45.89237" lon="6.1891">
        <ele>1297</ele>
        <time>2015-05-22T15:23:18Z</time>
      </trkpt>
      <trkpt lat="45.89237" lon="6.1891">
        <ele>1297</ele>
        <time>2015-05-22T15:23:20Z</time>
      </trkpt>
      <trkpt lat="45.89237" lon="6.1891">
        <ele>1297</ele>
        <time>2015-05-22T15:23:22Z</time>
      </trkpt>
      <trkpt lat="45.89237" lon="6.1891">
        <ele>1297</ele>
        <time>2015-05-22T15:23:24Z</time>
      </trkpt>
      <trkpt lat="45.89237" lon="6.1891">
        <ele>1297</ele>
        <time>2015-05-22T15:23:25Z</time>
      </trkpt>
      <trkpt lat="45.89237" lon="6.1891">
        <ele>1297</ele>
        <time>2015-05-22T15:23:26Z</time>
      </trkpt>
      <trkpt lat="45.89237" lon="6.1891">
        <ele>1297</ele>
        <time>2015-05-22T15:23:27Z</time>
      </trkpt>
      <trkpt lat="45.89237" lon="6.1891">
        <ele>1297</ele>
        <time>2015-05-22T15:23:28Z</time>
      </trkpt>
      <trkpt lat="45.89237" lon="6.1891">
        <ele>1297</ele>
        <time>2015-05-22T15:23:29Z</time>
      </trkpt>
      <trkpt lat="45.89237" lon="6.1891">
        <ele>1297</ele>
        <time>2015-05-22T15:23:30Z</time>
      </trkpt>
      <trkpt lat="45.89237" lon="6.1891">
        <ele>1297</ele>
        <time>2015-05-22T15:23:32Z</time>
      </trkpt>
      <trkpt lat="45.89237" lon="6.1891">
        <ele>1297</ele>
        <time>2015-05-22T15:23:34Z</time>
      </trkpt>
      <trkpt lat="45.89237" lon="6.1891">
        <ele>1297</ele>
        <time>2015-05-22T15:23:36Z</time>
      </trkpt>
      <trkpt lat="45.89237" lon="6.1891">
        <ele>1297</ele>
        <time>2015-05-22T15:23:38Z</time>
      </trkpt>
      <trkpt lat="45.89237" lon="6.1891">
        <ele>1297</ele>
        <time>2015-05-22T15:23:40Z</time>
      </trkpt>
      <trkpt lat="45.89237" lon="6.1891">
        <ele>1297</ele>
        <time>2015-05-22T15:23:42Z</time>
      </trkpt>
      <trkpt lat="45.89237" lon="6.1891">
        <ele>1297</ele>
        <time>2015-05-22T15:23:44Z</time>
      </trkpt>
      <trkpt lat="45.89237" lon="6.1891">
        <ele>1297</ele>
        <time>2015-05-22T15:23:45Z</time>
      </trkpt>
      <trkpt lat="45.89237" lon="6.1891">
        <ele>1297</ele>
        <time>2015-05-22T15:23:46Z</time>
      </trkpt>
      <trkpt lat="45.89237" lon="6.1891">
        <ele>1297</ele>
        <time>2015-05-22T15:23:47Z</time>
      </trkpt>
      <trkpt lat="45.89237" lon="6.1891">
        <ele>1297</ele>
        <time>2015-05-22T15:23:48Z</time>
      </trkpt>
      <trkpt lat="45.89237" lon="6.1891">
        <ele>1297</ele>
        <time>2015-05-22T15:23:49Z</time>
      </trkpt>
      <trkpt lat="45.89237" lon="6.1891">
        <ele>1297</ele>
        <time>2015-05-22T15:23:50Z</time>
      </trkpt>
      <trkpt lat="45.89237" lon="6.1891">
        <ele>1297</ele>
        <time>2015-05-22T15:23:52Z</time>
      </trkpt>
      <trkpt lat="45.89237" lon="6.1891">
        <ele>1297</ele>
        <time>2015-05-22T15:23:54Z</time>
      </trkpt>
      <trkpt lat="45.89237" lon="6.1891">
        <ele>1297</ele>
        <time>2015-05-22T15:23:56Z</time>
      </trkpt>
      <trkpt lat="45.89237" lon="6.1891">
        <ele>1297</ele>
        <time>2015-05-22T15:23:58Z</time>
      </trkpt>
      <trkpt lat="45.89237" lon="6.1891">
        <ele>1297</ele>
        <time>2015-05-22T15:24:00Z</time>
      </trkpt>
      <trkpt lat="45.89237" lon="6.1891">
        <ele>1297</ele>
        <time>2015-05-22T15:24:01Z</time>
      </trkpt>
      <trkpt lat="45.89237" lon="6.1891">
        <ele>1297</ele>
        <time>2015-05-22T15:24:02Z</time>
      </trkpt>
      <trkpt lat="45.89237" lon="6.1891">
        <ele>1297</ele>
        <time>2015-05-22T15:24:03Z</time>
      </trkpt>
      <trkpt lat="45.89237" lon="6.1891">
        <ele>1297</ele>
        <time>2015-05-22T15:24:05Z</time>
      </trkpt>
      <trkpt lat="45.89237" lon="6.1891">
        <ele>1297</ele>
        <time>2015-05-22T15:24:06Z</time>
      </trkpt>
      <trkpt lat="45.89237" lon="6.1891">
        <ele>1297</ele>
        <time>2015-05-22T15:24:07Z</time>
      </trkpt>
      <trkpt lat="45.89237" lon="6.1891">
        <ele>1297</ele>
        <time>2015-05-22T15:24:08Z</time>
      </trkpt>
      <trkpt lat="45.89237" lon="6.1891">
        <ele>1297</ele>
        <time>2015-05-22T15:24:09Z</time>
      </trkpt>
      <trkpt lat="45.89237" lon="6.1891">
        <ele>1297</ele>
        <time>2015-05-22T15:24:10Z</time>
      </trkpt>
      <trkpt lat="45.89237" lon="6.1891">
        <ele>1297</ele>
        <time>2015-05-22T15:24:12Z</time>
      </trkpt>
      <trkpt lat="45.89237" lon="6.1891">
        <ele>1297</ele>
        <time>2015-05-22T15:24:14Z</time>
      </trkpt>
      <trkpt lat="45.89237" lon="6.1891">
        <ele>1297</ele>
        <time>2015-05-22T15:24:16Z</time>
      </trkpt>
      <trkpt lat="45.89237" lon="6.1891">
        <ele>1297</ele>
        <time>2015-05-22T15:24:18Z</time>
      </trkpt>
      <trkpt lat="45.89237" lon="6.1891">
        <ele>1297</ele>
        <time>2015-05-22T15:24:20Z</time>
      </trkpt>
      <trkpt lat="45.89237" lon="6.1891">
        <ele>1297</ele>
        <time>2015-05-22T15:24:22Z</time>
      </trkpt>
      <trkpt lat="45.89237" lon="6.1891">
        <ele>1297</ele>
        <time>2015-05-22T15:24:24Z</time>
      </trkpt>
      <trkpt lat="45.89237" lon="6.1891">
        <ele>1297</ele>
        <time>2015-05-22T15:24:25Z</time>
      </trkpt>
      <trkpt lat="45.89237" lon="6.1891">
        <ele>1297</ele>
        <time>2015-05-22T15:24:26Z</time>
      </trkpt>
      <trkpt lat="45.89237" lon="6.1891">
        <ele>1297</ele>
        <time>2015-05-22T15:24:27Z</time>
      </trkpt>
      <trkpt lat="45.89237" lon="6.1891">
        <ele>1297</ele>
        <time>2015-05-22T15:24:28Z</time>
      </trkpt>
      <trkpt lat="45.89237" lon="6.1891">
        <ele>1297</ele>
        <time>2015-05-22T15:24:29Z</time>
      </trkpt>
      <trkpt lat="45.89237" lon="6.1891">
        <ele>1297</ele>
        <time>2015-05-22T15:24:30Z</time>
      </trkpt>
      <trkpt lat="45.89237" lon="6.1891">
        <ele>1297</ele>
        <time>2015-05-22T15:24:32Z</time>
      </trkpt>
      <trkpt lat="45.89237" lon="6.1891">
        <ele>1297</ele>
        <time>2015-05-22T15:24:33Z</time>
      </trkpt>
      <trkpt lat="45.89237" lon="6.1891">
        <ele>1297</ele>
        <time>2015-05-22T15:24:34Z</time>
      </trkpt>
      <trkpt lat="45.89237" lon="6.1891">
        <ele>1297</ele>
        <time>2015-05-22T15:24:36Z</time>
      </trkpt>
      <trkpt lat="45.89237" lon="6.1891">
        <ele>1297</ele>
        <time>2015-05-22T15:24:38Z</time>
      </trkpt>
      <trkpt lat="45.89237" lon="6.1891">
        <ele>1297</ele>
        <time>2015-05-22T15:24:40Z</time>
      </trkpt>
      <trkpt lat="45.89237" lon="6.1891">
        <ele>1297</ele>
        <time>2015-05-22T15:24:41Z</time>
      </trkpt>
      <trkpt lat="45.89237" lon="6.1891">
        <ele>1297</ele>
        <time>2015-05-22T15:24:42Z</time>
      </trkpt>
      <trkpt lat="45.89237" lon="6.1891">
        <ele>1297</ele>
        <time>2015-05-22T15:24:43Z</time>
      </trkpt>
      <trkpt lat="45.89237" lon="6.1891">
        <ele>1297</ele>
        <time>2015-05-22T15:24:44Z</time>
      </trkpt>
      <trkpt lat="45.89237" lon="6.1891">
        <ele>1297</ele>
        <time>2015-05-22T15:24:45Z</time>
      </trkpt>
      <trkpt lat="45.89237" lon="6.1891">
        <ele>1297</ele>
        <time>2015-05-22T15:24:47Z</time>
      </trkpt>
      <trkpt lat="45.89237" lon="6.1891">
        <ele>1297</ele>
        <time>2015-05-22T15:24:49Z</time>
      </trkpt>
      <trkpt lat="45.89237" lon="6.1891">
        <ele>1297</ele>
        <time>2015-05-22T15:24:51Z</time>
      </trkpt>
      <trkpt lat="45.89237" lon="6.1891">
        <ele>1297</ele>
        <time>2015-05-22T15:24:53Z</time>
      </trkpt>
      <trkpt lat="45.89237" lon="6.1891">
        <ele>1297</ele>
        <time>2015-05-22T15:24:55Z</time>
      </trkpt>
      <trkpt lat="45.89237" lon="6.1891">
        <ele>1297</ele>
        <time>2015-05-22T15:24:56Z</time>
      </trkpt>
      <trkpt lat="45.89237" lon="6.1891">
        <ele>1297</ele>
        <time>2015-05-22T15:24:57Z</time>
      </trkpt>
      <trkpt lat="45.89237" lon="6.1891">
        <ele>1297</ele>
        <time>2015-05-22T15:24:59Z</time>
      </trkpt>
      <trkpt lat="45.89237" lon="6.1891">
        <ele>1297</ele>
        <time>2015-05-22T15:25:00Z</time>
      </trkpt>
      <trkpt lat="45.89237" lon="6.1891">
        <ele>1297</ele>
        <time>2015-05-22T15:25:01Z</time>
      </trkpt>
      <trkpt lat="45.89237" lon="6.1891">
        <ele>1297</ele>
        <time>2015-05-22T15:25:02Z</time>
      </trkpt>
      <trkpt lat="45.89237" lon="6.1891">
        <ele>1297</ele>
        <time>2015-05-22T15:25:03Z</time>
      </trkpt>
      <trkpt lat="45.89237" lon="6.1891">
        <ele>1297</ele>
        <time>2015-05-22T15:25:04Z</time>
      </trkpt>
      <trkpt lat="45.89237" lon="6.1891">
        <ele>1297</ele>
        <time>2015-05-22T15:25:05Z</time>
      </trkpt>
      <trkpt lat="45.89237" lon="6.1891">
        <ele>1297</ele>
        <time>2015-05-22T15:25:07Z</time>
      </trkpt>
      <trkpt lat="45.89237" lon="6.1891">
        <ele>1297</ele>
        <time>2015-05-22T15:25:09Z</time>
      </trkpt>
      <trkpt lat="45.89237" lon="6.1891">
        <ele>1297</ele>
        <time>2015-05-22T15:25:11Z</time>
      </trkpt>
      <trkpt lat="45.89237" lon="6.1891">
        <ele>1297</ele>
        <time>2015-05-22T15:25:13Z</time>
      </trkpt>
      <trkpt lat="45.89237" lon="6.1891">
        <ele>1297</ele>
        <time>2015-05-22T15:25:15Z</time>
      </trkpt>
      <trkpt lat="45.89237" lon="6.1891">
        <ele>1297</ele>
        <time>2015-05-22T15:25:17Z</time>
      </trkpt>
      <trkpt lat="45.89237" lon="6.1891">
        <ele>1297</ele>
        <time>2015-05-22T15:25:19Z</time>
      </trkpt>
      <trkpt lat="45.89237" lon="6.1891">
        <ele>1297</ele>
        <time>2015-05-22T15:25:20Z</time>
      </trkpt>
      <trkpt lat="45.89237" lon="6.1891">
        <ele>1297</ele>
        <time>2015-05-22T15:25:21Z</time>
      </trkpt>
      <trkpt lat="45.89237" lon="6.1891">
        <ele>1297</ele>
        <time>2015-05-22T15:25:22Z</time>
      </trkpt>
      <trkpt lat="45.89237" lon="6.1891">
        <ele>1297</ele>
        <time>2015-05-22T15:25:23Z</time>
      </trkpt>
      <trkpt lat="45.89237" lon="6.1891">
        <ele>1297</ele>
        <time>2015-05-22T15:25:24Z</time>
      </trkpt>
      <trkpt lat="45.89237" lon="6.1891">
        <ele>1297</ele>
        <time>2015-05-22T15:25:26Z</time>
      </trkpt>
      <trkpt lat="45.89237" lon="6.1891">
        <ele>1297</ele>
        <time>2015-05-22T15:25:28Z</time>
      </trkpt>
      <trkpt lat="45.89237" lon="6.1891">
        <ele>1297</ele>
        <time>2015-05-22T15:25:30Z</time>
      </trkpt>
      <trkpt lat="45.89237" lon="6.1891">
        <ele>1297</ele>
        <time>2015-05-22T15:25:32Z</time>
      </trkpt>
      <trkpt lat="45.89237" lon="6.1891">
        <ele>1297</ele>
        <time>2015-05-22T15:25:34Z</time>
      </trkpt>
      <trkpt lat="45.89237" lon="6.1891">
        <ele>1297</ele>
        <time>2015-05-22T15:25:36Z</time>
      </trkpt>
      <trkpt lat="45.89237" lon="6.1891">
        <ele>1297</ele>
        <time>2015-05-22T15:25:37Z</time>
      </trkpt>
      <trkpt lat="45.89237" lon="6.1891">
        <ele>1297</ele>
        <time>2015-05-22T15:25:38Z</time>
      </trkpt>
      <trkpt lat="45.89237" lon="6.1891">
        <ele>1297</ele>
        <time>2015-05-22T15:25:39Z</time>
      </trkpt>
      <trkpt lat="45.89237" lon="6.1891">
        <ele>1297</ele>
        <time>2015-05-22T15:25:40Z</time>
      </trkpt>
      <trkpt lat="45.89237" lon="6.1891">
        <ele>1297</ele>
        <time>2015-05-22T15:25:41Z</time>
      </trkpt>
      <trkpt lat="45.89237" lon="6.1891">
        <ele>1297</ele>
        <time>2015-05-22T15:25:42Z</time>
      </trkpt>
      <trkpt lat="45.89237" lon="6.1891">
        <ele>1297</ele>
        <time>2015-05-22T15:25:43Z</time>
      </trkpt>
      <trkpt lat="45.89237" lon="6.1891">
        <ele>1297</ele>
        <time>2015-05-22T15:25:44Z</time>
      </trkpt>
      <trkpt lat="45.89237" lon="6.1891">
        <ele>1297</ele>
        <time>2015-05-22T15:25:45Z</time>
      </trkpt>
      <trkpt lat="45.89237" lon="6.1891">
        <ele>1297</ele>
        <time>2015-05-22T15:25:47Z</time>
      </trkpt>
      <trkpt lat="45.89237" lon="6.1891">
        <ele>1297</ele>
        <time>2015-05-22T15:25:49Z</time>
      </trkpt>
      <trkpt lat="45.89237" lon="6.1891">
        <ele>1297</ele>
        <time>2015-05-22T15:25:51Z</time>
      </trkpt>
      <trkpt lat="45.89237" lon="6.1891">
        <ele>1297</ele>
        <time>2015-05-22T15:25:53Z</time>
      </trkpt>
      <trkpt lat="45.89237" lon="6.1891">
        <ele>1297</ele>
        <time>2015-05-22T15:25:55Z</time>
      </trkpt>
      <trkpt lat="45.89237" lon="6.1891">
        <ele>1297</ele>
        <time>2015-05-22T15:25:57Z</time>
      </trkpt>
      <trkpt lat="45.89237" lon="6.1891">
        <ele>1297</ele>
        <time>2015-05-22T15:25:59Z</time>
      </trkpt>
      <trkpt lat="45.89237" lon="6.1891">
        <ele>1297</ele>
        <time>2015-05-22T15:26:00Z</time>
      </trkpt>
      <trkpt lat="45.89237" lon="6.1891">
        <ele>1297</ele>
        <time>2015-05-22T15:26:01Z</time>
      </trkpt>
      <trkpt lat="45.89237" lon="6.1891">
        <ele>1297</ele>
        <time>2015-05-22T15:26:02Z</time>
      </trkpt>
      <trkpt lat="45.89237" lon="6.1891">
        <ele>1297</ele>
        <time>2015-05-22T15:26:03Z</time>
      </trkpt>
      <trkpt lat="45.89237" lon="6.1891">
        <ele>1297</ele>
        <time>2015-05-22T15:26:04Z</time>
      </trkpt>
      <trkpt lat="45.89237" lon="6.1891">
        <ele>1297</ele>
        <time>2015-05-22T15:26:05Z</time>
      </trkpt>
      <trkpt lat="45.89237" lon="6.1891">
        <ele>1297</ele>
        <time>2015-05-22T15:26:08Z</time>
      </trkpt>
      <trkpt lat="45.89237" lon="6.1891">
        <ele>1297</ele>
        <time>2015-05-22T15:26:10Z</time>
      </trkpt>
      <trkpt lat="45.89237" lon="6.1891">
        <ele>1297</ele>
        <time>2015-05-22T15:26:12Z</time>
      </trkpt>
      <trkpt lat="45.89237" lon="6.1891">
        <ele>1297</ele>
        <time>2015-05-22T15:26:14Z</time>
      </trkpt>
      <trkpt lat="45.89237" lon="6.1891">
        <ele>1297</ele>
        <time>2015-05-22T15:26:16Z</time>
      </trkpt>
      <trkpt lat="45.89237" lon="6.1891">
        <ele>1297</ele>
        <time>2015-05-22T15:26:17Z</time>
      </trkpt>
      <trkpt lat="45.89237" lon="6.1891">
        <ele>1297</ele>
        <time>2015-05-22T15:26:18Z</time>
      </trkpt>
      <trkpt lat="45.89237" lon="6.1891">
        <ele>1297</ele>
        <time>2015-05-22T15:26:19Z</time>
      </trkpt>
      <trkpt lat="45.89237" lon="6.1891">
        <ele>1297</ele>
        <time>2015-05-22T15:26:20Z</time>
      </trkpt>
      <trkpt lat="45.89237" lon="6.1891">
        <ele>1297</ele>
        <time>2015-05-22T15:26:21Z</time>
      </trkpt>
      <trkpt lat="45.89237" lon="6.1891">
        <ele>1297</ele>
        <time>2015-05-22T15:26:22Z</time>
      </trkpt>
      <trkpt lat="45.89237" lon="6.1891">
        <ele>1297</ele>
        <time>2015-05-22T15:26:23Z</time>
      </trkpt>
      <trkpt lat="45.89237" lon="6.1891">
        <ele>1297</ele>
        <time>2015-05-22T15:26:24Z</time>
      </trkpt>
      <trkpt lat="45.89237" lon="6.1891">
        <ele>1297</ele>
        <time>2015-05-22T15:26:25Z</time>
      </trkpt>
      <trkpt lat="45.89237" lon="6.1891">
        <ele>1297</ele>
        <time>2015-05-22T15:26:26Z</time>
      </trkpt>
      <trkpt lat="45.89237" lon="6.1891">
        <ele>1297</ele>
        <time>2015-05-22T15:26:28Z</time>
      </trkpt>
      <trkpt lat="45.89237" lon="6.1891">
        <ele>1297</ele>
        <time>2015-05-22T15:26:30Z</time>
      </trkpt>
      <trkpt lat="45.89237" lon="6.1891">
        <ele>1297</ele>
        <time>2015-05-22T15:26:32Z</time>
      </trkpt>
      <trkpt lat="45.89237" lon="6.1891">
        <ele>1297</ele>
        <time>2015-05-22T15:26:34Z</time>
      </trkpt>
      <trkpt lat="45.89237" lon="6.1891">
        <ele>1297</ele>
        <time>2015-05-22T15:26:36Z</time>
      </trkpt>
      <trkpt lat="45.89237" lon="6.1891">
        <ele>1297</ele>
        <time>2015-05-22T15:26:38Z</time>
      </trkpt>
      <trkpt lat="45.89237" lon="6.1891">
        <ele>1297</ele>
        <time>2015-05-22T15:26:40Z</time>
      </trkpt>
      <trkpt lat="45.89237" lon="6.1891">
        <ele>1297</ele>
        <time>2015-05-22T15:26:41Z</time>
      </trkpt>
      <trkpt lat="45.89237" lon="6.1891">
        <ele>1297</ele>
        <time>2015-05-22T15:26:42Z</time>
      </trkpt>
      <trkpt lat="45.89237" lon="6.1891">
        <ele>1297</ele>
        <time>2015-05-22T15:26:43Z</time>
      </trkpt>
      <trkpt lat="45.89237" lon="6.1891">
        <ele>1297</ele>
        <time>2015-05-22T15:26:44Z</time>
      </trkpt>
      <trkpt lat="45.89237" lon="6.1891">
        <ele>1297</ele>
        <time>2015-05-22T15:26:45Z</time>
      </trkpt>
      <trkpt lat="45.89237" lon="6.1891">
        <ele>1297</ele>
        <time>2015-05-22T15:26:47Z</time>
      </trkpt>
      <trkpt lat="45.89237" lon="6.1891">
        <ele>1297</ele>
        <time>2015-05-22T15:26:49Z</time>
      </trkpt>
      <trkpt lat="45.89237" lon="6.1891">
        <ele>1297</ele>
        <time>2015-05-22T15:26:51Z</time>
      </trkpt>
      <trkpt lat="45.89237" lon="6.1891">
        <ele>1297</ele>
        <time>2015-05-22T15:26:53Z</time>
      </trkpt>
      <trkpt lat="45.89237" lon="6.1891">
        <ele>1297</ele>
        <time>2015-05-22T15:26:55Z</time>
      </trkpt>
      <trkpt lat="45.89237" lon="6.1891">
        <ele>1297</ele>
        <time>2015-05-22T15:26:57Z</time>
      </trkpt>
      <trkpt lat="45.89237" lon="6.1891">
        <ele>1297</ele>
        <time>2015-05-22T15:26:59Z</time>
      </trkpt>
      <trkpt lat="45.89237" lon="6.1891">
        <ele>1297</ele>
        <time>2015-05-22T15:27:00Z</time>
      </trkpt>
      <trkpt lat="45.89237" lon="6.1891">
        <ele>1297</ele>
        <time>2015-05-22T15:27:01Z</time>
      </trkpt>
      <trkpt lat="45.89237" lon="6.1891">
        <ele>1297</ele>
        <time>2015-05-22T15:27:02Z</time>
      </trkpt>
      <trkpt lat="45.89237" lon="6.1891">
        <ele>1297</ele>
        <time>2015-05-22T15:27:03Z</time>
      </trkpt>
      <trkpt lat="45.89237" lon="6.1891">
        <ele>1297</ele>
        <time>2015-05-22T15:27:04Z</time>
      </trkpt>
      <trkpt lat="45.89237" lon="6.1891">
        <ele>1297</ele>
        <time>2015-05-22T15:27:05Z</time>
      </trkpt>
      <trkpt lat="45.89237" lon="6.1891">
        <ele>1297</ele>
        <time>2015-05-22T15:27:08Z</time>
      </trkpt>
      <trkpt lat="45.89237" lon="6.1891">
        <ele>1297</ele>
        <time>2015-05-22T15:27:10Z</time>
      </trkpt>
      <trkpt lat="45.89237" lon="6.1891">
        <ele>1297</ele>
        <time>2015-05-22T15:27:12Z</time>
      </trkpt>
      <trkpt lat="45.89237" lon="6.1891">
        <ele>1297</ele>
        <time>2015-05-22T15:27:13Z</time>
      </trkpt>
      <trkpt lat="45.89237" lon="6.1891">
        <ele>1297</ele>
        <time>2015-05-22T15:27:16Z</time>
      </trkpt>
      <trkpt lat="45.89237" lon="6.1891">
        <ele>1297</ele>
        <time>2015-05-22T15:27:17Z</time>
      </trkpt>
      <trkpt lat="45.89237" lon="6.1891">
        <ele>1297</ele>
        <time>2015-05-22T15:27:18Z</time>
      </trkpt>
      <trkpt lat="45.89237" lon="6.1891">
        <ele>1297</ele>
        <time>2015-05-22T15:27:19Z</time>
      </trkpt>
      <trkpt lat="45.89237" lon="6.1891">
        <ele>1297</ele>
        <time>2015-05-22T15:27:20Z</time>
      </trkpt>
      <trkpt lat="45.89237" lon="6.1891">
        <ele>1297</ele>
        <time>2015-05-22T15:27:23Z</time>
      </trkpt>
      <trkpt lat="45.89237" lon="6.1891">
        <ele>1297</ele>
        <time>2015-05-22T15:27:25Z</time>
      </trkpt>
      <trkpt lat="45.89237" lon="6.1891">
        <ele>1297</ele>
        <time>2015-05-22T15:27:27Z</time>
      </trkpt>
      <trkpt lat="45.89237" lon="6.1891">
        <ele>1297</ele>
        <time>2015-05-22T15:27:28Z</time>
      </trkpt>
      <trkpt lat="45.89237" lon="6.1891">
        <ele>1297</ele>
        <time>2015-05-22T15:27:29Z</time>
      </trkpt>
      <trkpt lat="45.89237" lon="6.1891">
        <ele>1297</ele>
        <time>2015-05-22T15:27:31Z</time>
      </trkpt>
      <trkpt lat="45.89237" lon="6.1891">
        <ele>1297</ele>
        <time>2015-05-22T15:27:32Z</time>
      </trkpt>
      <trkpt lat="45.89237" lon="6.1891">
        <ele>1297</ele>
        <time>2015-05-22T15:27:33Z</time>
      </trkpt>
      <trkpt lat="45.89237" lon="6.1891">
        <ele>1297</ele>
        <time>2015-05-22T15:27:34Z</time>
      </trkpt>
      <trkpt lat="45.89237" lon="6.1891">
        <ele>1297</ele>
        <time>2015-05-22T15:27:35Z</time>
      </trkpt>
      <trkpt lat="45.89237" lon="6.1891">
        <ele>1297</ele>
        <time>2015-05-22T15:27:36Z</time>
      </trkpt>
      <trkpt lat="45.89237" lon="6.1891">
        <ele>1297</ele>
        <time>2015-05-22T15:27:37Z</time>
      </trkpt>
      <trkpt lat="45.89237" lon="6.1891">
        <ele>1297</ele>
        <time>2015-05-22T15:27:38Z</time>
      </trkpt>
      <trkpt lat="45.89237" lon="6.1891">
        <ele>1297</ele>
        <time>2015-05-22T15:27:39Z</time>
      </trkpt>
      <trkpt lat="45.89237" lon="6.1891">
        <ele>1297</ele>
        <time>2015-05-22T15:27:40Z</time>
      </trkpt>
      <trkpt lat="45.89237" lon="6.1891">
        <ele>1297</ele>
        <time>2015-05-22T15:27:42Z</time>
      </trkpt>
      <trkpt lat="45.89237" lon="6.1891">
        <ele>1297</ele>
        <time>2015-05-22T15:27:44Z</time>
      </trkpt>
      <trkpt lat="45.89237" lon="6.1891">
        <ele>1297</ele>
        <time>2015-05-22T15:27:45Z</time>
      </trkpt>
      <trkpt lat="45.89237" lon="6.1891">
        <ele>1297</ele>
        <time>2015-05-22T15:27:46Z</time>
      </trkpt>
      <trkpt lat="45.89237" lon="6.1891">
        <ele>1297</ele>
        <time>2015-05-22T15:27:47Z</time>
      </trkpt>
      <trkpt lat="45.89237" lon="6.1891">
        <ele>1297</ele>
        <time>2015-05-22T15:27:49Z</time>
      </trkpt>
      <trkpt lat="45.89237" lon="6.1891">
        <ele>1297</ele>
        <time>2015-05-22T15:27:51Z</time>
      </trkpt>
      <trkpt lat="45.89237" lon="6.1891">
        <ele>1297</ele>
        <time>2015-05-22T15:27:53Z</time>
      </trkpt>
      <trkpt lat="45.89237" lon="6.1891">
        <ele>1297</ele>
        <time>2015-05-22T15:27:54Z</time>
      </trkpt>
      <trkpt lat="45.89237" lon="6.1891">
        <ele>1297</ele>
        <time>2015-05-22T15:27:55Z</time>
      </trkpt>
      <trkpt lat="45.89237" lon="6.1891">
        <ele>1297</ele>
        <time>2015-05-22T15:27:56Z</time>
      </trkpt>
      <trkpt lat="45.89237" lon="6.1891">
        <ele>1297</ele>
        <time>2015-05-22T15:27:57Z</time>
      </trkpt>
      <trkpt lat="45.89237" lon="6.1891">
        <ele>1297</ele>
        <time>2015-05-22T15:27:58Z</time>
      </trkpt>
      <trkpt lat="45.89237" lon="6.1891">
        <ele>1297</ele>
        <time>2015-05-22T15:27:59Z</time>
      </trkpt>
      <trkpt lat="45.89237" lon="6.1891">
        <ele>1297</ele>
        <time>2015-05-22T15:28:00Z</time>
      </trkpt>
      <trkpt lat="45.89237" lon="6.1891">
        <ele>1297</ele>
        <time>2015-05-22T15:28:02Z</time>
      </trkpt>
      <trkpt lat="45.89237" lon="6.1891">
        <ele>1297</ele>
        <time>2015-05-22T15:28:04Z</time>
      </trkpt>
      <trkpt lat="45.89237" lon="6.1891">
        <ele>1297</ele>
        <time>2015-05-22T15:28:06Z</time>
      </trkpt>
      <trkpt lat="45.89237" lon="6.1891">
        <ele>1297</ele>
        <time>2015-05-22T15:28:08Z</time>
      </trkpt>
      <trkpt lat="45.89237" lon="6.1891">
        <ele>1297</ele>
        <time>2015-05-22T15:28:10Z</time>
      </trkpt>
      <trkpt lat="45.89237" lon="6.1891">
        <ele>1297</ele>
        <time>2015-05-22T15:28:12Z</time>
      </trkpt>
      <trkpt lat="45.89237" lon="6.1891">
        <ele>1297</ele>
        <time>2015-05-22T15:28:14Z</time>
      </trkpt>
      <trkpt lat="45.89237" lon="6.1891">
        <ele>1297</ele>
        <time>2015-05-22T15:28:15Z</time>
      </trkpt>
      <trkpt lat="45.89237" lon="6.1891">
        <ele>1297</ele>
        <time>2015-05-22T15:28:16Z</time>
      </trkpt>
      <trkpt lat="45.89237" lon="6.1891">
        <ele>1297</ele>
        <time>2015-05-22T15:28:17Z</time>
      </trkpt>
      <trkpt lat="45.89237" lon="6.1891">
        <ele>1297</ele>
        <time>2015-05-22T15:28:18Z</time>
      </trkpt>
      <trkpt lat="45.89237" lon="6.1891">
        <ele>1297</ele>
        <time>2015-05-22T15:28:19Z</time>
      </trkpt>
      <trkpt lat="45.89237" lon="6.1891">
        <ele>1297</ele>
        <time>2015-05-22T15:28:20Z</time>
      </trkpt>
      <trkpt lat="45.89237" lon="6.1891">
        <ele>1297</ele>
        <time>2015-05-22T15:28:22Z</time>
      </trkpt>
      <trkpt lat="45.89237" lon="6.1891">
        <ele>1297</ele>
        <time>2015-05-22T15:28:24Z</time>
      </trkpt>
      <trkpt lat="45.89237" lon="6.1891">
        <ele>1297</ele>
        <time>2015-05-22T15:28:26Z</time>
      </trkpt>
      <trkpt lat="45.89237" lon="6.1891">
        <ele>1297</ele>
        <time>2015-05-22T15:28:28Z</time>
      </trkpt>
      <trkpt lat="45.89237" lon="6.1891">
        <ele>1297</ele>
        <time>2015-05-22T15:28:30Z</time>
      </trkpt>
      <trkpt lat="45.89237" lon="6.1891">
        <ele>1297</ele>
        <time>2015-05-22T15:28:32Z</time>
      </trkpt>
      <trkpt lat="45.89237" lon="6.1891">
        <ele>1297</ele>
        <time>2015-05-22T15:28:34Z</time>
      </trkpt>
      <trkpt lat="45.89237" lon="6.1891">
        <ele>1297</ele>
        <time>2015-05-22T15:28:35Z</time>
      </trkpt>
      <trkpt lat="45.89237" lon="6.1891">
        <ele>1297</ele>
        <time>2015-05-22T15:28:36Z</time>
      </trkpt>
      <trkpt lat="45.89237" lon="6.1891">
        <ele>1297</ele>
        <time>2015-05-22T15:28:37Z</time>
      </trkpt>
      <trkpt lat="45.89237" lon="6.1891">
        <ele>1297</ele>
        <time>2015-05-22T15:28:38Z</time>
      </trkpt>
      <trkpt lat="45.89237" lon="6.1891">
        <ele>1297</ele>
        <time>2015-05-22T15:28:39Z</time>
      </trkpt>
      <trkpt lat="45.89237" lon="6.1891">
        <ele>1297</ele>
        <time>2015-05-22T15:28:40Z</time>
      </trkpt>
      <trkpt lat="45.89237" lon="6.1891">
        <ele>1297</ele>
        <time>2015-05-22T15:28:42Z</time>
      </trkpt>
      <trkpt lat="45.89236" lon="6.18912">
        <ele>1296</ele>
        <time>2015-05-22T15:28:44Z</time>
      </trkpt>
      <trkpt lat="45.89235" lon="6.18914">
        <ele>1296</ele>
        <time>2015-05-22T15:28:46Z</time>
      </trkpt>
      <trkpt lat="45.89232" lon="6.18914">
        <ele>1296</ele>
        <time>2015-05-22T15:28:48Z</time>
      </trkpt>
      <trkpt lat="45.8923" lon="6.18915">
        <ele>1297</ele>
        <time>2015-05-22T15:28:50Z</time>
      </trkpt>
      <trkpt lat="45.89229" lon="6.18915">
        <ele>1297</ele>
        <time>2015-05-22T15:28:52Z</time>
      </trkpt>
      <trkpt lat="45.89227" lon="6.18916">
        <ele>1298</ele>
        <time>2015-05-22T15:28:54Z</time>
      </trkpt>
      <trkpt lat="45.89226" lon="6.18916">
        <ele>1298</ele>
        <time>2015-05-22T15:28:55Z</time>
      </trkpt>
      <trkpt lat="45.89225" lon="6.18916">
        <ele>1298</ele>
        <time>2015-05-22T15:28:56Z</time>
      </trkpt>
      <trkpt lat="45.89225" lon="6.18916">
        <ele>1298</ele>
        <time>2015-05-22T15:28:57Z</time>
      </trkpt>
      <trkpt lat="45.89224" lon="6.18916">
        <ele>1298</ele>
        <time>2015-05-22T15:28:58Z</time>
      </trkpt>
      <trkpt lat="45.89224" lon="6.18916">
        <ele>1299</ele>
        <time>2015-05-22T15:28:59Z</time>
      </trkpt>
      <trkpt lat="45.89224" lon="6.18916">
        <ele>1299</ele>
        <time>2015-05-22T15:29:00Z</time>
      </trkpt>
      <trkpt lat="45.89224" lon="6.18917">
        <ele>1300</ele>
        <time>2015-05-22T15:29:02Z</time>
      </trkpt>
      <trkpt lat="45.89224" lon="6.18917">
        <ele>1300</ele>
        <time>2015-05-22T15:29:03Z</time>
      </trkpt>
      <trkpt lat="45.89224" lon="6.18917">
        <ele>1300</ele>
        <time>2015-05-22T15:29:05Z</time>
      </trkpt>
      <trkpt lat="45.89223" lon="6.18917">
        <ele>1301</ele>
        <time>2015-05-22T15:29:07Z</time>
      </trkpt>
      <trkpt lat="45.89223" lon="6.18917">
        <ele>1301</ele>
        <time>2015-05-22T15:29:09Z</time>
      </trkpt>
      <trkpt lat="45.89222" lon="6.18917">
        <ele>1302</ele>
        <time>2015-05-22T15:29:11Z</time>
      </trkpt>
      <trkpt lat="45.89221" lon="6.18917">
        <ele>1302</ele>
        <time>2015-05-22T15:29:12Z</time>
      </trkpt>
      <trkpt lat="45.8922" lon="6.18919">
        <ele>1303</ele>
        <time>2015-05-22T15:29:13Z</time>
      </trkpt>
      <trkpt lat="45.89219" lon="6.18919">
        <ele>1303</ele>
        <time>2015-05-22T15:29:14Z</time>
      </trkpt>
      <trkpt lat="45.89219" lon="6.18919">
        <ele>1303</ele>
        <time>2015-05-22T15:29:15Z</time>
      </trkpt>
      <trkpt lat="45.89219" lon="6.18919">
        <ele>1303</ele>
        <time>2015-05-22T15:29:16Z</time>
      </trkpt>
      <trkpt lat="45.89218" lon="6.18921">
        <ele>1303</ele>
        <time>2015-05-22T15:29:17Z</time>
      </trkpt>
      <trkpt lat="45.89217" lon="6.18921">
        <ele>1304</ele>
        <time>2015-05-22T15:29:18Z</time>
      </trkpt>
      <trkpt lat="45.89217" lon="6.18924">
        <ele>1305</ele>
        <time>2015-05-22T15:29:19Z</time>
      </trkpt>
      <trkpt lat="45.89216" lon="6.18924">
        <ele>1305</ele>
        <time>2015-05-22T15:29:20Z</time>
      </trkpt>
      <trkpt lat="45.89214" lon="6.18925">
        <ele>1305</ele>
        <time>2015-05-22T15:29:22Z</time>
      </trkpt>
      <trkpt lat="45.89211" lon="6.18927">
        <ele>1305</ele>
        <time>2015-05-22T15:29:24Z</time>
      </trkpt>
      <trkpt lat="45.89209" lon="6.18929">
        <ele>1305</ele>
        <time>2015-05-22T15:29:26Z</time>
      </trkpt>
      <trkpt lat="45.89208" lon="6.18931">
        <ele>1305</ele>
        <time>2015-05-22T15:29:28Z</time>
      </trkpt>
      <trkpt lat="45.89207" lon="6.18931">
        <ele>1306</ele>
        <time>2015-05-22T15:29:30Z</time>
      </trkpt>
      <trkpt lat="45.89206" lon="6.18929">
        <ele>1305</ele>
        <time>2015-05-22T15:29:32Z</time>
      </trkpt>
      <trkpt lat="45.89205" lon="6.18927">
        <ele>1305</ele>
        <time>2015-05-22T15:29:34Z</time>
      </trkpt>
      <trkpt lat="45.89205" lon="6.18926">
        <ele>1305</ele>
        <time>2015-05-22T15:29:35Z</time>
      </trkpt>
      <trkpt lat="45.89204" lon="6.18924">
        <ele>1305</ele>
        <time>2015-05-22T15:29:36Z</time>
      </trkpt>
      <trkpt lat="45.89204" lon="6.18923">
        <ele>1305</ele>
        <time>2015-05-22T15:29:37Z</time>
      </trkpt>
      <trkpt lat="45.89204" lon="6.18922">
        <ele>1304</ele>
        <time>2015-05-22T15:29:38Z</time>
      </trkpt>
      <trkpt lat="45.89204" lon="6.1892">
        <ele>1304</ele>
        <time>2015-05-22T15:29:39Z</time>
      </trkpt>
      <trkpt lat="45.89204" lon="6.18918">
        <ele>1303</ele>
        <time>2015-05-22T15:29:41Z</time>
      </trkpt>
      <trkpt lat="45.89204" lon="6.18916">
        <ele>1303</ele>
        <time>2015-05-22T15:29:43Z</time>
      </trkpt>
      <trkpt lat="45.89204" lon="6.18915">
        <ele>1303</ele>
        <time>2015-05-22T15:29:45Z</time>
      </trkpt>
      <trkpt lat="45.89204" lon="6.18915">
        <ele>1303</ele>
        <time>2015-05-22T15:29:47Z</time>
      </trkpt>
      <trkpt lat="45.89204" lon="6.18915">
        <ele>1303</ele>
        <time>2015-05-22T15:29:49Z</time>
      </trkpt>
      <trkpt lat="45.89204" lon="6.18915">
        <ele>1303</ele>
        <time>2015-05-22T15:29:51Z</time>
      </trkpt>
      <trkpt lat="45.89204" lon="6.18915">
        <ele>1303</ele>
        <time>2015-05-22T15:29:52Z</time>
      </trkpt>
      <trkpt lat="45.89204" lon="6.18914">
        <ele>1303</ele>
        <time>2015-05-22T15:29:53Z</time>
      </trkpt>
      <trkpt lat="45.89204" lon="6.18914">
        <ele>1302</ele>
        <time>2015-05-22T15:29:54Z</time>
      </trkpt>
      <trkpt lat="45.89204" lon="6.18914">
        <ele>1302</ele>
        <time>2015-05-22T15:29:55Z</time>
      </trkpt>
      <trkpt lat="45.89204" lon="6.18914">
        <ele>1302</ele>
        <time>2015-05-22T15:29:56Z</time>
      </trkpt>
      <trkpt lat="45.89204" lon="6.18914">
        <ele>1302</ele>
        <time>2015-05-22T15:29:57Z</time>
      </trkpt>
      <trkpt lat="45.89204" lon="6.18914">
        <ele>1303</ele>
        <time>2015-05-22T15:29:58Z</time>
      </trkpt>
      <trkpt lat="45.89204" lon="6.18914">
        <ele>1303</ele>
        <time>2015-05-22T15:29:59Z</time>
      </trkpt>
      <trkpt lat="45.89203" lon="6.18914">
        <ele>1303</ele>
        <time>2015-05-22T15:30:01Z</time>
      </trkpt>
      <trkpt lat="45.89203" lon="6.18914">
        <ele>1302</ele>
        <time>2015-05-22T15:30:02Z</time>
      </trkpt>
      <trkpt lat="45.89201" lon="6.18913">
        <ele>1302</ele>
        <time>2015-05-22T15:30:04Z</time>
      </trkpt>
      <trkpt lat="45.89199" lon="6.18913">
        <ele>1302</ele>
        <time>2015-05-22T15:30:05Z</time>
      </trkpt>
      <trkpt lat="45.89198" lon="6.18913">
        <ele>1301</ele>
        <time>2015-05-22T15:30:06Z</time>
      </trkpt>
      <trkpt lat="45.89197" lon="6.18913">
        <ele>1301</ele>
        <time>2015-05-22T15:30:07Z</time>
      </trkpt>
      <trkpt lat="45.89196" lon="6.18913">
        <ele>1302</ele>
        <time>2015-05-22T15:30:08Z</time>
      </trkpt>
      <trkpt lat="45.89196" lon="6.18913">
        <ele>1302</ele>
        <time>2015-05-22T15:30:09Z</time>
      </trkpt>
      <trkpt lat="45.89195" lon="6.18913">
        <ele>1301</ele>
        <time>2015-05-22T15:30:10Z</time>
      </trkpt>
      <trkpt lat="45.89194" lon="6.18913">
        <ele>1301</ele>
        <time>2015-05-22T15:30:11Z</time>
      </trkpt>
      <trkpt lat="45.89193" lon="6.18913">
        <ele>1301</ele>
        <time>2015-05-22T15:30:12Z</time>
      </trkpt>
      <trkpt lat="45.89192" lon="6.18913">
        <ele>1300</ele>
        <time>2015-05-22T15:30:13Z</time>
      </trkpt>
      <trkpt lat="45.89191" lon="6.18913">
        <ele>1300</ele>
        <time>2015-05-22T15:30:14Z</time>
      </trkpt>
      <trkpt lat="45.89191" lon="6.18912">
        <ele>1300</ele>
        <time>2015-05-22T15:30:15Z</time>
      </trkpt>
      <trkpt lat="45.8919" lon="6.18912">
        <ele>1301</ele>
        <time>2015-05-22T15:30:16Z</time>
      </trkpt>
      <trkpt lat="45.89189" lon="6.18912">
        <ele>1301</ele>
        <time>2015-05-22T15:30:18Z</time>
      </trkpt>
      <trkpt lat="45.89188" lon="6.18913">
        <ele>1300</ele>
        <time>2015-05-22T15:30:20Z</time>
      </trkpt>
      <trkpt lat="45.89187" lon="6.18914">
        <ele>1301</ele>
        <time>2015-05-22T15:30:22Z</time>
      </trkpt>
      <trkpt lat="45.89186" lon="6.18913">
        <ele>1301</ele>
        <time>2015-05-22T15:30:24Z</time>
      </trkpt>
      <trkpt lat="45.89186" lon="6.18912">
        <ele>1299</ele>
        <time>2015-05-22T15:30:26Z</time>
      </trkpt>
      <trkpt lat="45.89186" lon="6.18912">
        <ele>1299</ele>
        <time>2015-05-22T15:30:28Z</time>
      </trkpt>
      <trkpt lat="45.89185" lon="6.18913">
        <ele>1298</ele>
        <time>2015-05-22T15:30:30Z</time>
      </trkpt>
      <trkpt lat="45.89185" lon="6.18913">
        <ele>1298</ele>
        <time>2015-05-22T15:30:31Z</time>
      </trkpt>
      <trkpt lat="45.89185" lon="6.18913">
        <ele>1298</ele>
        <time>2015-05-22T15:30:32Z</time>
      </trkpt>
      <trkpt lat="45.89185" lon="6.18913">
        <ele>1298</ele>
        <time>2015-05-22T15:30:33Z</time>
      </trkpt>
      <trkpt lat="45.89184" lon="6.18914">
        <ele>1298</ele>
        <time>2015-05-22T15:30:34Z</time>
      </trkpt>
      <trkpt lat="45.89183" lon="6.18914">
        <ele>1298</ele>
        <time>2015-05-22T15:30:35Z</time>
      </trkpt>
      <trkpt lat="45.89182" lon="6.18916">
        <ele>1299</ele>
        <time>2015-05-22T15:30:36Z</time>
      </trkpt>
      <trkpt lat="45.89181" lon="6.18917">
        <ele>1300</ele>
        <time>2015-05-22T15:30:38Z</time>
      </trkpt>
      <trkpt lat="45.89179" lon="6.18918">
        <ele>1299</ele>
        <time>2015-05-22T15:30:40Z</time>
      </trkpt>
      <trkpt lat="45.89177" lon="6.1892">
        <ele>1301</ele>
        <time>2015-05-22T15:30:42Z</time>
      </trkpt>
      <trkpt lat="45.89177" lon="6.1892">
        <ele>1301</ele>
        <time>2015-05-22T15:30:43Z</time>
      </trkpt>
      <trkpt lat="45.89177" lon="6.1892">
        <ele>1301</ele>
        <time>2015-05-22T15:30:45Z</time>
      </trkpt>
      <trkpt lat="45.89177" lon="6.1892">
        <ele>1301</ele>
        <time>2015-05-22T15:30:46Z</time>
      </trkpt>
      <trkpt lat="45.89177" lon="6.1892">
        <ele>1302</ele>
        <time>2015-05-22T15:30:47Z</time>
      </trkpt>
      <trkpt lat="45.89176" lon="6.1892">
        <ele>1302</ele>
        <time>2015-05-22T15:30:48Z</time>
      </trkpt>
      <trkpt lat="45.89175" lon="6.1892">
        <ele>1301</ele>
        <time>2015-05-22T15:30:49Z</time>
      </trkpt>
      <trkpt lat="45.89174" lon="6.1892">
        <ele>1301</ele>
        <time>2015-05-22T15:30:50Z</time>
      </trkpt>
      <trkpt lat="45.89172" lon="6.18919">
        <ele>1301</ele>
        <time>2015-05-22T15:30:51Z</time>
      </trkpt>
      <trkpt lat="45.89171" lon="6.18919">
        <ele>1301</ele>
        <time>2015-05-22T15:30:52Z</time>
      </trkpt>
      <trkpt lat="45.8917" lon="6.18919">
        <ele>1301</ele>
        <time>2015-05-22T15:30:53Z</time>
      </trkpt>
      <trkpt lat="45.89169" lon="6.18919">
        <ele>1301</ele>
        <time>2015-05-22T15:30:54Z</time>
      </trkpt>
      <trkpt lat="45.89168" lon="6.18918">
        <ele>1301</ele>
        <time>2015-05-22T15:30:55Z</time>
      </trkpt>
      <trkpt lat="45.89167" lon="6.18919">
        <ele>1302</ele>
        <time>2015-05-22T15:30:56Z</time>
      </trkpt>
      <trkpt lat="45.89165" lon="6.18919">
        <ele>1302</ele>
        <time>2015-05-22T15:30:58Z</time>
      </trkpt>
      <trkpt lat="45.89166" lon="6.18919">
        <ele>1301</ele>
        <time>2015-05-22T15:30:59Z</time>
      </trkpt>
      <trkpt lat="45.89166" lon="6.18919">
        <ele>1301</ele>
        <time>2015-05-22T15:31:00Z</time>
      </trkpt>
      <trkpt lat="45.89166" lon="6.18919">
        <ele>1301</ele>
        <time>2015-05-22T15:31:02Z</time>
      </trkpt>
      <trkpt lat="45.89165" lon="6.18919">
        <ele>1303</ele>
        <time>2015-05-22T15:31:04Z</time>
      </trkpt>
      <trkpt lat="45.89165" lon="6.18919">
        <ele>1303</ele>
        <time>2015-05-22T15:31:06Z</time>
      </trkpt>
      <trkpt lat="45.89165" lon="6.1892">
        <ele>1302</ele>
        <time>2015-05-22T15:31:08Z</time>
      </trkpt>
      <trkpt lat="45.89164" lon="6.1892">
        <ele>1302</ele>
        <time>2015-05-22T15:31:10Z</time>
      </trkpt>
      <trkpt lat="45.89164" lon="6.1892">
        <ele>1302</ele>
        <time>2015-05-22T15:31:11Z</time>
      </trkpt>
      <trkpt lat="45.89164" lon="6.1892">
        <ele>1302</ele>
        <time>2015-05-22T15:31:12Z</time>
      </trkpt>
      <trkpt lat="45.89164" lon="6.1892">
        <ele>1302</ele>
        <time>2015-05-22T15:31:13Z</time>
      </trkpt>
      <trkpt lat="45.89164" lon="6.1892">
        <ele>1302</ele>
        <time>2015-05-22T15:31:14Z</time>
      </trkpt>
      <trkpt lat="45.89164" lon="6.1892">
        <ele>1303</ele>
        <time>2015-05-22T15:31:16Z</time>
      </trkpt>
      <trkpt lat="45.89164" lon="6.1892">
        <ele>1303</ele>
        <time>2015-05-22T15:31:18Z</time>
      </trkpt>
      <trkpt lat="45.89164" lon="6.1892">
        <ele>1303</ele>
        <time>2015-05-22T15:31:20Z</time>
      </trkpt>
      <trkpt lat="45.89161" lon="6.1892">
        <ele>1304</ele>
        <time>2015-05-22T15:31:22Z</time>
      </trkpt>
      <trkpt lat="45.89159" lon="6.18921">
        <ele>1305</ele>
        <time>2015-05-22T15:31:24Z</time>
      </trkpt>
      <trkpt lat="45.89156" lon="6.18921">
        <ele>1305</ele>
        <time>2015-05-22T15:31:26Z</time>
      </trkpt>
      <trkpt lat="45.89156" lon="6.18921">
        <ele>1305</ele>
        <time>2015-05-22T15:31:27Z</time>
      </trkpt>
      <trkpt lat="45.89153" lon="6.18923">
        <ele>1306</ele>
        <time>2015-05-22T15:31:30Z</time>
      </trkpt>
      <trkpt lat="45.89152" lon="6.18923">
        <ele>1306</ele>
        <time>2015-05-22T15:31:31Z</time>
      </trkpt>
      <trkpt lat="45.89151" lon="6.18922">
        <ele>1307</ele>
        <time>2015-05-22T15:31:32Z</time>
      </trkpt>
      <trkpt lat="45.8915" lon="6.18923">
        <ele>1306</ele>
        <time>2015-05-22T15:31:33Z</time>
      </trkpt>
      <trkpt lat="45.89153" lon="6.18926">
        <ele>1296</ele>
        <time>2015-05-22T15:31:34Z</time>
      </trkpt>
      <trkpt lat="45.89154" lon="6.18927">
        <ele>1292</ele>
        <time>2015-05-22T15:31:35Z</time>
      </trkpt>
      <trkpt lat="45.89153" lon="6.18927">
        <ele>1292</ele>
        <time>2015-05-22T15:31:36Z</time>
      </trkpt>
      <trkpt lat="45.89151" lon="6.18927">
        <ele>1295</ele>
        <time>2015-05-22T15:31:38Z</time>
      </trkpt>
      <trkpt lat="45.89152" lon="6.18927">
        <ele>1294</ele>
        <time>2015-05-22T15:31:39Z</time>
      </trkpt>
      <trkpt lat="45.89152" lon="6.18928">
        <ele>1293</ele>
        <time>2015-05-22T15:31:40Z</time>
      </trkpt>
      <trkpt lat="45.89152" lon="6.18928">
        <ele>1293</ele>
        <time>2015-05-22T15:31:41Z</time>
      </trkpt>
      <trkpt lat="45.89152" lon="6.18928">
        <ele>1292</ele>
        <time>2015-05-22T15:31:42Z</time>
      </trkpt>
      <trkpt lat="45.89153" lon="6.18928">
        <ele>1292</ele>
        <time>2015-05-22T15:31:43Z</time>
      </trkpt>
      <trkpt lat="45.89153" lon="6.18927">
        <ele>1293</ele>
        <time>2015-05-22T15:31:45Z</time>
      </trkpt>
      <trkpt lat="45.89153" lon="6.18926">
        <ele>1293</ele>
        <time>2015-05-22T15:31:47Z</time>
      </trkpt>
      <trkpt lat="45.89154" lon="6.18926">
        <ele>1293</ele>
        <time>2015-05-22T15:31:49Z</time>
      </trkpt>
      <trkpt lat="45.89153" lon="6.18926">
        <ele>1292</ele>
        <time>2015-05-22T15:31:50Z</time>
      </trkpt>
      <trkpt lat="45.89153" lon="6.18926">
        <ele>1293</ele>
        <time>2015-05-22T15:31:51Z</time>
      </trkpt>
      <trkpt lat="45.89153" lon="6.18926">
        <ele>1292</ele>
        <time>2015-05-22T15:31:52Z</time>
      </trkpt>
      <trkpt lat="45.89153" lon="6.18926">
        <ele>1293</ele>
        <time>2015-05-22T15:31:53Z</time>
      </trkpt>
      <trkpt lat="45.89153" lon="6.18925">
        <ele>1292</ele>
        <time>2015-05-22T15:31:54Z</time>
      </trkpt>
      <trkpt lat="45.89153" lon="6.18925">
        <ele>1291</ele>
        <time>2015-05-22T15:31:55Z</time>
      </trkpt>
      <trkpt lat="45.89153" lon="6.18924">
        <ele>1290</ele>
        <time>2015-05-22T15:31:57Z</time>
      </trkpt>
      <trkpt lat="45.89153" lon="6.18925">
        <ele>1290</ele>
        <time>2015-05-22T15:31:59Z</time>
      </trkpt>
      <trkpt lat="45.89153" lon="6.18925">
        <ele>1290</ele>
        <time>2015-05-22T15:32:01Z</time>
      </trkpt>
      <trkpt lat="45.89153" lon="6.18925">
        <ele>1290</ele>
        <time>2015-05-22T15:32:03Z</time>
      </trkpt>
      <trkpt lat="45.89153" lon="6.18925">
        <ele>1290</ele>
        <time>2015-05-22T15:32:05Z</time>
      </trkpt>
      <trkpt lat="45.89153" lon="6.18925">
        <ele>1290</ele>
        <time>2015-05-22T15:32:06Z</time>
      </trkpt>
      <trkpt lat="45.89153" lon="6.18925">
        <ele>1290</ele>
        <time>2015-05-22T15:32:07Z</time>
      </trkpt>
      <trkpt lat="45.89153" lon="6.18925">
        <ele>1290</ele>
        <time>2015-05-22T15:32:08Z</time>
      </trkpt>
      <trkpt lat="45.89153" lon="6.18925">
        <ele>1290</ele>
        <time>2015-05-22T15:32:10Z</time>
      </trkpt>
      <trkpt lat="45.89153" lon="6.18925">
        <ele>1290</ele>
        <time>2015-05-22T15:32:12Z</time>
      </trkpt>
      <trkpt lat="45.89153" lon="6.18925">
        <ele>1290</ele>
        <time>2015-05-22T15:32:14Z</time>
      </trkpt>
      <trkpt lat="45.89153" lon="6.18925">
        <ele>1290</ele>
        <time>2015-05-22T15:32:16Z</time>
      </trkpt>
      <trkpt lat="45.89153" lon="6.18925">
        <ele>1290</ele>
        <time>2015-05-22T15:32:18Z</time>
      </trkpt>
      <trkpt lat="45.89152" lon="6.18926">
        <ele>1291</ele>
        <time>2015-05-22T15:32:20Z</time>
      </trkpt>
      <trkpt lat="45.8915" lon="6.18927">
        <ele>1291</ele>
        <time>2015-05-22T15:32:22Z</time>
      </trkpt>
      <trkpt lat="45.89149" lon="6.18929">
        <ele>1290</ele>
        <time>2015-05-22T15:32:23Z</time>
      </trkpt>
      <trkpt lat="45.89148" lon="6.1893">
        <ele>1290</ele>
        <time>2015-05-22T15:32:24Z</time>
      </trkpt>
      <trkpt lat="45.89147" lon="6.1893">
        <ele>1290</ele>
        <time>2015-05-22T15:32:25Z</time>
      </trkpt>
      <trkpt lat="45.89145" lon="6.18932">
        <ele>1292</ele>
        <time>2015-05-22T15:32:27Z</time>
      </trkpt>
      <trkpt lat="45.89144" lon="6.18932">
        <ele>1293</ele>
        <time>2015-05-22T15:32:29Z</time>
      </trkpt>
      <trkpt lat="45.89142" lon="6.18933">
        <ele>1293</ele>
        <time>2015-05-22T15:32:31Z</time>
      </trkpt>
      <trkpt lat="45.89141" lon="6.18933">
        <ele>1293</ele>
        <time>2015-05-22T15:32:33Z</time>
      </trkpt>
      <trkpt lat="45.8914" lon="6.18934">
        <ele>1293</ele>
        <time>2015-05-22T15:32:35Z</time>
      </trkpt>
      <trkpt lat="45.89139" lon="6.18933">
        <ele>1293</ele>
        <time>2015-05-22T15:32:37Z</time>
      </trkpt>
      <trkpt lat="45.89138" lon="6.18934">
        <ele>1293</ele>
        <time>2015-05-22T15:32:39Z</time>
      </trkpt>
      <trkpt lat="45.89138" lon="6.18934">
        <ele>1294</ele>
        <time>2015-05-22T15:32:40Z</time>
      </trkpt>
      <trkpt lat="45.89137" lon="6.18935">
        <ele>1293</ele>
        <time>2015-05-22T15:32:41Z</time>
      </trkpt>
      <trkpt lat="45.89136" lon="6.18936">
        <ele>1293</ele>
        <time>2015-05-22T15:32:42Z</time>
      </trkpt>
      <trkpt lat="45.89135" lon="6.18937">
        <ele>1291</ele>
        <time>2015-05-22T15:32:44Z</time>
      </trkpt>
      <trkpt lat="45.89134" lon="6.18939">
        <ele>1293</ele>
        <time>2015-05-22T15:32:46Z</time>
      </trkpt>
      <trkpt lat="45.89132" lon="6.18941">
        <ele>1293</ele>
        <time>2015-05-22T15:32:48Z</time>
      </trkpt>
      <trkpt lat="45.8913" lon="6.18942">
        <ele>1293</ele>
        <time>2015-05-22T15:32:50Z</time>
      </trkpt>
      <trkpt lat="45.89129" lon="6.18943">
        <ele>1292</ele>
        <time>2015-05-22T15:32:52Z</time>
      </trkpt>
      <trkpt lat="45.89126" lon="6.18945">
        <ele>1292</ele>
        <time>2015-05-22T15:32:54Z</time>
      </trkpt>
      <trkpt lat="45.89124" lon="6.18945">
        <ele>1291</ele>
        <time>2015-05-22T15:32:56Z</time>
      </trkpt>
      <trkpt lat="45.89122" lon="6.18945">
        <ele>1290</ele>
        <time>2015-05-22T15:32:57Z</time>
      </trkpt>
      <trkpt lat="45.89121" lon="6.18946">
        <ele>1290</ele>
        <time>2015-05-22T15:32:58Z</time>
      </trkpt>
      <trkpt lat="45.89121" lon="6.18946">
        <ele>1287</ele>
        <time>2015-05-22T15:32:59Z</time>
      </trkpt>
      <trkpt lat="45.89118" lon="6.18948">
        <ele>1287</ele>
        <time>2015-05-22T15:33:01Z</time>
      </trkpt>
      <trkpt lat="45.89118" lon="6.18948">
        <ele>1285</ele>
        <time>2015-05-22T15:33:02Z</time>
      </trkpt>
      <trkpt lat="45.89117" lon="6.18949">
        <ele>1286</ele>
        <time>2015-05-22T15:33:03Z</time>
      </trkpt>
      <trkpt lat="45.89116" lon="6.1895">
        <ele>1287</ele>
        <time>2015-05-22T15:33:04Z</time>
      </trkpt>
      <trkpt lat="45.89115" lon="6.1895">
        <ele>1286</ele>
        <time>2015-05-22T15:33:05Z</time>
      </trkpt>
      <trkpt lat="45.89115" lon="6.18951">
        <ele>1286</ele>
        <time>2015-05-22T15:33:06Z</time>
      </trkpt>
      <trkpt lat="45.89114" lon="6.18952">
        <ele>1286</ele>
        <time>2015-05-22T15:33:07Z</time>
      </trkpt>
      <trkpt lat="45.89112" lon="6.18953">
        <ele>1286</ele>
        <time>2015-05-22T15:33:10Z</time>
      </trkpt>
      <trkpt lat="45.89112" lon="6.18952">
        <ele>1283</ele>
        <time>2015-05-22T15:33:12Z</time>
      </trkpt>
      <trkpt lat="45.89111" lon="6.18953">
        <ele>1284</ele>
        <time>2015-05-22T15:33:14Z</time>
      </trkpt>
      <trkpt lat="45.8911" lon="6.18953">
        <ele>1285</ele>
        <time>2015-05-22T15:33:16Z</time>
      </trkpt>
      <trkpt lat="45.8911" lon="6.18952">
        <ele>1285</ele>
        <time>2015-05-22T15:33:18Z</time>
      </trkpt>
      <trkpt lat="45.89109" lon="6.18953">
        <ele>1286</ele>
        <time>2015-05-22T15:33:20Z</time>
      </trkpt>
      <trkpt lat="45.89108" lon="6.18954">
        <ele>1287</ele>
        <time>2015-05-22T15:33:22Z</time>
      </trkpt>
      <trkpt lat="45.89108" lon="6.18954">
        <ele>1287</ele>
        <time>2015-05-22T15:33:23Z</time>
      </trkpt>
      <trkpt lat="45.89108" lon="6.18954">
        <ele>1287</ele>
        <time>2015-05-22T15:33:24Z</time>
      </trkpt>
      <trkpt lat="45.89107" lon="6.18955">
        <ele>1287</ele>
        <time>2015-05-22T15:33:25Z</time>
      </trkpt>
      <trkpt lat="45.89107" lon="6.18955">
        <ele>1287</ele>
        <time>2015-05-22T15:33:26Z</time>
      </trkpt>
      <trkpt lat="45.89106" lon="6.18955">
        <ele>1286</ele>
        <time>2015-05-22T15:33:27Z</time>
      </trkpt>
      <trkpt lat="45.89104" lon="6.18956">
        <ele>1287</ele>
        <time>2015-05-22T15:33:29Z</time>
      </trkpt>
      <trkpt lat="45.89103" lon="6.18956">
        <ele>1288</ele>
        <time>2015-05-22T15:33:30Z</time>
      </trkpt>
      <trkpt lat="45.89102" lon="6.18957">
        <ele>1288</ele>
        <time>2015-05-22T15:33:33Z</time>
      </trkpt>
      <trkpt lat="45.89101" lon="6.18957">
        <ele>1288</ele>
        <time>2015-05-22T15:33:35Z</time>
      </trkpt>
      <trkpt lat="45.89101" lon="6.18956">
        <ele>1286</ele>
        <time>2015-05-22T15:33:37Z</time>
      </trkpt>
      <trkpt lat="45.89101" lon="6.18957">
        <ele>1285</ele>
        <time>2015-05-22T15:33:39Z</time>
      </trkpt>
      <trkpt lat="45.891" lon="6.18958">
        <ele>1284</ele>
        <time>2015-05-22T15:33:41Z</time>
      </trkpt>
      <trkpt lat="45.891" lon="6.18959">
        <ele>1284</ele>
        <time>2015-05-22T15:33:42Z</time>
      </trkpt>
      <trkpt lat="45.891" lon="6.1896">
        <ele>1283</ele>
        <time>2015-05-22T15:33:43Z</time>
      </trkpt>
      <trkpt lat="45.891" lon="6.1896">
        <ele>1282</ele>
        <time>2015-05-22T15:33:44Z</time>
      </trkpt>
      <trkpt lat="45.891" lon="6.18961">
        <ele>1282</ele>
        <time>2015-05-22T15:33:45Z</time>
      </trkpt>
      <trkpt lat="45.891" lon="6.18961">
        <ele>1282</ele>
        <time>2015-05-22T15:33:46Z</time>
      </trkpt>
      <trkpt lat="45.89099" lon="6.18962">
        <ele>1282</ele>
        <time>2015-05-22T15:33:47Z</time>
      </trkpt>
      <trkpt lat="45.89099" lon="6.18963">
        <ele>1281</ele>
        <time>2015-05-22T15:33:49Z</time>
      </trkpt>
      <trkpt lat="45.89098" lon="6.18964">
        <ele>1280</ele>
        <time>2015-05-22T15:33:51Z</time>
      </trkpt>
      <trkpt lat="45.89098" lon="6.18963">
        <ele>1280</ele>
        <time>2015-05-22T15:33:53Z</time>
      </trkpt>
      <trkpt lat="45.89097" lon="6.18964">
        <ele>1281</ele>
        <time>2015-05-22T15:33:55Z</time>
      </trkpt>
      <trkpt lat="45.89097" lon="6.18964">
        <ele>1280</ele>
        <time>2015-05-22T15:33:57Z</time>
      </trkpt>
      <trkpt lat="45.89097" lon="6.18964">
        <ele>1281</ele>
        <time>2015-05-22T15:33:59Z</time>
      </trkpt>
      <trkpt lat="45.89098" lon="6.18964">
        <ele>1280</ele>
        <time>2015-05-22T15:34:01Z</time>
      </trkpt>
      <trkpt lat="45.89098" lon="6.18965">
        <ele>1281</ele>
        <time>2015-05-22T15:34:02Z</time>
      </trkpt>
      <trkpt lat="45.89098" lon="6.18964">
        <ele>1280</ele>
        <time>2015-05-22T15:34:03Z</time>
      </trkpt>
      <trkpt lat="45.89098" lon="6.18964">
        <ele>1280</ele>
        <time>2015-05-22T15:34:04Z</time>
      </trkpt>
      <trkpt lat="45.89098" lon="6.18964">
        <ele>1280</ele>
        <time>2015-05-22T15:34:05Z</time>
      </trkpt>
      <trkpt lat="45.89098" lon="6.18964">
        <ele>1280</ele>
        <time>2015-05-22T15:34:06Z</time>
      </trkpt>
      <trkpt lat="45.89099" lon="6.18964">
        <ele>1281</ele>
        <time>2015-05-22T15:34:07Z</time>
      </trkpt>
      <trkpt lat="45.89099" lon="6.18964">
        <ele>1281</ele>
        <time>2015-05-22T15:34:09Z</time>
      </trkpt>
      <trkpt lat="45.89099" lon="6.18964">
        <ele>1281</ele>
        <time>2015-05-22T15:34:11Z</time>
      </trkpt>
      <trkpt lat="45.89099" lon="6.18964">
        <ele>1280</ele>
        <time>2015-05-22T15:34:13Z</time>
      </trkpt>
      <trkpt lat="45.89099" lon="6.18965">
        <ele>1280</ele>
        <time>2015-05-22T15:34:15Z</time>
      </trkpt>
      <trkpt lat="45.89098" lon="6.18964">
        <ele>1281</ele>
        <time>2015-05-22T15:34:17Z</time>
      </trkpt>
      <trkpt lat="45.89099" lon="6.18965">
        <ele>1280</ele>
        <time>2015-05-22T15:34:19Z</time>
      </trkpt>
      <trkpt lat="45.89097" lon="6.18963">
        <ele>1279</ele>
        <time>2015-05-22T15:34:21Z</time>
      </trkpt>
      <trkpt lat="45.89097" lon="6.18963">
        <ele>1280</ele>
        <time>2015-05-22T15:34:22Z</time>
      </trkpt>
      <trkpt lat="45.89097" lon="6.18962">
        <ele>1280</ele>
        <time>2015-05-22T15:34:23Z</time>
      </trkpt>
      <trkpt lat="45.89096" lon="6.18962">
        <ele>1281</ele>
        <time>2015-05-22T15:34:24Z</time>
      </trkpt>
      <trkpt lat="45.89096" lon="6.18961">
        <ele>1281</ele>
        <time>2015-05-22T15:34:25Z</time>
      </trkpt>
      <trkpt lat="45.89096" lon="6.18962">
        <ele>1281</ele>
        <time>2015-05-22T15:34:26Z</time>
      </trkpt>
      <trkpt lat="45.89096" lon="6.18963">
        <ele>1280</ele>
        <time>2015-05-22T15:34:28Z</time>
      </trkpt>
      <trkpt lat="45.89096" lon="6.18966">
        <ele>1278</ele>
        <time>2015-05-22T15:34:30Z</time>
      </trkpt>
      <trkpt lat="45.89096" lon="6.18967">
        <ele>1276</ele>
        <time>2015-05-22T15:34:32Z</time>
      </trkpt>
      <trkpt lat="45.89096" lon="6.18968">
        <ele>1276</ele>
        <time>2015-05-22T15:34:33Z</time>
      </trkpt>
      <trkpt lat="45.89096" lon="6.18969">
        <ele>1276</ele>
        <time>2015-05-22T15:34:36Z</time>
      </trkpt>
      <trkpt lat="45.89096" lon="6.1897">
        <ele>1276</ele>
        <time>2015-05-22T15:34:37Z</time>
      </trkpt>
      <trkpt lat="45.89097" lon="6.1897">
        <ele>1276</ele>
        <time>2015-05-22T15:34:38Z</time>
      </trkpt>
      <trkpt lat="45.89097" lon="6.1897">
        <ele>1276</ele>
        <time>2015-05-22T15:34:39Z</time>
      </trkpt>
      <trkpt lat="45.89097" lon="6.1897">
        <ele>1276</ele>
        <time>2015-05-22T15:34:40Z</time>
      </trkpt>
      <trkpt lat="45.89097" lon="6.1897">
        <ele>1276</ele>
        <time>2015-05-22T15:34:42Z</time>
      </trkpt>
      <trkpt lat="45.89097" lon="6.1897">
        <ele>1276</ele>
        <time>2015-05-22T15:34:43Z</time>
      </trkpt>
      <trkpt lat="45.89097" lon="6.18969">
        <ele>1276</ele>
        <time>2015-05-22T15:34:44Z</time>
      </trkpt>
      <trkpt lat="45.89096" lon="6.1897">
        <ele>1277</ele>
        <time>2015-05-22T15:34:46Z</time>
      </trkpt>
      <trkpt lat="45.89096" lon="6.18971">
        <ele>1278</ele>
        <time>2015-05-22T15:34:48Z</time>
      </trkpt>
      <trkpt lat="45.89096" lon="6.18971">
        <ele>1277</ele>
        <time>2015-05-22T15:34:50Z</time>
      </trkpt>
      <trkpt lat="45.89096" lon="6.18971">
        <ele>1277</ele>
        <time>2015-05-22T15:34:52Z</time>
      </trkpt>
      <trkpt lat="45.89097" lon="6.1897">
        <ele>1276</ele>
        <time>2015-05-22T15:34:54Z</time>
      </trkpt>
      <trkpt lat="45.89094" lon="6.18972">
        <ele>1276</ele>
        <time>2015-05-22T15:34:56Z</time>
      </trkpt>
      <trkpt lat="45.89093" lon="6.18973">
        <ele>1275</ele>
        <time>2015-05-22T15:34:57Z</time>
      </trkpt>
      <trkpt lat="45.89094" lon="6.18973">
        <ele>1275</ele>
        <time>2015-05-22T15:34:58Z</time>
      </trkpt>
      <trkpt lat="45.89094" lon="6.18973">
        <ele>1273</ele>
        <time>2015-05-22T15:34:59Z</time>
      </trkpt>
      <trkpt lat="45.89093" lon="6.18974">
        <ele>1274</ele>
        <time>2015-05-22T15:35:00Z</time>
      </trkpt>
      <trkpt lat="45.89092" lon="6.18977">
        <ele>1272</ele>
        <time>2015-05-22T15:35:02Z</time>
      </trkpt>
      <trkpt lat="45.89091" lon="6.18979">
        <ele>1272</ele>
        <time>2015-05-22T15:35:04Z</time>
      </trkpt>
      <trkpt lat="45.89092" lon="6.18979">
        <ele>1272</ele>
        <time>2015-05-22T15:35:06Z</time>
      </trkpt>
      <trkpt lat="45.89092" lon="6.18979">
        <ele>1271</ele>
        <time>2015-05-22T15:35:07Z</time>
      </trkpt>
      <trkpt lat="45.8909" lon="6.1898">
        <ele>1270</ele>
        <time>2015-05-22T15:35:10Z</time>
      </trkpt>
      <trkpt lat="45.89089" lon="6.18982">
        <ele>1270</ele>
        <time>2015-05-22T15:35:12Z</time>
      </trkpt>
      <trkpt lat="45.8909" lon="6.18982">
        <ele>1271</ele>
        <time>2015-05-22T15:35:14Z</time>
      </trkpt>
      <trkpt lat="45.8909" lon="6.18982">
        <ele>1270</ele>
        <time>2015-05-22T15:35:15Z</time>
      </trkpt>
      <trkpt lat="45.8909" lon="6.18982">
        <ele>1270</ele>
        <time>2015-05-22T15:35:16Z</time>
      </trkpt>
      <trkpt lat="45.8909" lon="6.18983">
        <ele>1269</ele>
        <time>2015-05-22T15:35:17Z</time>
      </trkpt>
      <trkpt lat="45.89091" lon="6.18984">
        <ele>1269</ele>
        <time>2015-05-22T15:35:18Z</time>
      </trkpt>
      <trkpt lat="45.8909" lon="6.18986">
        <ele>1268</ele>
        <time>2015-05-22T15:35:20Z</time>
      </trkpt>
      <trkpt lat="45.89089" lon="6.18987">
        <ele>1268</ele>
        <time>2015-05-22T15:35:21Z</time>
      </trkpt>
      <trkpt lat="45.89088" lon="6.18989">
        <ele>1268</ele>
        <time>2015-05-22T15:35:23Z</time>
      </trkpt>
      <trkpt lat="45.89087" lon="6.1899">
        <ele>1268</ele>
        <time>2015-05-22T15:35:24Z</time>
      </trkpt>
      <trkpt lat="45.89086" lon="6.18991">
        <ele>1269</ele>
        <time>2015-05-22T15:35:25Z</time>
      </trkpt>
      <trkpt lat="45.89087" lon="6.18991">
        <ele>1266</ele>
        <time>2015-05-22T15:35:27Z</time>
      </trkpt>
      <trkpt lat="45.89087" lon="6.18993">
        <ele>1266</ele>
        <time>2015-05-22T15:35:29Z</time>
      </trkpt>
      <trkpt lat="45.89086" lon="6.18992">
        <ele>1264</ele>
        <time>2015-05-22T15:35:31Z</time>
      </trkpt>
      <trkpt lat="45.89085" lon="6.18993">
        <ele>1265</ele>
        <time>2015-05-22T15:35:33Z</time>
      </trkpt>
      <trkpt lat="45.89085" lon="6.18994">
        <ele>1266</ele>
        <time>2015-05-22T15:35:35Z</time>
      </trkpt>
      <trkpt lat="45.89085" lon="6.18993">
        <ele>1265</ele>
        <time>2015-05-22T15:35:36Z</time>
      </trkpt>
      <trkpt lat="45.89085" lon="6.18993">
        <ele>1265</ele>
        <time>2015-05-22T15:35:37Z</time>
      </trkpt>
      <trkpt lat="45.89086" lon="6.18993">
        <ele>1265</ele>
        <time>2015-05-22T15:35:39Z</time>
      </trkpt>
      <trkpt lat="45.89086" lon="6.18992">
        <ele>1265</ele>
        <time>2015-05-22T15:35:41Z</time>
      </trkpt>
      <trkpt lat="45.89086" lon="6.18992">
        <ele>1265</ele>
        <time>2015-05-22T15:35:43Z</time>
      </trkpt>
      <trkpt lat="45.89086" lon="6.18993">
        <ele>1265</ele>
        <time>2015-05-22T15:35:45Z</time>
      </trkpt>
      <trkpt lat="45.89085" lon="6.18994">
        <ele>1265</ele>
        <time>2015-05-22T15:35:47Z</time>
      </trkpt>
      <trkpt lat="45.89085" lon="6.18993">
        <ele>1266</ele>
        <time>2015-05-22T15:35:49Z</time>
      </trkpt>
      <trkpt lat="45.89085" lon="6.18993">
        <ele>1266</ele>
        <time>2015-05-22T15:35:51Z</time>
      </trkpt>
      <trkpt lat="45.89085" lon="6.18993">
        <ele>1266</ele>
        <time>2015-05-22T15:35:53Z</time>
      </trkpt>
      <trkpt lat="45.89086" lon="6.18993">
        <ele>1265</ele>
        <time>2015-05-22T15:35:55Z</time>
      </trkpt>
      <trkpt lat="45.89085" lon="6.18993">
        <ele>1265</ele>
        <time>2015-05-22T15:35:56Z</time>
      </trkpt>
      <trkpt lat="45.89085" lon="6.18993">
        <ele>1265</ele>
        <time>2015-05-22T15:35:57Z</time>
      </trkpt>
      <trkpt lat="45.89085" lon="6.18994">
        <ele>1265</ele>
        <time>2015-05-22T15:35:59Z</time>
      </trkpt>
      <trkpt lat="45.89085" lon="6.18994">
        <ele>1265</ele>
        <time>2015-05-22T15:36:00Z</time>
      </trkpt>
      <trkpt lat="45.89085" lon="6.18994">
        <ele>1265</ele>
        <time>2015-05-22T15:36:01Z</time>
      </trkpt>
      <trkpt lat="45.89085" lon="6.18994">
        <ele>1265</ele>
        <time>2015-05-22T15:36:03Z</time>
      </trkpt>
      <trkpt lat="45.89085" lon="6.18994">
        <ele>1265</ele>
        <time>2015-05-22T15:36:05Z</time>
      </trkpt>
      <trkpt lat="45.89085" lon="6.18995">
        <ele>1264</ele>
        <time>2015-05-22T15:36:07Z</time>
      </trkpt>
      <trkpt lat="45.89084" lon="6.18995">
        <ele>1264</ele>
        <time>2015-05-22T15:36:09Z</time>
      </trkpt>
      <trkpt lat="45.89083" lon="6.18995">
        <ele>1264</ele>
        <time>2015-05-22T15:36:11Z</time>
      </trkpt>
      <trkpt lat="45.89083" lon="6.18995">
        <ele>1264</ele>
        <time>2015-05-22T15:36:12Z</time>
      </trkpt>
      <trkpt lat="45.89083" lon="6.18995">
        <ele>1264</ele>
        <time>2015-05-22T15:36:14Z</time>
      </trkpt>
      <trkpt lat="45.89083" lon="6.18996">
        <ele>1264</ele>
        <time>2015-05-22T15:36:15Z</time>
      </trkpt>
      <trkpt lat="45.89083" lon="6.18996">
        <ele>1264</ele>
        <time>2015-05-22T15:36:16Z</time>
      </trkpt>
      <trkpt lat="45.89083" lon="6.18996">
        <ele>1264</ele>
        <time>2015-05-22T15:36:17Z</time>
      </trkpt>
      <trkpt lat="45.89083" lon="6.18996">
        <ele>1264</ele>
        <time>2015-05-22T15:36:18Z</time>
      </trkpt>
      <trkpt lat="45.89083" lon="6.18996">
        <ele>1264</ele>
        <time>2015-05-22T15:36:19Z</time>
      </trkpt>
      <trkpt lat="45.89083" lon="6.18996">
        <ele>1264</ele>
        <time>2015-05-22T15:36:20Z</time>
      </trkpt>
      <trkpt lat="45.89083" lon="6.18996">
        <ele>1264</ele>
        <time>2015-05-22T15:36:22Z</time>
      </trkpt>
      <trkpt lat="45.89083" lon="6.18996">
        <ele>1264</ele>
        <time>2015-05-22T15:36:24Z</time>
      </trkpt>
      <trkpt lat="45.89083" lon="6.18996">
        <ele>1264</ele>
        <time>2015-05-22T15:36:26Z</time>
      </trkpt>
      <trkpt lat="45.89083" lon="6.18996">
        <ele>1264</ele>
        <time>2015-05-22T15:36:28Z</time>
      </trkpt>
      <trkpt lat="45.89083" lon="6.18996">
        <ele>1263</ele>
        <time>2015-05-22T15:36:30Z</time>
      </trkpt>
      <trkpt lat="45.89082" lon="6.18996">
        <ele>1262</ele>
        <time>2015-05-22T15:36:32Z</time>
      </trkpt>
      <trkpt lat="45.89082" lon="6.18996">
        <ele>1261</ele>
        <time>2015-05-22T15:36:34Z</time>
      </trkpt>
      <trkpt lat="45.89082" lon="6.18996">
        <ele>1262</ele>
        <time>2015-05-22T15:36:35Z</time>
      </trkpt>
      <trkpt lat="45.89082" lon="6.18996">
        <ele>1262</ele>
        <time>2015-05-22T15:36:36Z</time>
      </trkpt>
      <trkpt lat="45.89082" lon="6.18996">
        <ele>1262</ele>
        <time>2015-05-22T15:36:37Z</time>
      </trkpt>
      <trkpt lat="45.89082" lon="6.18996">
        <ele>1262</ele>
        <time>2015-05-22T15:36:38Z</time>
      </trkpt>
      <trkpt lat="45.89082" lon="6.18996">
        <ele>1263</ele>
        <time>2015-05-22T15:36:40Z</time>
      </trkpt>
      <trkpt lat="45.89082" lon="6.18996">
        <ele>1262</ele>
        <time>2015-05-22T15:36:42Z</time>
      </trkpt>
      <trkpt lat="45.89082" lon="6.18996">
        <ele>1262</ele>
        <time>2015-05-22T15:36:44Z</time>
      </trkpt>
      <trkpt lat="45.89082" lon="6.18996">
        <ele>1262</ele>
        <time>2015-05-22T15:36:46Z</time>
      </trkpt>
      <trkpt lat="45.89082" lon="6.18996">
        <ele>1262</ele>
        <time>2015-05-22T15:36:48Z</time>
      </trkpt>
      <trkpt lat="45.89082" lon="6.18996">
        <ele>1262</ele>
        <time>2015-05-22T15:36:50Z</time>
      </trkpt>
      <trkpt lat="45.89082" lon="6.18996">
        <ele>1262</ele>
        <time>2015-05-22T15:36:52Z</time>
      </trkpt>
      <trkpt lat="45.89082" lon="6.18996">
        <ele>1262</ele>
        <time>2015-05-22T15:36:53Z</time>
      </trkpt>
      <trkpt lat="45.89082" lon="6.18996">
        <ele>1262</ele>
        <time>2015-05-22T15:36:54Z</time>
      </trkpt>
      <trkpt lat="45.89082" lon="6.18996">
        <ele>1262</ele>
        <time>2015-05-22T15:36:55Z</time>
      </trkpt>
      <trkpt lat="45.89082" lon="6.18996">
        <ele>1262</ele>
        <time>2015-05-22T15:36:57Z</time>
      </trkpt>
      <trkpt lat="45.89082" lon="6.18996">
        <ele>1262</ele>
        <time>2015-05-22T15:36:58Z</time>
      </trkpt>
      <trkpt lat="45.89082" lon="6.18996">
        <ele>1262</ele>
        <time>2015-05-22T15:36:59Z</time>
      </trkpt>
      <trkpt lat="45.89082" lon="6.18996">
        <ele>1262</ele>
        <time>2015-05-22T15:37:00Z</time>
      </trkpt>
      <trkpt lat="45.89082" lon="6.18996">
        <ele>1262</ele>
        <time>2015-05-22T15:37:02Z</time>
      </trkpt>
      <trkpt lat="45.89082" lon="6.18996">
        <ele>1262</ele>
        <time>2015-05-22T15:37:04Z</time>
      </trkpt>
      <trkpt lat="45.89082" lon="6.18996">
        <ele>1262</ele>
        <time>2015-05-22T15:37:06Z</time>
      </trkpt>
      <trkpt lat="45.89082" lon="6.18996">
        <ele>1262</ele>
        <time>2015-05-22T15:37:08Z</time>
      </trkpt>
      <trkpt lat="45.89082" lon="6.18996">
        <ele>1262</ele>
        <time>2015-05-22T15:37:10Z</time>
      </trkpt>
      <trkpt lat="45.89082" lon="6.18996">
        <ele>1262</ele>
        <time>2015-05-22T15:37:12Z</time>
      </trkpt>
      <trkpt lat="45.89082" lon="6.18996">
        <ele>1262</ele>
        <time>2015-05-22T15:37:14Z</time>
      </trkpt>
      <trkpt lat="45.89082" lon="6.18997">
        <ele>1262</ele>
        <time>2015-05-22T15:37:16Z</time>
      </trkpt>
      <trkpt lat="45.89082" lon="6.18997">
        <ele>1260</ele>
        <time>2015-05-22T15:37:17Z</time>
      </trkpt>
      <trkpt lat="45.89082" lon="6.18996">
        <ele>1259</ele>
        <time>2015-05-22T15:37:18Z</time>
      </trkpt>
      <trkpt lat="45.89082" lon="6.18997">
        <ele>1259</ele>
        <time>2015-05-22T15:37:19Z</time>
      </trkpt>
      <trkpt lat="45.89082" lon="6.18997">
        <ele>1259</ele>
        <time>2015-05-22T15:37:20Z</time>
      </trkpt>
      <trkpt lat="45.89082" lon="6.18998">
        <ele>1259</ele>
        <time>2015-05-22T15:37:21Z</time>
      </trkpt>
      <trkpt lat="45.89081" lon="6.18999">
        <ele>1258</ele>
        <time>2015-05-22T15:37:23Z</time>
      </trkpt>
      <trkpt lat="45.89081" lon="6.19">
        <ele>1258</ele>
        <time>2015-05-22T15:37:25Z</time>
      </trkpt>
      <trkpt lat="45.89079" lon="6.19001">
        <ele>1258</ele>
        <time>2015-05-22T15:37:27Z</time>
      </trkpt>
      <trkpt lat="45.89079" lon="6.19001">
        <ele>1258</ele>
        <time>2015-05-22T15:37:29Z</time>
      </trkpt>
      <trkpt lat="45.89079" lon="6.19002">
        <ele>1258</ele>
        <time>2015-05-22T15:37:31Z</time>
      </trkpt>
      <trkpt lat="45.89079" lon="6.19002">
        <ele>1256</ele>
        <time>2015-05-22T15:37:32Z</time>
      </trkpt>
      <trkpt lat="45.89079" lon="6.19002">
        <ele>1256</ele>
        <time>2015-05-22T15:37:33Z</time>
      </trkpt>
      <trkpt lat="45.89078" lon="6.19003">
        <ele>1256</ele>
        <time>2015-05-22T15:37:35Z</time>
      </trkpt>
      <trkpt lat="45.89077" lon="6.19004">
        <ele>1257</ele>
        <time>2015-05-22T15:37:37Z</time>
      </trkpt>
      <trkpt lat="45.89076" lon="6.19004">
        <ele>1257</ele>
        <time>2015-05-22T15:37:39Z</time>
      </trkpt>
      <trkpt lat="45.89076" lon="6.19005">
        <ele>1259</ele>
        <time>2015-05-22T15:37:41Z</time>
      </trkpt>
      <trkpt lat="45.89076" lon="6.19005">
        <ele>1258</ele>
        <time>2015-05-22T15:37:42Z</time>
      </trkpt>
      <trkpt lat="45.89076" lon="6.19005">
        <ele>1258</ele>
        <time>2015-05-22T15:37:44Z</time>
      </trkpt>
      <trkpt lat="45.89077" lon="6.19006">
        <ele>1258</ele>
        <time>2015-05-22T15:37:45Z</time>
      </trkpt>
      <trkpt lat="45.89077" lon="6.19006">
        <ele>1258</ele>
        <time>2015-05-22T15:37:46Z</time>
      </trkpt>
      <trkpt lat="45.89076" lon="6.19007">
        <ele>1259</ele>
        <time>2015-05-22T15:37:48Z</time>
      </trkpt>
      <trkpt lat="45.89076" lon="6.19007">
        <ele>1259</ele>
        <time>2015-05-22T15:37:49Z</time>
      </trkpt>
      <trkpt lat="45.89076" lon="6.19008">
        <ele>1258</ele>
        <time>2015-05-22T15:37:51Z</time>
      </trkpt>
      <trkpt lat="45.89076" lon="6.19008">
        <ele>1258</ele>
        <time>2015-05-22T15:37:52Z</time>
      </trkpt>
      <trkpt lat="45.89076" lon="6.19008">
        <ele>1258</ele>
        <time>2015-05-22T15:37:53Z</time>
      </trkpt>
      <trkpt lat="45.89076" lon="6.19008">
        <ele>1259</ele>
        <time>2015-05-22T15:37:54Z</time>
      </trkpt>
      <trkpt lat="45.89076" lon="6.19008">
        <ele>1258</ele>
        <time>2015-05-22T15:37:56Z</time>
      </trkpt>
      <trkpt lat="45.89076" lon="6.19008">
        <ele>1258</ele>
        <time>2015-05-22T15:37:57Z</time>
      </trkpt>
      <trkpt lat="45.89076" lon="6.19009">
        <ele>1258</ele>
        <time>2015-05-22T15:37:58Z</time>
      </trkpt>
      <trkpt lat="45.89076" lon="6.19009">
        <ele>1257</ele>
        <time>2015-05-22T15:38:00Z</time>
      </trkpt>
      <trkpt lat="45.89076" lon="6.19009">
        <ele>1256</ele>
        <time>2015-05-22T15:38:02Z</time>
      </trkpt>
      <trkpt lat="45.89075" lon="6.1901">
        <ele>1257</ele>
        <time>2015-05-22T15:38:04Z</time>
      </trkpt>
      <trkpt lat="45.89076" lon="6.19009">
        <ele>1256</ele>
        <time>2015-05-22T15:38:06Z</time>
      </trkpt>
      <trkpt lat="45.89076" lon="6.19009">
        <ele>1256</ele>
        <time>2015-05-22T15:38:08Z</time>
      </trkpt>
      <trkpt lat="45.89076" lon="6.1901">
        <ele>1255</ele>
        <time>2015-05-22T15:38:09Z</time>
      </trkpt>
      <trkpt lat="45.89076" lon="6.1901">
        <ele>1255</ele>
        <time>2015-05-22T15:38:10Z</time>
      </trkpt>
      <trkpt lat="45.89076" lon="6.1901">
        <ele>1255</ele>
        <time>2015-05-22T15:38:11Z</time>
      </trkpt>
      <trkpt lat="45.89076" lon="6.1901">
        <ele>1255</ele>
        <time>2015-05-22T15:38:12Z</time>
      </trkpt>
      <trkpt lat="45.89074" lon="6.1901">
        <ele>1254</ele>
        <time>2015-05-22T15:38:14Z</time>
      </trkpt>
      <trkpt lat="45.89073" lon="6.1901">
        <ele>1253</ele>
        <time>2015-05-22T15:38:16Z</time>
      </trkpt>
      <trkpt lat="45.89074" lon="6.19011">
        <ele>1254</ele>
        <time>2015-05-22T15:38:18Z</time>
      </trkpt>
      <trkpt lat="45.89073" lon="6.19013">
        <ele>1255</ele>
        <time>2015-05-22T15:38:20Z</time>
      </trkpt>
      <trkpt lat="45.89072" lon="6.19013">
        <ele>1255</ele>
        <time>2015-05-22T15:38:22Z</time>
      </trkpt>
      <trkpt lat="45.89072" lon="6.19014">
        <ele>1255</ele>
        <time>2015-05-22T15:38:24Z</time>
      </trkpt>
      <trkpt lat="45.89071" lon="6.19015">
        <ele>1257</ele>
        <time>2015-05-22T15:38:26Z</time>
      </trkpt>
      <trkpt lat="45.8907" lon="6.19015">
        <ele>1257</ele>
        <time>2015-05-22T15:38:27Z</time>
      </trkpt>
      <trkpt lat="45.8907" lon="6.19015">
        <ele>1256</ele>
        <time>2015-05-22T15:38:28Z</time>
      </trkpt>
      <trkpt lat="45.89071" lon="6.19016">
        <ele>1257</ele>
        <time>2015-05-22T15:38:30Z</time>
      </trkpt>
      <trkpt lat="45.89071" lon="6.19016">
        <ele>1257</ele>
        <time>2015-05-22T15:38:31Z</time>
      </trkpt>
      <trkpt lat="45.89071" lon="6.19016">
        <ele>1256</ele>
        <time>2015-05-22T15:38:32Z</time>
      </trkpt>
      <trkpt lat="45.89071" lon="6.19016">
        <ele>1256</ele>
        <time>2015-05-22T15:38:33Z</time>
      </trkpt>
      <trkpt lat="45.89071" lon="6.19016">
        <ele>1256</ele>
        <time>2015-05-22T15:38:34Z</time>
      </trkpt>
      <trkpt lat="45.89072" lon="6.19016">
        <ele>1256</ele>
        <time>2015-05-22T15:38:35Z</time>
      </trkpt>
      <trkpt lat="45.89072" lon="6.19017">
        <ele>1256</ele>
        <time>2015-05-22T15:38:36Z</time>
      </trkpt>
      <trkpt lat="45.89073" lon="6.19019">
        <ele>1256</ele>
        <time>2015-05-22T15:38:37Z</time>
      </trkpt>
      <trkpt lat="45.89074" lon="6.1902">
        <ele>1257</ele>
        <time>2015-05-22T15:38:39Z</time>
      </trkpt>
      <trkpt lat="45.89073" lon="6.19022">
        <ele>1258</ele>
        <time>2015-05-22T15:38:41Z</time>
      </trkpt>
      <trkpt lat="45.89071" lon="6.19024">
        <ele>1259</ele>
        <time>2015-05-22T15:38:43Z</time>
      </trkpt>
      <trkpt lat="45.89069" lon="6.19025">
        <ele>1258</ele>
        <time>2015-05-22T15:38:45Z</time>
      </trkpt>
      <trkpt lat="45.89067" lon="6.19026">
        <ele>1258</ele>
        <time>2015-05-22T15:38:47Z</time>
      </trkpt>
      <trkpt lat="45.89067" lon="6.19026">
        <ele>1259</ele>
        <time>2015-05-22T15:38:49Z</time>
      </trkpt>
      <trkpt lat="45.89066" lon="6.19026">
        <ele>1259</ele>
        <time>2015-05-22T15:38:51Z</time>
      </trkpt>
      <trkpt lat="45.89066" lon="6.19025">
        <ele>1259</ele>
        <time>2015-05-22T15:38:52Z</time>
      </trkpt>
      <trkpt lat="45.89066" lon="6.19025">
        <ele>1259</ele>
        <time>2015-05-22T15:38:53Z</time>
      </trkpt>
      <trkpt lat="45.89066" lon="6.19025">
        <ele>1258</ele>
        <time>2015-05-22T15:38:54Z</time>
      </trkpt>
      <trkpt lat="45.89066" lon="6.19025">
        <ele>1258</ele>
        <time>2015-05-22T15:38:55Z</time>
      </trkpt>
      <trkpt lat="45.89066" lon="6.19025">
        <ele>1258</ele>
        <time>2015-05-22T15:38:56Z</time>
      </trkpt>
      <trkpt lat="45.89065" lon="6.19025">
        <ele>1258</ele>
        <time>2015-05-22T15:38:57Z</time>
      </trkpt>
      <trkpt lat="45.89065" lon="6.19024">
        <ele>1259</ele>
        <time>2015-05-22T15:38:58Z</time>
      </trkpt>
      <trkpt lat="45.89065" lon="6.19024">
        <ele>1259</ele>
        <time>2015-05-22T15:38:59Z</time>
      </trkpt>
      <trkpt lat="45.89065" lon="6.19024">
        <ele>1258</ele>
        <time>2015-05-22T15:39:00Z</time>
      </trkpt>
      <trkpt lat="45.89065" lon="6.19025">
        <ele>1257</ele>
        <time>2015-05-22T15:39:02Z</time>
      </trkpt>
      <trkpt lat="45.89065" lon="6.19025">
        <ele>1256</ele>
        <time>2015-05-22T15:39:04Z</time>
      </trkpt>
      <trkpt lat="45.89065" lon="6.19023">
        <ele>1255</ele>
        <time>2015-05-22T15:39:06Z</time>
      </trkpt>
      <trkpt lat="45.89063" lon="6.19023">
        <ele>1255</ele>
        <time>2015-05-22T15:39:08Z</time>
      </trkpt>
      <trkpt lat="45.89062" lon="6.19023">
        <ele>1254</ele>
        <time>2015-05-22T15:39:10Z</time>
      </trkpt>
      <trkpt lat="45.89063" lon="6.19023">
        <ele>1251</ele>
        <time>2015-05-22T15:39:11Z</time>
      </trkpt>
      <trkpt lat="45.89063" lon="6.19023">
        <ele>1250</ele>
        <time>2015-05-22T15:39:12Z</time>
      </trkpt>
      <trkpt lat="45.89063" lon="6.19023">
        <ele>1250</ele>
        <time>2015-05-22T15:39:13Z</time>
      </trkpt>
      <trkpt lat="45.89063" lon="6.19023">
        <ele>1250</ele>
        <time>2015-05-22T15:39:14Z</time>
      </trkpt>
      <trkpt lat="45.89063" lon="6.19023">
        <ele>1251</ele>
        <time>2015-05-22T15:39:15Z</time>
      </trkpt>
      <trkpt lat="45.89063" lon="6.19023">
        <ele>1250</ele>
        <time>2015-05-22T15:39:16Z</time>
      </trkpt>
      <trkpt lat="45.89063" lon="6.19023">
        <ele>1251</ele>
        <time>2015-05-22T15:39:18Z</time>
      </trkpt>
      <trkpt lat="45.89063" lon="6.19023">
        <ele>1251</ele>
        <time>2015-05-22T15:39:20Z</time>
      </trkpt>
      <trkpt lat="45.89063" lon="6.19022">
        <ele>1250</ele>
        <time>2015-05-22T15:39:22Z</time>
      </trkpt>
      <trkpt lat="45.89062" lon="6.19022">
        <ele>1249</ele>
        <time>2015-05-22T15:39:24Z</time>
      </trkpt>
      <trkpt lat="45.89061" lon="6.19022">
        <ele>1251</ele>
        <time>2015-05-22T15:39:26Z</time>
      </trkpt>
      <trkpt lat="45.89062" lon="6.19022">
        <ele>1250</ele>
        <time>2015-05-22T15:39:28Z</time>
      </trkpt>
      <trkpt lat="45.89061" lon="6.19023">
        <ele>1251</ele>
        <time>2015-05-22T15:39:30Z</time>
      </trkpt>
      <trkpt lat="45.89061" lon="6.19023">
        <ele>1250</ele>
        <time>2015-05-22T15:39:32Z</time>
      </trkpt>
      <trkpt lat="45.89061" lon="6.19024">
        <ele>1250</ele>
        <time>2015-05-22T15:39:34Z</time>
      </trkpt>
      <trkpt lat="45.89061" lon="6.19024">
        <ele>1250</ele>
        <time>2015-05-22T15:39:35Z</time>
      </trkpt>
      <trkpt lat="45.8906" lon="6.19023">
        <ele>1250</ele>
        <time>2015-05-22T15:39:36Z</time>
      </trkpt>
      <trkpt lat="45.8906" lon="6.19023">
        <ele>1249</ele>
        <time>2015-05-22T15:39:37Z</time>
      </trkpt>
      <trkpt lat="45.8906" lon="6.19023">
        <ele>1250</ele>
        <time>2015-05-22T15:39:38Z</time>
      </trkpt>
      <trkpt lat="45.8906" lon="6.19023">
        <ele>1250</ele>
        <time>2015-05-22T15:39:40Z</time>
      </trkpt>
      <trkpt lat="45.8906" lon="6.19024">
        <ele>1250</ele>
        <time>2015-05-22T15:39:42Z</time>
      </trkpt>
      <trkpt lat="45.89059" lon="6.19024">
        <ele>1250</ele>
        <time>2015-05-22T15:39:44Z</time>
      </trkpt>
      <trkpt lat="45.89058" lon="6.19025">
        <ele>1250</ele>
        <time>2015-05-22T15:39:46Z</time>
      </trkpt>
      <trkpt lat="45.89058" lon="6.19028">
        <ele>1249</ele>
        <time>2015-05-22T15:39:48Z</time>
      </trkpt>
      <trkpt lat="45.89058" lon="6.19029">
        <ele>1248</ele>
        <time>2015-05-22T15:39:49Z</time>
      </trkpt>
      <trkpt lat="45.89057" lon="6.1903">
        <ele>1248</ele>
        <time>2015-05-22T15:39:51Z</time>
      </trkpt>
      <trkpt lat="45.89057" lon="6.1903">
        <ele>1248</ele>
        <time>2015-05-22T15:39:53Z</time>
      </trkpt>
      <trkpt lat="45.89057" lon="6.1903">
        <ele>1248</ele>
        <time>2015-05-22T15:39:54Z</time>
      </trkpt>
      <trkpt lat="45.89058" lon="6.19031">
        <ele>1248</ele>
        <time>2015-05-22T15:39:55Z</time>
      </trkpt>
      <trkpt lat="45.89057" lon="6.19032">
        <ele>1248</ele>
        <time>2015-05-22T15:39:56Z</time>
      </trkpt>
      <trkpt lat="45.89057" lon="6.19033">
        <ele>1249</ele>
        <time>2015-05-22T15:39:58Z</time>
      </trkpt>
      <trkpt lat="45.89057" lon="6.19033">
        <ele>1248</ele>
        <time>2015-05-22T15:40:00Z</time>
      </trkpt>
      <trkpt lat="45.89056" lon="6.19035">
        <ele>1247</ele>
        <time>2015-05-22T15:40:02Z</time>
      </trkpt>
      <trkpt lat="45.89056" lon="6.19036">
        <ele>1246</ele>
        <time>2015-05-22T15:40:04Z</time>
      </trkpt>
      <trkpt lat="45.89056" lon="6.19036">
        <ele>1247</ele>
        <time>2015-05-22T15:40:06Z</time>
      </trkpt>
      <trkpt lat="45.89058" lon="6.19037">
        <ele>1245</ele>
        <time>2015-05-22T15:40:08Z</time>
      </trkpt>
      <trkpt lat="45.89058" lon="6.19038">
        <ele>1245</ele>
        <time>2015-05-22T15:40:10Z</time>
      </trkpt>
      <trkpt lat="45.89058" lon="6.1904">
        <ele>1245</ele>
        <time>2015-05-22T15:40:11Z</time>
      </trkpt>
      <trkpt lat="45.89058" lon="6.1904">
        <ele>1244</ele>
        <time>2015-05-22T15:40:12Z</time>
      </trkpt>
      <trkpt lat="45.89059" lon="6.1904">
        <ele>1243</ele>
        <time>2015-05-22T15:40:13Z</time>
      </trkpt>
      <trkpt lat="45.89059" lon="6.1904">
        <ele>1243</ele>
        <time>2015-05-22T15:40:14Z</time>
      </trkpt>
      <trkpt lat="45.89059" lon="6.1904">
        <ele>1243</ele>
        <time>2015-05-22T15:40:16Z</time>
      </trkpt>
      <trkpt lat="45.89059" lon="6.1904">
        <ele>1243</ele>
        <time>2015-05-22T15:40:18Z</time>
      </trkpt>
      <trkpt lat="45.89059" lon="6.19041">
        <ele>1243</ele>
        <time>2015-05-22T15:40:20Z</time>
      </trkpt>
      <trkpt lat="45.89059" lon="6.19043">
        <ele>1243</ele>
        <time>2015-05-22T15:40:22Z</time>
      </trkpt>
      <trkpt lat="45.89059" lon="6.19044">
        <ele>1244</ele>
        <time>2015-05-22T15:40:24Z</time>
      </trkpt>
      <trkpt lat="45.89059" lon="6.19044">
        <ele>1244</ele>
        <time>2015-05-22T15:40:26Z</time>
      </trkpt>
      <trkpt lat="45.8906" lon="6.19045">
        <ele>1242</ele>
        <time>2015-05-22T15:40:28Z</time>
      </trkpt>
      <trkpt lat="45.8906" lon="6.19045">
        <ele>1242</ele>
        <time>2015-05-22T15:40:29Z</time>
      </trkpt>
      <trkpt lat="45.8906" lon="6.19045">
        <ele>1242</ele>
        <time>2015-05-22T15:40:30Z</time>
      </trkpt>
      <trkpt lat="45.8906" lon="6.19046">
        <ele>1242</ele>
        <time>2015-05-22T15:40:31Z</time>
      </trkpt>
      <trkpt lat="45.8906" lon="6.19046">
        <ele>1242</ele>
        <time>2015-05-22T15:40:32Z</time>
      </trkpt>
      <trkpt lat="45.8906" lon="6.19046">
        <ele>1242</ele>
        <time>2015-05-22T15:40:33Z</time>
      </trkpt>
      <trkpt lat="45.89061" lon="6.19047">
        <ele>1243</ele>
        <time>2015-05-22T15:40:34Z</time>
      </trkpt>
      <trkpt lat="45.89061" lon="6.19047">
        <ele>1243</ele>
        <time>2015-05-22T15:40:35Z</time>
      </trkpt>
      <trkpt lat="45.89062" lon="6.19047">
        <ele>1241</ele>
        <time>2015-05-22T15:40:36Z</time>
      </trkpt>
      <trkpt lat="45.89061" lon="6.19048">
        <ele>1242</ele>
        <time>2015-05-22T15:40:39Z</time>
      </trkpt>
      <trkpt lat="45.89061" lon="6.19049">
        <ele>1241</ele>
        <time>2015-05-22T15:40:41Z</time>
      </trkpt>
      <trkpt lat="45.89061" lon="6.19049">
        <ele>1240</ele>
        <time>2015-05-22T15:40:43Z</time>
      </trkpt>
      <trkpt lat="45.89061" lon="6.19049">
        <ele>1240</ele>
        <time>2015-05-22T15:40:44Z</time>
      </trkpt>
      <trkpt lat="45.89061" lon="6.19048">
        <ele>1240</ele>
        <time>2015-05-22T15:40:45Z</time>
      </trkpt>
      <trkpt lat="45.89062" lon="6.19048">
        <ele>1240</ele>
        <time>2015-05-22T15:40:46Z</time>
      </trkpt>
      <trkpt lat="45.89063" lon="6.1905">
        <ele>1241</ele>
        <time>2015-05-22T15:40:47Z</time>
      </trkpt>
      <trkpt lat="45.89063" lon="6.1905">
        <ele>1239</ele>
        <time>2015-05-22T15:40:48Z</time>
      </trkpt>
      <trkpt lat="45.89064" lon="6.1905">
        <ele>1239</ele>
        <time>2015-05-22T15:40:49Z</time>
      </trkpt>
      <trkpt lat="45.89063" lon="6.1905">
        <ele>1237</ele>
        <time>2015-05-22T15:40:50Z</time>
      </trkpt>
      <trkpt lat="45.89063" lon="6.1905">
        <ele>1235</ele>
        <time>2015-05-22T15:40:51Z</time>
      </trkpt>
      <trkpt lat="45.89063" lon="6.1905">
        <ele>1235</ele>
        <time>2015-05-22T15:40:52Z</time>
      </trkpt>
      <trkpt lat="45.89062" lon="6.19051">
        <ele>1234</ele>
        <time>2015-05-22T15:40:53Z</time>
      </trkpt>
      <trkpt lat="45.89062" lon="6.19053">
        <ele>1235</ele>
        <time>2015-05-22T15:40:55Z</time>
      </trkpt>
      <trkpt lat="45.89063" lon="6.19054">
        <ele>1235</ele>
        <time>2015-05-22T15:40:57Z</time>
      </trkpt>
      <trkpt lat="45.89063" lon="6.19054">
        <ele>1234</ele>
        <time>2015-05-22T15:40:59Z</time>
      </trkpt>
      <trkpt lat="45.89063" lon="6.19054">
        <ele>1234</ele>
        <time>2015-05-22T15:41:00Z</time>
      </trkpt>
      <trkpt lat="45.89064" lon="6.19053">
        <ele>1234</ele>
        <time>2015-05-22T15:41:01Z</time>
      </trkpt>
      <trkpt lat="45.89065" lon="6.19053">
        <ele>1234</ele>
        <time>2015-05-22T15:41:02Z</time>
      </trkpt>
      <trkpt lat="45.89065" lon="6.19053">
        <ele>1234</ele>
        <time>2015-05-22T15:41:03Z</time>
      </trkpt>
      <trkpt lat="45.89066" lon="6.19053">
        <ele>1233</ele>
        <time>2015-05-22T15:41:04Z</time>
      </trkpt>
      <trkpt lat="45.89066" lon="6.19052">
        <ele>1232</ele>
        <time>2015-05-22T15:41:05Z</time>
      </trkpt>
      <trkpt lat="45.89067" lon="6.19052">
        <ele>1232</ele>
        <time>2015-05-22T15:41:06Z</time>
      </trkpt>
      <trkpt lat="45.89067" lon="6.19053">
        <ele>1231</ele>
        <time>2015-05-22T15:41:07Z</time>
      </trkpt>
      <trkpt lat="45.89068" lon="6.19052">
        <ele>1230</ele>
        <time>2015-05-22T15:41:09Z</time>
      </trkpt>
      <trkpt lat="45.89068" lon="6.19053">
        <ele>1229</ele>
        <time>2015-05-22T15:41:11Z</time>
      </trkpt>
      <trkpt lat="45.89068" lon="6.19053">
        <ele>1230</ele>
        <time>2015-05-22T15:41:13Z</time>
      </trkpt>
      <trkpt lat="45.89068" lon="6.19054">
        <ele>1230</ele>
        <time>2015-05-22T15:41:15Z</time>
      </trkpt>
      <trkpt lat="45.89068" lon="6.19055">
        <ele>1230</ele>
        <time>2015-05-22T15:41:17Z</time>
      </trkpt>
      <trkpt lat="45.89068" lon="6.19056">
        <ele>1230</ele>
        <time>2015-05-22T15:41:18Z</time>
      </trkpt>
      <trkpt lat="45.89068" lon="6.19056">
        <ele>1230</ele>
        <time>2015-05-22T15:41:19Z</time>
      </trkpt>
      <trkpt lat="45.89068" lon="6.19056">
        <ele>1230</ele>
        <time>2015-05-22T15:41:20Z</time>
      </trkpt>
      <trkpt lat="45.89068" lon="6.19057">
        <ele>1230</ele>
        <time>2015-05-22T15:41:21Z</time>
      </trkpt>
      <trkpt lat="45.89068" lon="6.19057">
        <ele>1231</ele>
        <time>2015-05-22T15:41:22Z</time>
      </trkpt>
      <trkpt lat="45.89068" lon="6.19057">
        <ele>1231</ele>
        <time>2015-05-22T15:41:23Z</time>
      </trkpt>
      <trkpt lat="45.89068" lon="6.19057">
        <ele>1230</ele>
        <time>2015-05-22T15:41:24Z</time>
      </trkpt>
      <trkpt lat="45.89069" lon="6.19057">
        <ele>1230</ele>
        <time>2015-05-22T15:41:25Z</time>
      </trkpt>
      <trkpt lat="45.89069" lon="6.19058">
        <ele>1230</ele>
        <time>2015-05-22T15:41:26Z</time>
      </trkpt>
      <trkpt lat="45.89069" lon="6.19058">
        <ele>1230</ele>
        <time>2015-05-22T15:41:27Z</time>
      </trkpt>
      <trkpt lat="45.8907" lon="6.19058">
        <ele>1231</ele>
        <time>2015-05-22T15:41:29Z</time>
      </trkpt>
      <trkpt lat="45.8907" lon="6.19059">
        <ele>1231</ele>
        <time>2015-05-22T15:41:31Z</time>
      </trkpt>
      <trkpt lat="45.89071" lon="6.19059">
        <ele>1231</ele>
        <time>2015-05-22T15:41:33Z</time>
      </trkpt>
      <trkpt lat="45.89071" lon="6.19059">
        <ele>1230</ele>
        <time>2015-05-22T15:41:35Z</time>
      </trkpt>
      <trkpt lat="45.89071" lon="6.19059">
        <ele>1229</ele>
        <time>2015-05-22T15:41:37Z</time>
      </trkpt>
      <trkpt lat="45.89072" lon="6.19059">
        <ele>1229</ele>
        <time>2015-05-22T15:41:39Z</time>
      </trkpt>
      <trkpt lat="45.89072" lon="6.19059">
        <ele>1229</ele>
        <time>2015-05-22T15:41:41Z</time>
      </trkpt>
      <trkpt lat="45.89072" lon="6.19059">
        <ele>1229</ele>
        <time>2015-05-22T15:41:42Z</time>
      </trkpt>
      <trkpt lat="45.89072" lon="6.19059">
        <ele>1229</ele>
        <time>2015-05-22T15:41:43Z</time>
      </trkpt>
      <trkpt lat="45.89072" lon="6.19059">
        <ele>1229</ele>
        <time>2015-05-22T15:41:44Z</time>
      </trkpt>
      <trkpt lat="45.89072" lon="6.19059">
        <ele>1229</ele>
        <time>2015-05-22T15:41:45Z</time>
      </trkpt>
      <trkpt lat="45.89072" lon="6.19059">
        <ele>1229</ele>
        <time>2015-05-22T15:41:46Z</time>
      </trkpt>
      <trkpt lat="45.89072" lon="6.19059">
        <ele>1229</ele>
        <time>2015-05-22T15:41:47Z</time>
      </trkpt>
      <trkpt lat="45.89072" lon="6.1906">
        <ele>1230</ele>
        <time>2015-05-22T15:41:48Z</time>
      </trkpt>
      <trkpt lat="45.89072" lon="6.19059">
        <ele>1229</ele>
        <time>2015-05-22T15:41:49Z</time>
      </trkpt>
      <trkpt lat="45.89072" lon="6.19059">
        <ele>1228</ele>
        <time>2015-05-22T15:41:50Z</time>
      </trkpt>
      <trkpt lat="45.89072" lon="6.19059">
        <ele>1227</ele>
        <time>2015-05-22T15:41:52Z</time>
      </trkpt>
      <trkpt lat="45.89072" lon="6.19059">
        <ele>1228</ele>
        <time>2015-05-22T15:41:53Z</time>
      </trkpt>
      <trkpt lat="45.89072" lon="6.19059">
        <ele>1226</ele>
        <time>2015-05-22T15:41:55Z</time>
      </trkpt>
      <trkpt lat="45.89072" lon="6.19059">
        <ele>1226</ele>
        <time>2015-05-22T15:41:56Z</time>
      </trkpt>
      <trkpt lat="45.89072" lon="6.19058">
        <ele>1226</ele>
        <time>2015-05-22T15:41:57Z</time>
      </trkpt>
      <trkpt lat="45.89073" lon="6.19058">
        <ele>1225</ele>
        <time>2015-05-22T15:41:58Z</time>
      </trkpt>
      <trkpt lat="45.89073" lon="6.1906">
        <ele>1225</ele>
        <time>2015-05-22T15:42:00Z</time>
      </trkpt>
      <trkpt lat="45.89074" lon="6.1906">
        <ele>1226</ele>
        <time>2015-05-22T15:42:01Z</time>
      </trkpt>
      <trkpt lat="45.89074" lon="6.19061">
        <ele>1226</ele>
        <time>2015-05-22T15:42:02Z</time>
      </trkpt>
      <trkpt lat="45.89075" lon="6.19061">
        <ele>1226</ele>
        <time>2015-05-22T15:42:03Z</time>
      </trkpt>
      <trkpt lat="45.89075" lon="6.19061">
        <ele>1226</ele>
        <time>2015-05-22T15:42:04Z</time>
      </trkpt>
      <trkpt lat="45.89075" lon="6.19061">
        <ele>1226</ele>
        <time>2015-05-22T15:42:05Z</time>
      </trkpt>
      <trkpt lat="45.89075" lon="6.19062">
        <ele>1225</ele>
        <time>2015-05-22T15:42:06Z</time>
      </trkpt>
      <trkpt lat="45.89075" lon="6.19062">
        <ele>1225</ele>
        <time>2015-05-22T15:42:07Z</time>
      </trkpt>
      <trkpt lat="45.89075" lon="6.19062">
        <ele>1225</ele>
        <time>2015-05-22T15:42:08Z</time>
      </trkpt>
      <trkpt lat="45.89076" lon="6.19063">
        <ele>1226</ele>
        <time>2015-05-22T15:42:09Z</time>
      </trkpt>
      <trkpt lat="45.89075" lon="6.19063">
        <ele>1226</ele>
        <time>2015-05-22T15:42:10Z</time>
      </trkpt>
      <trkpt lat="45.89076" lon="6.19063">
        <ele>1227</ele>
        <time>2015-05-22T15:42:11Z</time>
      </trkpt>
      <trkpt lat="45.89076" lon="6.19063">
        <ele>1226</ele>
        <time>2015-05-22T15:42:12Z</time>
      </trkpt>
      <trkpt lat="45.89076" lon="6.19063">
        <ele>1225</ele>
        <time>2015-05-22T15:42:14Z</time>
      </trkpt>
      <trkpt lat="45.89077" lon="6.19062">
        <ele>1225</ele>
        <time>2015-05-22T15:42:16Z</time>
      </trkpt>
      <trkpt lat="45.89077" lon="6.19064">
        <ele>1224</ele>
        <time>2015-05-22T15:42:18Z</time>
      </trkpt>
      <trkpt lat="45.89078" lon="6.19064">
        <ele>1223</ele>
        <time>2015-05-22T15:42:20Z</time>
      </trkpt>
      <trkpt lat="45.8908" lon="6.19064">
        <ele>1223</ele>
        <time>2015-05-22T15:42:22Z</time>
      </trkpt>
      <trkpt lat="45.89081" lon="6.19065">
        <ele>1223</ele>
        <time>2015-05-22T15:42:23Z</time>
      </trkpt>
      <trkpt lat="45.89081" lon="6.19065">
        <ele>1223</ele>
        <time>2015-05-22T15:42:24Z</time>
      </trkpt>
      <trkpt lat="45.89081" lon="6.19065">
        <ele>1223</ele>
        <time>2015-05-22T15:42:25Z</time>
      </trkpt>
      <trkpt lat="45.89083" lon="6.19067">
        <ele>1224</ele>
        <time>2015-05-22T15:42:26Z</time>
      </trkpt>
      <trkpt lat="45.89083" lon="6.19067">
        <ele>1223</ele>
        <time>2015-05-22T15:42:27Z</time>
      </trkpt>
      <trkpt lat="45.89084" lon="6.19068">
        <ele>1223</ele>
        <time>2015-05-22T15:42:28Z</time>
      </trkpt>
      <trkpt lat="45.89085" lon="6.19069">
        <ele>1223</ele>
        <time>2015-05-22T15:42:30Z</time>
      </trkpt>
      <trkpt lat="45.89085" lon="6.19069">
        <ele>1223</ele>
        <time>2015-05-22T15:42:32Z</time>
      </trkpt>
      <trkpt lat="45.89088" lon="6.1907">
        <ele>1224</ele>
        <time>2015-05-22T15:42:34Z</time>
      </trkpt>
      <trkpt lat="45.8909" lon="6.19071">
        <ele>1224</ele>
        <time>2015-05-22T15:42:36Z</time>
      </trkpt>
      <trkpt lat="45.89091" lon="6.19071">
        <ele>1222</ele>
        <time>2015-05-22T15:42:38Z</time>
      </trkpt>
      <trkpt lat="45.89092" lon="6.1907">
        <ele>1219</ele>
        <time>2015-05-22T15:42:39Z</time>
      </trkpt>
      <trkpt lat="45.89092" lon="6.19069">
        <ele>1218</ele>
        <time>2015-05-22T15:42:40Z</time>
      </trkpt>
      <trkpt lat="45.89093" lon="6.19069">
        <ele>1218</ele>
        <time>2015-05-22T15:42:41Z</time>
      </trkpt>
      <trkpt lat="45.89093" lon="6.1907">
        <ele>1218</ele>
        <time>2015-05-22T15:42:42Z</time>
      </trkpt>
      <trkpt lat="45.89094" lon="6.1907">
        <ele>1218</ele>
        <time>2015-05-22T15:42:43Z</time>
      </trkpt>
      <trkpt lat="45.89094" lon="6.19069">
        <ele>1217</ele>
        <time>2015-05-22T15:42:44Z</time>
      </trkpt>
      <trkpt lat="45.89094" lon="6.19068">
        <ele>1218</ele>
        <time>2015-05-22T15:42:45Z</time>
      </trkpt>
      <trkpt lat="45.89094" lon="6.19068">
        <ele>1218</ele>
        <time>2015-05-22T15:42:46Z</time>
      </trkpt>
      <trkpt lat="45.89096" lon="6.19066">
        <ele>1217</ele>
        <time>2015-05-22T15:42:48Z</time>
      </trkpt>
      <trkpt lat="45.89097" lon="6.19068">
        <ele>1217</ele>
        <time>2015-05-22T15:42:50Z</time>
      </trkpt>
      <trkpt lat="45.89098" lon="6.19069">
        <ele>1217</ele>
        <time>2015-05-22T15:42:52Z</time>
      </trkpt>
      <trkpt lat="45.891" lon="6.19069">
        <ele>1216</ele>
        <time>2015-05-22T15:42:54Z</time>
      </trkpt>
      <trkpt lat="45.891" lon="6.1907">
        <ele>1215</ele>
        <time>2015-05-22T15:42:56Z</time>
      </trkpt>
      <trkpt lat="45.89102" lon="6.19069">
        <ele>1215</ele>
        <time>2015-05-22T15:42:58Z</time>
      </trkpt>
      <trkpt lat="45.89102" lon="6.19069">
        <ele>1214</ele>
        <time>2015-05-22T15:43:00Z</time>
      </trkpt>
      <trkpt lat="45.89103" lon="6.19069">
        <ele>1215</ele>
        <time>2015-05-22T15:43:01Z</time>
      </trkpt>
      <trkpt lat="45.89103" lon="6.19069">
        <ele>1214</ele>
        <time>2015-05-22T15:43:02Z</time>
      </trkpt>
      <trkpt lat="45.89104" lon="6.19071">
        <ele>1214</ele>
        <time>2015-05-22T15:43:03Z</time>
      </trkpt>
      <trkpt lat="45.89105" lon="6.19071">
        <ele>1214</ele>
        <time>2015-05-22T15:43:04Z</time>
      </trkpt>
      <trkpt lat="45.89105" lon="6.19071">
        <ele>1214</ele>
        <time>2015-05-22T15:43:05Z</time>
      </trkpt>
      <trkpt lat="45.89105" lon="6.19071">
        <ele>1214</ele>
        <time>2015-05-22T15:43:06Z</time>
      </trkpt>
      <trkpt lat="45.89107" lon="6.1907">
        <ele>1211</ele>
        <time>2015-05-22T15:43:08Z</time>
      </trkpt>
      <trkpt lat="45.89107" lon="6.19072">
        <ele>1211</ele>
        <time>2015-05-22T15:43:10Z</time>
      </trkpt>
      <trkpt lat="45.89109" lon="6.19073">
        <ele>1213</ele>
        <time>2015-05-22T15:43:12Z</time>
      </trkpt>
      <trkpt lat="45.89111" lon="6.19073">
        <ele>1212</ele>
        <time>2015-05-22T15:43:14Z</time>
      </trkpt>
      <trkpt lat="45.89111" lon="6.19074">
        <ele>1212</ele>
        <time>2015-05-22T15:43:16Z</time>
      </trkpt>
      <trkpt lat="45.89114" lon="6.19075">
        <ele>1211</ele>
        <time>2015-05-22T15:43:18Z</time>
      </trkpt>
      <trkpt lat="45.89115" lon="6.19076">
        <ele>1211</ele>
        <time>2015-05-22T15:43:20Z</time>
      </trkpt>
      <trkpt lat="45.89115" lon="6.19077">
        <ele>1211</ele>
        <time>2015-05-22T15:43:21Z</time>
      </trkpt>
      <trkpt lat="45.89116" lon="6.19077">
        <ele>1211</ele>
        <time>2015-05-22T15:43:22Z</time>
      </trkpt>
      <trkpt lat="45.89117" lon="6.19077">
        <ele>1211</ele>
        <time>2015-05-22T15:43:23Z</time>
      </trkpt>
      <trkpt lat="45.89117" lon="6.19077">
        <ele>1211</ele>
        <time>2015-05-22T15:43:24Z</time>
      </trkpt>
      <trkpt lat="45.89117" lon="6.19077">
        <ele>1212</ele>
        <time>2015-05-22T15:43:25Z</time>
      </trkpt>
      <trkpt lat="45.89117" lon="6.19077">
        <ele>1211</ele>
        <time>2015-05-22T15:43:27Z</time>
      </trkpt>
      <trkpt lat="45.89117" lon="6.19077">
        <ele>1211</ele>
        <time>2015-05-22T15:43:29Z</time>
      </trkpt>
      <trkpt lat="45.89117" lon="6.19077">
        <ele>1211</ele>
        <time>2015-05-22T15:43:31Z</time>
      </trkpt>
      <trkpt lat="45.89118" lon="6.19077">
        <ele>1212</ele>
        <time>2015-05-22T15:43:33Z</time>
      </trkpt>
      <trkpt lat="45.89117" lon="6.19077">
        <ele>1212</ele>
        <time>2015-05-22T15:43:35Z</time>
      </trkpt>
      <trkpt lat="45.89118" lon="6.19078">
        <ele>1212</ele>
        <time>2015-05-22T15:43:37Z</time>
      </trkpt>
      <trkpt lat="45.89118" lon="6.19077">
        <ele>1212</ele>
        <time>2015-05-22T15:43:39Z</time>
      </trkpt>
      <trkpt lat="45.89117" lon="6.19077">
        <ele>1212</ele>
        <time>2015-05-22T15:43:41Z</time>
      </trkpt>
      <trkpt lat="45.89117" lon="6.19077">
        <ele>1212</ele>
        <time>2015-05-22T15:43:42Z</time>
      </trkpt>
      <trkpt lat="45.89117" lon="6.19077">
        <ele>1212</ele>
        <time>2015-05-22T15:43:43Z</time>
      </trkpt>
      <trkpt lat="45.89117" lon="6.19077">
        <ele>1212</ele>
        <time>2015-05-22T15:43:44Z</time>
      </trkpt>
      <trkpt lat="45.89117" lon="6.19077">
        <ele>1212</ele>
        <time>2015-05-22T15:43:45Z</time>
      </trkpt>
      <trkpt lat="45.89116" lon="6.19077">
        <ele>1212</ele>
        <time>2015-05-22T15:43:47Z</time>
      </trkpt>
      <trkpt lat="45.89115" lon="6.19079">
        <ele>1215</ele>
        <time>2015-05-22T15:43:49Z</time>
      </trkpt>
      <trkpt lat="45.89113" lon="6.1908">
        <ele>1215</ele>
        <time>2015-05-22T15:43:50Z</time>
      </trkpt>
      <trkpt lat="45.89112" lon="6.1908">
        <ele>1217</ele>
        <time>2015-05-22T15:43:52Z</time>
      </trkpt>
      <trkpt lat="45.89111" lon="6.19081">
        <ele>1218</ele>
        <time>2015-05-22T15:43:53Z</time>
      </trkpt>
      <trkpt lat="45.89111" lon="6.19081">
        <ele>1218</ele>
        <time>2015-05-22T15:43:54Z</time>
      </trkpt>
      <trkpt lat="45.89111" lon="6.19081">
        <ele>1218</ele>
        <time>2015-05-22T15:43:56Z</time>
      </trkpt>
      <trkpt lat="45.8911" lon="6.1908">
        <ele>1220</ele>
        <time>2015-05-22T15:43:58Z</time>
      </trkpt>
      <trkpt lat="45.89108" lon="6.19081">
        <ele>1221</ele>
        <time>2015-05-22T15:44:00Z</time>
      </trkpt>
      <trkpt lat="45.89108" lon="6.19081">
        <ele>1222</ele>
        <time>2015-05-22T15:44:01Z</time>
      </trkpt>
      <trkpt lat="45.89108" lon="6.19081">
        <ele>1222</ele>
        <time>2015-05-22T15:44:02Z</time>
      </trkpt>
      <trkpt lat="45.89108" lon="6.19082">
        <ele>1221</ele>
        <time>2015-05-22T15:44:03Z</time>
      </trkpt>
      <trkpt lat="45.89108" lon="6.19082">
        <ele>1221</ele>
        <time>2015-05-22T15:44:04Z</time>
      </trkpt>
      <trkpt lat="45.89107" lon="6.19083">
        <ele>1223</ele>
        <time>2015-05-22T15:44:05Z</time>
      </trkpt>
      <trkpt lat="45.89108" lon="6.19084">
        <ele>1223</ele>
        <time>2015-05-22T15:44:07Z</time>
      </trkpt>
      <trkpt lat="45.89108" lon="6.19084">
        <ele>1223</ele>
        <time>2015-05-22T15:44:09Z</time>
      </trkpt>
      <trkpt lat="45.89108" lon="6.19084">
        <ele>1222</ele>
        <time>2015-05-22T15:44:11Z</time>
      </trkpt>
      <trkpt lat="45.89106" lon="6.19086">
        <ele>1223</ele>
        <time>2015-05-22T15:44:13Z</time>
      </trkpt>
      <trkpt lat="45.89105" lon="6.19086">
        <ele>1222</ele>
        <time>2015-05-22T15:44:15Z</time>
      </trkpt>
      <trkpt lat="45.89105" lon="6.19086">
        <ele>1223</ele>
        <time>2015-05-22T15:44:17Z</time>
      </trkpt>
      <trkpt lat="45.89104" lon="6.19086">
        <ele>1223</ele>
        <time>2015-05-22T15:44:18Z</time>
      </trkpt>
      <trkpt lat="45.89104" lon="6.19086">
        <ele>1223</ele>
        <time>2015-05-22T15:44:19Z</time>
      </trkpt>
      <trkpt lat="45.89103" lon="6.19087">
        <ele>1224</ele>
        <time>2015-05-22T15:44:20Z</time>
      </trkpt>
      <trkpt lat="45.89103" lon="6.19086">
        <ele>1224</ele>
        <time>2015-05-22T15:44:21Z</time>
      </trkpt>
      <trkpt lat="45.89103" lon="6.19086">
        <ele>1223</ele>
        <time>2015-05-22T15:44:23Z</time>
      </trkpt>
      <trkpt lat="45.89103" lon="6.19087">
        <ele>1221</ele>
        <time>2015-05-22T15:44:24Z</time>
      </trkpt>
      <trkpt lat="45.89103" lon="6.19086">
        <ele>1221</ele>
        <time>2015-05-22T15:44:25Z</time>
      </trkpt>
      <trkpt lat="45.89102" lon="6.19086">
        <ele>1221</ele>
        <time>2015-05-22T15:44:26Z</time>
      </trkpt>
      <trkpt lat="45.89102" lon="6.19086">
        <ele>1221</ele>
        <time>2015-05-22T15:44:27Z</time>
      </trkpt>
      <trkpt lat="45.89102" lon="6.19086">
        <ele>1221</ele>
        <time>2015-05-22T15:44:29Z</time>
      </trkpt>
      <trkpt lat="45.89101" lon="6.19087">
        <ele>1219</ele>
        <time>2015-05-22T15:44:31Z</time>
      </trkpt>
      <trkpt lat="45.891" lon="6.19087">
        <ele>1216</ele>
        <time>2015-05-22T15:44:33Z</time>
      </trkpt>
      <trkpt lat="45.89099" lon="6.19087">
        <ele>1215</ele>
        <time>2015-05-22T15:44:35Z</time>
      </trkpt>
      <trkpt lat="45.89099" lon="6.19089">
        <ele>1215</ele>
        <time>2015-05-22T15:44:37Z</time>
      </trkpt>
      <trkpt lat="45.89098" lon="6.19089">
        <ele>1215</ele>
        <time>2015-05-22T15:44:39Z</time>
      </trkpt>
      <trkpt lat="45.89097" lon="6.1909">
        <ele>1215</ele>
        <time>2015-05-22T15:44:41Z</time>
      </trkpt>
      <trkpt lat="45.89096" lon="6.1909">
        <ele>1215</ele>
        <time>2015-05-22T15:44:42Z</time>
      </trkpt>
      <trkpt lat="45.89097" lon="6.1909">
        <ele>1211</ele>
        <time>2015-05-22T15:44:43Z</time>
      </trkpt>
      <trkpt lat="45.89097" lon="6.19091">
        <ele>1212</ele>
        <time>2015-05-22T15:44:44Z</time>
      </trkpt>
      <trkpt lat="45.89098" lon="6.19091">
        <ele>1210</ele>
        <time>2015-05-22T15:44:45Z</time>
      </trkpt>
      <trkpt lat="45.89097" lon="6.19092">
        <ele>1211</ele>
        <time>2015-05-22T15:44:46Z</time>
      </trkpt>
      <trkpt lat="45.89097" lon="6.19092">
        <ele>1211</ele>
        <time>2015-05-22T15:44:47Z</time>
      </trkpt>
      <trkpt lat="45.89098" lon="6.19092">
        <ele>1209</ele>
        <time>2015-05-22T15:44:49Z</time>
      </trkpt>
      <trkpt lat="45.89099" lon="6.19093">
        <ele>1208</ele>
        <time>2015-05-22T15:44:51Z</time>
      </trkpt>
      <trkpt lat="45.89101" lon="6.19093">
        <ele>1207</ele>
        <time>2015-05-22T15:44:53Z</time>
      </trkpt>
      <trkpt lat="45.89102" lon="6.19093">
        <ele>1205</ele>
        <time>2015-05-22T15:44:55Z</time>
      </trkpt>
      <trkpt lat="45.89103" lon="6.19095">
        <ele>1205</ele>
        <time>2015-05-22T15:44:57Z</time>
      </trkpt>
      <trkpt lat="45.89103" lon="6.19096">
        <ele>1205</ele>
        <time>2015-05-22T15:44:59Z</time>
      </trkpt>
      <trkpt lat="45.89103" lon="6.19096">
        <ele>1205</ele>
        <time>2015-05-22T15:45:01Z</time>
      </trkpt>
      <trkpt lat="45.89102" lon="6.19097">
        <ele>1205</ele>
        <time>2015-05-22T15:45:02Z</time>
      </trkpt>
      <trkpt lat="45.89101" lon="6.19099">
        <ele>1206</ele>
        <time>2015-05-22T15:45:03Z</time>
      </trkpt>
      <trkpt lat="45.89101" lon="6.19098">
        <ele>1205</ele>
        <time>2015-05-22T15:45:04Z</time>
      </trkpt>
      <trkpt lat="45.89101" lon="6.19099">
        <ele>1205</ele>
        <time>2015-05-22T15:45:05Z</time>
      </trkpt>
      <trkpt lat="45.89101" lon="6.19098">
        <ele>1205</ele>
        <time>2015-05-22T15:45:06Z</time>
      </trkpt>
      <trkpt lat="45.891" lon="6.19098">
        <ele>1206</ele>
        <time>2015-05-22T15:45:07Z</time>
      </trkpt>
      <trkpt lat="45.891" lon="6.19098">
        <ele>1207</ele>
        <time>2015-05-22T15:45:08Z</time>
      </trkpt>
      <trkpt lat="45.891" lon="6.19098">
        <ele>1207</ele>
        <time>2015-05-22T15:45:09Z</time>
      </trkpt>
      <trkpt lat="45.89099" lon="6.19099">
        <ele>1207</ele>
        <time>2015-05-22T15:45:11Z</time>
      </trkpt>
      <trkpt lat="45.89099" lon="6.19099">
        <ele>1207</ele>
        <time>2015-05-22T15:45:12Z</time>
      </trkpt>
      <trkpt lat="45.89099" lon="6.19099">
        <ele>1207</ele>
        <time>2015-05-22T15:45:14Z</time>
      </trkpt>
      <trkpt lat="45.89098" lon="6.19099">
        <ele>1207</ele>
        <time>2015-05-22T15:45:15Z</time>
      </trkpt>
      <trkpt lat="45.89097" lon="6.191">
        <ele>1207</ele>
        <time>2015-05-22T15:45:16Z</time>
      </trkpt>
      <trkpt lat="45.89097" lon="6.191">
        <ele>1208</ele>
        <time>2015-05-22T15:45:17Z</time>
      </trkpt>
      <trkpt lat="45.89097" lon="6.191">
        <ele>1208</ele>
        <time>2015-05-22T15:45:18Z</time>
      </trkpt>
      <trkpt lat="45.89096" lon="6.191">
        <ele>1208</ele>
        <time>2015-05-22T15:45:19Z</time>
      </trkpt>
      <trkpt lat="45.89096" lon="6.191">
        <ele>1208</ele>
        <time>2015-05-22T15:45:20Z</time>
      </trkpt>
      <trkpt lat="45.89095" lon="6.191">
        <ele>1208</ele>
        <time>2015-05-22T15:45:21Z</time>
      </trkpt>
      <trkpt lat="45.89095" lon="6.191">
        <ele>1208</ele>
        <time>2015-05-22T15:45:22Z</time>
      </trkpt>
      <trkpt lat="45.89095" lon="6.191">
        <ele>1209</ele>
        <time>2015-05-22T15:45:23Z</time>
      </trkpt>
      <trkpt lat="45.89094" lon="6.19099">
        <ele>1209</ele>
        <time>2015-05-22T15:45:24Z</time>
      </trkpt>
      <trkpt lat="45.89094" lon="6.19099">
        <ele>1209</ele>
        <time>2015-05-22T15:45:25Z</time>
      </trkpt>
      <trkpt lat="45.89094" lon="6.19099">
        <ele>1209</ele>
        <time>2015-05-22T15:45:26Z</time>
      </trkpt>
      <trkpt lat="45.89092" lon="6.19099">
        <ele>1208</ele>
        <time>2015-05-22T15:45:27Z</time>
      </trkpt>
      <trkpt lat="45.89091" lon="6.191">
        <ele>1208</ele>
        <time>2015-05-22T15:45:28Z</time>
      </trkpt>
      <trkpt lat="45.89089" lon="6.191">
        <ele>1207</ele>
        <time>2015-05-22T15:45:30Z</time>
      </trkpt>
      <trkpt lat="45.89087" lon="6.19102">
        <ele>1205</ele>
        <time>2015-05-22T15:45:32Z</time>
      </trkpt>
      <trkpt lat="45.89087" lon="6.19103">
        <ele>1200</ele>
        <time>2015-05-22T15:45:34Z</time>
      </trkpt>
      <trkpt lat="45.89088" lon="6.19104">
        <ele>1199</ele>
        <time>2015-05-22T15:45:36Z</time>
      </trkpt>
      <trkpt lat="45.89088" lon="6.19105">
        <ele>1201</ele>
        <time>2015-05-22T15:45:38Z</time>
      </trkpt>
      <trkpt lat="45.89088" lon="6.19105">
        <ele>1201</ele>
        <time>2015-05-22T15:45:40Z</time>
      </trkpt>
      <trkpt lat="45.8909" lon="6.19108">
        <ele>1201</ele>
        <time>2015-05-22T15:45:42Z</time>
      </trkpt>
      <trkpt lat="45.89091" lon="6.19108">
        <ele>1200</ele>
        <time>2015-05-22T15:45:43Z</time>
      </trkpt>
      <trkpt lat="45.89091" lon="6.19108">
        <ele>1200</ele>
        <time>2015-05-22T15:45:44Z</time>
      </trkpt>
      <trkpt lat="45.89092" lon="6.19108">
        <ele>1199</ele>
        <time>2015-05-22T15:45:45Z</time>
      </trkpt>
      <trkpt lat="45.89093" lon="6.19109">
        <ele>1198</ele>
        <time>2015-05-22T15:45:46Z</time>
      </trkpt>
      <trkpt lat="45.89094" lon="6.19109">
        <ele>1197</ele>
        <time>2015-05-22T15:45:47Z</time>
      </trkpt>
      <trkpt lat="45.89094" lon="6.19109">
        <ele>1196</ele>
        <time>2015-05-22T15:45:48Z</time>
      </trkpt>
      <trkpt lat="45.89096" lon="6.1911">
        <ele>1195</ele>
        <time>2015-05-22T15:45:50Z</time>
      </trkpt>
      <trkpt lat="45.89097" lon="6.1911">
        <ele>1193</ele>
        <time>2015-05-22T15:45:52Z</time>
      </trkpt>
      <trkpt lat="45.89099" lon="6.19112">
        <ele>1192</ele>
        <time>2015-05-22T15:45:54Z</time>
      </trkpt>
      <trkpt lat="45.891" lon="6.19114">
        <ele>1192</ele>
        <time>2015-05-22T15:45:56Z</time>
      </trkpt>
      <trkpt lat="45.891" lon="6.19116">
        <ele>1194</ele>
        <time>2015-05-22T15:45:58Z</time>
      </trkpt>
      <trkpt lat="45.891" lon="6.19116">
        <ele>1194</ele>
        <time>2015-05-22T15:45:59Z</time>
      </trkpt>
      <trkpt lat="45.891" lon="6.19116">
        <ele>1194</ele>
        <time>2015-05-22T15:46:00Z</time>
      </trkpt>
      <trkpt lat="45.891" lon="6.19116">
        <ele>1194</ele>
        <time>2015-05-22T15:46:01Z</time>
      </trkpt>
      <trkpt lat="45.89099" lon="6.19117">
        <ele>1194</ele>
        <time>2015-05-22T15:46:02Z</time>
      </trkpt>
      <trkpt lat="45.89099" lon="6.19116">
        <ele>1193</ele>
        <time>2015-05-22T15:46:04Z</time>
      </trkpt>
      <trkpt lat="45.89099" lon="6.19116">
        <ele>1193</ele>
        <time>2015-05-22T15:46:05Z</time>
      </trkpt>
      <trkpt lat="45.89098" lon="6.19116">
        <ele>1193</ele>
        <time>2015-05-22T15:46:06Z</time>
      </trkpt>
      <trkpt lat="45.89098" lon="6.19116">
        <ele>1193</ele>
        <time>2015-05-22T15:46:07Z</time>
      </trkpt>
      <trkpt lat="45.89098" lon="6.19116">
        <ele>1193</ele>
        <time>2015-05-22T15:46:08Z</time>
      </trkpt>
      <trkpt lat="45.89098" lon="6.19116">
        <ele>1193</ele>
        <time>2015-05-22T15:46:10Z</time>
      </trkpt>
      <trkpt lat="45.89098" lon="6.19116">
        <ele>1193</ele>
        <time>2015-05-22T15:46:12Z</time>
      </trkpt>
      <trkpt lat="45.89098" lon="6.19116">
        <ele>1193</ele>
        <time>2015-05-22T15:46:14Z</time>
      </trkpt>
      <trkpt lat="45.89098" lon="6.19116">
        <ele>1193</ele>
        <time>2015-05-22T15:46:16Z</time>
      </trkpt>
      <trkpt lat="45.89097" lon="6.19117">
        <ele>1194</ele>
        <time>2015-05-22T15:46:18Z</time>
      </trkpt>
      <trkpt lat="45.89094" lon="6.19119">
        <ele>1195</ele>
        <time>2015-05-22T15:46:20Z</time>
      </trkpt>
      <trkpt lat="45.89093" lon="6.19119">
        <ele>1194</ele>
        <time>2015-05-22T15:46:22Z</time>
      </trkpt>
      <trkpt lat="45.89092" lon="6.19119">
        <ele>1193</ele>
        <time>2015-05-22T15:46:23Z</time>
      </trkpt>
      <trkpt lat="45.89092" lon="6.1912">
        <ele>1193</ele>
        <time>2015-05-22T15:46:24Z</time>
      </trkpt>
      <trkpt lat="45.89092" lon="6.19119">
        <ele>1194</ele>
        <time>2015-05-22T15:46:25Z</time>
      </trkpt>
      <trkpt lat="45.89092" lon="6.19119">
        <ele>1194</ele>
        <time>2015-05-22T15:46:26Z</time>
      </trkpt>
      <trkpt lat="45.8909" lon="6.1912">
        <ele>1195</ele>
        <time>2015-05-22T15:46:27Z</time>
      </trkpt>
      <trkpt lat="45.89089" lon="6.1912">
        <ele>1195</ele>
        <time>2015-05-22T15:46:28Z</time>
      </trkpt>
      <trkpt lat="45.89088" lon="6.19121">
        <ele>1196</ele>
        <time>2015-05-22T15:46:30Z</time>
      </trkpt>
      <trkpt lat="45.89088" lon="6.19122">
        <ele>1196</ele>
        <time>2015-05-22T15:46:32Z</time>
      </trkpt>
      <trkpt lat="45.89087" lon="6.19122">
        <ele>1196</ele>
        <time>2015-05-22T15:46:34Z</time>
      </trkpt>
      <trkpt lat="45.89087" lon="6.19122">
        <ele>1196</ele>
        <time>2015-05-22T15:46:36Z</time>
      </trkpt>
      <trkpt lat="45.89085" lon="6.19122">
        <ele>1197</ele>
        <time>2015-05-22T15:46:38Z</time>
      </trkpt>
      <trkpt lat="45.89084" lon="6.19121">
        <ele>1199</ele>
        <time>2015-05-22T15:46:40Z</time>
      </trkpt>
      <trkpt lat="45.89083" lon="6.1912">
        <ele>1198</ele>
        <time>2015-05-22T15:46:42Z</time>
      </trkpt>
      <trkpt lat="45.89083" lon="6.1912">
        <ele>1198</ele>
        <time>2015-05-22T15:46:43Z</time>
      </trkpt>
      <trkpt lat="45.89082" lon="6.1912">
        <ele>1197</ele>
        <time>2015-05-22T15:46:44Z</time>
      </trkpt>
      <trkpt lat="45.89082" lon="6.1912">
        <ele>1197</ele>
        <time>2015-05-22T15:46:45Z</time>
      </trkpt>
      <trkpt lat="45.89081" lon="6.1912">
        <ele>1197</ele>
        <time>2015-05-22T15:46:46Z</time>
      </trkpt>
      <trkpt lat="45.89081" lon="6.1912">
        <ele>1197</ele>
        <time>2015-05-22T15:46:47Z</time>
      </trkpt>
      <trkpt lat="45.8908" lon="6.1912">
        <ele>1198</ele>
        <time>2015-05-22T15:46:48Z</time>
      </trkpt>
      <trkpt lat="45.89078" lon="6.19121">
        <ele>1199</ele>
        <time>2015-05-22T15:46:50Z</time>
      </trkpt>
      <trkpt lat="45.89078" lon="6.1912">
        <ele>1198</ele>
        <time>2015-05-22T15:46:52Z</time>
      </trkpt>
      <trkpt lat="45.89077" lon="6.19121">
        <ele>1198</ele>
        <time>2015-05-22T15:46:54Z</time>
      </trkpt>
      <trkpt lat="45.89075" lon="6.19121">
        <ele>1199</ele>
        <time>2015-05-22T15:46:56Z</time>
      </trkpt>
      <trkpt lat="45.89074" lon="6.1912">
        <ele>1200</ele>
        <time>2015-05-22T15:46:58Z</time>
      </trkpt>
      <trkpt lat="45.89073" lon="6.1912">
        <ele>1201</ele>
        <time>2015-05-22T15:47:00Z</time>
      </trkpt>
      <trkpt lat="45.89071" lon="6.1912">
        <ele>1200</ele>
        <time>2015-05-22T15:47:02Z</time>
      </trkpt>
      <trkpt lat="45.89071" lon="6.1912">
        <ele>1201</ele>
        <time>2015-05-22T15:47:03Z</time>
      </trkpt>
      <trkpt lat="45.8907" lon="6.1912">
        <ele>1202</ele>
        <time>2015-05-22T15:47:04Z</time>
      </trkpt>
      <trkpt lat="45.8907" lon="6.1912">
        <ele>1201</ele>
        <time>2015-05-22T15:47:05Z</time>
      </trkpt>
      <trkpt lat="45.8907" lon="6.19121">
        <ele>1202</ele>
        <time>2015-05-22T15:47:06Z</time>
      </trkpt>
      <trkpt lat="45.89069" lon="6.19121">
        <ele>1201</ele>
        <time>2015-05-22T15:47:07Z</time>
      </trkpt>
      <trkpt lat="45.89068" lon="6.19122">
        <ele>1199</ele>
        <time>2015-05-22T15:47:08Z</time>
      </trkpt>
      <trkpt lat="45.89066" lon="6.19124">
        <ele>1199</ele>
        <time>2015-05-22T15:47:10Z</time>
      </trkpt>
      <trkpt lat="45.89065" lon="6.19126">
        <ele>1199</ele>
        <time>2015-05-22T15:47:12Z</time>
      </trkpt>
      <trkpt lat="45.89065" lon="6.19128">
        <ele>1197</ele>
        <time>2015-05-22T15:47:14Z</time>
      </trkpt>
      <trkpt lat="45.89064" lon="6.1913">
        <ele>1197</ele>
        <time>2015-05-22T15:47:16Z</time>
      </trkpt>
      <trkpt lat="45.89064" lon="6.19133">
        <ele>1198</ele>
        <time>2015-05-22T15:47:18Z</time>
      </trkpt>
      <trkpt lat="45.89065" lon="6.19134">
        <ele>1196</ele>
        <time>2015-05-22T15:47:20Z</time>
      </trkpt>
      <trkpt lat="45.89065" lon="6.19134">
        <ele>1196</ele>
        <time>2015-05-22T15:47:22Z</time>
      </trkpt>
      <trkpt lat="45.89064" lon="6.19135">
        <ele>1196</ele>
        <time>2015-05-22T15:47:23Z</time>
      </trkpt>
      <trkpt lat="45.89064" lon="6.19135">
        <ele>1196</ele>
        <time>2015-05-22T15:47:24Z</time>
      </trkpt>
      <trkpt lat="45.89064" lon="6.19135">
        <ele>1195</ele>
        <time>2015-05-22T15:47:25Z</time>
      </trkpt>
      <trkpt lat="45.89064" lon="6.19135">
        <ele>1194</ele>
        <time>2015-05-22T15:47:26Z</time>
      </trkpt>
      <trkpt lat="45.89064" lon="6.19136">
        <ele>1193</ele>
        <time>2015-05-22T15:47:27Z</time>
      </trkpt>
      <trkpt lat="45.89064" lon="6.19137">
        <ele>1194</ele>
        <time>2015-05-22T15:47:28Z</time>
      </trkpt>
      <trkpt lat="45.89063" lon="6.19136">
        <ele>1193</ele>
        <time>2015-05-22T15:47:30Z</time>
      </trkpt>
      <trkpt lat="45.89062" lon="6.19137">
        <ele>1194</ele>
        <time>2015-05-22T15:47:32Z</time>
      </trkpt>
      <trkpt lat="45.89062" lon="6.19137">
        <ele>1194</ele>
        <time>2015-05-22T15:47:34Z</time>
      </trkpt>
      <trkpt lat="45.89062" lon="6.19138">
        <ele>1194</ele>
        <time>2015-05-22T15:47:36Z</time>
      </trkpt>
      <trkpt lat="45.89061" lon="6.19139">
        <ele>1194</ele>
        <time>2015-05-22T15:47:38Z</time>
      </trkpt>
      <trkpt lat="45.89061" lon="6.1914">
        <ele>1194</ele>
        <time>2015-05-22T15:47:40Z</time>
      </trkpt>
      <trkpt lat="45.8906" lon="6.19142">
        <ele>1195</ele>
        <time>2015-05-22T15:47:42Z</time>
      </trkpt>
      <trkpt lat="45.8906" lon="6.19142">
        <ele>1195</ele>
        <time>2015-05-22T15:47:43Z</time>
      </trkpt>
      <trkpt lat="45.8906" lon="6.19143">
        <ele>1195</ele>
        <time>2015-05-22T15:47:44Z</time>
      </trkpt>
      <trkpt lat="45.8906" lon="6.19145">
        <ele>1196</ele>
        <time>2015-05-22T15:47:45Z</time>
      </trkpt>
      <trkpt lat="45.89061" lon="6.19146">
        <ele>1196</ele>
        <time>2015-05-22T15:47:46Z</time>
      </trkpt>
      <trkpt lat="45.89061" lon="6.19147">
        <ele>1195</ele>
        <time>2015-05-22T15:47:47Z</time>
      </trkpt>
      <trkpt lat="45.89061" lon="6.19148">
        <ele>1194</ele>
        <time>2015-05-22T15:47:48Z</time>
      </trkpt>
      <trkpt lat="45.89061" lon="6.19149">
        <ele>1190</ele>
        <time>2015-05-22T15:47:50Z</time>
      </trkpt>
      <trkpt lat="45.89061" lon="6.19151">
        <ele>1190</ele>
        <time>2015-05-22T15:47:52Z</time>
      </trkpt>
      <trkpt lat="45.89062" lon="6.19153">
        <ele>1186</ele>
        <time>2015-05-22T15:47:54Z</time>
      </trkpt>
      <trkpt lat="45.89061" lon="6.19154">
        <ele>1184</ele>
        <time>2015-05-22T15:47:56Z</time>
      </trkpt>
      <trkpt lat="45.89062" lon="6.19154">
        <ele>1184</ele>
        <time>2015-05-22T15:47:58Z</time>
      </trkpt>
      <trkpt lat="45.89063" lon="6.19155">
        <ele>1183</ele>
        <time>2015-05-22T15:48:00Z</time>
      </trkpt>
      <trkpt lat="45.89063" lon="6.19158">
        <ele>1183</ele>
        <time>2015-05-22T15:48:02Z</time>
      </trkpt>
      <trkpt lat="45.89063" lon="6.19158">
        <ele>1182</ele>
        <time>2015-05-22T15:48:03Z</time>
      </trkpt>
      <trkpt lat="45.89063" lon="6.19159">
        <ele>1182</ele>
        <time>2015-05-22T15:48:04Z</time>
      </trkpt>
      <trkpt lat="45.89064" lon="6.19159">
        <ele>1180</ele>
        <time>2015-05-22T15:48:05Z</time>
      </trkpt>
      <trkpt lat="45.89063" lon="6.19161">
        <ele>1182</ele>
        <time>2015-05-22T15:48:06Z</time>
      </trkpt>
      <trkpt lat="45.89063" lon="6.19161">
        <ele>1180</ele>
        <time>2015-05-22T15:48:07Z</time>
      </trkpt>
      <trkpt lat="45.89062" lon="6.19162">
        <ele>1180</ele>
        <time>2015-05-22T15:48:08Z</time>
      </trkpt>
      <trkpt lat="45.89062" lon="6.19162">
        <ele>1181</ele>
        <time>2015-05-22T15:48:09Z</time>
      </trkpt>
      <trkpt lat="45.89062" lon="6.19163">
        <ele>1181</ele>
        <time>2015-05-22T15:48:10Z</time>
      </trkpt>
      <trkpt lat="45.89063" lon="6.19163">
        <ele>1179</ele>
        <time>2015-05-22T15:48:11Z</time>
      </trkpt>
      <trkpt lat="45.89063" lon="6.19163">
        <ele>1179</ele>
        <time>2015-05-22T15:48:12Z</time>
      </trkpt>
      <trkpt lat="45.89063" lon="6.19164">
        <ele>1179</ele>
        <time>2015-05-22T15:48:14Z</time>
      </trkpt>
      <trkpt lat="45.89063" lon="6.19165">
        <ele>1178</ele>
        <time>2015-05-22T15:48:16Z</time>
      </trkpt>
      <trkpt lat="45.89063" lon="6.19165">
        <ele>1178</ele>
        <time>2015-05-22T15:48:18Z</time>
      </trkpt>
      <trkpt lat="45.89063" lon="6.19165">
        <ele>1178</ele>
        <time>2015-05-22T15:48:20Z</time>
      </trkpt>
      <trkpt lat="45.89063" lon="6.19165">
        <ele>1178</ele>
        <time>2015-05-22T15:48:22Z</time>
      </trkpt>
      <trkpt lat="45.89063" lon="6.19166">
        <ele>1178</ele>
        <time>2015-05-22T15:48:23Z</time>
      </trkpt>
      <trkpt lat="45.89063" lon="6.19166">
        <ele>1178</ele>
        <time>2015-05-22T15:48:24Z</time>
      </trkpt>
      <trkpt lat="45.89063" lon="6.19166">
        <ele>1178</ele>
        <time>2015-05-22T15:48:25Z</time>
      </trkpt>
      <trkpt lat="45.89063" lon="6.19166">
        <ele>1178</ele>
        <time>2015-05-22T15:48:26Z</time>
      </trkpt>
      <trkpt lat="45.89063" lon="6.19166">
        <ele>1178</ele>
        <time>2015-05-22T15:48:27Z</time>
      </trkpt>
      <trkpt lat="45.89063" lon="6.19166">
        <ele>1178</ele>
        <time>2015-05-22T15:48:28Z</time>
      </trkpt>
      <trkpt lat="45.89063" lon="6.19166">
        <ele>1178</ele>
        <time>2015-05-22T15:48:30Z</time>
      </trkpt>
      <trkpt lat="45.89063" lon="6.19166">
        <ele>1176</ele>
        <time>2015-05-22T15:48:32Z</time>
      </trkpt>
      <trkpt lat="45.89063" lon="6.19167">
        <ele>1175</ele>
        <time>2015-05-22T15:48:34Z</time>
      </trkpt>
      <trkpt lat="45.89064" lon="6.19168">
        <ele>1174</ele>
        <time>2015-05-22T15:48:36Z</time>
      </trkpt>
      <trkpt lat="45.89065" lon="6.19169">
        <ele>1174</ele>
        <time>2015-05-22T15:48:38Z</time>
      </trkpt>
      <trkpt lat="45.89065" lon="6.19169">
        <ele>1174</ele>
        <time>2015-05-22T15:48:39Z</time>
      </trkpt>
      <trkpt lat="45.89064" lon="6.19169">
        <ele>1173</ele>
        <time>2015-05-22T15:48:40Z</time>
      </trkpt>
      <trkpt lat="45.89065" lon="6.1917">
        <ele>1174</ele>
        <time>2015-05-22T15:48:41Z</time>
      </trkpt>
      <trkpt lat="45.89065" lon="6.1917">
        <ele>1174</ele>
        <time>2015-05-22T15:48:42Z</time>
      </trkpt>
      <trkpt lat="45.89065" lon="6.19171">
        <ele>1174</ele>
        <time>2015-05-22T15:48:43Z</time>
      </trkpt>
      <trkpt lat="45.89064" lon="6.19172">
        <ele>1175</ele>
        <time>2015-05-22T15:48:44Z</time>
      </trkpt>
      <trkpt lat="45.89064" lon="6.19172">
        <ele>1175</ele>
        <time>2015-05-22T15:48:45Z</time>
      </trkpt>
      <trkpt lat="45.89065" lon="6.19173">
        <ele>1176</ele>
        <time>2015-05-22T15:48:46Z</time>
      </trkpt>
      <trkpt lat="45.89065" lon="6.19174">
        <ele>1176</ele>
        <time>2015-05-22T15:48:47Z</time>
      </trkpt>
      <trkpt lat="45.89065" lon="6.19174">
        <ele>1176</ele>
        <time>2015-05-22T15:48:48Z</time>
      </trkpt>
      <trkpt lat="45.89065" lon="6.19174">
        <ele>1176</ele>
        <time>2015-05-22T15:48:50Z</time>
      </trkpt>
      <trkpt lat="45.89066" lon="6.19175">
        <ele>1176</ele>
        <time>2015-05-22T15:48:52Z</time>
      </trkpt>
      <trkpt lat="45.89066" lon="6.19176">
        <ele>1175</ele>
        <time>2015-05-22T15:48:53Z</time>
      </trkpt>
      <trkpt lat="45.89066" lon="6.19176">
        <ele>1175</ele>
        <time>2015-05-22T15:48:54Z</time>
      </trkpt>
      <trkpt lat="45.89066" lon="6.19177">
        <ele>1175</ele>
        <time>2015-05-22T15:48:55Z</time>
      </trkpt>
      <trkpt lat="45.89067" lon="6.19179">
        <ele>1176</ele>
        <time>2015-05-22T15:48:57Z</time>
      </trkpt>
      <trkpt lat="45.89067" lon="6.19179">
        <ele>1175</ele>
        <time>2015-05-22T15:48:58Z</time>
      </trkpt>
      <trkpt lat="45.89067" lon="6.1918">
        <ele>1174</ele>
        <time>2015-05-22T15:49:01Z</time>
      </trkpt>
      <trkpt lat="45.89067" lon="6.1918">
        <ele>1174</ele>
        <time>2015-05-22T15:49:02Z</time>
      </trkpt>
      <trkpt lat="45.89068" lon="6.1918">
        <ele>1174</ele>
        <time>2015-05-22T15:49:03Z</time>
      </trkpt>
      <trkpt lat="45.89068" lon="6.1918">
        <ele>1174</ele>
        <time>2015-05-22T15:49:04Z</time>
      </trkpt>
      <trkpt lat="45.89068" lon="6.1918">
        <ele>1174</ele>
        <time>2015-05-22T15:49:05Z</time>
      </trkpt>
      <trkpt lat="45.89068" lon="6.19181">
        <ele>1174</ele>
        <time>2015-05-22T15:49:06Z</time>
      </trkpt>
      <trkpt lat="45.89068" lon="6.19181">
        <ele>1174</ele>
        <time>2015-05-22T15:49:07Z</time>
      </trkpt>
      <trkpt lat="45.89068" lon="6.19181">
        <ele>1174</ele>
        <time>2015-05-22T15:49:08Z</time>
      </trkpt>
      <trkpt lat="45.89068" lon="6.19181">
        <ele>1174</ele>
        <time>2015-05-22T15:49:10Z</time>
      </trkpt>
      <trkpt lat="45.89068" lon="6.19181">
        <ele>1174</ele>
        <time>2015-05-22T15:49:12Z</time>
      </trkpt>
      <trkpt lat="45.89068" lon="6.19183">
        <ele>1175</ele>
        <time>2015-05-22T15:49:14Z</time>
      </trkpt>
      <trkpt lat="45.8907" lon="6.19183">
        <ele>1175</ele>
        <time>2015-05-22T15:49:16Z</time>
      </trkpt>
      <trkpt lat="45.8907" lon="6.19185">
        <ele>1177</ele>
        <time>2015-05-22T15:49:18Z</time>
      </trkpt>
      <trkpt lat="45.8907" lon="6.19187">
        <ele>1174</ele>
        <time>2015-05-22T15:49:20Z</time>
      </trkpt>
      <trkpt lat="45.8907" lon="6.1919">
        <ele>1173</ele>
        <time>2015-05-22T15:49:22Z</time>
      </trkpt>
      <trkpt lat="45.8907" lon="6.1919">
        <ele>1173</ele>
        <time>2015-05-22T15:49:23Z</time>
      </trkpt>
      <trkpt lat="45.89071" lon="6.1919">
        <ele>1172</ele>
        <time>2015-05-22T15:49:24Z</time>
      </trkpt>
      <trkpt lat="45.89071" lon="6.1919">
        <ele>1172</ele>
        <time>2015-05-22T15:49:25Z</time>
      </trkpt>
      <trkpt lat="45.89072" lon="6.19191">
        <ele>1172</ele>
        <time>2015-05-22T15:49:26Z</time>
      </trkpt>
      <trkpt lat="45.89072" lon="6.1919">
        <ele>1171</ele>
        <time>2015-05-22T15:49:27Z</time>
      </trkpt>
      <trkpt lat="45.89073" lon="6.1919">
        <ele>1170</ele>
        <time>2015-05-22T15:49:28Z</time>
      </trkpt>
      <trkpt lat="45.89073" lon="6.19191">
        <ele>1170</ele>
        <time>2015-05-22T15:49:30Z</time>
      </trkpt>
      <trkpt lat="45.89074" lon="6.1919">
        <ele>1171</ele>
        <time>2015-05-22T15:49:32Z</time>
      </trkpt>
      <trkpt lat="45.89074" lon="6.19191">
        <ele>1172</ele>
        <time>2015-05-22T15:49:34Z</time>
      </trkpt>
      <trkpt lat="45.89074" lon="6.19192">
        <ele>1172</ele>
        <time>2015-05-22T15:49:36Z</time>
      </trkpt>
      <trkpt lat="45.89078" lon="6.19192">
        <ele>1172</ele>
        <time>2015-05-22T15:49:38Z</time>
      </trkpt>
      <trkpt lat="45.89078" lon="6.19193">
        <ele>1172</ele>
        <time>2015-05-22T15:49:39Z</time>
      </trkpt>
      <trkpt lat="45.89078" lon="6.19193">
        <ele>1172</ele>
        <time>2015-05-22T15:49:40Z</time>
      </trkpt>
      <trkpt lat="45.89079" lon="6.19195">
        <ele>1172</ele>
        <time>2015-05-22T15:49:41Z</time>
      </trkpt>
      <trkpt lat="45.89079" lon="6.19194">
        <ele>1171</ele>
        <time>2015-05-22T15:49:42Z</time>
      </trkpt>
      <trkpt lat="45.89082" lon="6.19197">
        <ele>1174</ele>
        <time>2015-05-22T15:49:44Z</time>
      </trkpt>
      <trkpt lat="45.89083" lon="6.19198">
        <ele>1174</ele>
        <time>2015-05-22T15:49:45Z</time>
      </trkpt>
      <trkpt lat="45.89083" lon="6.19197">
        <ele>1174</ele>
        <time>2015-05-22T15:49:46Z</time>
      </trkpt>
      <trkpt lat="45.89083" lon="6.19198">
        <ele>1175</ele>
        <time>2015-05-22T15:49:47Z</time>
      </trkpt>
      <trkpt lat="45.89084" lon="6.19198">
        <ele>1175</ele>
        <time>2015-05-22T15:49:48Z</time>
      </trkpt>
      <trkpt lat="45.89085" lon="6.19199">
        <ele>1176</ele>
        <time>2015-05-22T15:49:50Z</time>
      </trkpt>
      <trkpt lat="45.89085" lon="6.192">
        <ele>1178</ele>
        <time>2015-05-22T15:49:52Z</time>
      </trkpt>
      <trkpt lat="45.89088" lon="6.19202">
        <ele>1179</ele>
        <time>2015-05-22T15:49:54Z</time>
      </trkpt>
      <trkpt lat="45.89088" lon="6.19202">
        <ele>1179</ele>
        <time>2015-05-22T15:49:56Z</time>
      </trkpt>
      <trkpt lat="45.89089" lon="6.19202">
        <ele>1179</ele>
        <time>2015-05-22T15:49:58Z</time>
      </trkpt>
      <trkpt lat="45.8909" lon="6.19201">
        <ele>1179</ele>
        <time>2015-05-22T15:50:00Z</time>
      </trkpt>
      <trkpt lat="45.8909" lon="6.19201">
        <ele>1179</ele>
        <time>2015-05-22T15:50:02Z</time>
      </trkpt>
      <trkpt lat="45.89091" lon="6.19204">
        <ele>1179</ele>
        <time>2015-05-22T15:50:03Z</time>
      </trkpt>
      <trkpt lat="45.89091" lon="6.19205">
        <ele>1180</ele>
        <time>2015-05-22T15:50:04Z</time>
      </trkpt>
      <trkpt lat="45.89092" lon="6.19207">
        <ele>1181</ele>
        <time>2015-05-22T15:50:05Z</time>
      </trkpt>
      <trkpt lat="45.89093" lon="6.19207">
        <ele>1181</ele>
        <time>2015-05-22T15:50:06Z</time>
      </trkpt>
      <trkpt lat="45.89093" lon="6.19207">
        <ele>1181</ele>
        <time>2015-05-22T15:50:07Z</time>
      </trkpt>
      <trkpt lat="45.89093" lon="6.19207">
        <ele>1181</ele>
        <time>2015-05-22T15:50:08Z</time>
      </trkpt>
      <trkpt lat="45.89094" lon="6.19206">
        <ele>1181</ele>
        <time>2015-05-22T15:50:10Z</time>
      </trkpt>
      <trkpt lat="45.89095" lon="6.19205">
        <ele>1179</ele>
        <time>2015-05-22T15:50:12Z</time>
      </trkpt>
      <trkpt lat="45.89096" lon="6.19205">
        <ele>1178</ele>
        <time>2015-05-22T15:50:14Z</time>
      </trkpt>
      <trkpt lat="45.89098" lon="6.19205">
        <ele>1178</ele>
        <time>2015-05-22T15:50:16Z</time>
      </trkpt>
      <trkpt lat="45.89099" lon="6.19206">
        <ele>1178</ele>
        <time>2015-05-22T15:50:18Z</time>
      </trkpt>
      <trkpt lat="45.89099" lon="6.19205">
        <ele>1176</ele>
        <time>2015-05-22T15:50:20Z</time>
      </trkpt>
      <trkpt lat="45.89099" lon="6.19203">
        <ele>1176</ele>
        <time>2015-05-22T15:50:22Z</time>
      </trkpt>
      <trkpt lat="45.891" lon="6.19204">
        <ele>1176</ele>
        <time>2015-05-22T15:50:23Z</time>
      </trkpt>
      <trkpt lat="45.891" lon="6.19204">
        <ele>1176</ele>
        <time>2015-05-22T15:50:24Z</time>
      </trkpt>
      <trkpt lat="45.89101" lon="6.19204">
        <ele>1176</ele>
        <time>2015-05-22T15:50:25Z</time>
      </trkpt>
      <trkpt lat="45.89101" lon="6.19204">
        <ele>1176</ele>
        <time>2015-05-22T15:50:26Z</time>
      </trkpt>
      <trkpt lat="45.89102" lon="6.19205">
        <ele>1176</ele>
        <time>2015-05-22T15:50:27Z</time>
      </trkpt>
      <trkpt lat="45.89102" lon="6.19204">
        <ele>1174</ele>
        <time>2015-05-22T15:50:28Z</time>
      </trkpt>
      <trkpt lat="45.89103" lon="6.19206">
        <ele>1176</ele>
        <time>2015-05-22T15:50:30Z</time>
      </trkpt>
      <trkpt lat="45.89103" lon="6.19207">
        <ele>1176</ele>
        <time>2015-05-22T15:50:32Z</time>
      </trkpt>
      <trkpt lat="45.89102" lon="6.19206">
        <ele>1175</ele>
        <time>2015-05-22T15:50:34Z</time>
      </trkpt>
      <trkpt lat="45.89103" lon="6.19206">
        <ele>1174</ele>
        <time>2015-05-22T15:50:36Z</time>
      </trkpt>
      <trkpt lat="45.89103" lon="6.19207">
        <ele>1175</ele>
        <time>2015-05-22T15:50:38Z</time>
      </trkpt>
      <trkpt lat="45.89103" lon="6.19207">
        <ele>1175</ele>
        <time>2015-05-22T15:50:39Z</time>
      </trkpt>
      <trkpt lat="45.89103" lon="6.19207">
        <ele>1175</ele>
        <time>2015-05-22T15:50:40Z</time>
      </trkpt>
      <trkpt lat="45.89102" lon="6.19207">
        <ele>1175</ele>
        <time>2015-05-22T15:50:41Z</time>
      </trkpt>
      <trkpt lat="45.89102" lon="6.19207">
        <ele>1176</ele>
        <time>2015-05-22T15:50:42Z</time>
      </trkpt>
      <trkpt lat="45.89102" lon="6.19207">
        <ele>1176</ele>
        <time>2015-05-22T15:50:43Z</time>
      </trkpt>
      <trkpt lat="45.89102" lon="6.19207">
        <ele>1176</ele>
        <time>2015-05-22T15:50:44Z</time>
      </trkpt>
      <trkpt lat="45.89103" lon="6.19207">
        <ele>1176</ele>
        <time>2015-05-22T15:50:45Z</time>
      </trkpt>
      <trkpt lat="45.89103" lon="6.19207">
        <ele>1176</ele>
        <time>2015-05-22T15:50:46Z</time>
      </trkpt>
      <trkpt lat="45.89103" lon="6.19207">
        <ele>1176</ele>
        <time>2015-05-22T15:50:47Z</time>
      </trkpt>
      <trkpt lat="45.89103" lon="6.19207">
        <ele>1175</ele>
        <time>2015-05-22T15:50:48Z</time>
      </trkpt>
      <trkpt lat="45.89104" lon="6.19207">
        <ele>1175</ele>
        <time>2015-05-22T15:50:50Z</time>
      </trkpt>
      <trkpt lat="45.89104" lon="6.19206">
        <ele>1175</ele>
        <time>2015-05-22T15:50:52Z</time>
      </trkpt>
      <trkpt lat="45.89104" lon="6.19206">
        <ele>1175</ele>
        <time>2015-05-22T15:50:54Z</time>
      </trkpt>
      <trkpt lat="45.89105" lon="6.19207">
        <ele>1174</ele>
        <time>2015-05-22T15:50:56Z</time>
      </trkpt>
      <trkpt lat="45.89107" lon="6.19206">
        <ele>1171</ele>
        <time>2015-05-22T15:50:58Z</time>
      </trkpt>
      <trkpt lat="45.89109" lon="6.19206">
        <ele>1171</ele>
        <time>2015-05-22T15:51:00Z</time>
      </trkpt>
      <trkpt lat="45.89111" lon="6.19206">
        <ele>1170</ele>
        <time>2015-05-22T15:51:02Z</time>
      </trkpt>
      <trkpt lat="45.89111" lon="6.19206">
        <ele>1170</ele>
        <time>2015-05-22T15:51:03Z</time>
      </trkpt>
      <trkpt lat="45.89113" lon="6.19208">
        <ele>1172</ele>
        <time>2015-05-22T15:51:04Z</time>
      </trkpt>
      <trkpt lat="45.89113" lon="6.19207">
        <ele>1171</ele>
        <time>2015-05-22T15:51:05Z</time>
      </trkpt>
      <trkpt lat="45.89115" lon="6.19207">
        <ele>1171</ele>
        <time>2015-05-22T15:51:06Z</time>
      </trkpt>
      <trkpt lat="45.89115" lon="6.19207">
        <ele>1170</ele>
        <time>2015-05-22T15:51:07Z</time>
      </trkpt>
      <trkpt lat="45.89116" lon="6.19208">
        <ele>1171</ele>
        <time>2015-05-22T15:51:08Z</time>
      </trkpt>
      <trkpt lat="45.89116" lon="6.19208">
        <ele>1171</ele>
        <time>2015-05-22T15:51:10Z</time>
      </trkpt>
      <trkpt lat="45.89116" lon="6.19208">
        <ele>1172</ele>
        <time>2015-05-22T15:51:12Z</time>
      </trkpt>
      <trkpt lat="45.89116" lon="6.19209">
        <ele>1172</ele>
        <time>2015-05-22T15:51:14Z</time>
      </trkpt>
      <trkpt lat="45.89117" lon="6.19209">
        <ele>1172</ele>
        <time>2015-05-22T15:51:16Z</time>
      </trkpt>
      <trkpt lat="45.89117" lon="6.19209">
        <ele>1172</ele>
        <time>2015-05-22T15:51:18Z</time>
      </trkpt>
      <trkpt lat="45.89117" lon="6.19209">
        <ele>1172</ele>
        <time>2015-05-22T15:51:19Z</time>
      </trkpt>
      <trkpt lat="45.89117" lon="6.19209">
        <ele>1172</ele>
        <time>2015-05-22T15:51:20Z</time>
      </trkpt>
      <trkpt lat="45.89117" lon="6.19209">
        <ele>1172</ele>
        <time>2015-05-22T15:51:21Z</time>
      </trkpt>
      <trkpt lat="45.89117" lon="6.19209">
        <ele>1172</ele>
        <time>2015-05-22T15:51:22Z</time>
      </trkpt>
      <trkpt lat="45.89117" lon="6.19209">
        <ele>1173</ele>
        <time>2015-05-22T15:51:23Z</time>
      </trkpt>
      <trkpt lat="45.89118" lon="6.19208">
        <ele>1173</ele>
        <time>2015-05-22T15:51:24Z</time>
      </trkpt>
      <trkpt lat="45.89119" lon="6.19209">
        <ele>1173</ele>
        <time>2015-05-22T15:51:25Z</time>
      </trkpt>
      <trkpt lat="45.89118" lon="6.19209">
        <ele>1172</ele>
        <time>2015-05-22T15:51:26Z</time>
      </trkpt>
      <trkpt lat="45.89118" lon="6.19209">
        <ele>1172</ele>
        <time>2015-05-22T15:51:27Z</time>
      </trkpt>
      <trkpt lat="45.89119" lon="6.1921">
        <ele>1171</ele>
        <time>2015-05-22T15:51:29Z</time>
      </trkpt>
      <trkpt lat="45.89118" lon="6.1921">
        <ele>1170</ele>
        <time>2015-05-22T15:51:31Z</time>
      </trkpt>
      <trkpt lat="45.89119" lon="6.1921">
        <ele>1170</ele>
        <time>2015-05-22T15:51:32Z</time>
      </trkpt>
      <trkpt lat="45.89119" lon="6.19209">
        <ele>1170</ele>
        <time>2015-05-22T15:51:34Z</time>
      </trkpt>
      <trkpt lat="45.8912" lon="6.19209">
        <ele>1170</ele>
        <time>2015-05-22T15:51:36Z</time>
      </trkpt>
      <trkpt lat="45.89122" lon="6.19208">
        <ele>1167</ele>
        <time>2015-05-22T15:51:38Z</time>
      </trkpt>
      <trkpt lat="45.89123" lon="6.19207">
        <ele>1167</ele>
        <time>2015-05-22T15:51:40Z</time>
      </trkpt>
      <trkpt lat="45.89124" lon="6.19206">
        <ele>1166</ele>
        <time>2015-05-22T15:51:41Z</time>
      </trkpt>
      <trkpt lat="45.89125" lon="6.19206">
        <ele>1165</ele>
        <time>2015-05-22T15:51:43Z</time>
      </trkpt>
      <trkpt lat="45.89126" lon="6.19205">
        <ele>1165</ele>
        <time>2015-05-22T15:51:44Z</time>
      </trkpt>
      <trkpt lat="45.89125" lon="6.19205">
        <ele>1164</ele>
        <time>2015-05-22T15:51:45Z</time>
      </trkpt>
      <trkpt lat="45.89125" lon="6.19205">
        <ele>1164</ele>
        <time>2015-05-22T15:51:46Z</time>
      </trkpt>
      <trkpt lat="45.89126" lon="6.19205">
        <ele>1165</ele>
        <time>2015-05-22T15:51:47Z</time>
      </trkpt>
      <trkpt lat="45.89126" lon="6.19204">
        <ele>1165</ele>
        <time>2015-05-22T15:51:48Z</time>
      </trkpt>
      <trkpt lat="45.89128" lon="6.19204">
        <ele>1164</ele>
        <time>2015-05-22T15:51:51Z</time>
      </trkpt>
      <trkpt lat="45.89129" lon="6.19204">
        <ele>1163</ele>
        <time>2015-05-22T15:51:53Z</time>
      </trkpt>
      <trkpt lat="45.89131" lon="6.19203">
        <ele>1161</ele>
        <time>2015-05-22T15:51:55Z</time>
      </trkpt>
      <trkpt lat="45.89132" lon="6.19203">
        <ele>1161</ele>
        <time>2015-05-22T15:51:57Z</time>
      </trkpt>
      <trkpt lat="45.89133" lon="6.19203">
        <ele>1161</ele>
        <time>2015-05-22T15:51:59Z</time>
      </trkpt>
      <trkpt lat="45.89133" lon="6.19204">
        <ele>1161</ele>
        <time>2015-05-22T15:52:01Z</time>
      </trkpt>
      <trkpt lat="45.89134" lon="6.19204">
        <ele>1161</ele>
        <time>2015-05-22T15:52:03Z</time>
      </trkpt>
      <trkpt lat="45.89134" lon="6.19204">
        <ele>1161</ele>
        <time>2015-05-22T15:52:04Z</time>
      </trkpt>
      <trkpt lat="45.89134" lon="6.19204">
        <ele>1161</ele>
        <time>2015-05-22T15:52:05Z</time>
      </trkpt>
      <trkpt lat="45.89134" lon="6.19204">
        <ele>1161</ele>
        <time>2015-05-22T15:52:06Z</time>
      </trkpt>
      <trkpt lat="45.89135" lon="6.19204">
        <ele>1161</ele>
        <time>2015-05-22T15:52:07Z</time>
      </trkpt>
      <trkpt lat="45.89136" lon="6.19203">
        <ele>1159</ele>
        <time>2015-05-22T15:52:09Z</time>
      </trkpt>
      <trkpt lat="45.89137" lon="6.19204">
        <ele>1160</ele>
        <time>2015-05-22T15:52:11Z</time>
      </trkpt>
      <trkpt lat="45.89137" lon="6.19204">
        <ele>1160</ele>
        <time>2015-05-22T15:52:13Z</time>
      </trkpt>
      <trkpt lat="45.89137" lon="6.19204">
        <ele>1159</ele>
        <time>2015-05-22T15:52:15Z</time>
      </trkpt>
      <trkpt lat="45.8914" lon="6.19206">
        <ele>1159</ele>
        <time>2015-05-22T15:52:17Z</time>
      </trkpt>
      <trkpt lat="45.89143" lon="6.19206">
        <ele>1157</ele>
        <time>2015-05-22T15:52:19Z</time>
      </trkpt>
      <trkpt lat="45.89144" lon="6.19206">
        <ele>1156</ele>
        <time>2015-05-22T15:52:20Z</time>
      </trkpt>
      <trkpt lat="45.89144" lon="6.19207">
        <ele>1157</ele>
        <time>2015-05-22T15:52:21Z</time>
      </trkpt>
      <trkpt lat="45.89145" lon="6.19208">
        <ele>1158</ele>
        <time>2015-05-22T15:52:22Z</time>
      </trkpt>
      <trkpt lat="45.89145" lon="6.19208">
        <ele>1157</ele>
        <time>2015-05-22T15:52:23Z</time>
      </trkpt>
      <trkpt lat="45.89145" lon="6.19208">
        <ele>1157</ele>
        <time>2015-05-22T15:52:24Z</time>
      </trkpt>
      <trkpt lat="45.89146" lon="6.19208">
        <ele>1157</ele>
        <time>2015-05-22T15:52:25Z</time>
      </trkpt>
      <trkpt lat="45.89146" lon="6.19207">
        <ele>1157</ele>
        <time>2015-05-22T15:52:26Z</time>
      </trkpt>
      <trkpt lat="45.89147" lon="6.19207">
        <ele>1157</ele>
        <time>2015-05-22T15:52:27Z</time>
      </trkpt>
      <trkpt lat="45.89148" lon="6.19206">
        <ele>1159</ele>
        <time>2015-05-22T15:52:28Z</time>
      </trkpt>
      <trkpt lat="45.89148" lon="6.19207">
        <ele>1158</ele>
        <time>2015-05-22T15:52:29Z</time>
      </trkpt>
      <trkpt lat="45.8915" lon="6.19208">
        <ele>1159</ele>
        <time>2015-05-22T15:52:31Z</time>
      </trkpt>
      <trkpt lat="45.8915" lon="6.19208">
        <ele>1159</ele>
        <time>2015-05-22T15:52:33Z</time>
      </trkpt>
      <trkpt lat="45.89152" lon="6.19209">
        <ele>1160</ele>
        <time>2015-05-22T15:52:35Z</time>
      </trkpt>
      <trkpt lat="45.89152" lon="6.19209">
        <ele>1160</ele>
        <time>2015-05-22T15:52:37Z</time>
      </trkpt>
      <trkpt lat="45.89152" lon="6.1921">
        <ele>1160</ele>
        <time>2015-05-22T15:52:39Z</time>
      </trkpt>
      <trkpt lat="45.89154" lon="6.1921">
        <ele>1160</ele>
        <time>2015-05-22T15:52:41Z</time>
      </trkpt>
      <trkpt lat="45.89154" lon="6.19212">
        <ele>1161</ele>
        <time>2015-05-22T15:52:43Z</time>
      </trkpt>
      <trkpt lat="45.89154" lon="6.19212">
        <ele>1161</ele>
        <time>2015-05-22T15:52:44Z</time>
      </trkpt>
      <trkpt lat="45.89155" lon="6.19212">
        <ele>1161</ele>
        <time>2015-05-22T15:52:45Z</time>
      </trkpt>
      <trkpt lat="45.89155" lon="6.19212">
        <ele>1160</ele>
        <time>2015-05-22T15:52:46Z</time>
      </trkpt>
      <trkpt lat="45.89156" lon="6.19212">
        <ele>1161</ele>
        <time>2015-05-22T15:52:47Z</time>
      </trkpt>
      <trkpt lat="45.89156" lon="6.19213">
        <ele>1161</ele>
        <time>2015-05-22T15:52:48Z</time>
      </trkpt>
      <trkpt lat="45.89156" lon="6.19213">
        <ele>1161</ele>
        <time>2015-05-22T15:52:49Z</time>
      </trkpt>
      <trkpt lat="45.89154" lon="6.1921">
        <ele>1160</ele>
        <time>2015-05-22T15:52:52Z</time>
      </trkpt>
      <trkpt lat="45.89154" lon="6.19211">
        <ele>1161</ele>
        <time>2015-05-22T15:52:54Z</time>
      </trkpt>
      <trkpt lat="45.89154" lon="6.19213">
        <ele>1165</ele>
        <time>2015-05-22T15:52:56Z</time>
      </trkpt>
      <trkpt lat="45.89154" lon="6.19214">
        <ele>1165</ele>
        <time>2015-05-22T15:52:58Z</time>
      </trkpt>
      <trkpt lat="45.89155" lon="6.19216">
        <ele>1166</ele>
        <time>2015-05-22T15:53:00Z</time>
      </trkpt>
      <trkpt lat="45.89155" lon="6.19217">
        <ele>1164</ele>
        <time>2015-05-22T15:53:01Z</time>
      </trkpt>
      <trkpt lat="45.89157" lon="6.19218">
        <ele>1164</ele>
        <time>2015-05-22T15:53:02Z</time>
      </trkpt>
      <trkpt lat="45.89157" lon="6.19217">
        <ele>1163</ele>
        <time>2015-05-22T15:53:03Z</time>
      </trkpt>
      <trkpt lat="45.89158" lon="6.19218">
        <ele>1164</ele>
        <time>2015-05-22T15:53:04Z</time>
      </trkpt>
      <trkpt lat="45.89158" lon="6.19218">
        <ele>1164</ele>
        <time>2015-05-22T15:53:05Z</time>
      </trkpt>
      <trkpt lat="45.89158" lon="6.19217">
        <ele>1163</ele>
        <time>2015-05-22T15:53:06Z</time>
      </trkpt>
      <trkpt lat="45.89158" lon="6.19217">
        <ele>1163</ele>
        <time>2015-05-22T15:53:07Z</time>
      </trkpt>
      <trkpt lat="45.89158" lon="6.19217">
        <ele>1163</ele>
        <time>2015-05-22T15:53:08Z</time>
      </trkpt>
      <trkpt lat="45.89158" lon="6.19216">
        <ele>1162</ele>
        <time>2015-05-22T15:53:09Z</time>
      </trkpt>
      <trkpt lat="45.89159" lon="6.1922">
        <ele>1164</ele>
        <time>2015-05-22T15:53:11Z</time>
      </trkpt>
      <trkpt lat="45.8916" lon="6.19221">
        <ele>1165</ele>
        <time>2015-05-22T15:53:13Z</time>
      </trkpt>
      <trkpt lat="45.8916" lon="6.19222">
        <ele>1165</ele>
        <time>2015-05-22T15:53:15Z</time>
      </trkpt>
      <trkpt lat="45.8916" lon="6.19221">
        <ele>1165</ele>
        <time>2015-05-22T15:53:17Z</time>
      </trkpt>
      <trkpt lat="45.89162" lon="6.19223">
        <ele>1164</ele>
        <time>2015-05-22T15:53:19Z</time>
      </trkpt>
      <trkpt lat="45.89162" lon="6.19224">
        <ele>1164</ele>
        <time>2015-05-22T15:53:21Z</time>
      </trkpt>
      <trkpt lat="45.89163" lon="6.19225">
        <ele>1164</ele>
        <time>2015-05-22T15:53:23Z</time>
      </trkpt>
      <trkpt lat="45.89164" lon="6.19225">
        <ele>1164</ele>
        <time>2015-05-22T15:53:24Z</time>
      </trkpt>
      <trkpt lat="45.89164" lon="6.19225">
        <ele>1164</ele>
        <time>2015-05-22T15:53:25Z</time>
      </trkpt>
      <trkpt lat="45.89164" lon="6.19225">
        <ele>1164</ele>
        <time>2015-05-22T15:53:26Z</time>
      </trkpt>
      <trkpt lat="45.89164" lon="6.19226">
        <ele>1164</ele>
        <time>2015-05-22T15:53:27Z</time>
      </trkpt>
      <trkpt lat="45.89165" lon="6.19226">
        <ele>1164</ele>
        <time>2015-05-22T15:53:28Z</time>
      </trkpt>
      <trkpt lat="45.89165" lon="6.19226">
        <ele>1165</ele>
        <time>2015-05-22T15:53:29Z</time>
      </trkpt>
      <trkpt lat="45.89167" lon="6.19225">
        <ele>1163</ele>
        <time>2015-05-22T15:53:31Z</time>
      </trkpt>
      <trkpt lat="45.8917" lon="6.19224">
        <ele>1163</ele>
        <time>2015-05-22T15:53:33Z</time>
      </trkpt>
      <trkpt lat="45.89171" lon="6.19224">
        <ele>1162</ele>
        <time>2015-05-22T15:53:35Z</time>
      </trkpt>
      <trkpt lat="45.89171" lon="6.19224">
        <ele>1162</ele>
        <time>2015-05-22T15:53:37Z</time>
      </trkpt>
      <trkpt lat="45.89171" lon="6.19223">
        <ele>1160</ele>
        <time>2015-05-22T15:53:39Z</time>
      </trkpt>
      <trkpt lat="45.89171" lon="6.19224">
        <ele>1160</ele>
        <time>2015-05-22T15:53:41Z</time>
      </trkpt>
      <trkpt lat="45.89171" lon="6.19223">
        <ele>1161</ele>
        <time>2015-05-22T15:53:43Z</time>
      </trkpt>
      <trkpt lat="45.89172" lon="6.19223">
        <ele>1160</ele>
        <time>2015-05-22T15:53:44Z</time>
      </trkpt>
      <trkpt lat="45.89173" lon="6.19222">
        <ele>1159</ele>
        <time>2015-05-22T15:53:45Z</time>
      </trkpt>
      <trkpt lat="45.89174" lon="6.19221">
        <ele>1157</ele>
        <time>2015-05-22T15:53:46Z</time>
      </trkpt>
      <trkpt lat="45.89176" lon="6.19221">
        <ele>1155</ele>
        <time>2015-05-22T15:53:47Z</time>
      </trkpt>
      <trkpt lat="45.89176" lon="6.1922">
        <ele>1153</ele>
        <time>2015-05-22T15:53:48Z</time>
      </trkpt>
      <trkpt lat="45.89177" lon="6.19219">
        <ele>1151</ele>
        <time>2015-05-22T15:53:49Z</time>
      </trkpt>
      <trkpt lat="45.89179" lon="6.19221">
        <ele>1151</ele>
        <time>2015-05-22T15:53:51Z</time>
      </trkpt>
      <trkpt lat="45.89181" lon="6.19221">
        <ele>1150</ele>
        <time>2015-05-22T15:53:53Z</time>
      </trkpt>
      <trkpt lat="45.89182" lon="6.1922">
        <ele>1150</ele>
        <time>2015-05-22T15:53:55Z</time>
      </trkpt>
      <trkpt lat="45.89183" lon="6.19221">
        <ele>1150</ele>
        <time>2015-05-22T15:53:56Z</time>
      </trkpt>
      <trkpt lat="45.89184" lon="6.19221">
        <ele>1148</ele>
        <time>2015-05-22T15:53:59Z</time>
      </trkpt>
      <trkpt lat="45.89184" lon="6.19221">
        <ele>1148</ele>
        <time>2015-05-22T15:54:00Z</time>
      </trkpt>
      <trkpt lat="45.89185" lon="6.19221">
        <ele>1146</ele>
        <time>2015-05-22T15:54:01Z</time>
      </trkpt>
      <trkpt lat="45.89185" lon="6.1922">
        <ele>1145</ele>
        <time>2015-05-22T15:54:02Z</time>
      </trkpt>
      <trkpt lat="45.89186" lon="6.19219">
        <ele>1144</ele>
        <time>2015-05-22T15:54:03Z</time>
      </trkpt>
      <trkpt lat="45.89187" lon="6.19218">
        <ele>1143</ele>
        <time>2015-05-22T15:54:04Z</time>
      </trkpt>
      <trkpt lat="45.89188" lon="6.19217">
        <ele>1142</ele>
        <time>2015-05-22T15:54:05Z</time>
      </trkpt>
      <trkpt lat="45.8919" lon="6.19216">
        <ele>1142</ele>
        <time>2015-05-22T15:54:06Z</time>
      </trkpt>
      <trkpt lat="45.8919" lon="6.19216">
        <ele>1142</ele>
        <time>2015-05-22T15:54:07Z</time>
      </trkpt>
      <trkpt lat="45.89191" lon="6.19218">
        <ele>1142</ele>
        <time>2015-05-22T15:54:08Z</time>
      </trkpt>
      <trkpt lat="45.89191" lon="6.19219">
        <ele>1142</ele>
        <time>2015-05-22T15:54:09Z</time>
      </trkpt>
      <trkpt lat="45.89191" lon="6.1922">
        <ele>1143</ele>
        <time>2015-05-22T15:54:10Z</time>
      </trkpt>
      <trkpt lat="45.89192" lon="6.19223">
        <ele>1144</ele>
        <time>2015-05-22T15:54:12Z</time>
      </trkpt>
      <trkpt lat="45.89193" lon="6.19219">
        <ele>1141</ele>
        <time>2015-05-22T15:54:14Z</time>
      </trkpt>
      <trkpt lat="45.89194" lon="6.1922">
        <ele>1142</ele>
        <time>2015-05-22T15:54:16Z</time>
      </trkpt>
      <trkpt lat="45.89194" lon="6.1922">
        <ele>1142</ele>
        <time>2015-05-22T15:54:17Z</time>
      </trkpt>
      <trkpt lat="45.89195" lon="6.1922">
        <ele>1141</ele>
        <time>2015-05-22T15:54:18Z</time>
      </trkpt>
      <trkpt lat="45.89197" lon="6.19217">
        <ele>1139</ele>
        <time>2015-05-22T15:54:20Z</time>
      </trkpt>
      <trkpt lat="45.89201" lon="6.1922">
        <ele>1141</ele>
        <time>2015-05-22T15:54:22Z</time>
      </trkpt>
      <trkpt lat="45.89203" lon="6.1922">
        <ele>1142</ele>
        <time>2015-05-22T15:54:24Z</time>
      </trkpt>
      <trkpt lat="45.89204" lon="6.19219">
        <ele>1141</ele>
        <time>2015-05-22T15:54:25Z</time>
      </trkpt>
      <trkpt lat="45.89206" lon="6.19217">
        <ele>1141</ele>
        <time>2015-05-22T15:54:26Z</time>
      </trkpt>
      <trkpt lat="45.89208" lon="6.19219">
        <ele>1143</ele>
        <time>2015-05-22T15:54:27Z</time>
      </trkpt>
      <trkpt lat="45.89208" lon="6.19219">
        <ele>1142</ele>
        <time>2015-05-22T15:54:28Z</time>
      </trkpt>
      <trkpt lat="45.89209" lon="6.19221">
        <ele>1141</ele>
        <time>2015-05-22T15:54:29Z</time>
      </trkpt>
      <trkpt lat="45.89209" lon="6.19218">
        <ele>1140</ele>
        <time>2015-05-22T15:54:30Z</time>
      </trkpt>
      <trkpt lat="45.89211" lon="6.19218">
        <ele>1142</ele>
        <time>2015-05-22T15:54:32Z</time>
      </trkpt>
      <trkpt lat="45.89212" lon="6.19217">
        <ele>1141</ele>
        <time>2015-05-22T15:54:34Z</time>
      </trkpt>
      <trkpt lat="45.89212" lon="6.19217">
        <ele>1139</ele>
        <time>2015-05-22T15:54:36Z</time>
      </trkpt>
      <trkpt lat="45.89213" lon="6.19215">
        <ele>1138</ele>
        <time>2015-05-22T15:54:38Z</time>
      </trkpt>
      <trkpt lat="45.89214" lon="6.19217">
        <ele>1140</ele>
        <time>2015-05-22T15:54:40Z</time>
      </trkpt>
      <trkpt lat="45.89214" lon="6.19215">
        <ele>1139</ele>
        <time>2015-05-22T15:54:42Z</time>
      </trkpt>
      <trkpt lat="45.89214" lon="6.19216">
        <ele>1140</ele>
        <time>2015-05-22T15:54:44Z</time>
      </trkpt>
      <trkpt lat="45.89215" lon="6.19216">
        <ele>1140</ele>
        <time>2015-05-22T15:54:45Z</time>
      </trkpt>
      <trkpt lat="45.89215" lon="6.19216">
        <ele>1140</ele>
        <time>2015-05-22T15:54:46Z</time>
      </trkpt>
      <trkpt lat="45.89215" lon="6.19216">
        <ele>1140</ele>
        <time>2015-05-22T15:54:47Z</time>
      </trkpt>
      <trkpt lat="45.89215" lon="6.19216">
        <ele>1140</ele>
        <time>2015-05-22T15:54:48Z</time>
      </trkpt>
      <trkpt lat="45.89215" lon="6.19216">
        <ele>1140</ele>
        <time>2015-05-22T15:54:49Z</time>
      </trkpt>
      <trkpt lat="45.89216" lon="6.19216">
        <ele>1140</ele>
        <time>2015-05-22T15:54:50Z</time>
      </trkpt>
      <trkpt lat="45.89216" lon="6.19215">
        <ele>1140</ele>
        <time>2015-05-22T15:54:52Z</time>
      </trkpt>
      <trkpt lat="45.89218" lon="6.19214">
        <ele>1138</ele>
        <time>2015-05-22T15:54:54Z</time>
      </trkpt>
      <trkpt lat="45.89219" lon="6.19213">
        <ele>1138</ele>
        <time>2015-05-22T15:54:56Z</time>
      </trkpt>
      <trkpt lat="45.89219" lon="6.19213">
        <ele>1138</ele>
        <time>2015-05-22T15:54:57Z</time>
      </trkpt>
      <trkpt lat="45.8922" lon="6.19212">
        <ele>1137</ele>
        <time>2015-05-22T15:54:58Z</time>
      </trkpt>
      <trkpt lat="45.8922" lon="6.19209">
        <ele>1135</ele>
        <time>2015-05-22T15:55:00Z</time>
      </trkpt>
      <trkpt lat="45.89221" lon="6.19209">
        <ele>1134</ele>
        <time>2015-05-22T15:55:01Z</time>
      </trkpt>
      <trkpt lat="45.89222" lon="6.1921">
        <ele>1135</ele>
        <time>2015-05-22T15:55:02Z</time>
      </trkpt>
      <trkpt lat="45.89223" lon="6.1921">
        <ele>1137</ele>
        <time>2015-05-22T15:55:03Z</time>
      </trkpt>
      <trkpt lat="45.89224" lon="6.19209">
        <ele>1137</ele>
        <time>2015-05-22T15:55:04Z</time>
      </trkpt>
      <trkpt lat="45.89225" lon="6.19209">
        <ele>1138</ele>
        <time>2015-05-22T15:55:06Z</time>
      </trkpt>
      <trkpt lat="45.89226" lon="6.19208">
        <ele>1138</ele>
        <time>2015-05-22T15:55:07Z</time>
      </trkpt>
      <trkpt lat="45.89226" lon="6.19208">
        <ele>1138</ele>
        <time>2015-05-22T15:55:08Z</time>
      </trkpt>
      <trkpt lat="45.89226" lon="6.19208">
        <ele>1138</ele>
        <time>2015-05-22T15:55:09Z</time>
      </trkpt>
      <trkpt lat="45.89228" lon="6.19209">
        <ele>1139</ele>
        <time>2015-05-22T15:55:10Z</time>
      </trkpt>
      <trkpt lat="45.89227" lon="6.19209">
        <ele>1139</ele>
        <time>2015-05-22T15:55:12Z</time>
      </trkpt>
      <trkpt lat="45.89228" lon="6.19211">
        <ele>1140</ele>
        <time>2015-05-22T15:55:14Z</time>
      </trkpt>
      <trkpt lat="45.89228" lon="6.19213">
        <ele>1140</ele>
        <time>2015-05-22T15:55:16Z</time>
      </trkpt>
      <trkpt lat="45.89227" lon="6.19213">
        <ele>1140</ele>
        <time>2015-05-22T15:55:18Z</time>
      </trkpt>
      <trkpt lat="45.89227" lon="6.19214">
        <ele>1140</ele>
        <time>2015-05-22T15:55:20Z</time>
      </trkpt>
      <trkpt lat="45.89228" lon="6.19214">
        <ele>1139</ele>
        <time>2015-05-22T15:55:22Z</time>
      </trkpt>
      <trkpt lat="45.89228" lon="6.19215">
        <ele>1139</ele>
        <time>2015-05-22T15:55:24Z</time>
      </trkpt>
      <trkpt lat="45.89228" lon="6.19215">
        <ele>1139</ele>
        <time>2015-05-22T15:55:25Z</time>
      </trkpt>
      <trkpt lat="45.89228" lon="6.19215">
        <ele>1139</ele>
        <time>2015-05-22T15:55:26Z</time>
      </trkpt>
      <trkpt lat="45.89229" lon="6.19215">
        <ele>1137</ele>
        <time>2015-05-22T15:55:27Z</time>
      </trkpt>
      <trkpt lat="45.89229" lon="6.19212">
        <ele>1136</ele>
        <time>2015-05-22T15:55:28Z</time>
      </trkpt>
      <trkpt lat="45.89229" lon="6.19213">
        <ele>1137</ele>
        <time>2015-05-22T15:55:29Z</time>
      </trkpt>
      <trkpt lat="45.89229" lon="6.19214">
        <ele>1136</ele>
        <time>2015-05-22T15:55:30Z</time>
      </trkpt>
      <trkpt lat="45.89229" lon="6.19215">
        <ele>1137</ele>
        <time>2015-05-22T15:55:32Z</time>
      </trkpt>
      <trkpt lat="45.8923" lon="6.19215">
        <ele>1136</ele>
        <time>2015-05-22T15:55:34Z</time>
      </trkpt>
      <trkpt lat="45.89231" lon="6.19215">
        <ele>1133</ele>
        <time>2015-05-22T15:55:36Z</time>
      </trkpt>
      <trkpt lat="45.89232" lon="6.19217">
        <ele>1136</ele>
        <time>2015-05-22T15:55:38Z</time>
      </trkpt>
      <trkpt lat="45.89232" lon="6.19218">
        <ele>1136</ele>
        <time>2015-05-22T15:55:40Z</time>
      </trkpt>
      <trkpt lat="45.89234" lon="6.19219">
        <ele>1136</ele>
        <time>2015-05-22T15:55:42Z</time>
      </trkpt>
      <trkpt lat="45.89234" lon="6.1922">
        <ele>1137</ele>
        <time>2015-05-22T15:55:44Z</time>
      </trkpt>
      <trkpt lat="45.89234" lon="6.1922">
        <ele>1138</ele>
        <time>2015-05-22T15:55:45Z</time>
      </trkpt>
      <trkpt lat="45.89234" lon="6.1922">
        <ele>1138</ele>
        <time>2015-05-22T15:55:46Z</time>
      </trkpt>
      <trkpt lat="45.89234" lon="6.19221">
        <ele>1139</ele>
        <time>2015-05-22T15:55:47Z</time>
      </trkpt>
      <trkpt lat="45.89234" lon="6.19222">
        <ele>1139</ele>
        <time>2015-05-22T15:55:48Z</time>
      </trkpt>
      <trkpt lat="45.89233" lon="6.19223">
        <ele>1140</ele>
        <time>2015-05-22T15:55:49Z</time>
      </trkpt>
      <trkpt lat="45.89234" lon="6.1922">
        <ele>1135</ele>
        <time>2015-05-22T15:55:50Z</time>
      </trkpt>
      <trkpt lat="45.89236" lon="6.19217">
        <ele>1133</ele>
        <time>2015-05-22T15:55:52Z</time>
      </trkpt>
      <trkpt lat="45.89237" lon="6.19217">
        <ele>1131</ele>
        <time>2015-05-22T15:55:54Z</time>
      </trkpt>
      <trkpt lat="45.89238" lon="6.19218">
        <ele>1132</ele>
        <time>2015-05-22T15:55:56Z</time>
      </trkpt>
      <trkpt lat="45.89238" lon="6.19217">
        <ele>1133</ele>
        <time>2015-05-22T15:55:58Z</time>
      </trkpt>
      <trkpt lat="45.89239" lon="6.19219">
        <ele>1134</ele>
        <time>2015-05-22T15:56:00Z</time>
      </trkpt>
      <trkpt lat="45.8924" lon="6.19221">
        <ele>1136</ele>
        <time>2015-05-22T15:56:02Z</time>
      </trkpt>
      <trkpt lat="45.89241" lon="6.19223">
        <ele>1138</ele>
        <time>2015-05-22T15:56:04Z</time>
      </trkpt>
      <trkpt lat="45.8924" lon="6.19223">
        <ele>1137</ele>
        <time>2015-05-22T15:56:05Z</time>
      </trkpt>
      <trkpt lat="45.8924" lon="6.19223">
        <ele>1137</ele>
        <time>2015-05-22T15:56:06Z</time>
      </trkpt>
      <trkpt lat="45.89241" lon="6.19223">
        <ele>1137</ele>
        <time>2015-05-22T15:56:07Z</time>
      </trkpt>
      <trkpt lat="45.89241" lon="6.19223">
        <ele>1138</ele>
        <time>2015-05-22T15:56:08Z</time>
      </trkpt>
      <trkpt lat="45.89241" lon="6.19223">
        <ele>1137</ele>
        <time>2015-05-22T15:56:09Z</time>
      </trkpt>
      <trkpt lat="45.89241" lon="6.19224">
        <ele>1139</ele>
        <time>2015-05-22T15:56:10Z</time>
      </trkpt>
      <trkpt lat="45.89242" lon="6.19225">
        <ele>1138</ele>
        <time>2015-05-22T15:56:12Z</time>
      </trkpt>
      <trkpt lat="45.89243" lon="6.19226">
        <ele>1138</ele>
        <time>2015-05-22T15:56:14Z</time>
      </trkpt>
      <trkpt lat="45.89244" lon="6.19226">
        <ele>1137</ele>
        <time>2015-05-22T15:56:16Z</time>
      </trkpt>
      <trkpt lat="45.89244" lon="6.19227">
        <ele>1137</ele>
        <time>2015-05-22T15:56:18Z</time>
      </trkpt>
      <trkpt lat="45.89244" lon="6.19226">
        <ele>1137</ele>
        <time>2015-05-22T15:56:20Z</time>
      </trkpt>
      <trkpt lat="45.89244" lon="6.19227">
        <ele>1136</ele>
        <time>2015-05-22T15:56:22Z</time>
      </trkpt>
      <trkpt lat="45.89244" lon="6.1923">
        <ele>1139</ele>
        <time>2015-05-22T15:56:24Z</time>
      </trkpt>
      <trkpt lat="45.89244" lon="6.1923">
        <ele>1139</ele>
        <time>2015-05-22T15:56:25Z</time>
      </trkpt>
      <trkpt lat="45.89245" lon="6.1923">
        <ele>1138</ele>
        <time>2015-05-22T15:56:26Z</time>
      </trkpt>
      <trkpt lat="45.89245" lon="6.19232">
        <ele>1138</ele>
        <time>2015-05-22T15:56:27Z</time>
      </trkpt>
      <trkpt lat="45.89245" lon="6.19232">
        <ele>1137</ele>
        <time>2015-05-22T15:56:28Z</time>
      </trkpt>
      <trkpt lat="45.89246" lon="6.1923">
        <ele>1134</ele>
        <time>2015-05-22T15:56:29Z</time>
      </trkpt>
      <trkpt lat="45.89246" lon="6.1923">
        <ele>1134</ele>
        <time>2015-05-22T15:56:30Z</time>
      </trkpt>
      <trkpt lat="45.89247" lon="6.1923">
        <ele>1133</ele>
        <time>2015-05-22T15:56:32Z</time>
      </trkpt>
      <trkpt lat="45.89248" lon="6.19228">
        <ele>1131</ele>
        <time>2015-05-22T15:56:34Z</time>
      </trkpt>
      <trkpt lat="45.89248" lon="6.19227">
        <ele>1131</ele>
        <time>2015-05-22T15:56:36Z</time>
      </trkpt>
      <trkpt lat="45.89249" lon="6.19228">
        <ele>1132</ele>
        <time>2015-05-22T15:56:38Z</time>
      </trkpt>
      <trkpt lat="45.89249" lon="6.19228">
        <ele>1133</ele>
        <time>2015-05-22T15:56:40Z</time>
      </trkpt>
      <trkpt lat="45.89249" lon="6.19228">
        <ele>1133</ele>
        <time>2015-05-22T15:56:42Z</time>
      </trkpt>
      <trkpt lat="45.89249" lon="6.19228">
        <ele>1133</ele>
        <time>2015-05-22T15:56:44Z</time>
      </trkpt>
      <trkpt lat="45.89249" lon="6.19228">
        <ele>1133</ele>
        <time>2015-05-22T15:56:45Z</time>
      </trkpt>
      <trkpt lat="45.89249" lon="6.19228">
        <ele>1133</ele>
        <time>2015-05-22T15:56:46Z</time>
      </trkpt>
      <trkpt lat="45.89249" lon="6.19228">
        <ele>1133</ele>
        <time>2015-05-22T15:56:47Z</time>
      </trkpt>
      <trkpt lat="45.89249" lon="6.19228">
        <ele>1133</ele>
        <time>2015-05-22T15:56:48Z</time>
      </trkpt>
      <trkpt lat="45.89249" lon="6.19228">
        <ele>1133</ele>
        <time>2015-05-22T15:56:49Z</time>
      </trkpt>
      <trkpt lat="45.89249" lon="6.19228">
        <ele>1133</ele>
        <time>2015-05-22T15:56:50Z</time>
      </trkpt>
      <trkpt lat="45.89249" lon="6.19228">
        <ele>1133</ele>
        <time>2015-05-22T15:56:52Z</time>
      </trkpt>
      <trkpt lat="45.89249" lon="6.19228">
        <ele>1133</ele>
        <time>2015-05-22T15:56:54Z</time>
      </trkpt>
      <trkpt lat="45.89249" lon="6.19228">
        <ele>1133</ele>
        <time>2015-05-22T15:56:56Z</time>
      </trkpt>
      <trkpt lat="45.89249" lon="6.19228">
        <ele>1133</ele>
        <time>2015-05-22T15:56:58Z</time>
      </trkpt>
      <trkpt lat="45.89249" lon="6.19228">
        <ele>1133</ele>
        <time>2015-05-22T15:57:00Z</time>
      </trkpt>
      <trkpt lat="45.89249" lon="6.19228">
        <ele>1133</ele>
        <time>2015-05-22T15:57:01Z</time>
      </trkpt>
      <trkpt lat="45.89249" lon="6.19228">
        <ele>1133</ele>
        <time>2015-05-22T15:57:02Z</time>
      </trkpt>
      <trkpt lat="45.89249" lon="6.19228">
        <ele>1133</ele>
        <time>2015-05-22T15:57:03Z</time>
      </trkpt>
      <trkpt lat="45.89249" lon="6.19228">
        <ele>1133</ele>
        <time>2015-05-22T15:57:04Z</time>
      </trkpt>
      <trkpt lat="45.89249" lon="6.19228">
        <ele>1133</ele>
        <time>2015-05-22T15:57:05Z</time>
      </trkpt>
      <trkpt lat="45.89249" lon="6.19228">
        <ele>1133</ele>
        <time>2015-05-22T15:57:06Z</time>
      </trkpt>
      <trkpt lat="45.89249" lon="6.19228">
        <ele>1132</ele>
        <time>2015-05-22T15:57:07Z</time>
      </trkpt>
      <trkpt lat="45.8925" lon="6.19229">
        <ele>1131</ele>
        <time>2015-05-22T15:57:08Z</time>
      </trkpt>
      <trkpt lat="45.89251" lon="6.19228">
        <ele>1132</ele>
        <time>2015-05-22T15:57:09Z</time>
      </trkpt>
      <trkpt lat="45.89252" lon="6.19228">
        <ele>1132</ele>
        <time>2015-05-22T15:57:10Z</time>
      </trkpt>
      <trkpt lat="45.89253" lon="6.19228">
        <ele>1132</ele>
        <time>2015-05-22T15:57:11Z</time>
      </trkpt>
      <trkpt lat="45.89255" lon="6.1923">
        <ele>1133</ele>
        <time>2015-05-22T15:57:13Z</time>
      </trkpt>
      <trkpt lat="45.89256" lon="6.19231">
        <ele>1132</ele>
        <time>2015-05-22T15:57:15Z</time>
      </trkpt>
      <trkpt lat="45.89257" lon="6.19229">
        <ele>1131</ele>
        <time>2015-05-22T15:57:17Z</time>
      </trkpt>
      <trkpt lat="45.89259" lon="6.19229">
        <ele>1132</ele>
        <time>2015-05-22T15:57:19Z</time>
      </trkpt>
      <trkpt lat="45.8926" lon="6.19229">
        <ele>1133</ele>
        <time>2015-05-22T15:57:21Z</time>
      </trkpt>
      <trkpt lat="45.8926" lon="6.19228">
        <ele>1133</ele>
        <time>2015-05-22T15:57:23Z</time>
      </trkpt>
      <trkpt lat="45.8926" lon="6.19228">
        <ele>1133</ele>
        <time>2015-05-22T15:57:25Z</time>
      </trkpt>
      <trkpt lat="45.8926" lon="6.19228">
        <ele>1133</ele>
        <time>2015-05-22T15:57:26Z</time>
      </trkpt>
      <trkpt lat="45.8926" lon="6.19229">
        <ele>1134</ele>
        <time>2015-05-22T15:57:27Z</time>
      </trkpt>
      <trkpt lat="45.89261" lon="6.19229">
        <ele>1134</ele>
        <time>2015-05-22T15:57:28Z</time>
      </trkpt>
      <trkpt lat="45.89262" lon="6.1923">
        <ele>1135</ele>
        <time>2015-05-22T15:57:29Z</time>
      </trkpt>
      <trkpt lat="45.89262" lon="6.1923">
        <ele>1134</ele>
        <time>2015-05-22T15:57:30Z</time>
      </trkpt>
      <trkpt lat="45.89262" lon="6.1923">
        <ele>1134</ele>
        <time>2015-05-22T15:57:31Z</time>
      </trkpt>
      <trkpt lat="45.89263" lon="6.19231">
        <ele>1134</ele>
        <time>2015-05-22T15:57:33Z</time>
      </trkpt>
      <trkpt lat="45.89264" lon="6.19232">
        <ele>1134</ele>
        <time>2015-05-22T15:57:35Z</time>
      </trkpt>
      <trkpt lat="45.89264" lon="6.19231">
        <ele>1134</ele>
        <time>2015-05-22T15:57:37Z</time>
      </trkpt>
      <trkpt lat="45.89265" lon="6.19229">
        <ele>1131</ele>
        <time>2015-05-22T15:57:39Z</time>
      </trkpt>
      <trkpt lat="45.89267" lon="6.19232">
        <ele>1131</ele>
        <time>2015-05-22T15:57:41Z</time>
      </trkpt>
      <trkpt lat="45.89266" lon="6.19232">
        <ele>1130</ele>
        <time>2015-05-22T15:57:43Z</time>
      </trkpt>
      <trkpt lat="45.89266" lon="6.19233">
        <ele>1131</ele>
        <time>2015-05-22T15:57:45Z</time>
      </trkpt>
      <trkpt lat="45.89267" lon="6.19234">
        <ele>1132</ele>
        <time>2015-05-22T15:57:46Z</time>
      </trkpt>
      <trkpt lat="45.89267" lon="6.19236">
        <ele>1133</ele>
        <time>2015-05-22T15:57:47Z</time>
      </trkpt>
      <trkpt lat="45.89266" lon="6.19236">
        <ele>1133</ele>
        <time>2015-05-22T15:57:48Z</time>
      </trkpt>
      <trkpt lat="45.89266" lon="6.19236">
        <ele>1134</ele>
        <time>2015-05-22T15:57:49Z</time>
      </trkpt>
      <trkpt lat="45.89266" lon="6.19236">
        <ele>1134</ele>
        <time>2015-05-22T15:57:50Z</time>
      </trkpt>
      <trkpt lat="45.89268" lon="6.19238">
        <ele>1136</ele>
        <time>2015-05-22T15:57:51Z</time>
      </trkpt>
      <trkpt lat="45.89267" lon="6.1924">
        <ele>1136</ele>
        <time>2015-05-22T15:57:53Z</time>
      </trkpt>
      <trkpt lat="45.89267" lon="6.1924">
        <ele>1137</ele>
        <time>2015-05-22T15:57:55Z</time>
      </trkpt>
      <trkpt lat="45.89266" lon="6.1924">
        <ele>1137</ele>
        <time>2015-05-22T15:57:57Z</time>
      </trkpt>
      <trkpt lat="45.89265" lon="6.19241">
        <ele>1138</ele>
        <time>2015-05-22T15:57:59Z</time>
      </trkpt>
      <trkpt lat="45.89265" lon="6.19241">
        <ele>1138</ele>
        <time>2015-05-22T15:58:01Z</time>
      </trkpt>
      <trkpt lat="45.89266" lon="6.19241">
        <ele>1138</ele>
        <time>2015-05-22T15:58:02Z</time>
      </trkpt>
      <trkpt lat="45.89266" lon="6.19241">
        <ele>1137</ele>
        <time>2015-05-22T15:58:03Z</time>
      </trkpt>
      <trkpt lat="45.89266" lon="6.19241">
        <ele>1137</ele>
        <time>2015-05-22T15:58:04Z</time>
      </trkpt>
      <trkpt lat="45.89266" lon="6.19241">
        <ele>1136</ele>
        <time>2015-05-22T15:58:05Z</time>
      </trkpt>
      <trkpt lat="45.89266" lon="6.1924">
        <ele>1136</ele>
        <time>2015-05-22T15:58:07Z</time>
      </trkpt>
      <trkpt lat="45.89266" lon="6.1924">
        <ele>1136</ele>
        <time>2015-05-22T15:58:08Z</time>
      </trkpt>
      <trkpt lat="45.89265" lon="6.19241">
        <ele>1136</ele>
        <time>2015-05-22T15:58:09Z</time>
      </trkpt>
      <trkpt lat="45.89265" lon="6.1924">
        <ele>1136</ele>
        <time>2015-05-22T15:58:10Z</time>
      </trkpt>
      <trkpt lat="45.89265" lon="6.1924">
        <ele>1136</ele>
        <time>2015-05-22T15:58:11Z</time>
      </trkpt>
      <trkpt lat="45.89265" lon="6.19241">
        <ele>1137</ele>
        <time>2015-05-22T15:58:13Z</time>
      </trkpt>
      <trkpt lat="45.89264" lon="6.19244">
        <ele>1139</ele>
        <time>2015-05-22T15:58:14Z</time>
      </trkpt>
      <trkpt lat="45.89263" lon="6.19243">
        <ele>1138</ele>
        <time>2015-05-22T15:58:17Z</time>
      </trkpt>
      <trkpt lat="45.89263" lon="6.19242">
        <ele>1138</ele>
        <time>2015-05-22T15:58:19Z</time>
      </trkpt>
      <trkpt lat="45.89262" lon="6.19243">
        <ele>1138</ele>
        <time>2015-05-22T15:58:21Z</time>
      </trkpt>
      <trkpt lat="45.89262" lon="6.19243">
        <ele>1138</ele>
        <time>2015-05-22T15:58:23Z</time>
      </trkpt>
      <trkpt lat="45.89261" lon="6.19243">
        <ele>1138</ele>
        <time>2015-05-22T15:58:25Z</time>
      </trkpt>
      <trkpt lat="45.89261" lon="6.19244">
        <ele>1138</ele>
        <time>2015-05-22T15:58:26Z</time>
      </trkpt>
      <trkpt lat="45.89261" lon="6.19244">
        <ele>1138</ele>
        <time>2015-05-22T15:58:27Z</time>
      </trkpt>
      <trkpt lat="45.89261" lon="6.19244">
        <ele>1138</ele>
        <time>2015-05-22T15:58:28Z</time>
      </trkpt>
      <trkpt lat="45.89263" lon="6.19244">
        <ele>1136</ele>
        <time>2015-05-22T15:58:29Z</time>
      </trkpt>
      <trkpt lat="45.89264" lon="6.19244">
        <ele>1135</ele>
        <time>2015-05-22T15:58:30Z</time>
      </trkpt>
      <trkpt lat="45.89264" lon="6.19245">
        <ele>1134</ele>
        <time>2015-05-22T15:58:31Z</time>
      </trkpt>
      <trkpt lat="45.89263" lon="6.19248">
        <ele>1133</ele>
        <time>2015-05-22T15:58:33Z</time>
      </trkpt>
      <trkpt lat="45.89262" lon="6.19247">
        <ele>1134</ele>
        <time>2015-05-22T15:58:35Z</time>
      </trkpt>
      <trkpt lat="45.89261" lon="6.19248">
        <ele>1134</ele>
        <time>2015-05-22T15:58:37Z</time>
      </trkpt>
      <trkpt lat="45.89259" lon="6.19249">
        <ele>1133</ele>
        <time>2015-05-22T15:58:39Z</time>
      </trkpt>
      <trkpt lat="45.89257" lon="6.19251">
        <ele>1132</ele>
        <time>2015-05-22T15:58:41Z</time>
      </trkpt>
      <trkpt lat="45.89255" lon="6.19255">
        <ele>1134</ele>
        <time>2015-05-22T15:58:43Z</time>
      </trkpt>
      <trkpt lat="45.89254" lon="6.19255">
        <ele>1133</ele>
        <time>2015-05-22T15:58:45Z</time>
      </trkpt>
      <trkpt lat="45.89253" lon="6.19256">
        <ele>1132</ele>
        <time>2015-05-22T15:58:46Z</time>
      </trkpt>
      <trkpt lat="45.89255" lon="6.19256">
        <ele>1133</ele>
        <time>2015-05-22T15:58:47Z</time>
      </trkpt>
      <trkpt lat="45.89256" lon="6.19256">
        <ele>1132</ele>
        <time>2015-05-22T15:58:48Z</time>
      </trkpt>
      <trkpt lat="45.89256" lon="6.19256">
        <ele>1132</ele>
        <time>2015-05-22T15:58:49Z</time>
      </trkpt>
      <trkpt lat="45.89256" lon="6.19256">
        <ele>1135</ele>
        <time>2015-05-22T15:58:50Z</time>
      </trkpt>
      <trkpt lat="45.89256" lon="6.19257">
        <ele>1135</ele>
        <time>2015-05-22T15:58:51Z</time>
      </trkpt>
      <trkpt lat="45.89256" lon="6.19257">
        <ele>1136</ele>
        <time>2015-05-22T15:58:53Z</time>
      </trkpt>
      <trkpt lat="45.89254" lon="6.19258">
        <ele>1135</ele>
        <time>2015-05-22T15:58:55Z</time>
      </trkpt>
      <trkpt lat="45.89251" lon="6.1926">
        <ele>1135</ele>
        <time>2015-05-22T15:58:57Z</time>
      </trkpt>
      <trkpt lat="45.8925" lon="6.19261">
        <ele>1134</ele>
        <time>2015-05-22T15:58:59Z</time>
      </trkpt>
      <trkpt lat="45.89248" lon="6.19263">
        <ele>1134</ele>
        <time>2015-05-22T15:59:01Z</time>
      </trkpt>
      <trkpt lat="45.89247" lon="6.19263">
        <ele>1133</ele>
        <time>2015-05-22T15:59:02Z</time>
      </trkpt>
      <trkpt lat="45.89246" lon="6.19264">
        <ele>1132</ele>
        <time>2015-05-22T15:59:03Z</time>
      </trkpt>
      <trkpt lat="45.89246" lon="6.19265">
        <ele>1132</ele>
        <time>2015-05-22T15:59:04Z</time>
      </trkpt>
      <trkpt lat="45.89245" lon="6.19266">
        <ele>1132</ele>
        <time>2015-05-22T15:59:05Z</time>
      </trkpt>
      <trkpt lat="45.89245" lon="6.19266">
        <ele>1132</ele>
        <time>2015-05-22T15:59:07Z</time>
      </trkpt>
      <trkpt lat="45.89244" lon="6.19266">
        <ele>1132</ele>
        <time>2015-05-22T15:59:08Z</time>
      </trkpt>
      <trkpt lat="45.89243" lon="6.19265">
        <ele>1131</ele>
        <time>2015-05-22T15:59:09Z</time>
      </trkpt>
      <trkpt lat="45.89241" lon="6.19265">
        <ele>1131</ele>
        <time>2015-05-22T15:59:10Z</time>
      </trkpt>
      <trkpt lat="45.8924" lon="6.19266">
        <ele>1130</ele>
        <time>2015-05-22T15:59:11Z</time>
      </trkpt>
      <trkpt lat="45.8924" lon="6.19268">
        <ele>1130</ele>
        <time>2015-05-22T15:59:13Z</time>
      </trkpt>
      <trkpt lat="45.89238" lon="6.19269">
        <ele>1129</ele>
        <time>2015-05-22T15:59:15Z</time>
      </trkpt>
      <trkpt lat="45.89238" lon="6.19269">
        <ele>1129</ele>
        <time>2015-05-22T15:59:17Z</time>
      </trkpt>
      <trkpt lat="45.89238" lon="6.19268">
        <ele>1128</ele>
        <time>2015-05-22T15:59:19Z</time>
      </trkpt>
      <trkpt lat="45.89238" lon="6.19268">
        <ele>1128</ele>
        <time>2015-05-22T15:59:21Z</time>
      </trkpt>
      <trkpt lat="45.89238" lon="6.19268">
        <ele>1127</ele>
        <time>2015-05-22T15:59:23Z</time>
      </trkpt>
      <trkpt lat="45.89238" lon="6.19268">
        <ele>1126</ele>
        <time>2015-05-22T15:59:25Z</time>
      </trkpt>
      <trkpt lat="45.89238" lon="6.19268">
        <ele>1127</ele>
        <time>2015-05-22T15:59:26Z</time>
      </trkpt>
      <trkpt lat="45.89238" lon="6.19268">
        <ele>1127</ele>
        <time>2015-05-22T15:59:27Z</time>
      </trkpt>
      <trkpt lat="45.89238" lon="6.19268">
        <ele>1127</ele>
        <time>2015-05-22T15:59:28Z</time>
      </trkpt>
      <trkpt lat="45.89238" lon="6.19269">
        <ele>1126</ele>
        <time>2015-05-22T15:59:29Z</time>
      </trkpt>
      <trkpt lat="45.89236" lon="6.19268">
        <ele>1126</ele>
        <time>2015-05-22T15:59:30Z</time>
      </trkpt>
      <trkpt lat="45.89235" lon="6.19269">
        <ele>1126</ele>
        <time>2015-05-22T15:59:31Z</time>
      </trkpt>
      <trkpt lat="45.89233" lon="6.19271">
        <ele>1126</ele>
        <time>2015-05-22T15:59:33Z</time>
      </trkpt>
      <trkpt lat="45.8923" lon="6.19273">
        <ele>1127</ele>
        <time>2015-05-22T15:59:35Z</time>
      </trkpt>
      <trkpt lat="45.89228" lon="6.19273">
        <ele>1126</ele>
        <time>2015-05-22T15:59:37Z</time>
      </trkpt>
      <trkpt lat="45.89226" lon="6.19275">
        <ele>1126</ele>
        <time>2015-05-22T15:59:39Z</time>
      </trkpt>
      <trkpt lat="45.89224" lon="6.19276">
        <ele>1126</ele>
        <time>2015-05-22T15:59:41Z</time>
      </trkpt>
      <trkpt lat="45.89224" lon="6.19277">
        <ele>1127</ele>
        <time>2015-05-22T15:59:42Z</time>
      </trkpt>
      <trkpt lat="45.89223" lon="6.19276">
        <ele>1127</ele>
        <time>2015-05-22T15:59:43Z</time>
      </trkpt>
      <trkpt lat="45.89221" lon="6.19277">
        <ele>1128</ele>
        <time>2015-05-22T15:59:44Z</time>
      </trkpt>
      <trkpt lat="45.8922" lon="6.1928">
        <ele>1131</ele>
        <time>2015-05-22T15:59:45Z</time>
      </trkpt>
      <trkpt lat="45.89218" lon="6.1928">
        <ele>1131</ele>
        <time>2015-05-22T15:59:46Z</time>
      </trkpt>
      <trkpt lat="45.89218" lon="6.1928">
        <ele>1132</ele>
        <time>2015-05-22T15:59:47Z</time>
      </trkpt>
      <trkpt lat="45.89217" lon="6.19282">
        <ele>1134</ele>
        <time>2015-05-22T15:59:48Z</time>
      </trkpt>
      <trkpt lat="45.89215" lon="6.19281">
        <ele>1132</ele>
        <time>2015-05-22T15:59:49Z</time>
      </trkpt>
      <trkpt lat="45.89215" lon="6.19281">
        <ele>1133</ele>
        <time>2015-05-22T15:59:50Z</time>
      </trkpt>
      <trkpt lat="45.89214" lon="6.19282">
        <ele>1134</ele>
        <time>2015-05-22T15:59:51Z</time>
      </trkpt>
      <trkpt lat="45.89212" lon="6.19282">
        <ele>1132</ele>
        <time>2015-05-22T15:59:53Z</time>
      </trkpt>
      <trkpt lat="45.8921" lon="6.19283">
        <ele>1130</ele>
        <time>2015-05-22T15:59:55Z</time>
      </trkpt>
      <trkpt lat="45.89208" lon="6.19283">
        <ele>1131</ele>
        <time>2015-05-22T15:59:57Z</time>
      </trkpt>
      <trkpt lat="45.89207" lon="6.19284">
        <ele>1130</ele>
        <time>2015-05-22T15:59:59Z</time>
      </trkpt>
      <trkpt lat="45.89205" lon="6.19285">
        <ele>1129</ele>
        <time>2015-05-22T16:00:01Z</time>
      </trkpt>
      <trkpt lat="45.89202" lon="6.19287">
        <ele>1130</ele>
        <time>2015-05-22T16:00:03Z</time>
      </trkpt>
      <trkpt lat="45.89201" lon="6.19288">
        <ele>1129</ele>
        <time>2015-05-22T16:00:05Z</time>
      </trkpt>
      <trkpt lat="45.892" lon="6.19288">
        <ele>1129</ele>
        <time>2015-05-22T16:00:06Z</time>
      </trkpt>
      <trkpt lat="45.89198" lon="6.19288">
        <ele>1129</ele>
        <time>2015-05-22T16:00:07Z</time>
      </trkpt>
      <trkpt lat="45.89198" lon="6.19287">
        <ele>1129</ele>
        <time>2015-05-22T16:00:08Z</time>
      </trkpt>
      <trkpt lat="45.89198" lon="6.19288">
        <ele>1130</ele>
        <time>2015-05-22T16:00:09Z</time>
      </trkpt>
      <trkpt lat="45.89198" lon="6.19288">
        <ele>1130</ele>
        <time>2015-05-22T16:00:10Z</time>
      </trkpt>
      <trkpt lat="45.89197" lon="6.19289">
        <ele>1131</ele>
        <time>2015-05-22T16:00:11Z</time>
      </trkpt>
      <trkpt lat="45.89197" lon="6.19289">
        <ele>1130</ele>
        <time>2015-05-22T16:00:12Z</time>
      </trkpt>
      <trkpt lat="45.89195" lon="6.19291">
        <ele>1133</ele>
        <time>2015-05-22T16:00:14Z</time>
      </trkpt>
      <trkpt lat="45.89193" lon="6.1929">
        <ele>1134</ele>
        <time>2015-05-22T16:00:16Z</time>
      </trkpt>
      <trkpt lat="45.8919" lon="6.19292">
        <ele>1134</ele>
        <time>2015-05-22T16:00:18Z</time>
      </trkpt>
      <trkpt lat="45.89189" lon="6.19293">
        <ele>1133</ele>
        <time>2015-05-22T16:00:20Z</time>
      </trkpt>
      <trkpt lat="45.89186" lon="6.19294">
        <ele>1132</ele>
        <time>2015-05-22T16:00:22Z</time>
      </trkpt>
      <trkpt lat="45.89185" lon="6.19295">
        <ele>1129</ele>
        <time>2015-05-22T16:00:24Z</time>
      </trkpt>
      <trkpt lat="45.89184" lon="6.19296">
        <ele>1128</ele>
        <time>2015-05-22T16:00:26Z</time>
      </trkpt>
      <trkpt lat="45.89184" lon="6.19295">
        <ele>1128</ele>
        <time>2015-05-22T16:00:27Z</time>
      </trkpt>
      <trkpt lat="45.89184" lon="6.19296">
        <ele>1129</ele>
        <time>2015-05-22T16:00:28Z</time>
      </trkpt>
      <trkpt lat="45.89183" lon="6.19296">
        <ele>1129</ele>
        <time>2015-05-22T16:00:29Z</time>
      </trkpt>
      <trkpt lat="45.89183" lon="6.19297">
        <ele>1129</ele>
        <time>2015-05-22T16:00:30Z</time>
      </trkpt>
      <trkpt lat="45.89183" lon="6.19297">
        <ele>1129</ele>
        <time>2015-05-22T16:00:31Z</time>
      </trkpt>
      <trkpt lat="45.89181" lon="6.19296">
        <ele>1129</ele>
        <time>2015-05-22T16:00:32Z</time>
      </trkpt>
      <trkpt lat="45.8918" lon="6.19298">
        <ele>1130</ele>
        <time>2015-05-22T16:00:34Z</time>
      </trkpt>
      <trkpt lat="45.89179" lon="6.19299">
        <ele>1129</ele>
        <time>2015-05-22T16:00:36Z</time>
      </trkpt>
      <trkpt lat="45.89178" lon="6.19302">
        <ele>1130</ele>
        <time>2015-05-22T16:00:38Z</time>
      </trkpt>
      <trkpt lat="45.89178" lon="6.19302">
        <ele>1125</ele>
        <time>2015-05-22T16:00:40Z</time>
      </trkpt>
      <trkpt lat="45.89177" lon="6.19304">
        <ele>1127</ele>
        <time>2015-05-22T16:00:42Z</time>
      </trkpt>
      <trkpt lat="45.89176" lon="6.19304">
        <ele>1127</ele>
        <time>2015-05-22T16:00:43Z</time>
      </trkpt>
      <trkpt lat="45.89175" lon="6.19305">
        <ele>1128</ele>
        <time>2015-05-22T16:00:44Z</time>
      </trkpt>
      <trkpt lat="45.89174" lon="6.19305">
        <ele>1128</ele>
        <time>2015-05-22T16:00:45Z</time>
      </trkpt>
      <trkpt lat="45.89173" lon="6.19306">
        <ele>1128</ele>
        <time>2015-05-22T16:00:46Z</time>
      </trkpt>
      <trkpt lat="45.89172" lon="6.19305">
        <ele>1127</ele>
        <time>2015-05-22T16:00:48Z</time>
      </trkpt>
      <trkpt lat="45.89172" lon="6.19306">
        <ele>1127</ele>
        <time>2015-05-22T16:00:49Z</time>
      </trkpt>
      <trkpt lat="45.89172" lon="6.19307">
        <ele>1128</ele>
        <time>2015-05-22T16:00:50Z</time>
      </trkpt>
      <trkpt lat="45.89171" lon="6.19308">
        <ele>1128</ele>
        <time>2015-05-22T16:00:51Z</time>
      </trkpt>
      <trkpt lat="45.89171" lon="6.19308">
        <ele>1128</ele>
        <time>2015-05-22T16:00:52Z</time>
      </trkpt>
      <trkpt lat="45.89171" lon="6.19308">
        <ele>1128</ele>
        <time>2015-05-22T16:00:54Z</time>
      </trkpt>
      <trkpt lat="45.8917" lon="6.19309">
        <ele>1128</ele>
        <time>2015-05-22T16:00:55Z</time>
      </trkpt>
      <trkpt lat="45.8917" lon="6.19309">
        <ele>1127</ele>
        <time>2015-05-22T16:00:57Z</time>
      </trkpt>
      <trkpt lat="45.89169" lon="6.1931">
        <ele>1125</ele>
        <time>2015-05-22T16:00:59Z</time>
      </trkpt>
      <trkpt lat="45.89167" lon="6.19313">
        <ele>1126</ele>
        <time>2015-05-22T16:01:01Z</time>
      </trkpt>
      <trkpt lat="45.89165" lon="6.19313">
        <ele>1128</ele>
        <time>2015-05-22T16:01:03Z</time>
      </trkpt>
      <trkpt lat="45.89164" lon="6.19313">
        <ele>1128</ele>
        <time>2015-05-22T16:01:04Z</time>
      </trkpt>
      <trkpt lat="45.89164" lon="6.19314">
        <ele>1127</ele>
        <time>2015-05-22T16:01:05Z</time>
      </trkpt>
      <trkpt lat="45.89163" lon="6.19316">
        <ele>1128</ele>
        <time>2015-05-22T16:01:06Z</time>
      </trkpt>
      <trkpt lat="45.89163" lon="6.19314">
        <ele>1126</ele>
        <time>2015-05-22T16:01:07Z</time>
      </trkpt>
      <trkpt lat="45.89162" lon="6.19314">
        <ele>1126</ele>
        <time>2015-05-22T16:01:08Z</time>
      </trkpt>
      <trkpt lat="45.89161" lon="6.19317">
        <ele>1126</ele>
        <time>2015-05-22T16:01:09Z</time>
      </trkpt>
      <trkpt lat="45.89161" lon="6.19318">
        <ele>1126</ele>
        <time>2015-05-22T16:01:10Z</time>
      </trkpt>
      <trkpt lat="45.89159" lon="6.19319">
        <ele>1126</ele>
        <time>2015-05-22T16:01:11Z</time>
      </trkpt>
      <trkpt lat="45.89159" lon="6.19319">
        <ele>1126</ele>
        <time>2015-05-22T16:01:12Z</time>
      </trkpt>
      <trkpt lat="45.89157" lon="6.1932">
        <ele>1126</ele>
        <time>2015-05-22T16:01:14Z</time>
      </trkpt>
      <trkpt lat="45.89155" lon="6.19321">
        <ele>1127</ele>
        <time>2015-05-22T16:01:15Z</time>
      </trkpt>
      <trkpt lat="45.89154" lon="6.19322">
        <ele>1127</ele>
        <time>2015-05-22T16:01:16Z</time>
      </trkpt>
      <trkpt lat="45.89153" lon="6.19324">
        <ele>1129</ele>
        <time>2015-05-22T16:01:18Z</time>
      </trkpt>
      <trkpt lat="45.89151" lon="6.19325">
        <ele>1129</ele>
        <time>2015-05-22T16:01:20Z</time>
      </trkpt>
      <trkpt lat="45.89149" lon="6.19327">
        <ele>1131</ele>
        <time>2015-05-22T16:01:22Z</time>
      </trkpt>
      <trkpt lat="45.89147" lon="6.19326">
        <ele>1130</ele>
        <time>2015-05-22T16:01:24Z</time>
      </trkpt>
      <trkpt lat="45.89145" lon="6.19325">
        <ele>1129</ele>
        <time>2015-05-22T16:01:26Z</time>
      </trkpt>
      <trkpt lat="45.89144" lon="6.19325">
        <ele>1129</ele>
        <time>2015-05-22T16:01:27Z</time>
      </trkpt>
      <trkpt lat="45.89143" lon="6.19324">
        <ele>1125</ele>
        <time>2015-05-22T16:01:28Z</time>
      </trkpt>
      <trkpt lat="45.89141" lon="6.19325">
        <ele>1127</ele>
        <time>2015-05-22T16:01:29Z</time>
      </trkpt>
      <trkpt lat="45.8914" lon="6.19325">
        <ele>1127</ele>
        <time>2015-05-22T16:01:30Z</time>
      </trkpt>
      <trkpt lat="45.89138" lon="6.19327">
        <ele>1128</ele>
        <time>2015-05-22T16:01:31Z</time>
      </trkpt>
      <trkpt lat="45.89138" lon="6.19327">
        <ele>1129</ele>
        <time>2015-05-22T16:01:32Z</time>
      </trkpt>
      <trkpt lat="45.89137" lon="6.19328">
        <ele>1126</ele>
        <time>2015-05-22T16:01:34Z</time>
      </trkpt>
      <trkpt lat="45.89136" lon="6.1933">
        <ele>1124</ele>
        <time>2015-05-22T16:01:36Z</time>
      </trkpt>
      <trkpt lat="45.89133" lon="6.19332">
        <ele>1124</ele>
        <time>2015-05-22T16:01:38Z</time>
      </trkpt>
      <trkpt lat="45.89131" lon="6.19333">
        <ele>1124</ele>
        <time>2015-05-22T16:01:40Z</time>
      </trkpt>
      <trkpt lat="45.89129" lon="6.19332">
        <ele>1123</ele>
        <time>2015-05-22T16:01:42Z</time>
      </trkpt>
      <trkpt lat="45.89129" lon="6.19332">
        <ele>1121</ele>
        <time>2015-05-22T16:01:44Z</time>
      </trkpt>
      <trkpt lat="45.8913" lon="6.19331">
        <ele>1119</ele>
        <time>2015-05-22T16:01:46Z</time>
      </trkpt>
      <trkpt lat="45.89129" lon="6.19332">
        <ele>1120</ele>
        <time>2015-05-22T16:01:47Z</time>
      </trkpt>
      <trkpt lat="45.89129" lon="6.19333">
        <ele>1120</ele>
        <time>2015-05-22T16:01:48Z</time>
      </trkpt>
      <trkpt lat="45.89129" lon="6.19333">
        <ele>1120</ele>
        <time>2015-05-22T16:01:49Z</time>
      </trkpt>
      <trkpt lat="45.89129" lon="6.19334">
        <ele>1121</ele>
        <time>2015-05-22T16:01:50Z</time>
      </trkpt>
      <trkpt lat="45.89129" lon="6.19334">
        <ele>1120</ele>
        <time>2015-05-22T16:01:51Z</time>
      </trkpt>
      <trkpt lat="45.89129" lon="6.19334">
        <ele>1119</ele>
        <time>2015-05-22T16:01:52Z</time>
      </trkpt>
      <trkpt lat="45.8913" lon="6.19334">
        <ele>1118</ele>
        <time>2015-05-22T16:01:54Z</time>
      </trkpt>
      <trkpt lat="45.8913" lon="6.19334">
        <ele>1118</ele>
        <time>2015-05-22T16:01:56Z</time>
      </trkpt>
      <trkpt lat="45.8913" lon="6.19334">
        <ele>1118</ele>
        <time>2015-05-22T16:01:58Z</time>
      </trkpt>
      <trkpt lat="45.8913" lon="6.19334">
        <ele>1118</ele>
        <time>2015-05-22T16:02:00Z</time>
      </trkpt>
      <trkpt lat="45.8913" lon="6.19334">
        <ele>1118</ele>
        <time>2015-05-22T16:02:02Z</time>
      </trkpt>
      <trkpt lat="45.8913" lon="6.19334">
        <ele>1118</ele>
        <time>2015-05-22T16:02:03Z</time>
      </trkpt>
      <trkpt lat="45.8913" lon="6.19334">
        <ele>1118</ele>
        <time>2015-05-22T16:02:04Z</time>
      </trkpt>
      <trkpt lat="45.8913" lon="6.19334">
        <ele>1118</ele>
        <time>2015-05-22T16:02:05Z</time>
      </trkpt>
      <trkpt lat="45.8913" lon="6.19334">
        <ele>1118</ele>
        <time>2015-05-22T16:02:06Z</time>
      </trkpt>
      <trkpt lat="45.8913" lon="6.19334">
        <ele>1118</ele>
        <time>2015-05-22T16:02:07Z</time>
      </trkpt>
      <trkpt lat="45.8913" lon="6.19334">
        <ele>1118</ele>
        <time>2015-05-22T16:02:08Z</time>
      </trkpt>
      <trkpt lat="45.8913" lon="6.19334">
        <ele>1118</ele>
        <time>2015-05-22T16:02:09Z</time>
      </trkpt>
      <trkpt lat="45.8913" lon="6.19334">
        <ele>1118</ele>
        <time>2015-05-22T16:02:10Z</time>
      </trkpt>
      <trkpt lat="45.8913" lon="6.19334">
        <ele>1118</ele>
        <time>2015-05-22T16:02:11Z</time>
      </trkpt>
      <trkpt lat="45.8913" lon="6.19334">
        <ele>1118</ele>
        <time>2015-05-22T16:02:12Z</time>
      </trkpt>
      <trkpt lat="45.8913" lon="6.19334">
        <ele>1118</ele>
        <time>2015-05-22T16:02:14Z</time>
      </trkpt>
      <trkpt lat="45.8913" lon="6.19334">
        <ele>1118</ele>
        <time>2015-05-22T16:02:16Z</time>
      </trkpt>
      <trkpt lat="45.89128" lon="6.19336">
        <ele>1118</ele>
        <time>2015-05-22T16:02:18Z</time>
      </trkpt>
      <trkpt lat="45.89126" lon="6.19335">
        <ele>1117</ele>
        <time>2015-05-22T16:02:20Z</time>
      </trkpt>
      <trkpt lat="45.89122" lon="6.19336">
        <ele>1118</ele>
        <time>2015-05-22T16:02:22Z</time>
      </trkpt>
      <trkpt lat="45.89119" lon="6.19337">
        <ele>1118</ele>
        <time>2015-05-22T16:02:24Z</time>
      </trkpt>
      <trkpt lat="45.89117" lon="6.19338">
        <ele>1118</ele>
        <time>2015-05-22T16:02:26Z</time>
      </trkpt>
      <trkpt lat="45.89116" lon="6.19337">
        <ele>1117</ele>
        <time>2015-05-22T16:02:27Z</time>
      </trkpt>
      <trkpt lat="45.89115" lon="6.19337">
        <ele>1117</ele>
        <time>2015-05-22T16:02:28Z</time>
      </trkpt>
      <trkpt lat="45.89114" lon="6.19339">
        <ele>1118</ele>
        <time>2015-05-22T16:02:29Z</time>
      </trkpt>
      <trkpt lat="45.89113" lon="6.19339">
        <ele>1118</ele>
        <time>2015-05-22T16:02:30Z</time>
      </trkpt>
      <trkpt lat="45.89112" lon="6.19339">
        <ele>1117</ele>
        <time>2015-05-22T16:02:31Z</time>
      </trkpt>
      <trkpt lat="45.89114" lon="6.19336">
        <ele>1113</ele>
        <time>2015-05-22T16:02:32Z</time>
      </trkpt>
      <trkpt lat="45.89113" lon="6.19337">
        <ele>1114</ele>
        <time>2015-05-22T16:02:34Z</time>
      </trkpt>
      <trkpt lat="45.89113" lon="6.19338">
        <ele>1114</ele>
        <time>2015-05-22T16:02:36Z</time>
      </trkpt>
      <trkpt lat="45.89111" lon="6.1934">
        <ele>1116</ele>
        <time>2015-05-22T16:02:38Z</time>
      </trkpt>
      <trkpt lat="45.8911" lon="6.1934">
        <ele>1117</ele>
        <time>2015-05-22T16:02:40Z</time>
      </trkpt>
      <trkpt lat="45.89107" lon="6.19344">
        <ele>1120</ele>
        <time>2015-05-22T16:02:42Z</time>
      </trkpt>
      <trkpt lat="45.89104" lon="6.19346">
        <ele>1121</ele>
        <time>2015-05-22T16:02:44Z</time>
      </trkpt>
      <trkpt lat="45.89104" lon="6.19347">
        <ele>1119</ele>
        <time>2015-05-22T16:02:46Z</time>
      </trkpt>
      <trkpt lat="45.89104" lon="6.19347">
        <ele>1120</ele>
        <time>2015-05-22T16:02:47Z</time>
      </trkpt>
      <trkpt lat="45.89103" lon="6.19349">
        <ele>1122</ele>
        <time>2015-05-22T16:02:48Z</time>
      </trkpt>
      <trkpt lat="45.89102" lon="6.19351">
        <ele>1123</ele>
        <time>2015-05-22T16:02:49Z</time>
      </trkpt>
      <trkpt lat="45.89101" lon="6.19351">
        <ele>1123</ele>
        <time>2015-05-22T16:02:50Z</time>
      </trkpt>
      <trkpt lat="45.891" lon="6.19351">
        <ele>1124</ele>
        <time>2015-05-22T16:02:51Z</time>
      </trkpt>
      <trkpt lat="45.89099" lon="6.19351">
        <ele>1125</ele>
        <time>2015-05-22T16:02:52Z</time>
      </trkpt>
      <trkpt lat="45.89097" lon="6.1935">
        <ele>1122</ele>
        <time>2015-05-22T16:02:54Z</time>
      </trkpt>
      <trkpt lat="45.89095" lon="6.19349">
        <ele>1121</ele>
        <time>2015-05-22T16:02:56Z</time>
      </trkpt>
      <trkpt lat="45.89092" lon="6.19349">
        <ele>1123</ele>
        <time>2015-05-22T16:02:58Z</time>
      </trkpt>
      <trkpt lat="45.8909" lon="6.19349">
        <ele>1122</ele>
        <time>2015-05-22T16:03:00Z</time>
      </trkpt>
      <trkpt lat="45.8909" lon="6.19349">
        <ele>1122</ele>
        <time>2015-05-22T16:03:02Z</time>
      </trkpt>
      <trkpt lat="45.89088" lon="6.19349">
        <ele>1119</ele>
        <time>2015-05-22T16:03:04Z</time>
      </trkpt>
      <trkpt lat="45.89088" lon="6.19348">
        <ele>1119</ele>
        <time>2015-05-22T16:03:06Z</time>
      </trkpt>
      <trkpt lat="45.89087" lon="6.19348">
        <ele>1119</ele>
        <time>2015-05-22T16:03:07Z</time>
      </trkpt>
      <trkpt lat="45.89087" lon="6.19349">
        <ele>1119</ele>
        <time>2015-05-22T16:03:08Z</time>
      </trkpt>
      <trkpt lat="45.89087" lon="6.19348">
        <ele>1118</ele>
        <time>2015-05-22T16:03:09Z</time>
      </trkpt>
      <trkpt lat="45.89086" lon="6.19349">
        <ele>1119</ele>
        <time>2015-05-22T16:03:10Z</time>
      </trkpt>
      <trkpt lat="45.89086" lon="6.19349">
        <ele>1120</ele>
        <time>2015-05-22T16:03:11Z</time>
      </trkpt>
      <trkpt lat="45.89086" lon="6.19349">
        <ele>1120</ele>
        <time>2015-05-22T16:03:12Z</time>
      </trkpt>
      <trkpt lat="45.89085" lon="6.19349">
        <ele>1121</ele>
        <time>2015-05-22T16:03:13Z</time>
      </trkpt>
      <trkpt lat="45.89083" lon="6.19349">
        <ele>1120</ele>
        <time>2015-05-22T16:03:15Z</time>
      </trkpt>
      <trkpt lat="45.89081" lon="6.19349">
        <ele>1120</ele>
        <time>2015-05-22T16:03:17Z</time>
      </trkpt>
      <trkpt lat="45.89078" lon="6.1935">
        <ele>1120</ele>
        <time>2015-05-22T16:03:19Z</time>
      </trkpt>
      <trkpt lat="45.89076" lon="6.19351">
        <ele>1121</ele>
        <time>2015-05-22T16:03:21Z</time>
      </trkpt>
      <trkpt lat="45.89074" lon="6.19352">
        <ele>1122</ele>
        <time>2015-05-22T16:03:23Z</time>
      </trkpt>
      <trkpt lat="45.89072" lon="6.19352">
        <ele>1121</ele>
        <time>2015-05-22T16:03:25Z</time>
      </trkpt>
      <trkpt lat="45.89071" lon="6.19352">
        <ele>1121</ele>
        <time>2015-05-22T16:03:27Z</time>
      </trkpt>
      <trkpt lat="45.89071" lon="6.19352">
        <ele>1121</ele>
        <time>2015-05-22T16:03:28Z</time>
      </trkpt>
      <trkpt lat="45.8907" lon="6.19352">
        <ele>1121</ele>
        <time>2015-05-22T16:03:29Z</time>
      </trkpt>
      <trkpt lat="45.89069" lon="6.19354">
        <ele>1122</ele>
        <time>2015-05-22T16:03:30Z</time>
      </trkpt>
      <trkpt lat="45.89068" lon="6.19355">
        <ele>1124</ele>
        <time>2015-05-22T16:03:31Z</time>
      </trkpt>
      <trkpt lat="45.89067" lon="6.19356">
        <ele>1123</ele>
        <time>2015-05-22T16:03:32Z</time>
      </trkpt>
      <trkpt lat="45.89065" lon="6.19355">
        <ele>1122</ele>
        <time>2015-05-22T16:03:33Z</time>
      </trkpt>
      <trkpt lat="45.89063" lon="6.19356">
        <ele>1120</ele>
        <time>2015-05-22T16:03:35Z</time>
      </trkpt>
      <trkpt lat="45.8906" lon="6.19356">
        <ele>1117</ele>
        <time>2015-05-22T16:03:37Z</time>
      </trkpt>
      <trkpt lat="45.89057" lon="6.19357">
        <ele>1119</ele>
        <time>2015-05-22T16:03:39Z</time>
      </trkpt>
      <trkpt lat="45.89055" lon="6.19358">
        <ele>1118</ele>
        <time>2015-05-22T16:03:41Z</time>
      </trkpt>
      <trkpt lat="45.89054" lon="6.19356">
        <ele>1117</ele>
        <time>2015-05-22T16:03:43Z</time>
      </trkpt>
      <trkpt lat="45.89053" lon="6.19357">
        <ele>1117</ele>
        <time>2015-05-22T16:03:44Z</time>
      </trkpt>
      <trkpt lat="45.89052" lon="6.19357">
        <ele>1117</ele>
        <time>2015-05-22T16:03:45Z</time>
      </trkpt>
      <trkpt lat="45.8905" lon="6.19357">
        <ele>1117</ele>
        <time>2015-05-22T16:03:46Z</time>
      </trkpt>
      <trkpt lat="45.8905" lon="6.19355">
        <ele>1115</ele>
        <time>2015-05-22T16:03:47Z</time>
      </trkpt>
      <trkpt lat="45.89049" lon="6.19355">
        <ele>1115</ele>
        <time>2015-05-22T16:03:48Z</time>
      </trkpt>
      <trkpt lat="45.89048" lon="6.19354">
        <ele>1115</ele>
        <time>2015-05-22T16:03:49Z</time>
      </trkpt>
      <trkpt lat="45.89047" lon="6.19353">
        <ele>1114</ele>
        <time>2015-05-22T16:03:50Z</time>
      </trkpt>
      <trkpt lat="45.89046" lon="6.19353">
        <ele>1115</ele>
        <time>2015-05-22T16:03:51Z</time>
      </trkpt>
      <trkpt lat="45.89045" lon="6.19351">
        <ele>1113</ele>
        <time>2015-05-22T16:03:52Z</time>
      </trkpt>
      <trkpt lat="45.89044" lon="6.19351">
        <ele>1113</ele>
        <time>2015-05-22T16:03:53Z</time>
      </trkpt>
      <trkpt lat="45.89042" lon="6.19352">
        <ele>1113</ele>
        <time>2015-05-22T16:03:55Z</time>
      </trkpt>
      <trkpt lat="45.8904" lon="6.19354">
        <ele>1113</ele>
        <time>2015-05-22T16:03:57Z</time>
      </trkpt>
      <trkpt lat="45.89037" lon="6.19354">
        <ele>1113</ele>
        <time>2015-05-22T16:03:59Z</time>
      </trkpt>
      <trkpt lat="45.89036" lon="6.19355">
        <ele>1114</ele>
        <time>2015-05-22T16:04:01Z</time>
      </trkpt>
      <trkpt lat="45.89034" lon="6.19355">
        <ele>1113</ele>
        <time>2015-05-22T16:04:03Z</time>
      </trkpt>
      <trkpt lat="45.89033" lon="6.19354">
        <ele>1113</ele>
        <time>2015-05-22T16:04:04Z</time>
      </trkpt>
      <trkpt lat="45.89032" lon="6.19354">
        <ele>1112</ele>
        <time>2015-05-22T16:04:05Z</time>
      </trkpt>
      <trkpt lat="45.89032" lon="6.19353">
        <ele>1111</ele>
        <time>2015-05-22T16:04:07Z</time>
      </trkpt>
      <trkpt lat="45.89031" lon="6.19352">
        <ele>1111</ele>
        <time>2015-05-22T16:04:08Z</time>
      </trkpt>
      <trkpt lat="45.89031" lon="6.19353">
        <ele>1112</ele>
        <time>2015-05-22T16:04:09Z</time>
      </trkpt>
      <trkpt lat="45.89031" lon="6.19353">
        <ele>1111</ele>
        <time>2015-05-22T16:04:10Z</time>
      </trkpt>
      <trkpt lat="45.89029" lon="6.19353">
        <ele>1112</ele>
        <time>2015-05-22T16:04:11Z</time>
      </trkpt>
      <trkpt lat="45.89028" lon="6.19354">
        <ele>1112</ele>
        <time>2015-05-22T16:04:12Z</time>
      </trkpt>
      <trkpt lat="45.89026" lon="6.19355">
        <ele>1115</ele>
        <time>2015-05-22T16:04:13Z</time>
      </trkpt>
      <trkpt lat="45.89025" lon="6.19355">
        <ele>1117</ele>
        <time>2015-05-22T16:04:15Z</time>
      </trkpt>
      <trkpt lat="45.89024" lon="6.19355">
        <ele>1118</ele>
        <time>2015-05-22T16:04:17Z</time>
      </trkpt>
      <trkpt lat="45.89025" lon="6.19357">
        <ele>1118</ele>
        <time>2015-05-22T16:04:19Z</time>
      </trkpt>
      <trkpt lat="45.89023" lon="6.19357">
        <ele>1119</ele>
        <time>2015-05-22T16:04:21Z</time>
      </trkpt>
      <trkpt lat="45.89022" lon="6.19358">
        <ele>1119</ele>
        <time>2015-05-22T16:04:23Z</time>
      </trkpt>
      <trkpt lat="45.89021" lon="6.19358">
        <ele>1120</ele>
        <time>2015-05-22T16:04:25Z</time>
      </trkpt>
      <trkpt lat="45.8902" lon="6.19358">
        <ele>1122</ele>
        <time>2015-05-22T16:04:27Z</time>
      </trkpt>
      <trkpt lat="45.89019" lon="6.19359">
        <ele>1122</ele>
        <time>2015-05-22T16:04:28Z</time>
      </trkpt>
      <trkpt lat="45.89018" lon="6.19359">
        <ele>1123</ele>
        <time>2015-05-22T16:04:29Z</time>
      </trkpt>
      <trkpt lat="45.89018" lon="6.19359">
        <ele>1125</ele>
        <time>2015-05-22T16:04:30Z</time>
      </trkpt>
      <trkpt lat="45.89017" lon="6.19359">
        <ele>1127</ele>
        <time>2015-05-22T16:04:31Z</time>
      </trkpt>
      <trkpt lat="45.89016" lon="6.19359">
        <ele>1128</ele>
        <time>2015-05-22T16:04:32Z</time>
      </trkpt>
      <trkpt lat="45.89015" lon="6.1936">
        <ele>1130</ele>
        <time>2015-05-22T16:04:34Z</time>
      </trkpt>
      <trkpt lat="45.89015" lon="6.1936">
        <ele>1130</ele>
        <time>2015-05-22T16:04:36Z</time>
      </trkpt>
      <trkpt lat="45.89015" lon="6.1936">
        <ele>1130</ele>
        <time>2015-05-22T16:04:38Z</time>
      </trkpt>
      <trkpt lat="45.89015" lon="6.1936">
        <ele>1130</ele>
        <time>2015-05-22T16:04:40Z</time>
      </trkpt>
      <trkpt lat="45.89015" lon="6.1936">
        <ele>1130</ele>
        <time>2015-05-22T16:04:42Z</time>
      </trkpt>
      <trkpt lat="45.89015" lon="6.1936">
        <ele>1130</ele>
        <time>2015-05-22T16:04:44Z</time>
      </trkpt>
      <trkpt lat="45.89015" lon="6.1936">
        <ele>1130</ele>
        <time>2015-05-22T16:04:45Z</time>
      </trkpt>
      <trkpt lat="45.89015" lon="6.1936">
        <ele>1130</ele>
        <time>2015-05-22T16:04:46Z</time>
      </trkpt>
      <trkpt lat="45.89015" lon="6.1936">
        <ele>1130</ele>
        <time>2015-05-22T16:04:47Z</time>
      </trkpt>
      <trkpt lat="45.89015" lon="6.1936">
        <ele>1130</ele>
        <time>2015-05-22T16:04:48Z</time>
      </trkpt>
      <trkpt lat="45.89015" lon="6.1936">
        <ele>1130</ele>
        <time>2015-05-22T16:04:49Z</time>
      </trkpt>
      <trkpt lat="45.89015" lon="6.1936">
        <ele>1130</ele>
        <time>2015-05-22T16:04:50Z</time>
      </trkpt>
      <trkpt lat="45.89015" lon="6.1936">
        <ele>1130</ele>
        <time>2015-05-22T16:04:51Z</time>
      </trkpt>
      <trkpt lat="45.89015" lon="6.1936">
        <ele>1130</ele>
        <time>2015-05-22T16:04:52Z</time>
      </trkpt>
      <trkpt lat="45.89015" lon="6.1936">
        <ele>1130</ele>
        <time>2015-05-22T16:04:53Z</time>
      </trkpt>
      <trkpt lat="45.89015" lon="6.1936">
        <ele>1130</ele>
        <time>2015-05-22T16:04:55Z</time>
      </trkpt>
      <trkpt lat="45.89012" lon="6.1936">
        <ele>1131</ele>
        <time>2015-05-22T16:04:57Z</time>
      </trkpt>
      <trkpt lat="45.89011" lon="6.19359">
        <ele>1132</ele>
        <time>2015-05-22T16:04:59Z</time>
      </trkpt>
      <trkpt lat="45.89009" lon="6.19358">
        <ele>1131</ele>
        <time>2015-05-22T16:05:01Z</time>
      </trkpt>
      <trkpt lat="45.89007" lon="6.19358">
        <ele>1132</ele>
        <time>2015-05-22T16:05:03Z</time>
      </trkpt>
      <trkpt lat="45.89006" lon="6.19357">
        <ele>1131</ele>
        <time>2015-05-22T16:05:05Z</time>
      </trkpt>
      <trkpt lat="45.89005" lon="6.19355">
        <ele>1130</ele>
        <time>2015-05-22T16:05:07Z</time>
      </trkpt>
      <trkpt lat="45.89004" lon="6.19355">
        <ele>1128</ele>
        <time>2015-05-22T16:05:08Z</time>
      </trkpt>
      <trkpt lat="45.89004" lon="6.19353">
        <ele>1125</ele>
        <time>2015-05-22T16:05:09Z</time>
      </trkpt>
      <trkpt lat="45.89003" lon="6.19352">
        <ele>1125</ele>
        <time>2015-05-22T16:05:10Z</time>
      </trkpt>
      <trkpt lat="45.89002" lon="6.19351">
        <ele>1125</ele>
        <time>2015-05-22T16:05:11Z</time>
      </trkpt>
      <trkpt lat="45.89001" lon="6.19351">
        <ele>1125</ele>
        <time>2015-05-22T16:05:12Z</time>
      </trkpt>
      <trkpt lat="45.89" lon="6.1935">
        <ele>1125</ele>
        <time>2015-05-22T16:05:13Z</time>
      </trkpt>
      <trkpt lat="45.88998" lon="6.19349">
        <ele>1127</ele>
        <time>2015-05-22T16:05:15Z</time>
      </trkpt>
      <trkpt lat="45.89001" lon="6.19349">
        <ele>1117</ele>
        <time>2015-05-22T16:05:17Z</time>
      </trkpt>
      <trkpt lat="45.89001" lon="6.19349">
        <ele>1118</ele>
        <time>2015-05-22T16:05:19Z</time>
      </trkpt>
      <trkpt lat="45.89001" lon="6.19349">
        <ele>1118</ele>
        <time>2015-05-22T16:05:21Z</time>
      </trkpt>
      <trkpt lat="45.88998" lon="6.19348">
        <ele>1118</ele>
        <time>2015-05-22T16:05:23Z</time>
      </trkpt>
      <trkpt lat="45.88998" lon="6.19347">
        <ele>1117</ele>
        <time>2015-05-22T16:05:25Z</time>
      </trkpt>
      <trkpt lat="45.88996" lon="6.19346">
        <ele>1117</ele>
        <time>2015-05-22T16:05:27Z</time>
      </trkpt>
      <trkpt lat="45.88996" lon="6.19345">
        <ele>1117</ele>
        <time>2015-05-22T16:05:28Z</time>
      </trkpt>
      <trkpt lat="45.88997" lon="6.19345">
        <ele>1115</ele>
        <time>2015-05-22T16:05:29Z</time>
      </trkpt>
      <trkpt lat="45.88997" lon="6.19344">
        <ele>1115</ele>
        <time>2015-05-22T16:05:30Z</time>
      </trkpt>
      <trkpt lat="45.88997" lon="6.19344">
        <ele>1115</ele>
        <time>2015-05-22T16:05:31Z</time>
      </trkpt>
      <trkpt lat="45.88996" lon="6.19343">
        <ele>1115</ele>
        <time>2015-05-22T16:05:32Z</time>
      </trkpt>
      <trkpt lat="45.88994" lon="6.19342">
        <ele>1115</ele>
        <time>2015-05-22T16:05:34Z</time>
      </trkpt>
      <trkpt lat="45.88994" lon="6.1934">
        <ele>1114</ele>
        <time>2015-05-22T16:05:36Z</time>
      </trkpt>
      <trkpt lat="45.88993" lon="6.1934">
        <ele>1114</ele>
        <time>2015-05-22T16:05:38Z</time>
      </trkpt>
      <trkpt lat="45.88992" lon="6.19339">
        <ele>1114</ele>
        <time>2015-05-22T16:05:40Z</time>
      </trkpt>
      <trkpt lat="45.88991" lon="6.19336">
        <ele>1114</ele>
        <time>2015-05-22T16:05:42Z</time>
      </trkpt>
      <trkpt lat="45.88988" lon="6.19334">
        <ele>1114</ele>
        <time>2015-05-22T16:05:44Z</time>
      </trkpt>
      <trkpt lat="45.88988" lon="6.19333">
        <ele>1112</ele>
        <time>2015-05-22T16:05:45Z</time>
      </trkpt>
      <trkpt lat="45.88987" lon="6.19333">
        <ele>1112</ele>
        <time>2015-05-22T16:05:46Z</time>
      </trkpt>
      <trkpt lat="45.88986" lon="6.19332">
        <ele>1112</ele>
        <time>2015-05-22T16:05:47Z</time>
      </trkpt>
      <trkpt lat="45.88987" lon="6.19331">
        <ele>1111</ele>
        <time>2015-05-22T16:05:48Z</time>
      </trkpt>
      <trkpt lat="45.88986" lon="6.19331">
        <ele>1111</ele>
        <time>2015-05-22T16:05:49Z</time>
      </trkpt>
      <trkpt lat="45.88986" lon="6.19331">
        <ele>1111</ele>
        <time>2015-05-22T16:05:50Z</time>
      </trkpt>
      <trkpt lat="45.88985" lon="6.1933">
        <ele>1110</ele>
        <time>2015-05-22T16:05:51Z</time>
      </trkpt>
      <trkpt lat="45.88986" lon="6.1933">
        <ele>1111</ele>
        <time>2015-05-22T16:05:52Z</time>
      </trkpt>
      <trkpt lat="45.88986" lon="6.1933">
        <ele>1111</ele>
        <time>2015-05-22T16:05:53Z</time>
      </trkpt>
      <trkpt lat="45.88986" lon="6.1933">
        <ele>1111</ele>
        <time>2015-05-22T16:05:55Z</time>
      </trkpt>
      <trkpt lat="45.88985" lon="6.1933">
        <ele>1111</ele>
        <time>2015-05-22T16:05:57Z</time>
      </trkpt>
      <trkpt lat="45.88985" lon="6.1933">
        <ele>1111</ele>
        <time>2015-05-22T16:05:59Z</time>
      </trkpt>
      <trkpt lat="45.88985" lon="6.1933">
        <ele>1111</ele>
        <time>2015-05-22T16:06:01Z</time>
      </trkpt>
      <trkpt lat="45.88985" lon="6.1933">
        <ele>1111</ele>
        <time>2015-05-22T16:06:03Z</time>
      </trkpt>
      <trkpt lat="45.88985" lon="6.1933">
        <ele>1111</ele>
        <time>2015-05-22T16:06:05Z</time>
      </trkpt>
      <trkpt lat="45.88985" lon="6.1933">
        <ele>1111</ele>
        <time>2015-05-22T16:06:07Z</time>
      </trkpt>
      <trkpt lat="45.88985" lon="6.1933">
        <ele>1111</ele>
        <time>2015-05-22T16:06:08Z</time>
      </trkpt>
      <trkpt lat="45.88985" lon="6.1933">
        <ele>1111</ele>
        <time>2015-05-22T16:06:09Z</time>
      </trkpt>
      <trkpt lat="45.88985" lon="6.1933">
        <ele>1111</ele>
        <time>2015-05-22T16:06:10Z</time>
      </trkpt>
      <trkpt lat="45.88985" lon="6.1933">
        <ele>1111</ele>
        <time>2015-05-22T16:06:11Z</time>
      </trkpt>
      <trkpt lat="45.88985" lon="6.1933">
        <ele>1111</ele>
        <time>2015-05-22T16:06:12Z</time>
      </trkpt>
      <trkpt lat="45.88985" lon="6.1933">
        <ele>1111</ele>
        <time>2015-05-22T16:06:13Z</time>
      </trkpt>
      <trkpt lat="45.88985" lon="6.1933">
        <ele>1111</ele>
        <time>2015-05-22T16:06:14Z</time>
      </trkpt>
      <trkpt lat="45.88985" lon="6.1933">
        <ele>1111</ele>
        <time>2015-05-22T16:06:15Z</time>
      </trkpt>
      <trkpt lat="45.88985" lon="6.1933">
        <ele>1111</ele>
        <time>2015-05-22T16:06:16Z</time>
      </trkpt>
      <trkpt lat="45.88985" lon="6.1933">
        <ele>1111</ele>
        <time>2015-05-22T16:06:17Z</time>
      </trkpt>
      <trkpt lat="45.88985" lon="6.1933">
        <ele>1111</ele>
        <time>2015-05-22T16:06:18Z</time>
      </trkpt>
      <trkpt lat="45.88985" lon="6.1933">
        <ele>1111</ele>
        <time>2015-05-22T16:06:20Z</time>
      </trkpt>
      <trkpt lat="45.88984" lon="6.19331">
        <ele>1111</ele>
        <time>2015-05-22T16:06:21Z</time>
      </trkpt>
      <trkpt lat="45.88983" lon="6.19331">
        <ele>1112</ele>
        <time>2015-05-22T16:06:23Z</time>
      </trkpt>
      <trkpt lat="45.88983" lon="6.19329">
        <ele>1110</ele>
        <time>2015-05-22T16:06:24Z</time>
      </trkpt>
      <trkpt lat="45.88983" lon="6.1933">
        <ele>1110</ele>
        <time>2015-05-22T16:06:25Z</time>
      </trkpt>
      <trkpt lat="45.88983" lon="6.19329">
        <ele>1110</ele>
        <time>2015-05-22T16:06:26Z</time>
      </trkpt>
      <trkpt lat="45.88983" lon="6.19329">
        <ele>1110</ele>
        <time>2015-05-22T16:06:28Z</time>
      </trkpt>
      <trkpt lat="45.88982" lon="6.19329">
        <ele>1111</ele>
        <time>2015-05-22T16:06:29Z</time>
      </trkpt>
      <trkpt lat="45.88982" lon="6.19329">
        <ele>1111</ele>
        <time>2015-05-22T16:06:30Z</time>
      </trkpt>
      <trkpt lat="45.88982" lon="6.19329">
        <ele>1111</ele>
        <time>2015-05-22T16:06:32Z</time>
      </trkpt>
      <trkpt lat="45.88982" lon="6.19329">
        <ele>1111</ele>
        <time>2015-05-22T16:06:33Z</time>
      </trkpt>
      <trkpt lat="45.88982" lon="6.19329">
        <ele>1111</ele>
        <time>2015-05-22T16:06:34Z</time>
      </trkpt>
      <trkpt lat="45.88981" lon="6.19329">
        <ele>1111</ele>
        <time>2015-05-22T16:06:35Z</time>
      </trkpt>
      <trkpt lat="45.88981" lon="6.19329">
        <ele>1111</ele>
        <time>2015-05-22T16:06:36Z</time>
      </trkpt>
      <trkpt lat="45.88981" lon="6.19329">
        <ele>1111</ele>
        <time>2015-05-22T16:06:38Z</time>
      </trkpt>
      <trkpt lat="45.88981" lon="6.19329">
        <ele>1111</ele>
        <time>2015-05-22T16:06:40Z</time>
      </trkpt>
      <trkpt lat="45.88981" lon="6.19329">
        <ele>1111</ele>
        <time>2015-05-22T16:06:42Z</time>
      </trkpt>
      <trkpt lat="45.88981" lon="6.1933">
        <ele>1111</ele>
        <time>2015-05-22T16:06:44Z</time>
      </trkpt>
      <trkpt lat="45.88982" lon="6.19329">
        <ele>1111</ele>
        <time>2015-05-22T16:06:46Z</time>
      </trkpt>
      <trkpt lat="45.88981" lon="6.19328">
        <ele>1110</ele>
        <time>2015-05-22T16:06:48Z</time>
      </trkpt>
      <trkpt lat="45.88981" lon="6.19327">
        <ele>1109</ele>
        <time>2015-05-22T16:06:50Z</time>
      </trkpt>
      <trkpt lat="45.88981" lon="6.19327">
        <ele>1109</ele>
        <time>2015-05-22T16:06:51Z</time>
      </trkpt>
      <trkpt lat="45.88981" lon="6.19327">
        <ele>1109</ele>
        <time>2015-05-22T16:06:52Z</time>
      </trkpt>
      <trkpt lat="45.88981" lon="6.19328">
        <ele>1108</ele>
        <time>2015-05-22T16:06:53Z</time>
      </trkpt>
      <trkpt lat="45.88981" lon="6.19327">
        <ele>1108</ele>
        <time>2015-05-22T16:06:54Z</time>
      </trkpt>
    </trkseg>
  </trk>
</gpx>